<?xml version="1.0" encoding="UTF-8"?>
<gpx version="1.1" creator="https://www.youtrack.es" xsi:schemaLocation="http://www.topografix.com/GPX/1/1 http://www.topografix.com/GPX/1/1/gpx.xsd http://www.garmin.com/xmlschemas/GpxExtensions/v3 http://www.garmin.com/xmlschemas/GpxExtensionsv3.xsd http://www.garmin.com/xmlschemas/TrackPointExtension/v1 http://www.garmin.com/xmlschemas/TrackPointExtensionv1.xsd" xmlns:gpxtpx="http://www.garmin.com/xmlschemas/TrackPointExtension/v1" xmlns:gpxx="http://www.garmin.com/xmlschemas/GpxExtensions/v3" xmlns:xsi="http://www.w3.org/2001/XMLSchema-instance">
  <metadata>
    <link href="https://www.youtrack.es">
      <text>YouTrack.es</text>
    </link>
    <time>2026-05-08T02:41:10Z</time>
  </metadata>
  <trk>
    <src>https://www.youtrack.es</src>
    <link href="https://www.youtrack.es/ruta/7854-romera">
      <text>YouTrack.es</text>
    </link>
    <trkseg>
      <trkpt lat="6.1547340" lon="-75.6077300">
        <ele>1596.5</ele>
        <time>2019-08-25T21:25:59Z</time>
      </trkpt>
      <trkpt lat="6.1546410" lon="-75.6077690">
        <ele>1596.5</ele>
        <time>2019-08-25T21:26:18Z</time>
      </trkpt>
      <trkpt lat="6.1546460" lon="-75.6077440">
        <ele>1596.4</ele>
        <time>2019-08-25T21:26:19Z</time>
      </trkpt>
      <trkpt lat="6.1546680" lon="-75.6077020">
        <ele>1596.1</ele>
        <time>2019-08-25T21:26:20Z</time>
      </trkpt>
      <trkpt lat="6.1546830" lon="-75.6076590">
        <ele>1595.7</ele>
        <time>2019-08-25T21:26:21Z</time>
      </trkpt>
      <trkpt lat="6.1546900" lon="-75.6076140">
        <ele>1594.8</ele>
        <time>2019-08-25T21:26:24Z</time>
      </trkpt>
      <trkpt lat="6.1546950" lon="-75.6076590">
        <ele>1593.5</ele>
        <time>2019-08-25T21:26:27Z</time>
      </trkpt>
      <trkpt lat="6.1546800" lon="-75.6076360">
        <ele>1592.9</ele>
        <time>2019-08-25T21:26:35Z</time>
      </trkpt>
      <trkpt lat="6.1546840" lon="-75.6075970">
        <ele>1592.2</ele>
        <time>2019-08-25T21:26:38Z</time>
      </trkpt>
      <trkpt lat="6.1546950" lon="-75.6075600">
        <ele>1591.6</ele>
        <time>2019-08-25T21:26:40Z</time>
      </trkpt>
      <trkpt lat="6.1547210" lon="-75.6075360">
        <ele>1591.2</ele>
        <time>2019-08-25T21:26:42Z</time>
      </trkpt>
      <trkpt lat="6.1547560" lon="-75.6075130">
        <ele>1590.8</ele>
        <time>2019-08-25T21:26:44Z</time>
      </trkpt>
      <trkpt lat="6.1548100" lon="-75.6074770">
        <ele>1590.0</ele>
        <time>2019-08-25T21:26:46Z</time>
      </trkpt>
      <trkpt lat="6.1548580" lon="-75.6074590">
        <ele>1589.0</ele>
        <time>2019-08-25T21:26:47Z</time>
      </trkpt>
      <trkpt lat="6.1549150" lon="-75.6074550">
        <ele>1588.3</ele>
        <time>2019-08-25T21:26:48Z</time>
      </trkpt>
      <trkpt lat="6.1549600" lon="-75.6074780">
        <ele>1587.9</ele>
        <time>2019-08-25T21:26:49Z</time>
      </trkpt>
      <trkpt lat="6.1550030" lon="-75.6075190">
        <ele>1587.6</ele>
        <time>2019-08-25T21:26:50Z</time>
      </trkpt>
      <trkpt lat="6.1550430" lon="-75.6075720">
        <ele>1587.1</ele>
        <time>2019-08-25T21:26:51Z</time>
      </trkpt>
      <trkpt lat="6.1550770" lon="-75.6076280">
        <ele>1586.2</ele>
        <time>2019-08-25T21:26:52Z</time>
      </trkpt>
      <trkpt lat="6.1551070" lon="-75.6076770">
        <ele>1585.6</ele>
        <time>2019-08-25T21:26:53Z</time>
      </trkpt>
      <trkpt lat="6.1551310" lon="-75.6077180">
        <ele>1585.2</ele>
        <time>2019-08-25T21:26:54Z</time>
      </trkpt>
      <trkpt lat="6.1551530" lon="-75.6077500">
        <ele>1585.0</ele>
        <time>2019-08-25T21:26:55Z</time>
      </trkpt>
      <trkpt lat="6.1551720" lon="-75.6077710">
        <ele>1584.7</ele>
        <time>2019-08-25T21:26:56Z</time>
      </trkpt>
      <trkpt lat="6.1552020" lon="-75.6077900">
        <ele>1584.5</ele>
        <time>2019-08-25T21:26:58Z</time>
      </trkpt>
      <trkpt lat="6.1552360" lon="-75.6078010">
        <ele>1584.2</ele>
        <time>2019-08-25T21:27:02Z</time>
      </trkpt>
      <trkpt lat="6.1552610" lon="-75.6078220">
        <ele>1584.1</ele>
        <time>2019-08-25T21:27:04Z</time>
      </trkpt>
      <trkpt lat="6.1552850" lon="-75.6078620">
        <ele>1584.0</ele>
        <time>2019-08-25T21:27:06Z</time>
      </trkpt>
      <trkpt lat="6.1552890" lon="-75.6079150">
        <ele>1583.9</ele>
        <time>2019-08-25T21:27:08Z</time>
      </trkpt>
      <trkpt lat="6.1552870" lon="-75.6079480">
        <ele>1583.9</ele>
        <time>2019-08-25T21:27:09Z</time>
      </trkpt>
      <trkpt lat="6.1552820" lon="-75.6079860">
        <ele>1583.9</ele>
        <time>2019-08-25T21:27:10Z</time>
      </trkpt>
      <trkpt lat="6.1552740" lon="-75.6080280">
        <ele>1584.7</ele>
        <time>2019-08-25T21:27:11Z</time>
      </trkpt>
      <trkpt lat="6.1552640" lon="-75.6080700">
        <ele>1585.1</ele>
        <time>2019-08-25T21:27:12Z</time>
      </trkpt>
      <trkpt lat="6.1552450" lon="-75.6081120">
        <ele>1585.4</ele>
        <time>2019-08-25T21:27:13Z</time>
      </trkpt>
      <trkpt lat="6.1552250" lon="-75.6081540">
        <ele>1585.7</ele>
        <time>2019-08-25T21:27:14Z</time>
      </trkpt>
      <trkpt lat="6.1551990" lon="-75.6081880">
        <ele>1585.9</ele>
        <time>2019-08-25T21:27:15Z</time>
      </trkpt>
      <trkpt lat="6.1551690" lon="-75.6082130">
        <ele>1586.0</ele>
        <time>2019-08-25T21:27:16Z</time>
      </trkpt>
      <trkpt lat="6.1551370" lon="-75.6082330">
        <ele>1586.1</ele>
        <time>2019-08-25T21:27:17Z</time>
      </trkpt>
      <trkpt lat="6.1551000" lon="-75.6082560">
        <ele>1586.2</ele>
        <time>2019-08-25T21:27:18Z</time>
      </trkpt>
      <trkpt lat="6.1550680" lon="-75.6082830">
        <ele>1586.3</ele>
        <time>2019-08-25T21:27:19Z</time>
      </trkpt>
      <trkpt lat="6.1550390" lon="-75.6083190">
        <ele>1586.4</ele>
        <time>2019-08-25T21:27:20Z</time>
      </trkpt>
      <trkpt lat="6.1550100" lon="-75.6083590">
        <ele>1586.6</ele>
        <time>2019-08-25T21:27:21Z</time>
      </trkpt>
      <trkpt lat="6.1549820" lon="-75.6084040">
        <ele>1586.7</ele>
        <time>2019-08-25T21:27:22Z</time>
      </trkpt>
      <trkpt lat="6.1549500" lon="-75.6084520">
        <ele>1586.9</ele>
        <time>2019-08-25T21:27:23Z</time>
      </trkpt>
      <trkpt lat="6.1549140" lon="-75.6084970">
        <ele>1587.2</ele>
        <time>2019-08-25T21:27:24Z</time>
      </trkpt>
      <trkpt lat="6.1548800" lon="-75.6085390">
        <ele>1587.4</ele>
        <time>2019-08-25T21:27:25Z</time>
      </trkpt>
      <trkpt lat="6.1548490" lon="-75.6085830">
        <ele>1587.6</ele>
        <time>2019-08-25T21:27:26Z</time>
      </trkpt>
      <trkpt lat="6.1548280" lon="-75.6086420">
        <ele>1587.9</ele>
        <time>2019-08-25T21:27:27Z</time>
      </trkpt>
      <trkpt lat="6.1548160" lon="-75.6087040">
        <ele>1586.5</ele>
        <time>2019-08-25T21:27:28Z</time>
      </trkpt>
      <trkpt lat="6.1548180" lon="-75.6087680">
        <ele>1585.5</ele>
        <time>2019-08-25T21:27:29Z</time>
      </trkpt>
      <trkpt lat="6.1548370" lon="-75.6088430">
        <ele>1584.9</ele>
        <time>2019-08-25T21:27:30Z</time>
      </trkpt>
      <trkpt lat="6.1548670" lon="-75.6089270">
        <ele>1584.2</ele>
        <time>2019-08-25T21:27:31Z</time>
      </trkpt>
      <trkpt lat="6.1549200" lon="-75.6090160">
        <ele>1583.4</ele>
        <time>2019-08-25T21:27:32Z</time>
      </trkpt>
      <trkpt lat="6.1549820" lon="-75.6091050">
        <ele>1582.4</ele>
        <time>2019-08-25T21:27:33Z</time>
      </trkpt>
      <trkpt lat="6.1550430" lon="-75.6091930">
        <ele>1581.7</ele>
        <time>2019-08-25T21:27:34Z</time>
      </trkpt>
      <trkpt lat="6.1551030" lon="-75.6092820">
        <ele>1581.0</ele>
        <time>2019-08-25T21:27:35Z</time>
      </trkpt>
      <trkpt lat="6.1552170" lon="-75.6094070">
        <ele>1580.0</ele>
        <time>2019-08-25T21:27:36Z</time>
      </trkpt>
      <trkpt lat="6.1552590" lon="-75.6094890">
        <ele>1579.4</ele>
        <time>2019-08-25T21:27:37Z</time>
      </trkpt>
      <trkpt lat="6.1553120" lon="-75.6095760">
        <ele>1578.8</ele>
        <time>2019-08-25T21:27:38Z</time>
      </trkpt>
      <trkpt lat="6.1553680" lon="-75.6096560">
        <ele>1578.3</ele>
        <time>2019-08-25T21:27:39Z</time>
      </trkpt>
      <trkpt lat="6.1553950" lon="-75.6097560">
        <ele>1577.7</ele>
        <time>2019-08-25T21:27:40Z</time>
      </trkpt>
      <trkpt lat="6.1554250" lon="-75.6098430">
        <ele>1577.3</ele>
        <time>2019-08-25T21:27:41Z</time>
      </trkpt>
      <trkpt lat="6.1555050" lon="-75.6098730">
        <ele>1577.0</ele>
        <time>2019-08-25T21:27:42Z</time>
      </trkpt>
      <trkpt lat="6.1555390" lon="-75.6099570">
        <ele>1576.7</ele>
        <time>2019-08-25T21:27:43Z</time>
      </trkpt>
      <trkpt lat="6.1555920" lon="-75.6100150">
        <ele>1576.5</ele>
        <time>2019-08-25T21:27:44Z</time>
      </trkpt>
      <trkpt lat="6.1556310" lon="-75.6100900">
        <ele>1576.3</ele>
        <time>2019-08-25T21:27:45Z</time>
      </trkpt>
      <trkpt lat="6.1556740" lon="-75.6101440">
        <ele>1576.0</ele>
        <time>2019-08-25T21:27:46Z</time>
      </trkpt>
      <trkpt lat="6.1557040" lon="-75.6102110">
        <ele>1575.7</ele>
        <time>2019-08-25T21:27:47Z</time>
      </trkpt>
      <trkpt lat="6.1556930" lon="-75.6102600">
        <ele>1575.5</ele>
        <time>2019-08-25T21:27:48Z</time>
      </trkpt>
      <trkpt lat="6.1556830" lon="-75.6103160">
        <ele>1575.7</ele>
        <time>2019-08-25T21:27:49Z</time>
      </trkpt>
      <trkpt lat="6.1556620" lon="-75.6103980">
        <ele>1576.4</ele>
        <time>2019-08-25T21:27:50Z</time>
      </trkpt>
      <trkpt lat="6.1555690" lon="-75.6104080">
        <ele>1577.0</ele>
        <time>2019-08-25T21:27:51Z</time>
      </trkpt>
      <trkpt lat="6.1555390" lon="-75.6104380">
        <ele>1577.2</ele>
        <time>2019-08-25T21:27:52Z</time>
      </trkpt>
      <trkpt lat="6.1554970" lon="-75.6104730">
        <ele>1577.5</ele>
        <time>2019-08-25T21:27:53Z</time>
      </trkpt>
      <trkpt lat="6.1554680" lon="-75.6104870">
        <ele>1577.7</ele>
        <time>2019-08-25T21:27:54Z</time>
      </trkpt>
      <trkpt lat="6.1554360" lon="-75.6105180">
        <ele>1577.9</ele>
        <time>2019-08-25T21:27:55Z</time>
      </trkpt>
      <trkpt lat="6.1554020" lon="-75.6105590">
        <ele>1578.2</ele>
        <time>2019-08-25T21:27:56Z</time>
      </trkpt>
      <trkpt lat="6.1553490" lon="-75.6105810">
        <ele>1578.5</ele>
        <time>2019-08-25T21:27:57Z</time>
      </trkpt>
      <trkpt lat="6.1552840" lon="-75.6105690">
        <ele>1578.8</ele>
        <time>2019-08-25T21:27:58Z</time>
      </trkpt>
      <trkpt lat="6.1552460" lon="-75.6105960">
        <ele>1578.9</ele>
        <time>2019-08-25T21:27:59Z</time>
      </trkpt>
      <trkpt lat="6.1552100" lon="-75.6106320">
        <ele>1579.1</ele>
        <time>2019-08-25T21:28:00Z</time>
      </trkpt>
      <trkpt lat="6.1551660" lon="-75.6106440">
        <ele>1579.3</ele>
        <time>2019-08-25T21:28:01Z</time>
      </trkpt>
      <trkpt lat="6.1551310" lon="-75.6106940">
        <ele>1579.5</ele>
        <time>2019-08-25T21:28:02Z</time>
      </trkpt>
      <trkpt lat="6.1550890" lon="-75.6107180">
        <ele>1579.7</ele>
        <time>2019-08-25T21:28:03Z</time>
      </trkpt>
      <trkpt lat="6.1550550" lon="-75.6107470">
        <ele>1579.8</ele>
        <time>2019-08-25T21:28:04Z</time>
      </trkpt>
      <trkpt lat="6.1549990" lon="-75.6107610">
        <ele>1580.0</ele>
        <time>2019-08-25T21:28:05Z</time>
      </trkpt>
      <trkpt lat="6.1549530" lon="-75.6107930">
        <ele>1580.2</ele>
        <time>2019-08-25T21:28:06Z</time>
      </trkpt>
      <trkpt lat="6.1549280" lon="-75.6108350">
        <ele>1580.3</ele>
        <time>2019-08-25T21:28:07Z</time>
      </trkpt>
      <trkpt lat="6.1548760" lon="-75.6108610">
        <ele>1580.5</ele>
        <time>2019-08-25T21:28:08Z</time>
      </trkpt>
      <trkpt lat="6.1548210" lon="-75.6108800">
        <ele>1580.7</ele>
        <time>2019-08-25T21:28:09Z</time>
      </trkpt>
      <trkpt lat="6.1547640" lon="-75.6108850">
        <ele>1580.9</ele>
        <time>2019-08-25T21:28:10Z</time>
      </trkpt>
      <trkpt lat="6.1547440" lon="-75.6109210">
        <ele>1581.0</ele>
        <time>2019-08-25T21:28:11Z</time>
      </trkpt>
      <trkpt lat="6.1547110" lon="-75.6109620">
        <ele>1580.8</ele>
        <time>2019-08-25T21:28:12Z</time>
      </trkpt>
      <trkpt lat="6.1546760" lon="-75.6109970">
        <ele>1580.7</ele>
        <time>2019-08-25T21:28:13Z</time>
      </trkpt>
      <trkpt lat="6.1546290" lon="-75.6110220">
        <ele>1580.5</ele>
        <time>2019-08-25T21:28:14Z</time>
      </trkpt>
      <trkpt lat="6.1545910" lon="-75.6110630">
        <ele>1580.3</ele>
        <time>2019-08-25T21:28:15Z</time>
      </trkpt>
      <trkpt lat="6.1545790" lon="-75.6110970">
        <ele>1580.1</ele>
        <time>2019-08-25T21:28:16Z</time>
      </trkpt>
      <trkpt lat="6.1545180" lon="-75.6111020">
        <ele>1579.9</ele>
        <time>2019-08-25T21:28:17Z</time>
      </trkpt>
      <trkpt lat="6.1544680" lon="-75.6111190">
        <ele>1579.6</ele>
        <time>2019-08-25T21:28:18Z</time>
      </trkpt>
      <trkpt lat="6.1544220" lon="-75.6111520">
        <ele>1579.4</ele>
        <time>2019-08-25T21:28:19Z</time>
      </trkpt>
      <trkpt lat="6.1544080" lon="-75.6111930">
        <ele>1579.2</ele>
        <time>2019-08-25T21:28:20Z</time>
      </trkpt>
      <trkpt lat="6.1543430" lon="-75.6112540">
        <ele>1579.0</ele>
        <time>2019-08-25T21:28:22Z</time>
      </trkpt>
      <trkpt lat="6.1543070" lon="-75.6113560">
        <ele>1578.7</ele>
        <time>2019-08-25T21:28:23Z</time>
      </trkpt>
      <trkpt lat="6.1542740" lon="-75.6113670">
        <ele>1578.6</ele>
        <time>2019-08-25T21:28:24Z</time>
      </trkpt>
      <trkpt lat="6.1542220" lon="-75.6113820">
        <ele>1578.4</ele>
        <time>2019-08-25T21:28:25Z</time>
      </trkpt>
      <trkpt lat="6.1541760" lon="-75.6113960">
        <ele>1578.3</ele>
        <time>2019-08-25T21:28:26Z</time>
      </trkpt>
      <trkpt lat="6.1541260" lon="-75.6114070">
        <ele>1578.1</ele>
        <time>2019-08-25T21:28:27Z</time>
      </trkpt>
      <trkpt lat="6.1541160" lon="-75.6114510">
        <ele>1578.0</ele>
        <time>2019-08-25T21:28:28Z</time>
      </trkpt>
      <trkpt lat="6.1540810" lon="-75.6114770">
        <ele>1577.9</ele>
        <time>2019-08-25T21:28:29Z</time>
      </trkpt>
      <trkpt lat="6.1540690" lon="-75.6115210">
        <ele>1577.7</ele>
        <time>2019-08-25T21:28:30Z</time>
      </trkpt>
      <trkpt lat="6.1540420" lon="-75.6115620">
        <ele>1577.6</ele>
        <time>2019-08-25T21:28:31Z</time>
      </trkpt>
      <trkpt lat="6.1540240" lon="-75.6116010">
        <ele>1577.3</ele>
        <time>2019-08-25T21:28:32Z</time>
      </trkpt>
      <trkpt lat="6.1540150" lon="-75.6116480">
        <ele>1577.6</ele>
        <time>2019-08-25T21:28:33Z</time>
      </trkpt>
      <trkpt lat="6.1540160" lon="-75.6116950">
        <ele>1577.9</ele>
        <time>2019-08-25T21:28:34Z</time>
      </trkpt>
      <trkpt lat="6.1539760" lon="-75.6117070">
        <ele>1578.2</ele>
        <time>2019-08-25T21:28:35Z</time>
      </trkpt>
      <trkpt lat="6.1539550" lon="-75.6117810">
        <ele>1578.8</ele>
        <time>2019-08-25T21:28:36Z</time>
      </trkpt>
      <trkpt lat="6.1539400" lon="-75.6118390">
        <ele>1579.3</ele>
        <time>2019-08-25T21:28:37Z</time>
      </trkpt>
      <trkpt lat="6.1539150" lon="-75.6119040">
        <ele>1579.4</ele>
        <time>2019-08-25T21:28:38Z</time>
      </trkpt>
      <trkpt lat="6.1538940" lon="-75.6119590">
        <ele>1579.5</ele>
        <time>2019-08-25T21:28:39Z</time>
      </trkpt>
      <trkpt lat="6.1538610" lon="-75.6120260">
        <ele>1579.5</ele>
        <time>2019-08-25T21:28:40Z</time>
      </trkpt>
      <trkpt lat="6.1538630" lon="-75.6120660">
        <ele>1579.5</ele>
        <time>2019-08-25T21:28:41Z</time>
      </trkpt>
      <trkpt lat="6.1538380" lon="-75.6121250">
        <ele>1579.5</ele>
        <time>2019-08-25T21:28:42Z</time>
      </trkpt>
      <trkpt lat="6.1538280" lon="-75.6121730">
        <ele>1579.5</ele>
        <time>2019-08-25T21:28:43Z</time>
      </trkpt>
      <trkpt lat="6.1538030" lon="-75.6122210">
        <ele>1579.5</ele>
        <time>2019-08-25T21:28:44Z</time>
      </trkpt>
      <trkpt lat="6.1537950" lon="-75.6122610">
        <ele>1579.5</ele>
        <time>2019-08-25T21:28:45Z</time>
      </trkpt>
      <trkpt lat="6.1537860" lon="-75.6122930">
        <ele>1579.5</ele>
        <time>2019-08-25T21:28:46Z</time>
      </trkpt>
      <trkpt lat="6.1537740" lon="-75.6123380">
        <ele>1579.4</ele>
        <time>2019-08-25T21:28:47Z</time>
      </trkpt>
      <trkpt lat="6.1537590" lon="-75.6123830">
        <ele>1579.4</ele>
        <time>2019-08-25T21:28:48Z</time>
      </trkpt>
      <trkpt lat="6.1537420" lon="-75.6124240">
        <ele>1579.3</ele>
        <time>2019-08-25T21:28:49Z</time>
      </trkpt>
      <trkpt lat="6.1537360" lon="-75.6124680">
        <ele>1579.3</ele>
        <time>2019-08-25T21:28:50Z</time>
      </trkpt>
      <trkpt lat="6.1537180" lon="-75.6125120">
        <ele>1579.3</ele>
        <time>2019-08-25T21:28:51Z</time>
      </trkpt>
      <trkpt lat="6.1536940" lon="-75.6125520">
        <ele>1579.2</ele>
        <time>2019-08-25T21:28:52Z</time>
      </trkpt>
      <trkpt lat="6.1536710" lon="-75.6125970">
        <ele>1579.2</ele>
        <time>2019-08-25T21:28:53Z</time>
      </trkpt>
      <trkpt lat="6.1536590" lon="-75.6126380">
        <ele>1579.2</ele>
        <time>2019-08-25T21:28:54Z</time>
      </trkpt>
      <trkpt lat="6.1536350" lon="-75.6126880">
        <ele>1579.1</ele>
        <time>2019-08-25T21:28:55Z</time>
      </trkpt>
      <trkpt lat="6.1535920" lon="-75.6127180">
        <ele>1579.1</ele>
        <time>2019-08-25T21:28:56Z</time>
      </trkpt>
      <trkpt lat="6.1535580" lon="-75.6127420">
        <ele>1579.1</ele>
        <time>2019-08-25T21:28:57Z</time>
      </trkpt>
      <trkpt lat="6.1535180" lon="-75.6127910">
        <ele>1579.0</ele>
        <time>2019-08-25T21:28:58Z</time>
      </trkpt>
      <trkpt lat="6.1534960" lon="-75.6128390">
        <ele>1579.0</ele>
        <time>2019-08-25T21:28:59Z</time>
      </trkpt>
      <trkpt lat="6.1534690" lon="-75.6128820">
        <ele>1579.0</ele>
        <time>2019-08-25T21:29:00Z</time>
      </trkpt>
      <trkpt lat="6.1534310" lon="-75.6129120">
        <ele>1579.3</ele>
        <time>2019-08-25T21:29:01Z</time>
      </trkpt>
      <trkpt lat="6.1534110" lon="-75.6129380">
        <ele>1579.4</ele>
        <time>2019-08-25T21:29:02Z</time>
      </trkpt>
      <trkpt lat="6.1533780" lon="-75.6129680">
        <ele>1579.6</ele>
        <time>2019-08-25T21:29:03Z</time>
      </trkpt>
      <trkpt lat="6.1533290" lon="-75.6129920">
        <ele>1580.0</ele>
        <time>2019-08-25T21:29:04Z</time>
      </trkpt>
      <trkpt lat="6.1532890" lon="-75.6130250">
        <ele>1580.4</ele>
        <time>2019-08-25T21:29:05Z</time>
      </trkpt>
      <trkpt lat="6.1532590" lon="-75.6130670">
        <ele>1580.7</ele>
        <time>2019-08-25T21:29:06Z</time>
      </trkpt>
      <trkpt lat="6.1532270" lon="-75.6130970">
        <ele>1581.0</ele>
        <time>2019-08-25T21:29:07Z</time>
      </trkpt>
      <trkpt lat="6.1532020" lon="-75.6131340">
        <ele>1581.2</ele>
        <time>2019-08-25T21:29:08Z</time>
      </trkpt>
      <trkpt lat="6.1531890" lon="-75.6132020">
        <ele>1581.5</ele>
        <time>2019-08-25T21:29:09Z</time>
      </trkpt>
      <trkpt lat="6.1532070" lon="-75.6132470">
        <ele>1581.7</ele>
        <time>2019-08-25T21:29:10Z</time>
      </trkpt>
      <trkpt lat="6.1532220" lon="-75.6132870">
        <ele>1581.7</ele>
        <time>2019-08-25T21:29:11Z</time>
      </trkpt>
      <trkpt lat="6.1532560" lon="-75.6133310">
        <ele>1581.5</ele>
        <time>2019-08-25T21:29:12Z</time>
      </trkpt>
      <trkpt lat="6.1532890" lon="-75.6133800">
        <ele>1581.3</ele>
        <time>2019-08-25T21:29:13Z</time>
      </trkpt>
      <trkpt lat="6.1533480" lon="-75.6133700">
        <ele>1581.1</ele>
        <time>2019-08-25T21:29:14Z</time>
      </trkpt>
      <trkpt lat="6.1533970" lon="-75.6133800">
        <ele>1580.9</ele>
        <time>2019-08-25T21:29:15Z</time>
      </trkpt>
      <trkpt lat="6.1534640" lon="-75.6133980">
        <ele>1580.4</ele>
        <time>2019-08-25T21:29:16Z</time>
      </trkpt>
      <trkpt lat="6.1535010" lon="-75.6134190">
        <ele>1580.0</ele>
        <time>2019-08-25T21:29:17Z</time>
      </trkpt>
      <trkpt lat="6.1535320" lon="-75.6134780">
        <ele>1579.4</ele>
        <time>2019-08-25T21:29:18Z</time>
      </trkpt>
      <trkpt lat="6.1535620" lon="-75.6135130">
        <ele>1578.9</ele>
        <time>2019-08-25T21:29:19Z</time>
      </trkpt>
      <trkpt lat="6.1536070" lon="-75.6135280">
        <ele>1578.8</ele>
        <time>2019-08-25T21:29:20Z</time>
      </trkpt>
      <trkpt lat="6.1536040" lon="-75.6135790">
        <ele>1579.1</ele>
        <time>2019-08-25T21:29:21Z</time>
      </trkpt>
      <trkpt lat="6.1536090" lon="-75.6136070">
        <ele>1579.2</ele>
        <time>2019-08-25T21:29:22Z</time>
      </trkpt>
      <trkpt lat="6.1535820" lon="-75.6136730">
        <ele>1579.4</ele>
        <time>2019-08-25T21:29:23Z</time>
      </trkpt>
      <trkpt lat="6.1535400" lon="-75.6137190">
        <ele>1579.6</ele>
        <time>2019-08-25T21:29:24Z</time>
      </trkpt>
      <trkpt lat="6.1535000" lon="-75.6137650">
        <ele>1579.8</ele>
        <time>2019-08-25T21:29:26Z</time>
      </trkpt>
      <trkpt lat="6.1534930" lon="-75.6137920">
        <ele>1579.9</ele>
        <time>2019-08-25T21:29:27Z</time>
      </trkpt>
      <trkpt lat="6.1534730" lon="-75.6138150">
        <ele>1580.1</ele>
        <time>2019-08-25T21:29:28Z</time>
      </trkpt>
      <trkpt lat="6.1534580" lon="-75.6138390">
        <ele>1580.2</ele>
        <time>2019-08-25T21:29:29Z</time>
      </trkpt>
      <trkpt lat="6.1534380" lon="-75.6138670">
        <ele>1580.3</ele>
        <time>2019-08-25T21:29:30Z</time>
      </trkpt>
      <trkpt lat="6.1534120" lon="-75.6138940">
        <ele>1580.4</ele>
        <time>2019-08-25T21:29:31Z</time>
      </trkpt>
      <trkpt lat="6.1533840" lon="-75.6139220">
        <ele>1580.6</ele>
        <time>2019-08-25T21:29:32Z</time>
      </trkpt>
      <trkpt lat="6.1533550" lon="-75.6139490">
        <ele>1580.8</ele>
        <time>2019-08-25T21:29:33Z</time>
      </trkpt>
      <trkpt lat="6.1533270" lon="-75.6139800">
        <ele>1580.9</ele>
        <time>2019-08-25T21:29:34Z</time>
      </trkpt>
      <trkpt lat="6.1533110" lon="-75.6140130">
        <ele>1581.1</ele>
        <time>2019-08-25T21:29:35Z</time>
      </trkpt>
      <trkpt lat="6.1533000" lon="-75.6140580">
        <ele>1581.3</ele>
        <time>2019-08-25T21:29:37Z</time>
      </trkpt>
      <trkpt lat="6.1532490" lon="-75.6140810">
        <ele>1581.6</ele>
        <time>2019-08-25T21:29:39Z</time>
      </trkpt>
      <trkpt lat="6.1532050" lon="-75.6140950">
        <ele>1581.9</ele>
        <time>2019-08-25T21:29:40Z</time>
      </trkpt>
      <trkpt lat="6.1531690" lon="-75.6141130">
        <ele>1582.2</ele>
        <time>2019-08-25T21:29:41Z</time>
      </trkpt>
      <trkpt lat="6.1531410" lon="-75.6141350">
        <ele>1582.4</ele>
        <time>2019-08-25T21:29:42Z</time>
      </trkpt>
      <trkpt lat="6.1531140" lon="-75.6141700">
        <ele>1582.5</ele>
        <time>2019-08-25T21:29:43Z</time>
      </trkpt>
      <trkpt lat="6.1530920" lon="-75.6142080">
        <ele>1582.7</ele>
        <time>2019-08-25T21:29:44Z</time>
      </trkpt>
      <trkpt lat="6.1530710" lon="-75.6142430">
        <ele>1582.8</ele>
        <time>2019-08-25T21:29:45Z</time>
      </trkpt>
      <trkpt lat="6.1530490" lon="-75.6142780">
        <ele>1582.9</ele>
        <time>2019-08-25T21:29:46Z</time>
      </trkpt>
      <trkpt lat="6.1530260" lon="-75.6143110">
        <ele>1583.1</ele>
        <time>2019-08-25T21:29:47Z</time>
      </trkpt>
      <trkpt lat="6.1530020" lon="-75.6143370">
        <ele>1583.2</ele>
        <time>2019-08-25T21:29:48Z</time>
      </trkpt>
      <trkpt lat="6.1529750" lon="-75.6143610">
        <ele>1583.3</ele>
        <time>2019-08-25T21:29:49Z</time>
      </trkpt>
      <trkpt lat="6.1529480" lon="-75.6143900">
        <ele>1583.4</ele>
        <time>2019-08-25T21:29:50Z</time>
      </trkpt>
      <trkpt lat="6.1529260" lon="-75.6144260">
        <ele>1583.5</ele>
        <time>2019-08-25T21:29:51Z</time>
      </trkpt>
      <trkpt lat="6.1529030" lon="-75.6144600">
        <ele>1583.7</ele>
        <time>2019-08-25T21:29:52Z</time>
      </trkpt>
      <trkpt lat="6.1528730" lon="-75.6144920">
        <ele>1583.9</ele>
        <time>2019-08-25T21:29:53Z</time>
      </trkpt>
      <trkpt lat="6.1528430" lon="-75.6145210">
        <ele>1584.0</ele>
        <time>2019-08-25T21:29:54Z</time>
      </trkpt>
      <trkpt lat="6.1528100" lon="-75.6145450">
        <ele>1584.1</ele>
        <time>2019-08-25T21:29:55Z</time>
      </trkpt>
      <trkpt lat="6.1527710" lon="-75.6145650">
        <ele>1584.2</ele>
        <time>2019-08-25T21:29:56Z</time>
      </trkpt>
      <trkpt lat="6.1527290" lon="-75.6145850">
        <ele>1584.3</ele>
        <time>2019-08-25T21:29:57Z</time>
      </trkpt>
      <trkpt lat="6.1526880" lon="-75.6146140">
        <ele>1584.4</ele>
        <time>2019-08-25T21:29:58Z</time>
      </trkpt>
      <trkpt lat="6.1526430" lon="-75.6146370">
        <ele>1584.5</ele>
        <time>2019-08-25T21:29:59Z</time>
      </trkpt>
      <trkpt lat="6.1526000" lon="-75.6146660">
        <ele>1584.6</ele>
        <time>2019-08-25T21:30:00Z</time>
      </trkpt>
      <trkpt lat="6.1525670" lon="-75.6146900">
        <ele>1584.7</ele>
        <time>2019-08-25T21:30:01Z</time>
      </trkpt>
      <trkpt lat="6.1525330" lon="-75.6147330">
        <ele>1584.8</ele>
        <time>2019-08-25T21:30:03Z</time>
      </trkpt>
      <trkpt lat="6.1525080" lon="-75.6147570">
        <ele>1584.9</ele>
        <time>2019-08-25T21:30:04Z</time>
      </trkpt>
      <trkpt lat="6.1524800" lon="-75.6147920">
        <ele>1585.0</ele>
        <time>2019-08-25T21:30:05Z</time>
      </trkpt>
      <trkpt lat="6.1524520" lon="-75.6148300">
        <ele>1585.0</ele>
        <time>2019-08-25T21:30:06Z</time>
      </trkpt>
      <trkpt lat="6.1524380" lon="-75.6148620">
        <ele>1585.1</ele>
        <time>2019-08-25T21:30:07Z</time>
      </trkpt>
      <trkpt lat="6.1524370" lon="-75.6149100">
        <ele>1585.2</ele>
        <time>2019-08-25T21:30:09Z</time>
      </trkpt>
      <trkpt lat="6.1524290" lon="-75.6149560">
        <ele>1585.2</ele>
        <time>2019-08-25T21:30:11Z</time>
      </trkpt>
      <trkpt lat="6.1524200" lon="-75.6149860">
        <ele>1585.3</ele>
        <time>2019-08-25T21:30:12Z</time>
      </trkpt>
      <trkpt lat="6.1524100" lon="-75.6150140">
        <ele>1585.4</ele>
        <time>2019-08-25T21:30:13Z</time>
      </trkpt>
      <trkpt lat="6.1523860" lon="-75.6150550">
        <ele>1585.6</ele>
        <time>2019-08-25T21:30:14Z</time>
      </trkpt>
      <trkpt lat="6.1523650" lon="-75.6151000">
        <ele>1585.8</ele>
        <time>2019-08-25T21:30:15Z</time>
      </trkpt>
      <trkpt lat="6.1523370" lon="-75.6151480">
        <ele>1586.0</ele>
        <time>2019-08-25T21:30:16Z</time>
      </trkpt>
      <trkpt lat="6.1523090" lon="-75.6151970">
        <ele>1586.1</ele>
        <time>2019-08-25T21:30:17Z</time>
      </trkpt>
      <trkpt lat="6.1522850" lon="-75.6152470">
        <ele>1586.3</ele>
        <time>2019-08-25T21:30:18Z</time>
      </trkpt>
      <trkpt lat="6.1522500" lon="-75.6152960">
        <ele>1586.4</ele>
        <time>2019-08-25T21:30:19Z</time>
      </trkpt>
      <trkpt lat="6.1522120" lon="-75.6153490">
        <ele>1586.6</ele>
        <time>2019-08-25T21:30:20Z</time>
      </trkpt>
      <trkpt lat="6.1521790" lon="-75.6154010">
        <ele>1586.8</ele>
        <time>2019-08-25T21:30:21Z</time>
      </trkpt>
      <trkpt lat="6.1520760" lon="-75.6155080">
        <ele>1587.3</ele>
        <time>2019-08-25T21:30:22Z</time>
      </trkpt>
      <trkpt lat="6.1520000" lon="-75.6155650">
        <ele>1587.7</ele>
        <time>2019-08-25T21:30:23Z</time>
      </trkpt>
      <trkpt lat="6.1519410" lon="-75.6155940">
        <ele>1587.9</ele>
        <time>2019-08-25T21:30:24Z</time>
      </trkpt>
      <trkpt lat="6.1518750" lon="-75.6156070">
        <ele>1588.1</ele>
        <time>2019-08-25T21:30:27Z</time>
      </trkpt>
      <trkpt lat="6.1518590" lon="-75.6156300">
        <ele>1588.2</ele>
        <time>2019-08-25T21:30:28Z</time>
      </trkpt>
      <trkpt lat="6.1518420" lon="-75.6156680">
        <ele>1588.3</ele>
        <time>2019-08-25T21:30:29Z</time>
      </trkpt>
      <trkpt lat="6.1518010" lon="-75.6157030">
        <ele>1588.4</ele>
        <time>2019-08-25T21:30:30Z</time>
      </trkpt>
      <trkpt lat="6.1517510" lon="-75.6157360">
        <ele>1588.5</ele>
        <time>2019-08-25T21:30:31Z</time>
      </trkpt>
      <trkpt lat="6.1516940" lon="-75.6157620">
        <ele>1588.6</ele>
        <time>2019-08-25T21:30:32Z</time>
      </trkpt>
      <trkpt lat="6.1516570" lon="-75.6157830">
        <ele>1588.7</ele>
        <time>2019-08-25T21:30:33Z</time>
      </trkpt>
      <trkpt lat="6.1516410" lon="-75.6158180">
        <ele>1588.7</ele>
        <time>2019-08-25T21:30:34Z</time>
      </trkpt>
      <trkpt lat="6.1516210" lon="-75.6158600">
        <ele>1588.8</ele>
        <time>2019-08-25T21:30:35Z</time>
      </trkpt>
      <trkpt lat="6.1516220" lon="-75.6159100">
        <ele>1589.1</ele>
        <time>2019-08-25T21:30:37Z</time>
      </trkpt>
      <trkpt lat="6.1516400" lon="-75.6159540">
        <ele>1589.2</ele>
        <time>2019-08-25T21:30:38Z</time>
      </trkpt>
      <trkpt lat="6.1516850" lon="-75.6160080">
        <ele>1589.5</ele>
        <time>2019-08-25T21:30:40Z</time>
      </trkpt>
      <trkpt lat="6.1517170" lon="-75.6160290">
        <ele>1589.6</ele>
        <time>2019-08-25T21:30:41Z</time>
      </trkpt>
      <trkpt lat="6.1517520" lon="-75.6160560">
        <ele>1589.7</ele>
        <time>2019-08-25T21:30:42Z</time>
      </trkpt>
      <trkpt lat="6.1517810" lon="-75.6160720">
        <ele>1589.8</ele>
        <time>2019-08-25T21:30:43Z</time>
      </trkpt>
      <trkpt lat="6.1518130" lon="-75.6160880">
        <ele>1589.9</ele>
        <time>2019-08-25T21:30:44Z</time>
      </trkpt>
      <trkpt lat="6.1518500" lon="-75.6161150">
        <ele>1590.0</ele>
        <time>2019-08-25T21:30:46Z</time>
      </trkpt>
      <trkpt lat="6.1518740" lon="-75.6161410">
        <ele>1590.1</ele>
        <time>2019-08-25T21:30:48Z</time>
      </trkpt>
      <trkpt lat="6.1518990" lon="-75.6161740">
        <ele>1590.2</ele>
        <time>2019-08-25T21:30:50Z</time>
      </trkpt>
      <trkpt lat="6.1519210" lon="-75.6162010">
        <ele>1590.2</ele>
        <time>2019-08-25T21:30:52Z</time>
      </trkpt>
      <trkpt lat="6.1519130" lon="-75.6162570">
        <ele>1590.9</ele>
        <time>2019-08-25T21:30:54Z</time>
      </trkpt>
      <trkpt lat="6.1518920" lon="-75.6162920">
        <ele>1591.2</ele>
        <time>2019-08-25T21:30:55Z</time>
      </trkpt>
      <trkpt lat="6.1518620" lon="-75.6163270">
        <ele>1591.6</ele>
        <time>2019-08-25T21:30:56Z</time>
      </trkpt>
      <trkpt lat="6.1518290" lon="-75.6163580">
        <ele>1591.7</ele>
        <time>2019-08-25T21:30:57Z</time>
      </trkpt>
      <trkpt lat="6.1517940" lon="-75.6163870">
        <ele>1591.9</ele>
        <time>2019-08-25T21:30:58Z</time>
      </trkpt>
      <trkpt lat="6.1517590" lon="-75.6164170">
        <ele>1592.0</ele>
        <time>2019-08-25T21:30:59Z</time>
      </trkpt>
      <trkpt lat="6.1517240" lon="-75.6164490">
        <ele>1592.0</ele>
        <time>2019-08-25T21:31:00Z</time>
      </trkpt>
      <trkpt lat="6.1516860" lon="-75.6164840">
        <ele>1591.9</ele>
        <time>2019-08-25T21:31:01Z</time>
      </trkpt>
      <trkpt lat="6.1516500" lon="-75.6165120">
        <ele>1591.9</ele>
        <time>2019-08-25T21:31:02Z</time>
      </trkpt>
      <trkpt lat="6.1516180" lon="-75.6165350">
        <ele>1592.0</ele>
        <time>2019-08-25T21:31:03Z</time>
      </trkpt>
      <trkpt lat="6.1515890" lon="-75.6165560">
        <ele>1592.0</ele>
        <time>2019-08-25T21:31:04Z</time>
      </trkpt>
      <trkpt lat="6.1515610" lon="-75.6165790">
        <ele>1592.0</ele>
        <time>2019-08-25T21:31:05Z</time>
      </trkpt>
      <trkpt lat="6.1515400" lon="-75.6166020">
        <ele>1592.0</ele>
        <time>2019-08-25T21:31:06Z</time>
      </trkpt>
      <trkpt lat="6.1515170" lon="-75.6166280">
        <ele>1592.2</ele>
        <time>2019-08-25T21:31:07Z</time>
      </trkpt>
      <trkpt lat="6.1514920" lon="-75.6166550">
        <ele>1592.5</ele>
        <time>2019-08-25T21:31:08Z</time>
      </trkpt>
      <trkpt lat="6.1514670" lon="-75.6166810">
        <ele>1592.8</ele>
        <time>2019-08-25T21:31:09Z</time>
      </trkpt>
      <trkpt lat="6.1514420" lon="-75.6167040">
        <ele>1593.1</ele>
        <time>2019-08-25T21:31:10Z</time>
      </trkpt>
      <trkpt lat="6.1514210" lon="-75.6167260">
        <ele>1593.3</ele>
        <time>2019-08-25T21:31:11Z</time>
      </trkpt>
      <trkpt lat="6.1513970" lon="-75.6167480">
        <ele>1593.6</ele>
        <time>2019-08-25T21:31:12Z</time>
      </trkpt>
      <trkpt lat="6.1513720" lon="-75.6167750">
        <ele>1593.8</ele>
        <time>2019-08-25T21:31:13Z</time>
      </trkpt>
      <trkpt lat="6.1513400" lon="-75.6168000">
        <ele>1594.1</ele>
        <time>2019-08-25T21:31:14Z</time>
      </trkpt>
      <trkpt lat="6.1513130" lon="-75.6168280">
        <ele>1594.3</ele>
        <time>2019-08-25T21:31:15Z</time>
      </trkpt>
      <trkpt lat="6.1512910" lon="-75.6168530">
        <ele>1594.6</ele>
        <time>2019-08-25T21:31:16Z</time>
      </trkpt>
      <trkpt lat="6.1512730" lon="-75.6168770">
        <ele>1594.7</ele>
        <time>2019-08-25T21:31:17Z</time>
      </trkpt>
      <trkpt lat="6.1512560" lon="-75.6168990">
        <ele>1594.9</ele>
        <time>2019-08-25T21:31:18Z</time>
      </trkpt>
      <trkpt lat="6.1512380" lon="-75.6169220">
        <ele>1595.0</ele>
        <time>2019-08-25T21:31:19Z</time>
      </trkpt>
      <trkpt lat="6.1512180" lon="-75.6169460">
        <ele>1595.2</ele>
        <time>2019-08-25T21:31:20Z</time>
      </trkpt>
      <trkpt lat="6.1512020" lon="-75.6169750">
        <ele>1595.4</ele>
        <time>2019-08-25T21:31:21Z</time>
      </trkpt>
      <trkpt lat="6.1511820" lon="-75.6170060">
        <ele>1595.7</ele>
        <time>2019-08-25T21:31:22Z</time>
      </trkpt>
      <trkpt lat="6.1511610" lon="-75.6170420">
        <ele>1595.6</ele>
        <time>2019-08-25T21:31:23Z</time>
      </trkpt>
      <trkpt lat="6.1511360" lon="-75.6170780">
        <ele>1595.5</ele>
        <time>2019-08-25T21:31:25Z</time>
      </trkpt>
      <trkpt lat="6.1511130" lon="-75.6170920">
        <ele>1595.5</ele>
        <time>2019-08-25T21:31:26Z</time>
      </trkpt>
      <trkpt lat="6.1510830" lon="-75.6171120">
        <ele>1595.4</ele>
        <time>2019-08-25T21:31:27Z</time>
      </trkpt>
      <trkpt lat="6.1510460" lon="-75.6171250">
        <ele>1595.3</ele>
        <time>2019-08-25T21:31:28Z</time>
      </trkpt>
      <trkpt lat="6.1510170" lon="-75.6171490">
        <ele>1595.2</ele>
        <time>2019-08-25T21:31:29Z</time>
      </trkpt>
      <trkpt lat="6.1509900" lon="-75.6171770">
        <ele>1595.1</ele>
        <time>2019-08-25T21:31:30Z</time>
      </trkpt>
      <trkpt lat="6.1509540" lon="-75.6172040">
        <ele>1594.9</ele>
        <time>2019-08-25T21:31:31Z</time>
      </trkpt>
      <trkpt lat="6.1509180" lon="-75.6172360">
        <ele>1594.8</ele>
        <time>2019-08-25T21:31:32Z</time>
      </trkpt>
      <trkpt lat="6.1508810" lon="-75.6172670">
        <ele>1594.6</ele>
        <time>2019-08-25T21:31:33Z</time>
      </trkpt>
      <trkpt lat="6.1508460" lon="-75.6173000">
        <ele>1594.5</ele>
        <time>2019-08-25T21:31:34Z</time>
      </trkpt>
      <trkpt lat="6.1508160" lon="-75.6173280">
        <ele>1594.4</ele>
        <time>2019-08-25T21:31:35Z</time>
      </trkpt>
      <trkpt lat="6.1507940" lon="-75.6173570">
        <ele>1594.3</ele>
        <time>2019-08-25T21:31:36Z</time>
      </trkpt>
      <trkpt lat="6.1507720" lon="-75.6173840">
        <ele>1594.2</ele>
        <time>2019-08-25T21:31:37Z</time>
      </trkpt>
      <trkpt lat="6.1507520" lon="-75.6174110">
        <ele>1594.1</ele>
        <time>2019-08-25T21:31:38Z</time>
      </trkpt>
      <trkpt lat="6.1507350" lon="-75.6174400">
        <ele>1594.0</ele>
        <time>2019-08-25T21:31:39Z</time>
      </trkpt>
      <trkpt lat="6.1507230" lon="-75.6174740">
        <ele>1593.5</ele>
        <time>2019-08-25T21:31:40Z</time>
      </trkpt>
      <trkpt lat="6.1507130" lon="-75.6175040">
        <ele>1593.1</ele>
        <time>2019-08-25T21:31:41Z</time>
      </trkpt>
      <trkpt lat="6.1506990" lon="-75.6175340">
        <ele>1592.6</ele>
        <time>2019-08-25T21:31:42Z</time>
      </trkpt>
      <trkpt lat="6.1506800" lon="-75.6175590">
        <ele>1592.3</ele>
        <time>2019-08-25T21:31:43Z</time>
      </trkpt>
      <trkpt lat="6.1506570" lon="-75.6175810">
        <ele>1591.9</ele>
        <time>2019-08-25T21:31:44Z</time>
      </trkpt>
      <trkpt lat="6.1506320" lon="-75.6176060">
        <ele>1591.5</ele>
        <time>2019-08-25T21:31:45Z</time>
      </trkpt>
      <trkpt lat="6.1506000" lon="-75.6176230">
        <ele>1591.5</ele>
        <time>2019-08-25T21:31:46Z</time>
      </trkpt>
      <trkpt lat="6.1505670" lon="-75.6176480">
        <ele>1591.6</ele>
        <time>2019-08-25T21:31:47Z</time>
      </trkpt>
      <trkpt lat="6.1505240" lon="-75.6176630">
        <ele>1591.6</ele>
        <time>2019-08-25T21:31:48Z</time>
      </trkpt>
      <trkpt lat="6.1504890" lon="-75.6176740">
        <ele>1591.7</ele>
        <time>2019-08-25T21:31:49Z</time>
      </trkpt>
      <trkpt lat="6.1504580" lon="-75.6176870">
        <ele>1591.7</ele>
        <time>2019-08-25T21:31:50Z</time>
      </trkpt>
      <trkpt lat="6.1504340" lon="-75.6177110">
        <ele>1592.0</ele>
        <time>2019-08-25T21:31:51Z</time>
      </trkpt>
      <trkpt lat="6.1504110" lon="-75.6177330">
        <ele>1592.3</ele>
        <time>2019-08-25T21:31:52Z</time>
      </trkpt>
      <trkpt lat="6.1503910" lon="-75.6177560">
        <ele>1592.6</ele>
        <time>2019-08-25T21:31:53Z</time>
      </trkpt>
      <trkpt lat="6.1503730" lon="-75.6177770">
        <ele>1592.6</ele>
        <time>2019-08-25T21:31:54Z</time>
      </trkpt>
      <trkpt lat="6.1503740" lon="-75.6178150">
        <ele>1592.6</ele>
        <time>2019-08-25T21:31:56Z</time>
      </trkpt>
      <trkpt lat="6.1504050" lon="-75.6178450">
        <ele>1592.7</ele>
        <time>2019-08-25T21:31:58Z</time>
      </trkpt>
      <trkpt lat="6.1504300" lon="-75.6178650">
        <ele>1592.7</ele>
        <time>2019-08-25T21:31:59Z</time>
      </trkpt>
      <trkpt lat="6.1504540" lon="-75.6178910">
        <ele>1592.7</ele>
        <time>2019-08-25T21:32:00Z</time>
      </trkpt>
      <trkpt lat="6.1504830" lon="-75.6179270">
        <ele>1592.8</ele>
        <time>2019-08-25T21:32:01Z</time>
      </trkpt>
      <trkpt lat="6.1505130" lon="-75.6179620">
        <ele>1593.0</ele>
        <time>2019-08-25T21:32:02Z</time>
      </trkpt>
      <trkpt lat="6.1505450" lon="-75.6179980">
        <ele>1593.4</ele>
        <time>2019-08-25T21:32:03Z</time>
      </trkpt>
      <trkpt lat="6.1505810" lon="-75.6180340">
        <ele>1593.8</ele>
        <time>2019-08-25T21:32:04Z</time>
      </trkpt>
      <trkpt lat="6.1506190" lon="-75.6180640">
        <ele>1594.3</ele>
        <time>2019-08-25T21:32:05Z</time>
      </trkpt>
      <trkpt lat="6.1506550" lon="-75.6180940">
        <ele>1594.7</ele>
        <time>2019-08-25T21:32:06Z</time>
      </trkpt>
      <trkpt lat="6.1506870" lon="-75.6181290">
        <ele>1595.2</ele>
        <time>2019-08-25T21:32:07Z</time>
      </trkpt>
      <trkpt lat="6.1507180" lon="-75.6181700">
        <ele>1595.4</ele>
        <time>2019-08-25T21:32:08Z</time>
      </trkpt>
      <trkpt lat="6.1507420" lon="-75.6182120">
        <ele>1595.4</ele>
        <time>2019-08-25T21:32:09Z</time>
      </trkpt>
      <trkpt lat="6.1507640" lon="-75.6182540">
        <ele>1595.3</ele>
        <time>2019-08-25T21:32:10Z</time>
      </trkpt>
      <trkpt lat="6.1507860" lon="-75.6183010">
        <ele>1595.2</ele>
        <time>2019-08-25T21:32:11Z</time>
      </trkpt>
      <trkpt lat="6.1508090" lon="-75.6183440">
        <ele>1596.2</ele>
        <time>2019-08-25T21:32:12Z</time>
      </trkpt>
      <trkpt lat="6.1508410" lon="-75.6183760">
        <ele>1596.2</ele>
        <time>2019-08-25T21:32:13Z</time>
      </trkpt>
      <trkpt lat="6.1508570" lon="-75.6184100">
        <ele>1596.2</ele>
        <time>2019-08-25T21:32:15Z</time>
      </trkpt>
      <trkpt lat="6.1508360" lon="-75.6184440">
        <ele>1595.8</ele>
        <time>2019-08-25T21:32:17Z</time>
      </trkpt>
      <trkpt lat="6.1508090" lon="-75.6184590">
        <ele>1595.7</ele>
        <time>2019-08-25T21:32:18Z</time>
      </trkpt>
      <trkpt lat="6.1507780" lon="-75.6184720">
        <ele>1595.5</ele>
        <time>2019-08-25T21:32:19Z</time>
      </trkpt>
      <trkpt lat="6.1507490" lon="-75.6184880">
        <ele>1595.4</ele>
        <time>2019-08-25T21:32:20Z</time>
      </trkpt>
      <trkpt lat="6.1507220" lon="-75.6185060">
        <ele>1595.3</ele>
        <time>2019-08-25T21:32:21Z</time>
      </trkpt>
      <trkpt lat="6.1506960" lon="-75.6185300">
        <ele>1595.1</ele>
        <time>2019-08-25T21:32:22Z</time>
      </trkpt>
      <trkpt lat="6.1506690" lon="-75.6185580">
        <ele>1595.0</ele>
        <time>2019-08-25T21:32:23Z</time>
      </trkpt>
      <trkpt lat="6.1506400" lon="-75.6185930">
        <ele>1594.8</ele>
        <time>2019-08-25T21:32:24Z</time>
      </trkpt>
      <trkpt lat="6.1506120" lon="-75.6186330">
        <ele>1594.6</ele>
        <time>2019-08-25T21:32:25Z</time>
      </trkpt>
      <trkpt lat="6.1505860" lon="-75.6186560">
        <ele>1594.4</ele>
        <time>2019-08-25T21:32:26Z</time>
      </trkpt>
      <trkpt lat="6.1505390" lon="-75.6186890">
        <ele>1594.1</ele>
        <time>2019-08-25T21:32:28Z</time>
      </trkpt>
      <trkpt lat="6.1505130" lon="-75.6187130">
        <ele>1593.9</ele>
        <time>2019-08-25T21:32:29Z</time>
      </trkpt>
      <trkpt lat="6.1504760" lon="-75.6187300">
        <ele>1593.6</ele>
        <time>2019-08-25T21:32:30Z</time>
      </trkpt>
      <trkpt lat="6.1504440" lon="-75.6187440">
        <ele>1593.5</ele>
        <time>2019-08-25T21:32:31Z</time>
      </trkpt>
      <trkpt lat="6.1504140" lon="-75.6187570">
        <ele>1593.4</ele>
        <time>2019-08-25T21:32:33Z</time>
      </trkpt>
      <trkpt lat="6.1503770" lon="-75.6187880">
        <ele>1593.2</ele>
        <time>2019-08-25T21:32:35Z</time>
      </trkpt>
      <trkpt lat="6.1503520" lon="-75.6188150">
        <ele>1593.1</ele>
        <time>2019-08-25T21:32:36Z</time>
      </trkpt>
      <trkpt lat="6.1503250" lon="-75.6188450">
        <ele>1592.9</ele>
        <time>2019-08-25T21:32:37Z</time>
      </trkpt>
      <trkpt lat="6.1502960" lon="-75.6188750">
        <ele>1592.7</ele>
        <time>2019-08-25T21:32:38Z</time>
      </trkpt>
      <trkpt lat="6.1502720" lon="-75.6189020">
        <ele>1592.5</ele>
        <time>2019-08-25T21:32:39Z</time>
      </trkpt>
      <trkpt lat="6.1502480" lon="-75.6189230">
        <ele>1592.4</ele>
        <time>2019-08-25T21:32:40Z</time>
      </trkpt>
      <trkpt lat="6.1502000" lon="-75.6189610">
        <ele>1592.1</ele>
        <time>2019-08-25T21:32:42Z</time>
      </trkpt>
      <trkpt lat="6.1501670" lon="-75.6189880">
        <ele>1591.9</ele>
        <time>2019-08-25T21:32:43Z</time>
      </trkpt>
      <trkpt lat="6.1501320" lon="-75.6190190">
        <ele>1591.7</ele>
        <time>2019-08-25T21:32:44Z</time>
      </trkpt>
      <trkpt lat="6.1500890" lon="-75.6190520">
        <ele>1591.5</ele>
        <time>2019-08-25T21:32:45Z</time>
      </trkpt>
      <trkpt lat="6.1500450" lon="-75.6190880">
        <ele>1591.2</ele>
        <time>2019-08-25T21:32:46Z</time>
      </trkpt>
      <trkpt lat="6.1500030" lon="-75.6191330">
        <ele>1591.1</ele>
        <time>2019-08-25T21:32:47Z</time>
      </trkpt>
      <trkpt lat="6.1499640" lon="-75.6191740">
        <ele>1591.2</ele>
        <time>2019-08-25T21:32:48Z</time>
      </trkpt>
      <trkpt lat="6.1499290" lon="-75.6192270">
        <ele>1591.5</ele>
        <time>2019-08-25T21:32:49Z</time>
      </trkpt>
      <trkpt lat="6.1498930" lon="-75.6192900">
        <ele>1591.7</ele>
        <time>2019-08-25T21:32:50Z</time>
      </trkpt>
      <trkpt lat="6.1498590" lon="-75.6193610">
        <ele>1592.0</ele>
        <time>2019-08-25T21:32:51Z</time>
      </trkpt>
      <trkpt lat="6.1498290" lon="-75.6194390">
        <ele>1592.4</ele>
        <time>2019-08-25T21:32:52Z</time>
      </trkpt>
      <trkpt lat="6.1497930" lon="-75.6194940">
        <ele>1592.5</ele>
        <time>2019-08-25T21:32:53Z</time>
      </trkpt>
      <trkpt lat="6.1497630" lon="-75.6195540">
        <ele>1592.4</ele>
        <time>2019-08-25T21:32:54Z</time>
      </trkpt>
      <trkpt lat="6.1497300" lon="-75.6195990">
        <ele>1592.1</ele>
        <time>2019-08-25T21:32:55Z</time>
      </trkpt>
      <trkpt lat="6.1496950" lon="-75.6196330">
        <ele>1591.8</ele>
        <time>2019-08-25T21:32:56Z</time>
      </trkpt>
      <trkpt lat="6.1496600" lon="-75.6196570">
        <ele>1591.8</ele>
        <time>2019-08-25T21:32:57Z</time>
      </trkpt>
      <trkpt lat="6.1496230" lon="-75.6196790">
        <ele>1591.8</ele>
        <time>2019-08-25T21:32:58Z</time>
      </trkpt>
      <trkpt lat="6.1495780" lon="-75.6197050">
        <ele>1591.8</ele>
        <time>2019-08-25T21:32:59Z</time>
      </trkpt>
      <trkpt lat="6.1495300" lon="-75.6197350">
        <ele>1591.9</ele>
        <time>2019-08-25T21:33:00Z</time>
      </trkpt>
      <trkpt lat="6.1494760" lon="-75.6197620">
        <ele>1591.9</ele>
        <time>2019-08-25T21:33:01Z</time>
      </trkpt>
      <trkpt lat="6.1494220" lon="-75.6197870">
        <ele>1592.0</ele>
        <time>2019-08-25T21:33:02Z</time>
      </trkpt>
      <trkpt lat="6.1493770" lon="-75.6198120">
        <ele>1592.0</ele>
        <time>2019-08-25T21:33:03Z</time>
      </trkpt>
      <trkpt lat="6.1493370" lon="-75.6198400">
        <ele>1592.0</ele>
        <time>2019-08-25T21:33:04Z</time>
      </trkpt>
      <trkpt lat="6.1493050" lon="-75.6198700">
        <ele>1592.0</ele>
        <time>2019-08-25T21:33:05Z</time>
      </trkpt>
      <trkpt lat="6.1492720" lon="-75.6198960">
        <ele>1592.0</ele>
        <time>2019-08-25T21:33:06Z</time>
      </trkpt>
      <trkpt lat="6.1492310" lon="-75.6199180">
        <ele>1592.1</ele>
        <time>2019-08-25T21:33:07Z</time>
      </trkpt>
      <trkpt lat="6.1491830" lon="-75.6199230">
        <ele>1592.1</ele>
        <time>2019-08-25T21:33:08Z</time>
      </trkpt>
      <trkpt lat="6.1491400" lon="-75.6199320">
        <ele>1592.2</ele>
        <time>2019-08-25T21:33:09Z</time>
      </trkpt>
      <trkpt lat="6.1491020" lon="-75.6199450">
        <ele>1592.3</ele>
        <time>2019-08-25T21:33:10Z</time>
      </trkpt>
      <trkpt lat="6.1490720" lon="-75.6199670">
        <ele>1592.4</ele>
        <time>2019-08-25T21:33:11Z</time>
      </trkpt>
      <trkpt lat="6.1490430" lon="-75.6199920">
        <ele>1592.6</ele>
        <time>2019-08-25T21:33:12Z</time>
      </trkpt>
      <trkpt lat="6.1490160" lon="-75.6200230">
        <ele>1593.0</ele>
        <time>2019-08-25T21:33:13Z</time>
      </trkpt>
      <trkpt lat="6.1489970" lon="-75.6200590">
        <ele>1593.4</ele>
        <time>2019-08-25T21:33:14Z</time>
      </trkpt>
      <trkpt lat="6.1489770" lon="-75.6200920">
        <ele>1593.8</ele>
        <time>2019-08-25T21:33:15Z</time>
      </trkpt>
      <trkpt lat="6.1489530" lon="-75.6201260">
        <ele>1594.3</ele>
        <time>2019-08-25T21:33:16Z</time>
      </trkpt>
      <trkpt lat="6.1489210" lon="-75.6201610">
        <ele>1594.7</ele>
        <time>2019-08-25T21:33:17Z</time>
      </trkpt>
      <trkpt lat="6.1488920" lon="-75.6201970">
        <ele>1595.1</ele>
        <time>2019-08-25T21:33:18Z</time>
      </trkpt>
      <trkpt lat="6.1488560" lon="-75.6202330">
        <ele>1595.5</ele>
        <time>2019-08-25T21:33:19Z</time>
      </trkpt>
      <trkpt lat="6.1488160" lon="-75.6202730">
        <ele>1595.9</ele>
        <time>2019-08-25T21:33:20Z</time>
      </trkpt>
      <trkpt lat="6.1487750" lon="-75.6203100">
        <ele>1596.2</ele>
        <time>2019-08-25T21:33:21Z</time>
      </trkpt>
      <trkpt lat="6.1487350" lon="-75.6203460">
        <ele>1596.5</ele>
        <time>2019-08-25T21:33:22Z</time>
      </trkpt>
      <trkpt lat="6.1486960" lon="-75.6203790">
        <ele>1596.7</ele>
        <time>2019-08-25T21:33:23Z</time>
      </trkpt>
      <trkpt lat="6.1486590" lon="-75.6204110">
        <ele>1596.8</ele>
        <time>2019-08-25T21:33:24Z</time>
      </trkpt>
      <trkpt lat="6.1486240" lon="-75.6204430">
        <ele>1597.0</ele>
        <time>2019-08-25T21:33:25Z</time>
      </trkpt>
      <trkpt lat="6.1485880" lon="-75.6204780">
        <ele>1597.1</ele>
        <time>2019-08-25T21:33:26Z</time>
      </trkpt>
      <trkpt lat="6.1485610" lon="-75.6205150">
        <ele>1597.1</ele>
        <time>2019-08-25T21:33:27Z</time>
      </trkpt>
      <trkpt lat="6.1485420" lon="-75.6205530">
        <ele>1597.0</ele>
        <time>2019-08-25T21:33:28Z</time>
      </trkpt>
      <trkpt lat="6.1485270" lon="-75.6205940">
        <ele>1597.0</ele>
        <time>2019-08-25T21:33:29Z</time>
      </trkpt>
      <trkpt lat="6.1485240" lon="-75.6206340">
        <ele>1597.0</ele>
        <time>2019-08-25T21:33:30Z</time>
      </trkpt>
      <trkpt lat="6.1485190" lon="-75.6206680">
        <ele>1597.0</ele>
        <time>2019-08-25T21:33:31Z</time>
      </trkpt>
      <trkpt lat="6.1485080" lon="-75.6207040">
        <ele>1597.0</ele>
        <time>2019-08-25T21:33:32Z</time>
      </trkpt>
      <trkpt lat="6.1484920" lon="-75.6207410">
        <ele>1597.0</ele>
        <time>2019-08-25T21:33:33Z</time>
      </trkpt>
      <trkpt lat="6.1484680" lon="-75.6207800">
        <ele>1597.4</ele>
        <time>2019-08-25T21:33:34Z</time>
      </trkpt>
      <trkpt lat="6.1484380" lon="-75.6208140">
        <ele>1597.7</ele>
        <time>2019-08-25T21:33:35Z</time>
      </trkpt>
      <trkpt lat="6.1483980" lon="-75.6208420">
        <ele>1597.8</ele>
        <time>2019-08-25T21:33:36Z</time>
      </trkpt>
      <trkpt lat="6.1483590" lon="-75.6208710">
        <ele>1597.8</ele>
        <time>2019-08-25T21:33:37Z</time>
      </trkpt>
      <trkpt lat="6.1483200" lon="-75.6208950">
        <ele>1598.0</ele>
        <time>2019-08-25T21:33:38Z</time>
      </trkpt>
      <trkpt lat="6.1482890" lon="-75.6209140">
        <ele>1597.8</ele>
        <time>2019-08-25T21:33:39Z</time>
      </trkpt>
      <trkpt lat="6.1482600" lon="-75.6209270">
        <ele>1598.0</ele>
        <time>2019-08-25T21:33:40Z</time>
      </trkpt>
      <trkpt lat="6.1482220" lon="-75.6209400">
        <ele>1598.4</ele>
        <time>2019-08-25T21:33:41Z</time>
      </trkpt>
      <trkpt lat="6.1481790" lon="-75.6209620">
        <ele>1598.8</ele>
        <time>2019-08-25T21:33:42Z</time>
      </trkpt>
      <trkpt lat="6.1481290" lon="-75.6209830">
        <ele>1599.4</ele>
        <time>2019-08-25T21:33:43Z</time>
      </trkpt>
      <trkpt lat="6.1480740" lon="-75.6210020">
        <ele>1599.9</ele>
        <time>2019-08-25T21:33:44Z</time>
      </trkpt>
      <trkpt lat="6.1480130" lon="-75.6210050">
        <ele>1600.9</ele>
        <time>2019-08-25T21:33:45Z</time>
      </trkpt>
      <trkpt lat="6.1479500" lon="-75.6209900">
        <ele>1601.3</ele>
        <time>2019-08-25T21:33:46Z</time>
      </trkpt>
      <trkpt lat="6.1478920" lon="-75.6209620">
        <ele>1601.4</ele>
        <time>2019-08-25T21:33:47Z</time>
      </trkpt>
      <trkpt lat="6.1478420" lon="-75.6209300">
        <ele>1601.6</ele>
        <time>2019-08-25T21:33:48Z</time>
      </trkpt>
      <trkpt lat="6.1477970" lon="-75.6209000">
        <ele>1601.6</ele>
        <time>2019-08-25T21:33:49Z</time>
      </trkpt>
      <trkpt lat="6.1477560" lon="-75.6208720">
        <ele>1601.6</ele>
        <time>2019-08-25T21:33:50Z</time>
      </trkpt>
      <trkpt lat="6.1477170" lon="-75.6208450">
        <ele>1601.5</ele>
        <time>2019-08-25T21:33:51Z</time>
      </trkpt>
      <trkpt lat="6.1476780" lon="-75.6208190">
        <ele>1601.5</ele>
        <time>2019-08-25T21:33:52Z</time>
      </trkpt>
      <trkpt lat="6.1476400" lon="-75.6207950">
        <ele>1601.5</ele>
        <time>2019-08-25T21:33:53Z</time>
      </trkpt>
      <trkpt lat="6.1476010" lon="-75.6207740">
        <ele>1601.5</ele>
        <time>2019-08-25T21:33:54Z</time>
      </trkpt>
      <trkpt lat="6.1475610" lon="-75.6207530">
        <ele>1602.0</ele>
        <time>2019-08-25T21:33:55Z</time>
      </trkpt>
      <trkpt lat="6.1475250" lon="-75.6207340">
        <ele>1602.6</ele>
        <time>2019-08-25T21:33:56Z</time>
      </trkpt>
      <trkpt lat="6.1474900" lon="-75.6207130">
        <ele>1603.2</ele>
        <time>2019-08-25T21:33:57Z</time>
      </trkpt>
      <trkpt lat="6.1474560" lon="-75.6206910">
        <ele>1603.8</ele>
        <time>2019-08-25T21:33:58Z</time>
      </trkpt>
      <trkpt lat="6.1474250" lon="-75.6206700">
        <ele>1604.4</ele>
        <time>2019-08-25T21:33:59Z</time>
      </trkpt>
      <trkpt lat="6.1473950" lon="-75.6206480">
        <ele>1604.9</ele>
        <time>2019-08-25T21:34:00Z</time>
      </trkpt>
      <trkpt lat="6.1473670" lon="-75.6206260">
        <ele>1605.4</ele>
        <time>2019-08-25T21:34:01Z</time>
      </trkpt>
      <trkpt lat="6.1473390" lon="-75.6206040">
        <ele>1606.0</ele>
        <time>2019-08-25T21:34:02Z</time>
      </trkpt>
      <trkpt lat="6.1473080" lon="-75.6205830">
        <ele>1606.5</ele>
        <time>2019-08-25T21:34:03Z</time>
      </trkpt>
      <trkpt lat="6.1472790" lon="-75.6205630">
        <ele>1607.0</ele>
        <time>2019-08-25T21:34:04Z</time>
      </trkpt>
      <trkpt lat="6.1472490" lon="-75.6205410">
        <ele>1607.6</ele>
        <time>2019-08-25T21:34:05Z</time>
      </trkpt>
      <trkpt lat="6.1472170" lon="-75.6205200">
        <ele>1608.1</ele>
        <time>2019-08-25T21:34:06Z</time>
      </trkpt>
      <trkpt lat="6.1471930" lon="-75.6204960">
        <ele>1608.6</ele>
        <time>2019-08-25T21:34:07Z</time>
      </trkpt>
      <trkpt lat="6.1471710" lon="-75.6204700">
        <ele>1609.1</ele>
        <time>2019-08-25T21:34:08Z</time>
      </trkpt>
      <trkpt lat="6.1471500" lon="-75.6204390">
        <ele>1609.7</ele>
        <time>2019-08-25T21:34:09Z</time>
      </trkpt>
      <trkpt lat="6.1471300" lon="-75.6204030">
        <ele>1610.0</ele>
        <time>2019-08-25T21:34:10Z</time>
      </trkpt>
      <trkpt lat="6.1471150" lon="-75.6203620">
        <ele>1610.3</ele>
        <time>2019-08-25T21:34:11Z</time>
      </trkpt>
      <trkpt lat="6.1471060" lon="-75.6203180">
        <ele>1610.6</ele>
        <time>2019-08-25T21:34:12Z</time>
      </trkpt>
      <trkpt lat="6.1471000" lon="-75.6202730">
        <ele>1611.0</ele>
        <time>2019-08-25T21:34:13Z</time>
      </trkpt>
      <trkpt lat="6.1470960" lon="-75.6202290">
        <ele>1611.3</ele>
        <time>2019-08-25T21:34:14Z</time>
      </trkpt>
      <trkpt lat="6.1470890" lon="-75.6201870">
        <ele>1611.6</ele>
        <time>2019-08-25T21:34:15Z</time>
      </trkpt>
      <trkpt lat="6.1470820" lon="-75.6201460">
        <ele>1611.9</ele>
        <time>2019-08-25T21:34:16Z</time>
      </trkpt>
      <trkpt lat="6.1470730" lon="-75.6201050">
        <ele>1612.2</ele>
        <time>2019-08-25T21:34:17Z</time>
      </trkpt>
      <trkpt lat="6.1470630" lon="-75.6200660">
        <ele>1612.6</ele>
        <time>2019-08-25T21:34:18Z</time>
      </trkpt>
      <trkpt lat="6.1470490" lon="-75.6200300">
        <ele>1612.5</ele>
        <time>2019-08-25T21:34:19Z</time>
      </trkpt>
      <trkpt lat="6.1470420" lon="-75.6199920">
        <ele>1612.0</ele>
        <time>2019-08-25T21:34:20Z</time>
      </trkpt>
      <trkpt lat="6.1470380" lon="-75.6199510">
        <ele>1611.3</ele>
        <time>2019-08-25T21:34:21Z</time>
      </trkpt>
      <trkpt lat="6.1470370" lon="-75.6199090">
        <ele>1610.7</ele>
        <time>2019-08-25T21:34:22Z</time>
      </trkpt>
      <trkpt lat="6.1470360" lon="-75.6198710">
        <ele>1610.2</ele>
        <time>2019-08-25T21:34:23Z</time>
      </trkpt>
      <trkpt lat="6.1470390" lon="-75.6198310">
        <ele>1609.6</ele>
        <time>2019-08-25T21:34:24Z</time>
      </trkpt>
      <trkpt lat="6.1470490" lon="-75.6197930">
        <ele>1609.4</ele>
        <time>2019-08-25T21:34:25Z</time>
      </trkpt>
      <trkpt lat="6.1470640" lon="-75.6197570">
        <ele>1609.2</ele>
        <time>2019-08-25T21:34:26Z</time>
      </trkpt>
      <trkpt lat="6.1470840" lon="-75.6197220">
        <ele>1609.0</ele>
        <time>2019-08-25T21:34:27Z</time>
      </trkpt>
      <trkpt lat="6.1471080" lon="-75.6196960">
        <ele>1608.7</ele>
        <time>2019-08-25T21:34:28Z</time>
      </trkpt>
      <trkpt lat="6.1471340" lon="-75.6196760">
        <ele>1608.5</ele>
        <time>2019-08-25T21:34:29Z</time>
      </trkpt>
      <trkpt lat="6.1471600" lon="-75.6196580">
        <ele>1608.3</ele>
        <time>2019-08-25T21:34:30Z</time>
      </trkpt>
      <trkpt lat="6.1471490" lon="-75.6196230">
        <ele>1608.1</ele>
        <time>2019-08-25T21:34:39Z</time>
      </trkpt>
      <trkpt lat="6.1471540" lon="-75.6195960">
        <ele>1607.9</ele>
        <time>2019-08-25T21:35:21Z</time>
      </trkpt>
      <trkpt lat="6.1471870" lon="-75.6195640">
        <ele>1607.7</ele>
        <time>2019-08-25T21:35:23Z</time>
      </trkpt>
      <trkpt lat="6.1472220" lon="-75.6195280">
        <ele>1607.4</ele>
        <time>2019-08-25T21:35:25Z</time>
      </trkpt>
      <trkpt lat="6.1472440" lon="-75.6195080">
        <ele>1607.2</ele>
        <time>2019-08-25T21:35:26Z</time>
      </trkpt>
      <trkpt lat="6.1472680" lon="-75.6194830">
        <ele>1607.1</ele>
        <time>2019-08-25T21:35:27Z</time>
      </trkpt>
      <trkpt lat="6.1472910" lon="-75.6194550">
        <ele>1606.9</ele>
        <time>2019-08-25T21:35:28Z</time>
      </trkpt>
      <trkpt lat="6.1473100" lon="-75.6194260">
        <ele>1606.7</ele>
        <time>2019-08-25T21:35:29Z</time>
      </trkpt>
      <trkpt lat="6.1473290" lon="-75.6193960">
        <ele>1606.5</ele>
        <time>2019-08-25T21:35:30Z</time>
      </trkpt>
      <trkpt lat="6.1473480" lon="-75.6193630">
        <ele>1606.3</ele>
        <time>2019-08-25T21:35:31Z</time>
      </trkpt>
      <trkpt lat="6.1473720" lon="-75.6193290">
        <ele>1606.1</ele>
        <time>2019-08-25T21:35:32Z</time>
      </trkpt>
      <trkpt lat="6.1474000" lon="-75.6192940">
        <ele>1605.9</ele>
        <time>2019-08-25T21:35:33Z</time>
      </trkpt>
      <trkpt lat="6.1474250" lon="-75.6192580">
        <ele>1605.7</ele>
        <time>2019-08-25T21:35:34Z</time>
      </trkpt>
      <trkpt lat="6.1474540" lon="-75.6192240">
        <ele>1605.5</ele>
        <time>2019-08-25T21:35:35Z</time>
      </trkpt>
      <trkpt lat="6.1474860" lon="-75.6191910">
        <ele>1605.2</ele>
        <time>2019-08-25T21:35:36Z</time>
      </trkpt>
      <trkpt lat="6.1475230" lon="-75.6191560">
        <ele>1604.8</ele>
        <time>2019-08-25T21:35:37Z</time>
      </trkpt>
      <trkpt lat="6.1475600" lon="-75.6191220">
        <ele>1604.4</ele>
        <time>2019-08-25T21:35:38Z</time>
      </trkpt>
      <trkpt lat="6.1475960" lon="-75.6190920">
        <ele>1604.1</ele>
        <time>2019-08-25T21:35:39Z</time>
      </trkpt>
      <trkpt lat="6.1476310" lon="-75.6190610">
        <ele>1603.7</ele>
        <time>2019-08-25T21:35:40Z</time>
      </trkpt>
      <trkpt lat="6.1476620" lon="-75.6190310">
        <ele>1603.4</ele>
        <time>2019-08-25T21:35:41Z</time>
      </trkpt>
      <trkpt lat="6.1476900" lon="-75.6190020">
        <ele>1603.1</ele>
        <time>2019-08-25T21:35:42Z</time>
      </trkpt>
      <trkpt lat="6.1477110" lon="-75.6189740">
        <ele>1602.9</ele>
        <time>2019-08-25T21:35:43Z</time>
      </trkpt>
      <trkpt lat="6.1477300" lon="-75.6189470">
        <ele>1602.7</ele>
        <time>2019-08-25T21:35:44Z</time>
      </trkpt>
      <trkpt lat="6.1477530" lon="-75.6189230">
        <ele>1602.5</ele>
        <time>2019-08-25T21:35:45Z</time>
      </trkpt>
      <trkpt lat="6.1477770" lon="-75.6189010">
        <ele>1602.3</ele>
        <time>2019-08-25T21:35:46Z</time>
      </trkpt>
      <trkpt lat="6.1478030" lon="-75.6188800">
        <ele>1602.1</ele>
        <time>2019-08-25T21:35:47Z</time>
      </trkpt>
      <trkpt lat="6.1478310" lon="-75.6188630">
        <ele>1601.9</ele>
        <time>2019-08-25T21:35:48Z</time>
      </trkpt>
      <trkpt lat="6.1478620" lon="-75.6188460">
        <ele>1601.6</ele>
        <time>2019-08-25T21:35:49Z</time>
      </trkpt>
      <trkpt lat="6.1478960" lon="-75.6188310">
        <ele>1601.4</ele>
        <time>2019-08-25T21:35:50Z</time>
      </trkpt>
      <trkpt lat="6.1479310" lon="-75.6188220">
        <ele>1601.2</ele>
        <time>2019-08-25T21:35:51Z</time>
      </trkpt>
      <trkpt lat="6.1479730" lon="-75.6188170">
        <ele>1600.9</ele>
        <time>2019-08-25T21:35:52Z</time>
      </trkpt>
      <trkpt lat="6.1480240" lon="-75.6188140">
        <ele>1600.6</ele>
        <time>2019-08-25T21:35:53Z</time>
      </trkpt>
      <trkpt lat="6.1480810" lon="-75.6188110">
        <ele>1600.2</ele>
        <time>2019-08-25T21:35:54Z</time>
      </trkpt>
      <trkpt lat="6.1481360" lon="-75.6188080">
        <ele>1599.8</ele>
        <time>2019-08-25T21:35:55Z</time>
      </trkpt>
      <trkpt lat="6.1481930" lon="-75.6188060">
        <ele>1599.4</ele>
        <time>2019-08-25T21:35:56Z</time>
      </trkpt>
      <trkpt lat="6.1482560" lon="-75.6188040">
        <ele>1599.0</ele>
        <time>2019-08-25T21:35:57Z</time>
      </trkpt>
      <trkpt lat="6.1483190" lon="-75.6188000">
        <ele>1598.6</ele>
        <time>2019-08-25T21:35:58Z</time>
      </trkpt>
      <trkpt lat="6.1483830" lon="-75.6187950">
        <ele>1598.3</ele>
        <time>2019-08-25T21:35:59Z</time>
      </trkpt>
      <trkpt lat="6.1484470" lon="-75.6187950">
        <ele>1597.9</ele>
        <time>2019-08-25T21:36:00Z</time>
      </trkpt>
      <trkpt lat="6.1485050" lon="-75.6187920">
        <ele>1597.7</ele>
        <time>2019-08-25T21:36:01Z</time>
      </trkpt>
      <trkpt lat="6.1485620" lon="-75.6187870">
        <ele>1597.4</ele>
        <time>2019-08-25T21:36:02Z</time>
      </trkpt>
      <trkpt lat="6.1486460" lon="-75.6187590">
        <ele>1597.2</ele>
        <time>2019-08-25T21:36:03Z</time>
      </trkpt>
      <trkpt lat="6.1486740" lon="-75.6187060">
        <ele>1597.4</ele>
        <time>2019-08-25T21:36:04Z</time>
      </trkpt>
      <trkpt lat="6.1486950" lon="-75.6186620">
        <ele>1597.6</ele>
        <time>2019-08-25T21:36:05Z</time>
      </trkpt>
      <trkpt lat="6.1487080" lon="-75.6186160">
        <ele>1597.8</ele>
        <time>2019-08-25T21:36:06Z</time>
      </trkpt>
      <trkpt lat="6.1486740" lon="-75.6185860">
        <ele>1597.9</ele>
        <time>2019-08-25T21:36:07Z</time>
      </trkpt>
      <trkpt lat="6.1486300" lon="-75.6185590">
        <ele>1598.1</ele>
        <time>2019-08-25T21:36:08Z</time>
      </trkpt>
      <trkpt lat="6.1485880" lon="-75.6185320">
        <ele>1598.3</ele>
        <time>2019-08-25T21:36:09Z</time>
      </trkpt>
      <trkpt lat="6.1485410" lon="-75.6184990">
        <ele>1598.5</ele>
        <time>2019-08-25T21:36:10Z</time>
      </trkpt>
      <trkpt lat="6.1485340" lon="-75.6184520">
        <ele>1598.6</ele>
        <time>2019-08-25T21:36:11Z</time>
      </trkpt>
      <trkpt lat="6.1484870" lon="-75.6184180">
        <ele>1599.0</ele>
        <time>2019-08-25T21:36:12Z</time>
      </trkpt>
      <trkpt lat="6.1484670" lon="-75.6183710">
        <ele>1599.2</ele>
        <time>2019-08-25T21:36:13Z</time>
      </trkpt>
      <trkpt lat="6.1484190" lon="-75.6183310">
        <ele>1599.4</ele>
        <time>2019-08-25T21:36:14Z</time>
      </trkpt>
      <trkpt lat="6.1483830" lon="-75.6182980">
        <ele>1599.6</ele>
        <time>2019-08-25T21:36:15Z</time>
      </trkpt>
      <trkpt lat="6.1483380" lon="-75.6182710">
        <ele>1599.7</ele>
        <time>2019-08-25T21:36:16Z</time>
      </trkpt>
      <trkpt lat="6.1483160" lon="-75.6182310">
        <ele>1599.9</ele>
        <time>2019-08-25T21:36:17Z</time>
      </trkpt>
      <trkpt lat="6.1482690" lon="-75.6181950">
        <ele>1600.1</ele>
        <time>2019-08-25T21:36:18Z</time>
      </trkpt>
      <trkpt lat="6.1482320" lon="-75.6181530">
        <ele>1600.3</ele>
        <time>2019-08-25T21:36:19Z</time>
      </trkpt>
      <trkpt lat="6.1482170" lon="-75.6181000">
        <ele>1600.4</ele>
        <time>2019-08-25T21:36:20Z</time>
      </trkpt>
      <trkpt lat="6.1482010" lon="-75.6180580">
        <ele>1600.6</ele>
        <time>2019-08-25T21:36:21Z</time>
      </trkpt>
      <trkpt lat="6.1481680" lon="-75.6180140">
        <ele>1600.9</ele>
        <time>2019-08-25T21:36:22Z</time>
      </trkpt>
      <trkpt lat="6.1481220" lon="-75.6179720">
        <ele>1601.1</ele>
        <time>2019-08-25T21:36:23Z</time>
      </trkpt>
      <trkpt lat="6.1480900" lon="-75.6179200">
        <ele>1601.4</ele>
        <time>2019-08-25T21:36:24Z</time>
      </trkpt>
      <trkpt lat="6.1480250" lon="-75.6178980">
        <ele>1601.6</ele>
        <time>2019-08-25T21:36:25Z</time>
      </trkpt>
      <trkpt lat="6.1479890" lon="-75.6178380">
        <ele>1601.9</ele>
        <time>2019-08-25T21:36:26Z</time>
      </trkpt>
      <trkpt lat="6.1479250" lon="-75.6178140">
        <ele>1602.2</ele>
        <time>2019-08-25T21:36:27Z</time>
      </trkpt>
      <trkpt lat="6.1478620" lon="-75.6178020">
        <ele>1602.5</ele>
        <time>2019-08-25T21:36:28Z</time>
      </trkpt>
      <trkpt lat="6.1478100" lon="-75.6177860">
        <ele>1602.7</ele>
        <time>2019-08-25T21:36:29Z</time>
      </trkpt>
      <trkpt lat="6.1477560" lon="-75.6177620">
        <ele>1603.0</ele>
        <time>2019-08-25T21:36:30Z</time>
      </trkpt>
      <trkpt lat="6.1477050" lon="-75.6177250">
        <ele>1603.2</ele>
        <time>2019-08-25T21:36:31Z</time>
      </trkpt>
      <trkpt lat="6.1476580" lon="-75.6176990">
        <ele>1603.5</ele>
        <time>2019-08-25T21:36:32Z</time>
      </trkpt>
      <trkpt lat="6.1476110" lon="-75.6176810">
        <ele>1603.7</ele>
        <time>2019-08-25T21:36:33Z</time>
      </trkpt>
      <trkpt lat="6.1475570" lon="-75.6176390">
        <ele>1604.1</ele>
        <time>2019-08-25T21:36:34Z</time>
      </trkpt>
      <trkpt lat="6.1475110" lon="-75.6175830">
        <ele>1604.5</ele>
        <time>2019-08-25T21:36:35Z</time>
      </trkpt>
      <trkpt lat="6.1474500" lon="-75.6175510">
        <ele>1605.1</ele>
        <time>2019-08-25T21:36:36Z</time>
      </trkpt>
      <trkpt lat="6.1474310" lon="-75.6175080">
        <ele>1605.4</ele>
        <time>2019-08-25T21:36:37Z</time>
      </trkpt>
      <trkpt lat="6.1473930" lon="-75.6174630">
        <ele>1605.9</ele>
        <time>2019-08-25T21:36:38Z</time>
      </trkpt>
      <trkpt lat="6.1473930" lon="-75.6174170">
        <ele>1606.0</ele>
        <time>2019-08-25T21:36:39Z</time>
      </trkpt>
      <trkpt lat="6.1473720" lon="-75.6173710">
        <ele>1606.2</ele>
        <time>2019-08-25T21:36:40Z</time>
      </trkpt>
      <trkpt lat="6.1473620" lon="-75.6173110">
        <ele>1606.3</ele>
        <time>2019-08-25T21:36:41Z</time>
      </trkpt>
      <trkpt lat="6.1473220" lon="-75.6172540">
        <ele>1606.5</ele>
        <time>2019-08-25T21:36:42Z</time>
      </trkpt>
      <trkpt lat="6.1472830" lon="-75.6172260">
        <ele>1606.7</ele>
        <time>2019-08-25T21:36:43Z</time>
      </trkpt>
      <trkpt lat="6.1472510" lon="-75.6171750">
        <ele>1607.0</ele>
        <time>2019-08-25T21:36:44Z</time>
      </trkpt>
      <trkpt lat="6.1472230" lon="-75.6171330">
        <ele>1607.2</ele>
        <time>2019-08-25T21:36:45Z</time>
      </trkpt>
      <trkpt lat="6.1471620" lon="-75.6171150">
        <ele>1607.5</ele>
        <time>2019-08-25T21:36:46Z</time>
      </trkpt>
      <trkpt lat="6.1471180" lon="-75.6170860">
        <ele>1607.8</ele>
        <time>2019-08-25T21:36:47Z</time>
      </trkpt>
      <trkpt lat="6.1470720" lon="-75.6170540">
        <ele>1608.2</ele>
        <time>2019-08-25T21:36:48Z</time>
      </trkpt>
      <trkpt lat="6.1470220" lon="-75.6170240">
        <ele>1608.6</ele>
        <time>2019-08-25T21:36:49Z</time>
      </trkpt>
      <trkpt lat="6.1469720" lon="-75.6169920">
        <ele>1609.0</ele>
        <time>2019-08-25T21:36:50Z</time>
      </trkpt>
      <trkpt lat="6.1469210" lon="-75.6169720">
        <ele>1609.3</ele>
        <time>2019-08-25T21:36:51Z</time>
      </trkpt>
      <trkpt lat="6.1468790" lon="-75.6169550">
        <ele>1609.5</ele>
        <time>2019-08-25T21:36:52Z</time>
      </trkpt>
      <trkpt lat="6.1468390" lon="-75.6169350">
        <ele>1609.8</ele>
        <time>2019-08-25T21:36:53Z</time>
      </trkpt>
      <trkpt lat="6.1467860" lon="-75.6169390">
        <ele>1610.2</ele>
        <time>2019-08-25T21:36:54Z</time>
      </trkpt>
      <trkpt lat="6.1467390" lon="-75.6169350">
        <ele>1610.4</ele>
        <time>2019-08-25T21:36:55Z</time>
      </trkpt>
      <trkpt lat="6.1466840" lon="-75.6169160">
        <ele>1610.8</ele>
        <time>2019-08-25T21:36:56Z</time>
      </trkpt>
      <trkpt lat="6.1466430" lon="-75.6168860">
        <ele>1611.0</ele>
        <time>2019-08-25T21:36:57Z</time>
      </trkpt>
      <trkpt lat="6.1466050" lon="-75.6168820">
        <ele>1611.2</ele>
        <time>2019-08-25T21:36:58Z</time>
      </trkpt>
      <trkpt lat="6.1465630" lon="-75.6168700">
        <ele>1611.4</ele>
        <time>2019-08-25T21:36:59Z</time>
      </trkpt>
      <trkpt lat="6.1465200" lon="-75.6168630">
        <ele>1611.5</ele>
        <time>2019-08-25T21:37:00Z</time>
      </trkpt>
      <trkpt lat="6.1464790" lon="-75.6168610">
        <ele>1611.6</ele>
        <time>2019-08-25T21:37:01Z</time>
      </trkpt>
      <trkpt lat="6.1464250" lon="-75.6168510">
        <ele>1611.8</ele>
        <time>2019-08-25T21:37:02Z</time>
      </trkpt>
      <trkpt lat="6.1463650" lon="-75.6168450">
        <ele>1611.9</ele>
        <time>2019-08-25T21:37:03Z</time>
      </trkpt>
      <trkpt lat="6.1463030" lon="-75.6168430">
        <ele>1612.2</ele>
        <time>2019-08-25T21:37:04Z</time>
      </trkpt>
      <trkpt lat="6.1462470" lon="-75.6168390">
        <ele>1612.5</ele>
        <time>2019-08-25T21:37:05Z</time>
      </trkpt>
      <trkpt lat="6.1461970" lon="-75.6168320">
        <ele>1612.8</ele>
        <time>2019-08-25T21:37:06Z</time>
      </trkpt>
      <trkpt lat="6.1461480" lon="-75.6168250">
        <ele>1613.1</ele>
        <time>2019-08-25T21:37:07Z</time>
      </trkpt>
      <trkpt lat="6.1460920" lon="-75.6168250">
        <ele>1613.7</ele>
        <time>2019-08-25T21:37:08Z</time>
      </trkpt>
      <trkpt lat="6.1460340" lon="-75.6168260">
        <ele>1614.3</ele>
        <time>2019-08-25T21:37:09Z</time>
      </trkpt>
      <trkpt lat="6.1459790" lon="-75.6168280">
        <ele>1614.9</ele>
        <time>2019-08-25T21:37:10Z</time>
      </trkpt>
      <trkpt lat="6.1459260" lon="-75.6168240">
        <ele>1615.4</ele>
        <time>2019-08-25T21:37:11Z</time>
      </trkpt>
      <trkpt lat="6.1458740" lon="-75.6168180">
        <ele>1615.9</ele>
        <time>2019-08-25T21:37:12Z</time>
      </trkpt>
      <trkpt lat="6.1458200" lon="-75.6168110">
        <ele>1616.5</ele>
        <time>2019-08-25T21:37:13Z</time>
      </trkpt>
      <trkpt lat="6.1457650" lon="-75.6167970">
        <ele>1617.1</ele>
        <time>2019-08-25T21:37:14Z</time>
      </trkpt>
      <trkpt lat="6.1457110" lon="-75.6167830">
        <ele>1617.8</ele>
        <time>2019-08-25T21:37:15Z</time>
      </trkpt>
      <trkpt lat="6.1456580" lon="-75.6167700">
        <ele>1618.4</ele>
        <time>2019-08-25T21:37:16Z</time>
      </trkpt>
      <trkpt lat="6.1456100" lon="-75.6167500">
        <ele>1619.0</ele>
        <time>2019-08-25T21:37:17Z</time>
      </trkpt>
      <trkpt lat="6.1455430" lon="-75.6167120">
        <ele>1618.4</ele>
        <time>2019-08-25T21:37:18Z</time>
      </trkpt>
      <trkpt lat="6.1454660" lon="-75.6166680">
        <ele>1617.7</ele>
        <time>2019-08-25T21:37:19Z</time>
      </trkpt>
      <trkpt lat="6.1454020" lon="-75.6166320">
        <ele>1618.2</ele>
        <time>2019-08-25T21:37:20Z</time>
      </trkpt>
      <trkpt lat="6.1453580" lon="-75.6166000">
        <ele>1618.5</ele>
        <time>2019-08-25T21:37:21Z</time>
      </trkpt>
      <trkpt lat="6.1453350" lon="-75.6165640">
        <ele>1618.8</ele>
        <time>2019-08-25T21:37:22Z</time>
      </trkpt>
      <trkpt lat="6.1453340" lon="-75.6165150">
        <ele>1619.0</ele>
        <time>2019-08-25T21:37:23Z</time>
      </trkpt>
      <trkpt lat="6.1453400" lon="-75.6164560">
        <ele>1619.2</ele>
        <time>2019-08-25T21:37:24Z</time>
      </trkpt>
      <trkpt lat="6.1453520" lon="-75.6163920">
        <ele>1619.5</ele>
        <time>2019-08-25T21:37:25Z</time>
      </trkpt>
      <trkpt lat="6.1453520" lon="-75.6163400">
        <ele>1619.7</ele>
        <time>2019-08-25T21:37:26Z</time>
      </trkpt>
      <trkpt lat="6.1453520" lon="-75.6163000">
        <ele>1619.9</ele>
        <time>2019-08-25T21:37:27Z</time>
      </trkpt>
      <trkpt lat="6.1453460" lon="-75.6162700">
        <ele>1620.0</ele>
        <time>2019-08-25T21:37:28Z</time>
      </trkpt>
      <trkpt lat="6.1453380" lon="-75.6162440">
        <ele>1620.1</ele>
        <time>2019-08-25T21:37:29Z</time>
      </trkpt>
      <trkpt lat="6.1453230" lon="-75.6162010">
        <ele>1620.2</ele>
        <time>2019-08-25T21:37:31Z</time>
      </trkpt>
      <trkpt lat="6.1453040" lon="-75.6161680">
        <ele>1620.3</ele>
        <time>2019-08-25T21:37:33Z</time>
      </trkpt>
      <trkpt lat="6.1452910" lon="-75.6161250">
        <ele>1620.5</ele>
        <time>2019-08-25T21:37:35Z</time>
      </trkpt>
      <trkpt lat="6.1452760" lon="-75.6160710">
        <ele>1620.6</ele>
        <time>2019-08-25T21:37:37Z</time>
      </trkpt>
      <trkpt lat="6.1452670" lon="-75.6160420">
        <ele>1620.7</ele>
        <time>2019-08-25T21:37:38Z</time>
      </trkpt>
      <trkpt lat="6.1452550" lon="-75.6160130">
        <ele>1620.9</ele>
        <time>2019-08-25T21:37:39Z</time>
      </trkpt>
      <trkpt lat="6.1452370" lon="-75.6159900">
        <ele>1621.0</ele>
        <time>2019-08-25T21:37:40Z</time>
      </trkpt>
      <trkpt lat="6.1452130" lon="-75.6159670">
        <ele>1621.2</ele>
        <time>2019-08-25T21:37:41Z</time>
      </trkpt>
      <trkpt lat="6.1451960" lon="-75.6159430">
        <ele>1621.4</ele>
        <time>2019-08-25T21:37:42Z</time>
      </trkpt>
      <trkpt lat="6.1451800" lon="-75.6159170">
        <ele>1621.5</ele>
        <time>2019-08-25T21:37:43Z</time>
      </trkpt>
      <trkpt lat="6.1451640" lon="-75.6158900">
        <ele>1621.6</ele>
        <time>2019-08-25T21:37:44Z</time>
      </trkpt>
      <trkpt lat="6.1451500" lon="-75.6158630">
        <ele>1621.7</ele>
        <time>2019-08-25T21:37:45Z</time>
      </trkpt>
      <trkpt lat="6.1451310" lon="-75.6158410">
        <ele>1621.8</ele>
        <time>2019-08-25T21:37:46Z</time>
      </trkpt>
      <trkpt lat="6.1451010" lon="-75.6158240">
        <ele>1621.9</ele>
        <time>2019-08-25T21:37:47Z</time>
      </trkpt>
      <trkpt lat="6.1450640" lon="-75.6158110">
        <ele>1622.0</ele>
        <time>2019-08-25T21:37:48Z</time>
      </trkpt>
      <trkpt lat="6.1450250" lon="-75.6158040">
        <ele>1622.1</ele>
        <time>2019-08-25T21:37:49Z</time>
      </trkpt>
      <trkpt lat="6.1449880" lon="-75.6157910">
        <ele>1622.2</ele>
        <time>2019-08-25T21:37:50Z</time>
      </trkpt>
      <trkpt lat="6.1449520" lon="-75.6157750">
        <ele>1622.2</ele>
        <time>2019-08-25T21:37:51Z</time>
      </trkpt>
      <trkpt lat="6.1449190" lon="-75.6157560">
        <ele>1622.3</ele>
        <time>2019-08-25T21:37:52Z</time>
      </trkpt>
      <trkpt lat="6.1448870" lon="-75.6157380">
        <ele>1622.3</ele>
        <time>2019-08-25T21:37:53Z</time>
      </trkpt>
      <trkpt lat="6.1448560" lon="-75.6157250">
        <ele>1622.3</ele>
        <time>2019-08-25T21:37:54Z</time>
      </trkpt>
      <trkpt lat="6.1448220" lon="-75.6157150">
        <ele>1622.3</ele>
        <time>2019-08-25T21:37:55Z</time>
      </trkpt>
      <trkpt lat="6.1447840" lon="-75.6157030">
        <ele>1622.4</ele>
        <time>2019-08-25T21:37:56Z</time>
      </trkpt>
      <trkpt lat="6.1447440" lon="-75.6156890">
        <ele>1622.5</ele>
        <time>2019-08-25T21:37:57Z</time>
      </trkpt>
      <trkpt lat="6.1447030" lon="-75.6156800">
        <ele>1622.5</ele>
        <time>2019-08-25T21:37:58Z</time>
      </trkpt>
      <trkpt lat="6.1446610" lon="-75.6156720">
        <ele>1622.5</ele>
        <time>2019-08-25T21:37:59Z</time>
      </trkpt>
      <trkpt lat="6.1446200" lon="-75.6156580">
        <ele>1622.6</ele>
        <time>2019-08-25T21:38:00Z</time>
      </trkpt>
      <trkpt lat="6.1445770" lon="-75.6156380">
        <ele>1622.6</ele>
        <time>2019-08-25T21:38:01Z</time>
      </trkpt>
      <trkpt lat="6.1445350" lon="-75.6156130">
        <ele>1622.7</ele>
        <time>2019-08-25T21:38:02Z</time>
      </trkpt>
      <trkpt lat="6.1444960" lon="-75.6155880">
        <ele>1622.7</ele>
        <time>2019-08-25T21:38:03Z</time>
      </trkpt>
      <trkpt lat="6.1444560" lon="-75.6155640">
        <ele>1623.1</ele>
        <time>2019-08-25T21:38:04Z</time>
      </trkpt>
      <trkpt lat="6.1444200" lon="-75.6155380">
        <ele>1623.5</ele>
        <time>2019-08-25T21:38:05Z</time>
      </trkpt>
      <trkpt lat="6.1443850" lon="-75.6155090">
        <ele>1623.8</ele>
        <time>2019-08-25T21:38:06Z</time>
      </trkpt>
      <trkpt lat="6.1443540" lon="-75.6154830">
        <ele>1624.1</ele>
        <time>2019-08-25T21:38:07Z</time>
      </trkpt>
      <trkpt lat="6.1443220" lon="-75.6154550">
        <ele>1624.4</ele>
        <time>2019-08-25T21:38:08Z</time>
      </trkpt>
      <trkpt lat="6.1442890" lon="-75.6154300">
        <ele>1624.7</ele>
        <time>2019-08-25T21:38:09Z</time>
      </trkpt>
      <trkpt lat="6.1442570" lon="-75.6154070">
        <ele>1625.0</ele>
        <time>2019-08-25T21:38:10Z</time>
      </trkpt>
      <trkpt lat="6.1442260" lon="-75.6153840">
        <ele>1625.3</ele>
        <time>2019-08-25T21:38:11Z</time>
      </trkpt>
      <trkpt lat="6.1441960" lon="-75.6153600">
        <ele>1625.5</ele>
        <time>2019-08-25T21:38:12Z</time>
      </trkpt>
      <trkpt lat="6.1441660" lon="-75.6153310">
        <ele>1625.7</ele>
        <time>2019-08-25T21:38:13Z</time>
      </trkpt>
      <trkpt lat="6.1441380" lon="-75.6153030">
        <ele>1625.9</ele>
        <time>2019-08-25T21:38:14Z</time>
      </trkpt>
      <trkpt lat="6.1441100" lon="-75.6152790">
        <ele>1626.1</ele>
        <time>2019-08-25T21:38:15Z</time>
      </trkpt>
      <trkpt lat="6.1440840" lon="-75.6152530">
        <ele>1626.3</ele>
        <time>2019-08-25T21:38:16Z</time>
      </trkpt>
      <trkpt lat="6.1440580" lon="-75.6152230">
        <ele>1626.5</ele>
        <time>2019-08-25T21:38:17Z</time>
      </trkpt>
      <trkpt lat="6.1440320" lon="-75.6151960">
        <ele>1626.7</ele>
        <time>2019-08-25T21:38:18Z</time>
      </trkpt>
      <trkpt lat="6.1440030" lon="-75.6151690">
        <ele>1626.9</ele>
        <time>2019-08-25T21:38:19Z</time>
      </trkpt>
      <trkpt lat="6.1439740" lon="-75.6151450">
        <ele>1627.1</ele>
        <time>2019-08-25T21:38:20Z</time>
      </trkpt>
      <trkpt lat="6.1439450" lon="-75.6151180">
        <ele>1627.4</ele>
        <time>2019-08-25T21:38:21Z</time>
      </trkpt>
      <trkpt lat="6.1439180" lon="-75.6150930">
        <ele>1627.6</ele>
        <time>2019-08-25T21:38:22Z</time>
      </trkpt>
      <trkpt lat="6.1438900" lon="-75.6150690">
        <ele>1627.8</ele>
        <time>2019-08-25T21:38:23Z</time>
      </trkpt>
      <trkpt lat="6.1438590" lon="-75.6150480">
        <ele>1628.0</ele>
        <time>2019-08-25T21:38:24Z</time>
      </trkpt>
      <trkpt lat="6.1438300" lon="-75.6150280">
        <ele>1628.3</ele>
        <time>2019-08-25T21:38:25Z</time>
      </trkpt>
      <trkpt lat="6.1438020" lon="-75.6150080">
        <ele>1628.6</ele>
        <time>2019-08-25T21:38:26Z</time>
      </trkpt>
      <trkpt lat="6.1437780" lon="-75.6149860">
        <ele>1628.8</ele>
        <time>2019-08-25T21:38:27Z</time>
      </trkpt>
      <trkpt lat="6.1437530" lon="-75.6149610">
        <ele>1629.1</ele>
        <time>2019-08-25T21:38:28Z</time>
      </trkpt>
      <trkpt lat="6.1437310" lon="-75.6149400">
        <ele>1629.3</ele>
        <time>2019-08-25T21:38:29Z</time>
      </trkpt>
      <trkpt lat="6.1437100" lon="-75.6149170">
        <ele>1629.5</ele>
        <time>2019-08-25T21:38:30Z</time>
      </trkpt>
      <trkpt lat="6.1436890" lon="-75.6148910">
        <ele>1629.7</ele>
        <time>2019-08-25T21:38:31Z</time>
      </trkpt>
      <trkpt lat="6.1436640" lon="-75.6148670">
        <ele>1629.9</ele>
        <time>2019-08-25T21:38:32Z</time>
      </trkpt>
      <trkpt lat="6.1436400" lon="-75.6148440">
        <ele>1630.1</ele>
        <time>2019-08-25T21:38:33Z</time>
      </trkpt>
      <trkpt lat="6.1436150" lon="-75.6148240">
        <ele>1630.3</ele>
        <time>2019-08-25T21:38:34Z</time>
      </trkpt>
      <trkpt lat="6.1435870" lon="-75.6148040">
        <ele>1630.5</ele>
        <time>2019-08-25T21:38:35Z</time>
      </trkpt>
      <trkpt lat="6.1435580" lon="-75.6147830">
        <ele>1630.7</ele>
        <time>2019-08-25T21:38:36Z</time>
      </trkpt>
      <trkpt lat="6.1435330" lon="-75.6147650">
        <ele>1630.9</ele>
        <time>2019-08-25T21:38:37Z</time>
      </trkpt>
      <trkpt lat="6.1435090" lon="-75.6147480">
        <ele>1631.1</ele>
        <time>2019-08-25T21:38:38Z</time>
      </trkpt>
      <trkpt lat="6.1434820" lon="-75.6147340">
        <ele>1631.3</ele>
        <time>2019-08-25T21:38:39Z</time>
      </trkpt>
      <trkpt lat="6.1434550" lon="-75.6147220">
        <ele>1631.5</ele>
        <time>2019-08-25T21:38:40Z</time>
      </trkpt>
      <trkpt lat="6.1434020" lon="-75.6147050">
        <ele>1631.8</ele>
        <time>2019-08-25T21:38:42Z</time>
      </trkpt>
      <trkpt lat="6.1433750" lon="-75.6146880">
        <ele>1632.0</ele>
        <time>2019-08-25T21:38:43Z</time>
      </trkpt>
      <trkpt lat="6.1433490" lon="-75.6146650">
        <ele>1632.2</ele>
        <time>2019-08-25T21:38:44Z</time>
      </trkpt>
      <trkpt lat="6.1433220" lon="-75.6146410">
        <ele>1632.5</ele>
        <time>2019-08-25T21:38:45Z</time>
      </trkpt>
      <trkpt lat="6.1433050" lon="-75.6146190">
        <ele>1632.6</ele>
        <time>2019-08-25T21:38:46Z</time>
      </trkpt>
      <trkpt lat="6.1432870" lon="-75.6145940">
        <ele>1632.8</ele>
        <time>2019-08-25T21:38:47Z</time>
      </trkpt>
      <trkpt lat="6.1432690" lon="-75.6145680">
        <ele>1633.0</ele>
        <time>2019-08-25T21:38:48Z</time>
      </trkpt>
      <trkpt lat="6.1432510" lon="-75.6145410">
        <ele>1633.3</ele>
        <time>2019-08-25T21:38:49Z</time>
      </trkpt>
      <trkpt lat="6.1432330" lon="-75.6145150">
        <ele>1633.5</ele>
        <time>2019-08-25T21:38:50Z</time>
      </trkpt>
      <trkpt lat="6.1432150" lon="-75.6144890">
        <ele>1633.7</ele>
        <time>2019-08-25T21:38:51Z</time>
      </trkpt>
      <trkpt lat="6.1431940" lon="-75.6144650">
        <ele>1634.0</ele>
        <time>2019-08-25T21:38:52Z</time>
      </trkpt>
      <trkpt lat="6.1431700" lon="-75.6144450">
        <ele>1634.3</ele>
        <time>2019-08-25T21:38:53Z</time>
      </trkpt>
      <trkpt lat="6.1431400" lon="-75.6144240">
        <ele>1634.6</ele>
        <time>2019-08-25T21:38:54Z</time>
      </trkpt>
      <trkpt lat="6.1431100" lon="-75.6144000">
        <ele>1635.0</ele>
        <time>2019-08-25T21:38:55Z</time>
      </trkpt>
      <trkpt lat="6.1430810" lon="-75.6143750">
        <ele>1635.4</ele>
        <time>2019-08-25T21:38:56Z</time>
      </trkpt>
      <trkpt lat="6.1430510" lon="-75.6143530">
        <ele>1635.7</ele>
        <time>2019-08-25T21:38:57Z</time>
      </trkpt>
      <trkpt lat="6.1430190" lon="-75.6143300">
        <ele>1636.0</ele>
        <time>2019-08-25T21:38:58Z</time>
      </trkpt>
      <trkpt lat="6.1429880" lon="-75.6143070">
        <ele>1636.3</ele>
        <time>2019-08-25T21:38:59Z</time>
      </trkpt>
      <trkpt lat="6.1429580" lon="-75.6142830">
        <ele>1636.6</ele>
        <time>2019-08-25T21:39:00Z</time>
      </trkpt>
      <trkpt lat="6.1429310" lon="-75.6142600">
        <ele>1637.0</ele>
        <time>2019-08-25T21:39:01Z</time>
      </trkpt>
      <trkpt lat="6.1429040" lon="-75.6142350">
        <ele>1637.4</ele>
        <time>2019-08-25T21:39:02Z</time>
      </trkpt>
      <trkpt lat="6.1428750" lon="-75.6142090">
        <ele>1637.9</ele>
        <time>2019-08-25T21:39:03Z</time>
      </trkpt>
      <trkpt lat="6.1428460" lon="-75.6141830">
        <ele>1638.3</ele>
        <time>2019-08-25T21:39:04Z</time>
      </trkpt>
      <trkpt lat="6.1428190" lon="-75.6141560">
        <ele>1638.6</ele>
        <time>2019-08-25T21:39:05Z</time>
      </trkpt>
      <trkpt lat="6.1427890" lon="-75.6141300">
        <ele>1638.9</ele>
        <time>2019-08-25T21:39:06Z</time>
      </trkpt>
      <trkpt lat="6.1427580" lon="-75.6141030">
        <ele>1639.3</ele>
        <time>2019-08-25T21:39:07Z</time>
      </trkpt>
      <trkpt lat="6.1427270" lon="-75.6140740">
        <ele>1639.6</ele>
        <time>2019-08-25T21:39:08Z</time>
      </trkpt>
      <trkpt lat="6.1426980" lon="-75.6140440">
        <ele>1640.0</ele>
        <time>2019-08-25T21:39:09Z</time>
      </trkpt>
      <trkpt lat="6.1426710" lon="-75.6140130">
        <ele>1640.4</ele>
        <time>2019-08-25T21:39:10Z</time>
      </trkpt>
      <trkpt lat="6.1426390" lon="-75.6139800">
        <ele>1640.9</ele>
        <time>2019-08-25T21:39:11Z</time>
      </trkpt>
      <trkpt lat="6.1426060" lon="-75.6139460">
        <ele>1641.3</ele>
        <time>2019-08-25T21:39:12Z</time>
      </trkpt>
      <trkpt lat="6.1425700" lon="-75.6139110">
        <ele>1641.7</ele>
        <time>2019-08-25T21:39:13Z</time>
      </trkpt>
      <trkpt lat="6.1425300" lon="-75.6138820">
        <ele>1642.0</ele>
        <time>2019-08-25T21:39:14Z</time>
      </trkpt>
      <trkpt lat="6.1424890" lon="-75.6138550">
        <ele>1642.3</ele>
        <time>2019-08-25T21:39:15Z</time>
      </trkpt>
      <trkpt lat="6.1424440" lon="-75.6138290">
        <ele>1642.6</ele>
        <time>2019-08-25T21:39:16Z</time>
      </trkpt>
      <trkpt lat="6.1423990" lon="-75.6137980">
        <ele>1643.0</ele>
        <time>2019-08-25T21:39:17Z</time>
      </trkpt>
      <trkpt lat="6.1423580" lon="-75.6137650">
        <ele>1643.5</ele>
        <time>2019-08-25T21:39:18Z</time>
      </trkpt>
      <trkpt lat="6.1423180" lon="-75.6137300">
        <ele>1643.9</ele>
        <time>2019-08-25T21:39:19Z</time>
      </trkpt>
      <trkpt lat="6.1422790" lon="-75.6136930">
        <ele>1644.4</ele>
        <time>2019-08-25T21:39:20Z</time>
      </trkpt>
      <trkpt lat="6.1422390" lon="-75.6136570">
        <ele>1644.8</ele>
        <time>2019-08-25T21:39:21Z</time>
      </trkpt>
      <trkpt lat="6.1421980" lon="-75.6136200">
        <ele>1645.1</ele>
        <time>2019-08-25T21:39:22Z</time>
      </trkpt>
      <trkpt lat="6.1421560" lon="-75.6135870">
        <ele>1645.4</ele>
        <time>2019-08-25T21:39:23Z</time>
      </trkpt>
      <trkpt lat="6.1421110" lon="-75.6135570">
        <ele>1645.7</ele>
        <time>2019-08-25T21:39:24Z</time>
      </trkpt>
      <trkpt lat="6.1420680" lon="-75.6135330">
        <ele>1646.0</ele>
        <time>2019-08-25T21:39:25Z</time>
      </trkpt>
      <trkpt lat="6.1420290" lon="-75.6135170">
        <ele>1646.2</ele>
        <time>2019-08-25T21:39:26Z</time>
      </trkpt>
      <trkpt lat="6.1419910" lon="-75.6135050">
        <ele>1646.6</ele>
        <time>2019-08-25T21:39:27Z</time>
      </trkpt>
      <trkpt lat="6.1419540" lon="-75.6134940">
        <ele>1646.9</ele>
        <time>2019-08-25T21:39:28Z</time>
      </trkpt>
      <trkpt lat="6.1419190" lon="-75.6134810">
        <ele>1647.2</ele>
        <time>2019-08-25T21:39:29Z</time>
      </trkpt>
      <trkpt lat="6.1418840" lon="-75.6134690">
        <ele>1647.5</ele>
        <time>2019-08-25T21:39:30Z</time>
      </trkpt>
      <trkpt lat="6.1418520" lon="-75.6134490">
        <ele>1647.8</ele>
        <time>2019-08-25T21:39:31Z</time>
      </trkpt>
      <trkpt lat="6.1418220" lon="-75.6134280">
        <ele>1648.1</ele>
        <time>2019-08-25T21:39:32Z</time>
      </trkpt>
      <trkpt lat="6.1417960" lon="-75.6134030">
        <ele>1648.4</ele>
        <time>2019-08-25T21:39:33Z</time>
      </trkpt>
      <trkpt lat="6.1417730" lon="-75.6133760">
        <ele>1648.6</ele>
        <time>2019-08-25T21:39:34Z</time>
      </trkpt>
      <trkpt lat="6.1417550" lon="-75.6133460">
        <ele>1648.8</ele>
        <time>2019-08-25T21:39:35Z</time>
      </trkpt>
      <trkpt lat="6.1417390" lon="-75.6133170">
        <ele>1649.0</ele>
        <time>2019-08-25T21:39:36Z</time>
      </trkpt>
      <trkpt lat="6.1417230" lon="-75.6132890">
        <ele>1649.2</ele>
        <time>2019-08-25T21:39:37Z</time>
      </trkpt>
      <trkpt lat="6.1417040" lon="-75.6132650">
        <ele>1649.4</ele>
        <time>2019-08-25T21:39:38Z</time>
      </trkpt>
      <trkpt lat="6.1416860" lon="-75.6132430">
        <ele>1649.6</ele>
        <time>2019-08-25T21:39:39Z</time>
      </trkpt>
      <trkpt lat="6.1416650" lon="-75.6132200">
        <ele>1649.8</ele>
        <time>2019-08-25T21:39:40Z</time>
      </trkpt>
      <trkpt lat="6.1416400" lon="-75.6131960">
        <ele>1650.0</ele>
        <time>2019-08-25T21:39:41Z</time>
      </trkpt>
      <trkpt lat="6.1416130" lon="-75.6131740">
        <ele>1650.2</ele>
        <time>2019-08-25T21:39:42Z</time>
      </trkpt>
      <trkpt lat="6.1415860" lon="-75.6131470">
        <ele>1650.4</ele>
        <time>2019-08-25T21:39:43Z</time>
      </trkpt>
      <trkpt lat="6.1415540" lon="-75.6131220">
        <ele>1650.7</ele>
        <time>2019-08-25T21:39:44Z</time>
      </trkpt>
      <trkpt lat="6.1415210" lon="-75.6130990">
        <ele>1650.9</ele>
        <time>2019-08-25T21:39:45Z</time>
      </trkpt>
      <trkpt lat="6.1414880" lon="-75.6130780">
        <ele>1651.2</ele>
        <time>2019-08-25T21:39:46Z</time>
      </trkpt>
      <trkpt lat="6.1414540" lon="-75.6130550">
        <ele>1651.4</ele>
        <time>2019-08-25T21:39:47Z</time>
      </trkpt>
      <trkpt lat="6.1414230" lon="-75.6130330">
        <ele>1651.7</ele>
        <time>2019-08-25T21:39:48Z</time>
      </trkpt>
      <trkpt lat="6.1413950" lon="-75.6130090">
        <ele>1651.9</ele>
        <time>2019-08-25T21:39:49Z</time>
      </trkpt>
      <trkpt lat="6.1413670" lon="-75.6129830">
        <ele>1652.2</ele>
        <time>2019-08-25T21:39:50Z</time>
      </trkpt>
      <trkpt lat="6.1413430" lon="-75.6129580">
        <ele>1652.4</ele>
        <time>2019-08-25T21:39:51Z</time>
      </trkpt>
      <trkpt lat="6.1413200" lon="-75.6129350">
        <ele>1652.6</ele>
        <time>2019-08-25T21:39:52Z</time>
      </trkpt>
      <trkpt lat="6.1413030" lon="-75.6129120">
        <ele>1652.8</ele>
        <time>2019-08-25T21:39:53Z</time>
      </trkpt>
      <trkpt lat="6.1412710" lon="-75.6128730">
        <ele>1653.1</ele>
        <time>2019-08-25T21:39:55Z</time>
      </trkpt>
      <trkpt lat="6.1412500" lon="-75.6128540">
        <ele>1653.3</ele>
        <time>2019-08-25T21:39:56Z</time>
      </trkpt>
      <trkpt lat="6.1412270" lon="-75.6128380">
        <ele>1653.5</ele>
        <time>2019-08-25T21:39:57Z</time>
      </trkpt>
      <trkpt lat="6.1412010" lon="-75.6128040">
        <ele>1653.8</ele>
        <time>2019-08-25T21:39:59Z</time>
      </trkpt>
      <trkpt lat="6.1411630" lon="-75.6127680">
        <ele>1654.2</ele>
        <time>2019-08-25T21:40:01Z</time>
      </trkpt>
      <trkpt lat="6.1411270" lon="-75.6127310">
        <ele>1654.7</ele>
        <time>2019-08-25T21:40:03Z</time>
      </trkpt>
      <trkpt lat="6.1411050" lon="-75.6126970">
        <ele>1655.1</ele>
        <time>2019-08-25T21:40:05Z</time>
      </trkpt>
      <trkpt lat="6.1410900" lon="-75.6126750">
        <ele>1655.3</ele>
        <time>2019-08-25T21:40:08Z</time>
      </trkpt>
      <trkpt lat="6.1410570" lon="-75.6126820">
        <ele>1655.7</ele>
        <time>2019-08-25T21:40:13Z</time>
      </trkpt>
      <trkpt lat="6.1410110" lon="-75.6126610">
        <ele>1656.2</ele>
        <time>2019-08-25T21:40:15Z</time>
      </trkpt>
      <trkpt lat="6.1409640" lon="-75.6126340">
        <ele>1656.6</ele>
        <time>2019-08-25T21:40:17Z</time>
      </trkpt>
      <trkpt lat="6.1409430" lon="-75.6126160">
        <ele>1656.8</ele>
        <time>2019-08-25T21:40:18Z</time>
      </trkpt>
      <trkpt lat="6.1409140" lon="-75.6125960">
        <ele>1657.1</ele>
        <time>2019-08-25T21:40:20Z</time>
      </trkpt>
      <trkpt lat="6.1408970" lon="-75.6125630">
        <ele>1657.4</ele>
        <time>2019-08-25T21:40:24Z</time>
      </trkpt>
      <trkpt lat="6.1408650" lon="-75.6125330">
        <ele>1657.8</ele>
        <time>2019-08-25T21:40:26Z</time>
      </trkpt>
      <trkpt lat="6.1408220" lon="-75.6125110">
        <ele>1658.4</ele>
        <time>2019-08-25T21:40:28Z</time>
      </trkpt>
      <trkpt lat="6.1407690" lon="-75.6124840">
        <ele>1659.3</ele>
        <time>2019-08-25T21:40:30Z</time>
      </trkpt>
      <trkpt lat="6.1407360" lon="-75.6124740">
        <ele>1659.2</ele>
        <time>2019-08-25T21:40:31Z</time>
      </trkpt>
      <trkpt lat="6.1407030" lon="-75.6124680">
        <ele>1659.2</ele>
        <time>2019-08-25T21:40:32Z</time>
      </trkpt>
      <trkpt lat="6.1406670" lon="-75.6124610">
        <ele>1659.1</ele>
        <time>2019-08-25T21:40:33Z</time>
      </trkpt>
      <trkpt lat="6.1406240" lon="-75.6124530">
        <ele>1659.1</ele>
        <time>2019-08-25T21:40:34Z</time>
      </trkpt>
      <trkpt lat="6.1405790" lon="-75.6124430">
        <ele>1659.0</ele>
        <time>2019-08-25T21:40:35Z</time>
      </trkpt>
      <trkpt lat="6.1405320" lon="-75.6124340">
        <ele>1658.9</ele>
        <time>2019-08-25T21:40:36Z</time>
      </trkpt>
      <trkpt lat="6.1404870" lon="-75.6124240">
        <ele>1658.9</ele>
        <time>2019-08-25T21:40:37Z</time>
      </trkpt>
      <trkpt lat="6.1404460" lon="-75.6124130">
        <ele>1658.8</ele>
        <time>2019-08-25T21:40:38Z</time>
      </trkpt>
      <trkpt lat="6.1404090" lon="-75.6124010">
        <ele>1658.8</ele>
        <time>2019-08-25T21:40:39Z</time>
      </trkpt>
      <trkpt lat="6.1403740" lon="-75.6123880">
        <ele>1658.7</ele>
        <time>2019-08-25T21:40:40Z</time>
      </trkpt>
      <trkpt lat="6.1403430" lon="-75.6123740">
        <ele>1658.8</ele>
        <time>2019-08-25T21:40:41Z</time>
      </trkpt>
      <trkpt lat="6.1403140" lon="-75.6123620">
        <ele>1658.8</ele>
        <time>2019-08-25T21:40:42Z</time>
      </trkpt>
      <trkpt lat="6.1402830" lon="-75.6123510">
        <ele>1658.9</ele>
        <time>2019-08-25T21:40:43Z</time>
      </trkpt>
      <trkpt lat="6.1402570" lon="-75.6123370">
        <ele>1659.0</ele>
        <time>2019-08-25T21:40:44Z</time>
      </trkpt>
      <trkpt lat="6.1402140" lon="-75.6123020">
        <ele>1659.1</ele>
        <time>2019-08-25T21:40:46Z</time>
      </trkpt>
      <trkpt lat="6.1401790" lon="-75.6122640">
        <ele>1659.2</ele>
        <time>2019-08-25T21:40:48Z</time>
      </trkpt>
      <trkpt lat="6.1401570" lon="-75.6122440">
        <ele>1659.2</ele>
        <time>2019-08-25T21:40:49Z</time>
      </trkpt>
      <trkpt lat="6.1401320" lon="-75.6122250">
        <ele>1659.3</ele>
        <time>2019-08-25T21:40:50Z</time>
      </trkpt>
      <trkpt lat="6.1401070" lon="-75.6122100">
        <ele>1659.4</ele>
        <time>2019-08-25T21:40:51Z</time>
      </trkpt>
      <trkpt lat="6.1400800" lon="-75.6122000">
        <ele>1659.4</ele>
        <time>2019-08-25T21:40:52Z</time>
      </trkpt>
      <trkpt lat="6.1400520" lon="-75.6121900">
        <ele>1659.4</ele>
        <time>2019-08-25T21:40:53Z</time>
      </trkpt>
      <trkpt lat="6.1400230" lon="-75.6121870">
        <ele>1659.4</ele>
        <time>2019-08-25T21:40:54Z</time>
      </trkpt>
      <trkpt lat="6.1399950" lon="-75.6121860">
        <ele>1659.4</ele>
        <time>2019-08-25T21:40:55Z</time>
      </trkpt>
      <trkpt lat="6.1399660" lon="-75.6121820">
        <ele>1659.4</ele>
        <time>2019-08-25T21:40:56Z</time>
      </trkpt>
      <trkpt lat="6.1399380" lon="-75.6121730">
        <ele>1659.4</ele>
        <time>2019-08-25T21:40:57Z</time>
      </trkpt>
      <trkpt lat="6.1399120" lon="-75.6121620">
        <ele>1659.3</ele>
        <time>2019-08-25T21:40:58Z</time>
      </trkpt>
      <trkpt lat="6.1398870" lon="-75.6121510">
        <ele>1659.3</ele>
        <time>2019-08-25T21:40:59Z</time>
      </trkpt>
      <trkpt lat="6.1398610" lon="-75.6121410">
        <ele>1659.2</ele>
        <time>2019-08-25T21:41:00Z</time>
      </trkpt>
      <trkpt lat="6.1398300" lon="-75.6121310">
        <ele>1659.1</ele>
        <time>2019-08-25T21:41:01Z</time>
      </trkpt>
      <trkpt lat="6.1397990" lon="-75.6121230">
        <ele>1659.1</ele>
        <time>2019-08-25T21:41:02Z</time>
      </trkpt>
      <trkpt lat="6.1397710" lon="-75.6121140">
        <ele>1659.0</ele>
        <time>2019-08-25T21:41:03Z</time>
      </trkpt>
      <trkpt lat="6.1397400" lon="-75.6121050">
        <ele>1659.0</ele>
        <time>2019-08-25T21:41:04Z</time>
      </trkpt>
      <trkpt lat="6.1397070" lon="-75.6120940">
        <ele>1658.8</ele>
        <time>2019-08-25T21:41:05Z</time>
      </trkpt>
      <trkpt lat="6.1396760" lon="-75.6120800">
        <ele>1658.6</ele>
        <time>2019-08-25T21:41:06Z</time>
      </trkpt>
      <trkpt lat="6.1396420" lon="-75.6120650">
        <ele>1658.5</ele>
        <time>2019-08-25T21:41:07Z</time>
      </trkpt>
      <trkpt lat="6.1396050" lon="-75.6120480">
        <ele>1658.3</ele>
        <time>2019-08-25T21:41:08Z</time>
      </trkpt>
      <trkpt lat="6.1395630" lon="-75.6120310">
        <ele>1658.1</ele>
        <time>2019-08-25T21:41:09Z</time>
      </trkpt>
      <trkpt lat="6.1395150" lon="-75.6120180">
        <ele>1657.9</ele>
        <time>2019-08-25T21:41:10Z</time>
      </trkpt>
      <trkpt lat="6.1394640" lon="-75.6120090">
        <ele>1657.6</ele>
        <time>2019-08-25T21:41:11Z</time>
      </trkpt>
      <trkpt lat="6.1394070" lon="-75.6120010">
        <ele>1657.3</ele>
        <time>2019-08-25T21:41:12Z</time>
      </trkpt>
      <trkpt lat="6.1393470" lon="-75.6119910">
        <ele>1657.1</ele>
        <time>2019-08-25T21:41:13Z</time>
      </trkpt>
      <trkpt lat="6.1392860" lon="-75.6119820">
        <ele>1656.9</ele>
        <time>2019-08-25T21:41:14Z</time>
      </trkpt>
      <trkpt lat="6.1392240" lon="-75.6119750">
        <ele>1656.9</ele>
        <time>2019-08-25T21:41:15Z</time>
      </trkpt>
      <trkpt lat="6.1391620" lon="-75.6119730">
        <ele>1656.8</ele>
        <time>2019-08-25T21:41:16Z</time>
      </trkpt>
      <trkpt lat="6.1391090" lon="-75.6119750">
        <ele>1656.8</ele>
        <time>2019-08-25T21:41:17Z</time>
      </trkpt>
      <trkpt lat="6.1390590" lon="-75.6119810">
        <ele>1656.8</ele>
        <time>2019-08-25T21:41:18Z</time>
      </trkpt>
      <trkpt lat="6.1390150" lon="-75.6119910">
        <ele>1656.9</ele>
        <time>2019-08-25T21:41:19Z</time>
      </trkpt>
      <trkpt lat="6.1389750" lon="-75.6120000">
        <ele>1656.9</ele>
        <time>2019-08-25T21:41:20Z</time>
      </trkpt>
      <trkpt lat="6.1389390" lon="-75.6120090">
        <ele>1656.9</ele>
        <time>2019-08-25T21:41:21Z</time>
      </trkpt>
      <trkpt lat="6.1389100" lon="-75.6120170">
        <ele>1656.9</ele>
        <time>2019-08-25T21:41:22Z</time>
      </trkpt>
      <trkpt lat="6.1388620" lon="-75.6120150">
        <ele>1657.1</ele>
        <time>2019-08-25T21:41:24Z</time>
      </trkpt>
      <trkpt lat="6.1388270" lon="-75.6119830">
        <ele>1657.7</ele>
        <time>2019-08-25T21:41:26Z</time>
      </trkpt>
      <trkpt lat="6.1388030" lon="-75.6119450">
        <ele>1658.4</ele>
        <time>2019-08-25T21:41:28Z</time>
      </trkpt>
      <trkpt lat="6.1387810" lon="-75.6119010">
        <ele>1659.1</ele>
        <time>2019-08-25T21:41:30Z</time>
      </trkpt>
      <trkpt lat="6.1387690" lon="-75.6118760">
        <ele>1659.5</ele>
        <time>2019-08-25T21:41:31Z</time>
      </trkpt>
      <trkpt lat="6.1387400" lon="-75.6118310">
        <ele>1660.3</ele>
        <time>2019-08-25T21:41:33Z</time>
      </trkpt>
      <trkpt lat="6.1387280" lon="-75.6118020">
        <ele>1660.7</ele>
        <time>2019-08-25T21:41:34Z</time>
      </trkpt>
      <trkpt lat="6.1387190" lon="-75.6117550">
        <ele>1661.3</ele>
        <time>2019-08-25T21:41:36Z</time>
      </trkpt>
      <trkpt lat="6.1387030" lon="-75.6117140">
        <ele>1661.8</ele>
        <time>2019-08-25T21:41:38Z</time>
      </trkpt>
      <trkpt lat="6.1386890" lon="-75.6116820">
        <ele>1662.0</ele>
        <time>2019-08-25T21:41:40Z</time>
      </trkpt>
      <trkpt lat="6.1386830" lon="-75.6116490">
        <ele>1662.3</ele>
        <time>2019-08-25T21:41:42Z</time>
      </trkpt>
      <trkpt lat="6.1386720" lon="-75.6116170">
        <ele>1662.6</ele>
        <time>2019-08-25T21:41:44Z</time>
      </trkpt>
      <trkpt lat="6.1386610" lon="-75.6115800">
        <ele>1662.9</ele>
        <time>2019-08-25T21:41:46Z</time>
      </trkpt>
      <trkpt lat="6.1386500" lon="-75.6115530">
        <ele>1663.1</ele>
        <time>2019-08-25T21:41:48Z</time>
      </trkpt>
      <trkpt lat="6.1386390" lon="-75.6115150">
        <ele>1663.5</ele>
        <time>2019-08-25T21:41:50Z</time>
      </trkpt>
      <trkpt lat="6.1386330" lon="-75.6114820">
        <ele>1663.8</ele>
        <time>2019-08-25T21:41:52Z</time>
      </trkpt>
      <trkpt lat="6.1386320" lon="-75.6114440">
        <ele>1664.3</ele>
        <time>2019-08-25T21:41:54Z</time>
      </trkpt>
      <trkpt lat="6.1386330" lon="-75.6114090">
        <ele>1664.7</ele>
        <time>2019-08-25T21:41:56Z</time>
      </trkpt>
      <trkpt lat="6.1386330" lon="-75.6113710">
        <ele>1665.2</ele>
        <time>2019-08-25T21:41:58Z</time>
      </trkpt>
      <trkpt lat="6.1386280" lon="-75.6113390">
        <ele>1665.6</ele>
        <time>2019-08-25T21:42:00Z</time>
      </trkpt>
      <trkpt lat="6.1386190" lon="-75.6113070">
        <ele>1666.1</ele>
        <time>2019-08-25T21:42:02Z</time>
      </trkpt>
      <trkpt lat="6.1385990" lon="-75.6112710">
        <ele>1666.6</ele>
        <time>2019-08-25T21:42:04Z</time>
      </trkpt>
      <trkpt lat="6.1385670" lon="-75.6112400">
        <ele>1667.3</ele>
        <time>2019-08-25T21:42:06Z</time>
      </trkpt>
      <trkpt lat="6.1385350" lon="-75.6112090">
        <ele>1668.0</ele>
        <time>2019-08-25T21:42:08Z</time>
      </trkpt>
      <trkpt lat="6.1385160" lon="-75.6111760">
        <ele>1668.6</ele>
        <time>2019-08-25T21:42:10Z</time>
      </trkpt>
      <trkpt lat="6.1385060" lon="-75.6111440">
        <ele>1669.2</ele>
        <time>2019-08-25T21:42:12Z</time>
      </trkpt>
      <trkpt lat="6.1384990" lon="-75.6111080">
        <ele>1669.9</ele>
        <time>2019-08-25T21:42:14Z</time>
      </trkpt>
      <trkpt lat="6.1384830" lon="-75.6110750">
        <ele>1670.6</ele>
        <time>2019-08-25T21:42:16Z</time>
      </trkpt>
      <trkpt lat="6.1384700" lon="-75.6110500">
        <ele>1671.2</ele>
        <time>2019-08-25T21:42:18Z</time>
      </trkpt>
      <trkpt lat="6.1384640" lon="-75.6110230">
        <ele>1671.8</ele>
        <time>2019-08-25T21:42:20Z</time>
      </trkpt>
      <trkpt lat="6.1384610" lon="-75.6109900">
        <ele>1672.5</ele>
        <time>2019-08-25T21:42:22Z</time>
      </trkpt>
      <trkpt lat="6.1384570" lon="-75.6109530">
        <ele>1673.4</ele>
        <time>2019-08-25T21:42:24Z</time>
      </trkpt>
      <trkpt lat="6.1384540" lon="-75.6109120">
        <ele>1674.4</ele>
        <time>2019-08-25T21:42:26Z</time>
      </trkpt>
      <trkpt lat="6.1384440" lon="-75.6108770">
        <ele>1675.3</ele>
        <time>2019-08-25T21:42:28Z</time>
      </trkpt>
      <trkpt lat="6.1384280" lon="-75.6108450">
        <ele>1676.3</ele>
        <time>2019-08-25T21:42:30Z</time>
      </trkpt>
      <trkpt lat="6.1384090" lon="-75.6108060">
        <ele>1677.5</ele>
        <time>2019-08-25T21:42:32Z</time>
      </trkpt>
      <trkpt lat="6.1383920" lon="-75.6107660">
        <ele>1678.9</ele>
        <time>2019-08-25T21:42:34Z</time>
      </trkpt>
      <trkpt lat="6.1383900" lon="-75.6107210">
        <ele>1680.4</ele>
        <time>2019-08-25T21:42:36Z</time>
      </trkpt>
      <trkpt lat="6.1383860" lon="-75.6106790">
        <ele>1681.9</ele>
        <time>2019-08-25T21:42:38Z</time>
      </trkpt>
      <trkpt lat="6.1383880" lon="-75.6106350">
        <ele>1683.4</ele>
        <time>2019-08-25T21:42:40Z</time>
      </trkpt>
      <trkpt lat="6.1383790" lon="-75.6105940">
        <ele>1684.8</ele>
        <time>2019-08-25T21:42:42Z</time>
      </trkpt>
      <trkpt lat="6.1383680" lon="-75.6105510">
        <ele>1686.1</ele>
        <time>2019-08-25T21:42:44Z</time>
      </trkpt>
      <trkpt lat="6.1383520" lon="-75.6105120">
        <ele>1687.4</ele>
        <time>2019-08-25T21:42:46Z</time>
      </trkpt>
      <trkpt lat="6.1383330" lon="-75.6104760">
        <ele>1688.5</ele>
        <time>2019-08-25T21:42:48Z</time>
      </trkpt>
      <trkpt lat="6.1383190" lon="-75.6104510">
        <ele>1689.2</ele>
        <time>2019-08-25T21:42:50Z</time>
      </trkpt>
      <trkpt lat="6.1382890" lon="-75.6104350">
        <ele>1690.1</ele>
        <time>2019-08-25T21:42:52Z</time>
      </trkpt>
      <trkpt lat="6.1382670" lon="-75.6104180">
        <ele>1690.7</ele>
        <time>2019-08-25T21:42:54Z</time>
      </trkpt>
      <trkpt lat="6.1382400" lon="-75.6103890">
        <ele>1691.6</ele>
        <time>2019-08-25T21:42:57Z</time>
      </trkpt>
      <trkpt lat="6.1382250" lon="-75.6103620">
        <ele>1692.2</ele>
        <time>2019-08-25T21:42:59Z</time>
      </trkpt>
      <trkpt lat="6.1382010" lon="-75.6103340">
        <ele>1693.0</ele>
        <time>2019-08-25T21:43:01Z</time>
      </trkpt>
      <trkpt lat="6.1381780" lon="-75.6102990">
        <ele>1693.8</ele>
        <time>2019-08-25T21:43:04Z</time>
      </trkpt>
      <trkpt lat="6.1381640" lon="-75.6102730">
        <ele>1694.4</ele>
        <time>2019-08-25T21:43:06Z</time>
      </trkpt>
      <trkpt lat="6.1381440" lon="-75.6102510">
        <ele>1695.5</ele>
        <time>2019-08-25T21:43:08Z</time>
      </trkpt>
      <trkpt lat="6.1381280" lon="-75.6102230">
        <ele>1696.2</ele>
        <time>2019-08-25T21:43:10Z</time>
      </trkpt>
      <trkpt lat="6.1381100" lon="-75.6101880">
        <ele>1697.3</ele>
        <time>2019-08-25T21:43:13Z</time>
      </trkpt>
      <trkpt lat="6.1380950" lon="-75.6101640">
        <ele>1698.0</ele>
        <time>2019-08-25T21:43:15Z</time>
      </trkpt>
      <trkpt lat="6.1380810" lon="-75.6101390">
        <ele>1698.7</ele>
        <time>2019-08-25T21:43:17Z</time>
      </trkpt>
      <trkpt lat="6.1380610" lon="-75.6101110">
        <ele>1699.4</ele>
        <time>2019-08-25T21:43:19Z</time>
      </trkpt>
      <trkpt lat="6.1380430" lon="-75.6100700">
        <ele>1700.4</ele>
        <time>2019-08-25T21:43:21Z</time>
      </trkpt>
      <trkpt lat="6.1380310" lon="-75.6100370">
        <ele>1701.4</ele>
        <time>2019-08-25T21:43:23Z</time>
      </trkpt>
      <trkpt lat="6.1380210" lon="-75.6100060">
        <ele>1702.3</ele>
        <time>2019-08-25T21:43:25Z</time>
      </trkpt>
      <trkpt lat="6.1380030" lon="-75.6099760">
        <ele>1703.3</ele>
        <time>2019-08-25T21:43:28Z</time>
      </trkpt>
      <trkpt lat="6.1379830" lon="-75.6099520">
        <ele>1704.1</ele>
        <time>2019-08-25T21:43:31Z</time>
      </trkpt>
      <trkpt lat="6.1379640" lon="-75.6099260">
        <ele>1704.8</ele>
        <time>2019-08-25T21:43:34Z</time>
      </trkpt>
      <trkpt lat="6.1379390" lon="-75.6098990">
        <ele>1705.6</ele>
        <time>2019-08-25T21:43:37Z</time>
      </trkpt>
      <trkpt lat="6.1379110" lon="-75.6098780">
        <ele>1706.3</ele>
        <time>2019-08-25T21:43:41Z</time>
      </trkpt>
      <trkpt lat="6.1378880" lon="-75.6098580">
        <ele>1707.1</ele>
        <time>2019-08-25T21:43:44Z</time>
      </trkpt>
      <trkpt lat="6.1378700" lon="-75.6098300">
        <ele>1707.8</ele>
        <time>2019-08-25T21:43:49Z</time>
      </trkpt>
      <trkpt lat="6.1378700" lon="-75.6098010">
        <ele>1708.5</ele>
        <time>2019-08-25T21:43:53Z</time>
      </trkpt>
      <trkpt lat="6.1378430" lon="-75.6097700">
        <ele>1709.4</ele>
        <time>2019-08-25T21:43:56Z</time>
      </trkpt>
      <trkpt lat="6.1378120" lon="-75.6097380">
        <ele>1710.5</ele>
        <time>2019-08-25T21:43:58Z</time>
      </trkpt>
      <trkpt lat="6.1377820" lon="-75.6097090">
        <ele>1711.5</ele>
        <time>2019-08-25T21:44:00Z</time>
      </trkpt>
      <trkpt lat="6.1377730" lon="-75.6096760">
        <ele>1712.3</ele>
        <time>2019-08-25T21:44:03Z</time>
      </trkpt>
      <trkpt lat="6.1377600" lon="-75.6096490">
        <ele>1713.0</ele>
        <time>2019-08-25T21:44:07Z</time>
      </trkpt>
      <trkpt lat="6.1377250" lon="-75.6096400">
        <ele>1713.9</ele>
        <time>2019-08-25T21:44:09Z</time>
      </trkpt>
      <trkpt lat="6.1376960" lon="-75.6096300">
        <ele>1714.6</ele>
        <time>2019-08-25T21:44:11Z</time>
      </trkpt>
      <trkpt lat="6.1376810" lon="-75.6096000">
        <ele>1715.6</ele>
        <time>2019-08-25T21:44:15Z</time>
      </trkpt>
      <trkpt lat="6.1376650" lon="-75.6095710">
        <ele>1716.4</ele>
        <time>2019-08-25T21:44:17Z</time>
      </trkpt>
      <trkpt lat="6.1376440" lon="-75.6095500">
        <ele>1717.0</ele>
        <time>2019-08-25T21:44:19Z</time>
      </trkpt>
      <trkpt lat="6.1376310" lon="-75.6095260">
        <ele>1717.6</ele>
        <time>2019-08-25T21:44:22Z</time>
      </trkpt>
      <trkpt lat="6.1376130" lon="-75.6094960">
        <ele>1718.4</ele>
        <time>2019-08-25T21:44:25Z</time>
      </trkpt>
      <trkpt lat="6.1376000" lon="-75.6094700">
        <ele>1719.0</ele>
        <time>2019-08-25T21:44:28Z</time>
      </trkpt>
      <trkpt lat="6.1375870" lon="-75.6094430">
        <ele>1719.7</ele>
        <time>2019-08-25T21:44:33Z</time>
      </trkpt>
      <trkpt lat="6.1375600" lon="-75.6094130">
        <ele>1720.6</ele>
        <time>2019-08-25T21:44:36Z</time>
      </trkpt>
      <trkpt lat="6.1375430" lon="-75.6093880">
        <ele>1721.3</ele>
        <time>2019-08-25T21:44:38Z</time>
      </trkpt>
      <trkpt lat="6.1375230" lon="-75.6093670">
        <ele>1722.1</ele>
        <time>2019-08-25T21:44:41Z</time>
      </trkpt>
      <trkpt lat="6.1375120" lon="-75.6093390">
        <ele>1722.9</ele>
        <time>2019-08-25T21:44:44Z</time>
      </trkpt>
      <trkpt lat="6.1374970" lon="-75.6093140">
        <ele>1723.6</ele>
        <time>2019-08-25T21:44:49Z</time>
      </trkpt>
      <trkpt lat="6.1374770" lon="-75.6092870">
        <ele>1724.5</ele>
        <time>2019-08-25T21:44:52Z</time>
      </trkpt>
      <trkpt lat="6.1374650" lon="-75.6092570">
        <ele>1725.2</ele>
        <time>2019-08-25T21:44:55Z</time>
      </trkpt>
      <trkpt lat="6.1374600" lon="-75.6092260">
        <ele>1726.0</ele>
        <time>2019-08-25T21:44:58Z</time>
      </trkpt>
      <trkpt lat="6.1374510" lon="-75.6092000">
        <ele>1726.6</ele>
        <time>2019-08-25T21:45:01Z</time>
      </trkpt>
      <trkpt lat="6.1374380" lon="-75.6091720">
        <ele>1727.3</ele>
        <time>2019-08-25T21:45:04Z</time>
      </trkpt>
      <trkpt lat="6.1374130" lon="-75.6091500">
        <ele>1728.1</ele>
        <time>2019-08-25T21:45:07Z</time>
      </trkpt>
      <trkpt lat="6.1374020" lon="-75.6091240">
        <ele>1728.7</ele>
        <time>2019-08-25T21:45:11Z</time>
      </trkpt>
      <trkpt lat="6.1373820" lon="-75.6090940">
        <ele>1729.4</ele>
        <time>2019-08-25T21:45:14Z</time>
      </trkpt>
      <trkpt lat="6.1373610" lon="-75.6090680">
        <ele>1730.0</ele>
        <time>2019-08-25T21:45:17Z</time>
      </trkpt>
      <trkpt lat="6.1373440" lon="-75.6090390">
        <ele>1730.8</ele>
        <time>2019-08-25T21:45:20Z</time>
      </trkpt>
      <trkpt lat="6.1373460" lon="-75.6090090">
        <ele>1731.5</ele>
        <time>2019-08-25T21:45:24Z</time>
      </trkpt>
      <trkpt lat="6.1373470" lon="-75.6089740">
        <ele>1732.3</ele>
        <time>2019-08-25T21:45:28Z</time>
      </trkpt>
      <trkpt lat="6.1373440" lon="-75.6089420">
        <ele>1733.0</ele>
        <time>2019-08-25T21:45:31Z</time>
      </trkpt>
      <trkpt lat="6.1373470" lon="-75.6089100">
        <ele>1733.7</ele>
        <time>2019-08-25T21:45:34Z</time>
      </trkpt>
      <trkpt lat="6.1373520" lon="-75.6088750">
        <ele>1734.5</ele>
        <time>2019-08-25T21:45:37Z</time>
      </trkpt>
      <trkpt lat="6.1373450" lon="-75.6088350">
        <ele>1735.5</ele>
        <time>2019-08-25T21:45:40Z</time>
      </trkpt>
      <trkpt lat="6.1373410" lon="-75.6088000">
        <ele>1736.2</ele>
        <time>2019-08-25T21:45:43Z</time>
      </trkpt>
      <trkpt lat="6.1373540" lon="-75.6087630">
        <ele>1737.0</ele>
        <time>2019-08-25T21:45:46Z</time>
      </trkpt>
      <trkpt lat="6.1373700" lon="-75.6087400">
        <ele>1737.6</ele>
        <time>2019-08-25T21:45:48Z</time>
      </trkpt>
      <trkpt lat="6.1373850" lon="-75.6087170">
        <ele>1738.2</ele>
        <time>2019-08-25T21:45:50Z</time>
      </trkpt>
      <trkpt lat="6.1373890" lon="-75.6086830">
        <ele>1738.8</ele>
        <time>2019-08-25T21:45:53Z</time>
      </trkpt>
      <trkpt lat="6.1373950" lon="-75.6086510">
        <ele>1739.4</ele>
        <time>2019-08-25T21:45:56Z</time>
      </trkpt>
      <trkpt lat="6.1374050" lon="-75.6086190">
        <ele>1739.9</ele>
        <time>2019-08-25T21:45:59Z</time>
      </trkpt>
      <trkpt lat="6.1374150" lon="-75.6085820">
        <ele>1740.6</ele>
        <time>2019-08-25T21:46:02Z</time>
      </trkpt>
      <trkpt lat="6.1374140" lon="-75.6085420">
        <ele>1741.4</ele>
        <time>2019-08-25T21:46:05Z</time>
      </trkpt>
      <trkpt lat="6.1374150" lon="-75.6085060">
        <ele>1742.0</ele>
        <time>2019-08-25T21:46:08Z</time>
      </trkpt>
      <trkpt lat="6.1374140" lon="-75.6084750">
        <ele>1742.6</ele>
        <time>2019-08-25T21:46:10Z</time>
      </trkpt>
      <trkpt lat="6.1374160" lon="-75.6084380">
        <ele>1743.3</ele>
        <time>2019-08-25T21:46:13Z</time>
      </trkpt>
      <trkpt lat="6.1374280" lon="-75.6084070">
        <ele>1743.8</ele>
        <time>2019-08-25T21:46:16Z</time>
      </trkpt>
      <trkpt lat="6.1374450" lon="-75.6083700">
        <ele>1744.5</ele>
        <time>2019-08-25T21:46:19Z</time>
      </trkpt>
      <trkpt lat="6.1374500" lon="-75.6083350">
        <ele>1745.2</ele>
        <time>2019-08-25T21:46:22Z</time>
      </trkpt>
      <trkpt lat="6.1374260" lon="-75.6083100">
        <ele>1745.9</ele>
        <time>2019-08-25T21:46:24Z</time>
      </trkpt>
      <trkpt lat="6.1374000" lon="-75.6082850">
        <ele>1746.6</ele>
        <time>2019-08-25T21:46:26Z</time>
      </trkpt>
      <trkpt lat="6.1373860" lon="-75.6082590">
        <ele>1747.1</ele>
        <time>2019-08-25T21:46:28Z</time>
      </trkpt>
      <trkpt lat="6.1373780" lon="-75.6082310">
        <ele>1747.5</ele>
        <time>2019-08-25T21:46:30Z</time>
      </trkpt>
      <trkpt lat="6.1373750" lon="-75.6082010">
        <ele>1748.0</ele>
        <time>2019-08-25T21:46:32Z</time>
      </trkpt>
      <trkpt lat="6.1373790" lon="-75.6081620">
        <ele>1748.6</ele>
        <time>2019-08-25T21:46:35Z</time>
      </trkpt>
      <trkpt lat="6.1373770" lon="-75.6081340">
        <ele>1749.0</ele>
        <time>2019-08-25T21:46:37Z</time>
      </trkpt>
      <trkpt lat="6.1373710" lon="-75.6080980">
        <ele>1749.6</ele>
        <time>2019-08-25T21:46:40Z</time>
      </trkpt>
      <trkpt lat="6.1373870" lon="-75.6080680">
        <ele>1750.2</ele>
        <time>2019-08-25T21:46:43Z</time>
      </trkpt>
      <trkpt lat="6.1373900" lon="-75.6080380">
        <ele>1750.8</ele>
        <time>2019-08-25T21:46:46Z</time>
      </trkpt>
      <trkpt lat="6.1373700" lon="-75.6080140">
        <ele>1751.4</ele>
        <time>2019-08-25T21:46:48Z</time>
      </trkpt>
      <trkpt lat="6.1373480" lon="-75.6079920">
        <ele>1751.9</ele>
        <time>2019-08-25T21:46:50Z</time>
      </trkpt>
      <trkpt lat="6.1373460" lon="-75.6079550">
        <ele>1752.6</ele>
        <time>2019-08-25T21:46:54Z</time>
      </trkpt>
      <trkpt lat="6.1373330" lon="-75.6079250">
        <ele>1753.2</ele>
        <time>2019-08-25T21:46:57Z</time>
      </trkpt>
      <trkpt lat="6.1373120" lon="-75.6079050">
        <ele>1753.7</ele>
        <time>2019-08-25T21:46:59Z</time>
      </trkpt>
      <trkpt lat="6.1372980" lon="-75.6078750">
        <ele>1754.2</ele>
        <time>2019-08-25T21:47:02Z</time>
      </trkpt>
      <trkpt lat="6.1372930" lon="-75.6078460">
        <ele>1754.7</ele>
        <time>2019-08-25T21:47:05Z</time>
      </trkpt>
      <trkpt lat="6.1372740" lon="-75.6078220">
        <ele>1755.3</ele>
        <time>2019-08-25T21:47:07Z</time>
      </trkpt>
      <trkpt lat="6.1372580" lon="-75.6078010">
        <ele>1755.7</ele>
        <time>2019-08-25T21:47:09Z</time>
      </trkpt>
      <trkpt lat="6.1372430" lon="-75.6077770">
        <ele>1756.1</ele>
        <time>2019-08-25T21:47:11Z</time>
      </trkpt>
      <trkpt lat="6.1372350" lon="-75.6077500">
        <ele>1756.5</ele>
        <time>2019-08-25T21:47:13Z</time>
      </trkpt>
      <trkpt lat="6.1372340" lon="-75.6077210">
        <ele>1756.9</ele>
        <time>2019-08-25T21:47:15Z</time>
      </trkpt>
      <trkpt lat="6.1372260" lon="-75.6076840">
        <ele>1757.5</ele>
        <time>2019-08-25T21:47:18Z</time>
      </trkpt>
      <trkpt lat="6.1372160" lon="-75.6076490">
        <ele>1758.1</ele>
        <time>2019-08-25T21:47:21Z</time>
      </trkpt>
      <trkpt lat="6.1372050" lon="-75.6076240">
        <ele>1758.5</ele>
        <time>2019-08-25T21:47:23Z</time>
      </trkpt>
      <trkpt lat="6.1371840" lon="-75.6075970">
        <ele>1759.0</ele>
        <time>2019-08-25T21:47:25Z</time>
      </trkpt>
      <trkpt lat="6.1371680" lon="-75.6075660">
        <ele>1759.6</ele>
        <time>2019-08-25T21:47:27Z</time>
      </trkpt>
      <trkpt lat="6.1371490" lon="-75.6075310">
        <ele>1760.2</ele>
        <time>2019-08-25T21:47:29Z</time>
      </trkpt>
      <trkpt lat="6.1371350" lon="-75.6074970">
        <ele>1760.8</ele>
        <time>2019-08-25T21:47:31Z</time>
      </trkpt>
      <trkpt lat="6.1371240" lon="-75.6074710">
        <ele>1761.3</ele>
        <time>2019-08-25T21:47:33Z</time>
      </trkpt>
      <trkpt lat="6.1371100" lon="-75.6074410">
        <ele>1761.8</ele>
        <time>2019-08-25T21:47:36Z</time>
      </trkpt>
      <trkpt lat="6.1371000" lon="-75.6074140">
        <ele>1762.4</ele>
        <time>2019-08-25T21:47:38Z</time>
      </trkpt>
      <trkpt lat="6.1370900" lon="-75.6073840">
        <ele>1762.9</ele>
        <time>2019-08-25T21:47:40Z</time>
      </trkpt>
      <trkpt lat="6.1370780" lon="-75.6073550">
        <ele>1763.4</ele>
        <time>2019-08-25T21:47:42Z</time>
      </trkpt>
      <trkpt lat="6.1370710" lon="-75.6073260">
        <ele>1763.9</ele>
        <time>2019-08-25T21:47:44Z</time>
      </trkpt>
      <trkpt lat="6.1370660" lon="-75.6072950">
        <ele>1764.4</ele>
        <time>2019-08-25T21:47:46Z</time>
      </trkpt>
      <trkpt lat="6.1370630" lon="-75.6072670">
        <ele>1764.8</ele>
        <time>2019-08-25T21:47:48Z</time>
      </trkpt>
      <trkpt lat="6.1370620" lon="-75.6072360">
        <ele>1765.2</ele>
        <time>2019-08-25T21:47:50Z</time>
      </trkpt>
      <trkpt lat="6.1370590" lon="-75.6072080">
        <ele>1765.6</ele>
        <time>2019-08-25T21:47:52Z</time>
      </trkpt>
      <trkpt lat="6.1370480" lon="-75.6071780">
        <ele>1766.1</ele>
        <time>2019-08-25T21:47:55Z</time>
      </trkpt>
      <trkpt lat="6.1370270" lon="-75.6071490">
        <ele>1766.6</ele>
        <time>2019-08-25T21:47:59Z</time>
      </trkpt>
      <trkpt lat="6.1370110" lon="-75.6071210">
        <ele>1767.1</ele>
        <time>2019-08-25T21:48:01Z</time>
      </trkpt>
      <trkpt lat="6.1369950" lon="-75.6070870">
        <ele>1767.7</ele>
        <time>2019-08-25T21:48:04Z</time>
      </trkpt>
      <trkpt lat="6.1369830" lon="-75.6070600">
        <ele>1768.1</ele>
        <time>2019-08-25T21:48:06Z</time>
      </trkpt>
      <trkpt lat="6.1369710" lon="-75.6070330">
        <ele>1768.6</ele>
        <time>2019-08-25T21:48:08Z</time>
      </trkpt>
      <trkpt lat="6.1369470" lon="-75.6070100">
        <ele>1769.0</ele>
        <time>2019-08-25T21:48:11Z</time>
      </trkpt>
      <trkpt lat="6.1369100" lon="-75.6069850">
        <ele>1769.7</ele>
        <time>2019-08-25T21:48:14Z</time>
      </trkpt>
      <trkpt lat="6.1368910" lon="-75.6069530">
        <ele>1770.2</ele>
        <time>2019-08-25T21:48:16Z</time>
      </trkpt>
      <trkpt lat="6.1368760" lon="-75.6069150">
        <ele>1770.8</ele>
        <time>2019-08-25T21:48:18Z</time>
      </trkpt>
      <trkpt lat="6.1368560" lon="-75.6068830">
        <ele>1771.3</ele>
        <time>2019-08-25T21:48:20Z</time>
      </trkpt>
      <trkpt lat="6.1368390" lon="-75.6068540">
        <ele>1771.7</ele>
        <time>2019-08-25T21:48:22Z</time>
      </trkpt>
      <trkpt lat="6.1368350" lon="-75.6068240">
        <ele>1772.1</ele>
        <time>2019-08-25T21:48:24Z</time>
      </trkpt>
      <trkpt lat="6.1368200" lon="-75.6067960">
        <ele>1772.5</ele>
        <time>2019-08-25T21:48:26Z</time>
      </trkpt>
      <trkpt lat="6.1368060" lon="-75.6067640">
        <ele>1772.9</ele>
        <time>2019-08-25T21:48:28Z</time>
      </trkpt>
      <trkpt lat="6.1367890" lon="-75.6067330">
        <ele>1773.3</ele>
        <time>2019-08-25T21:48:30Z</time>
      </trkpt>
      <trkpt lat="6.1367580" lon="-75.6067100">
        <ele>1773.8</ele>
        <time>2019-08-25T21:48:33Z</time>
      </trkpt>
      <trkpt lat="6.1367460" lon="-75.6066840">
        <ele>1774.2</ele>
        <time>2019-08-25T21:48:35Z</time>
      </trkpt>
      <trkpt lat="6.1367440" lon="-75.6066560">
        <ele>1774.5</ele>
        <time>2019-08-25T21:48:37Z</time>
      </trkpt>
      <trkpt lat="6.1367330" lon="-75.6066250">
        <ele>1774.9</ele>
        <time>2019-08-25T21:48:39Z</time>
      </trkpt>
      <trkpt lat="6.1367100" lon="-75.6065880">
        <ele>1775.7</ele>
        <time>2019-08-25T21:48:41Z</time>
      </trkpt>
      <trkpt lat="6.1366780" lon="-75.6065560">
        <ele>1776.5</ele>
        <time>2019-08-25T21:48:43Z</time>
      </trkpt>
      <trkpt lat="6.1366530" lon="-75.6065300">
        <ele>1777.2</ele>
        <time>2019-08-25T21:48:45Z</time>
      </trkpt>
      <trkpt lat="6.1366410" lon="-75.6065030">
        <ele>1777.7</ele>
        <time>2019-08-25T21:48:47Z</time>
      </trkpt>
      <trkpt lat="6.1366330" lon="-75.6064690">
        <ele>1778.2</ele>
        <time>2019-08-25T21:48:49Z</time>
      </trkpt>
      <trkpt lat="6.1366170" lon="-75.6064330">
        <ele>1778.8</ele>
        <time>2019-08-25T21:48:51Z</time>
      </trkpt>
      <trkpt lat="6.1365970" lon="-75.6064040">
        <ele>1779.4</ele>
        <time>2019-08-25T21:48:53Z</time>
      </trkpt>
      <trkpt lat="6.1365790" lon="-75.6063820">
        <ele>1779.8</ele>
        <time>2019-08-25T21:48:55Z</time>
      </trkpt>
      <trkpt lat="6.1365670" lon="-75.6063530">
        <ele>1780.4</ele>
        <time>2019-08-25T21:48:57Z</time>
      </trkpt>
      <trkpt lat="6.1365650" lon="-75.6063220">
        <ele>1781.0</ele>
        <time>2019-08-25T21:48:59Z</time>
      </trkpt>
      <trkpt lat="6.1365630" lon="-75.6062930">
        <ele>1781.5</ele>
        <time>2019-08-25T21:49:01Z</time>
      </trkpt>
      <trkpt lat="6.1365590" lon="-75.6062560">
        <ele>1782.2</ele>
        <time>2019-08-25T21:49:04Z</time>
      </trkpt>
      <trkpt lat="6.1365570" lon="-75.6062110">
        <ele>1783.1</ele>
        <time>2019-08-25T21:49:07Z</time>
      </trkpt>
      <trkpt lat="6.1365550" lon="-75.6061780">
        <ele>1783.7</ele>
        <time>2019-08-25T21:49:09Z</time>
      </trkpt>
      <trkpt lat="6.1365400" lon="-75.6061390">
        <ele>1784.5</ele>
        <time>2019-08-25T21:49:12Z</time>
      </trkpt>
      <trkpt lat="6.1365220" lon="-75.6061080">
        <ele>1785.1</ele>
        <time>2019-08-25T21:49:15Z</time>
      </trkpt>
      <trkpt lat="6.1365220" lon="-75.6060700">
        <ele>1785.7</ele>
        <time>2019-08-25T21:49:18Z</time>
      </trkpt>
      <trkpt lat="6.1365240" lon="-75.6060280">
        <ele>1786.3</ele>
        <time>2019-08-25T21:49:21Z</time>
      </trkpt>
      <trkpt lat="6.1365280" lon="-75.6059940">
        <ele>1786.7</ele>
        <time>2019-08-25T21:49:23Z</time>
      </trkpt>
      <trkpt lat="6.1365450" lon="-75.6059620">
        <ele>1787.1</ele>
        <time>2019-08-25T21:49:25Z</time>
      </trkpt>
      <trkpt lat="6.1365570" lon="-75.6059250">
        <ele>1787.6</ele>
        <time>2019-08-25T21:49:27Z</time>
      </trkpt>
      <trkpt lat="6.1365640" lon="-75.6058880">
        <ele>1788.0</ele>
        <time>2019-08-25T21:49:29Z</time>
      </trkpt>
      <trkpt lat="6.1365760" lon="-75.6058500">
        <ele>1788.5</ele>
        <time>2019-08-25T21:49:31Z</time>
      </trkpt>
      <trkpt lat="6.1365890" lon="-75.6058060">
        <ele>1788.9</ele>
        <time>2019-08-25T21:49:33Z</time>
      </trkpt>
      <trkpt lat="6.1366000" lon="-75.6057630">
        <ele>1789.4</ele>
        <time>2019-08-25T21:49:35Z</time>
      </trkpt>
      <trkpt lat="6.1366060" lon="-75.6057100">
        <ele>1789.7</ele>
        <time>2019-08-25T21:49:37Z</time>
      </trkpt>
      <trkpt lat="6.1366090" lon="-75.6056830">
        <ele>1789.8</ele>
        <time>2019-08-25T21:49:38Z</time>
      </trkpt>
      <trkpt lat="6.1366120" lon="-75.6056560">
        <ele>1790.0</ele>
        <time>2019-08-25T21:49:39Z</time>
      </trkpt>
      <trkpt lat="6.1366150" lon="-75.6056290">
        <ele>1790.1</ele>
        <time>2019-08-25T21:49:40Z</time>
      </trkpt>
      <trkpt lat="6.1366270" lon="-75.6055810">
        <ele>1790.4</ele>
        <time>2019-08-25T21:49:42Z</time>
      </trkpt>
      <trkpt lat="6.1366440" lon="-75.6055330">
        <ele>1790.6</ele>
        <time>2019-08-25T21:49:44Z</time>
      </trkpt>
      <trkpt lat="6.1366600" lon="-75.6054940">
        <ele>1790.9</ele>
        <time>2019-08-25T21:49:46Z</time>
      </trkpt>
      <trkpt lat="6.1366710" lon="-75.6054630">
        <ele>1791.0</ele>
        <time>2019-08-25T21:49:48Z</time>
      </trkpt>
      <trkpt lat="6.1366710" lon="-75.6054240">
        <ele>1791.4</ele>
        <time>2019-08-25T21:49:50Z</time>
      </trkpt>
      <trkpt lat="6.1366690" lon="-75.6053800">
        <ele>1791.9</ele>
        <time>2019-08-25T21:49:52Z</time>
      </trkpt>
      <trkpt lat="6.1366660" lon="-75.6053310">
        <ele>1792.4</ele>
        <time>2019-08-25T21:49:54Z</time>
      </trkpt>
      <trkpt lat="6.1366610" lon="-75.6052860">
        <ele>1792.9</ele>
        <time>2019-08-25T21:49:56Z</time>
      </trkpt>
      <trkpt lat="6.1366670" lon="-75.6052520">
        <ele>1793.2</ele>
        <time>2019-08-25T21:49:58Z</time>
      </trkpt>
      <trkpt lat="6.1366780" lon="-75.6052180">
        <ele>1793.6</ele>
        <time>2019-08-25T21:50:00Z</time>
      </trkpt>
      <trkpt lat="6.1366970" lon="-75.6051760">
        <ele>1794.1</ele>
        <time>2019-08-25T21:50:02Z</time>
      </trkpt>
      <trkpt lat="6.1367140" lon="-75.6051390">
        <ele>1794.6</ele>
        <time>2019-08-25T21:50:04Z</time>
      </trkpt>
      <trkpt lat="6.1367190" lon="-75.6051040">
        <ele>1793.2</ele>
        <time>2019-08-25T21:50:06Z</time>
      </trkpt>
      <trkpt lat="6.1366840" lon="-75.6050560">
        <ele>1792.4</ele>
        <time>2019-08-25T21:50:08Z</time>
      </trkpt>
      <trkpt lat="6.1366610" lon="-75.6050240">
        <ele>1791.9</ele>
        <time>2019-08-25T21:50:09Z</time>
      </trkpt>
      <trkpt lat="6.1366330" lon="-75.6049820">
        <ele>1791.2</ele>
        <time>2019-08-25T21:50:10Z</time>
      </trkpt>
      <trkpt lat="6.1366130" lon="-75.6049230">
        <ele>1790.4</ele>
        <time>2019-08-25T21:50:11Z</time>
      </trkpt>
      <trkpt lat="6.1365880" lon="-75.6048540">
        <ele>1789.7</ele>
        <time>2019-08-25T21:50:12Z</time>
      </trkpt>
      <trkpt lat="6.1365600" lon="-75.6047820">
        <ele>1789.1</ele>
        <time>2019-08-25T21:50:13Z</time>
      </trkpt>
      <trkpt lat="6.1365200" lon="-75.6047090">
        <ele>1788.3</ele>
        <time>2019-08-25T21:50:14Z</time>
      </trkpt>
      <trkpt lat="6.1364680" lon="-75.6046440">
        <ele>1787.5</ele>
        <time>2019-08-25T21:50:15Z</time>
      </trkpt>
      <trkpt lat="6.1364110" lon="-75.6045890">
        <ele>1786.9</ele>
        <time>2019-08-25T21:50:16Z</time>
      </trkpt>
      <trkpt lat="6.1362780" lon="-75.6045690">
        <ele>1785.2</ele>
        <time>2019-08-25T21:50:17Z</time>
      </trkpt>
      <trkpt lat="6.1362320" lon="-75.6045410">
        <ele>1784.5</ele>
        <time>2019-08-25T21:50:18Z</time>
      </trkpt>
      <trkpt lat="6.1361470" lon="-75.6044920">
        <ele>1783.1</ele>
        <time>2019-08-25T21:50:19Z</time>
      </trkpt>
      <trkpt lat="6.1360800" lon="-75.6044330">
        <ele>1782.2</ele>
        <time>2019-08-25T21:50:20Z</time>
      </trkpt>
      <trkpt lat="6.1360080" lon="-75.6043690">
        <ele>1781.7</ele>
        <time>2019-08-25T21:50:21Z</time>
      </trkpt>
      <trkpt lat="6.1359400" lon="-75.6043420">
        <ele>1781.7</ele>
        <time>2019-08-25T21:50:22Z</time>
      </trkpt>
      <trkpt lat="6.1358650" lon="-75.6043270">
        <ele>1782.3</ele>
        <time>2019-08-25T21:50:23Z</time>
      </trkpt>
      <trkpt lat="6.1358020" lon="-75.6042740">
        <ele>1783.3</ele>
        <time>2019-08-25T21:50:24Z</time>
      </trkpt>
      <trkpt lat="6.1357380" lon="-75.6042910">
        <ele>1784.1</ele>
        <time>2019-08-25T21:50:25Z</time>
      </trkpt>
      <trkpt lat="6.1356770" lon="-75.6042950">
        <ele>1784.9</ele>
        <time>2019-08-25T21:50:26Z</time>
      </trkpt>
      <trkpt lat="6.1357030" lon="-75.6044130">
        <ele>1786.7</ele>
        <time>2019-08-25T21:50:27Z</time>
      </trkpt>
      <trkpt lat="6.1356770" lon="-75.6044570">
        <ele>1787.3</ele>
        <time>2019-08-25T21:50:29Z</time>
      </trkpt>
      <trkpt lat="6.1356650" lon="-75.6044810">
        <ele>1787.8</ele>
        <time>2019-08-25T21:50:30Z</time>
      </trkpt>
      <trkpt lat="6.1356560" lon="-75.6045300">
        <ele>1788.5</ele>
        <time>2019-08-25T21:50:32Z</time>
      </trkpt>
      <trkpt lat="6.1356500" lon="-75.6045620">
        <ele>1789.1</ele>
        <time>2019-08-25T21:50:34Z</time>
      </trkpt>
      <trkpt lat="6.1356170" lon="-75.6045940">
        <ele>1789.8</ele>
        <time>2019-08-25T21:50:37Z</time>
      </trkpt>
      <trkpt lat="6.1356140" lon="-75.6046350">
        <ele>1790.3</ele>
        <time>2019-08-25T21:50:39Z</time>
      </trkpt>
      <trkpt lat="6.1356110" lon="-75.6046650">
        <ele>1790.6</ele>
        <time>2019-08-25T21:50:41Z</time>
      </trkpt>
      <trkpt lat="6.1356060" lon="-75.6046970">
        <ele>1790.9</ele>
        <time>2019-08-25T21:50:43Z</time>
      </trkpt>
      <trkpt lat="6.1355930" lon="-75.6047410">
        <ele>1791.4</ele>
        <time>2019-08-25T21:50:46Z</time>
      </trkpt>
      <trkpt lat="6.1355840" lon="-75.6047670">
        <ele>1791.6</ele>
        <time>2019-08-25T21:50:48Z</time>
      </trkpt>
      <trkpt lat="6.1355800" lon="-75.6047970">
        <ele>1791.8</ele>
        <time>2019-08-25T21:50:50Z</time>
      </trkpt>
      <trkpt lat="6.1355840" lon="-75.6048360">
        <ele>1792.0</ele>
        <time>2019-08-25T21:50:52Z</time>
      </trkpt>
      <trkpt lat="6.1355740" lon="-75.6048750">
        <ele>1792.1</ele>
        <time>2019-08-25T21:50:54Z</time>
      </trkpt>
      <trkpt lat="6.1355540" lon="-75.6049040">
        <ele>1792.3</ele>
        <time>2019-08-25T21:50:56Z</time>
      </trkpt>
      <trkpt lat="6.1355290" lon="-75.6049230">
        <ele>1792.3</ele>
        <time>2019-08-25T21:50:58Z</time>
      </trkpt>
      <trkpt lat="6.1354920" lon="-75.6049330">
        <ele>1792.4</ele>
        <time>2019-08-25T21:51:01Z</time>
      </trkpt>
      <trkpt lat="6.1354560" lon="-75.6049420">
        <ele>1792.5</ele>
        <time>2019-08-25T21:51:03Z</time>
      </trkpt>
      <trkpt lat="6.1354220" lon="-75.6049480">
        <ele>1792.6</ele>
        <time>2019-08-25T21:51:05Z</time>
      </trkpt>
      <trkpt lat="6.1353920" lon="-75.6049530">
        <ele>1792.6</ele>
        <time>2019-08-25T21:51:07Z</time>
      </trkpt>
      <trkpt lat="6.1353540" lon="-75.6049520">
        <ele>1792.7</ele>
        <time>2019-08-25T21:51:09Z</time>
      </trkpt>
      <trkpt lat="6.1353190" lon="-75.6049420">
        <ele>1792.7</ele>
        <time>2019-08-25T21:51:11Z</time>
      </trkpt>
      <trkpt lat="6.1352860" lon="-75.6049320">
        <ele>1792.7</ele>
        <time>2019-08-25T21:51:13Z</time>
      </trkpt>
      <trkpt lat="6.1352490" lon="-75.6049270">
        <ele>1792.8</ele>
        <time>2019-08-25T21:51:16Z</time>
      </trkpt>
      <trkpt lat="6.1352180" lon="-75.6049160">
        <ele>1792.8</ele>
        <time>2019-08-25T21:51:18Z</time>
      </trkpt>
      <trkpt lat="6.1351720" lon="-75.6048900">
        <ele>1792.8</ele>
        <time>2019-08-25T21:51:20Z</time>
      </trkpt>
      <trkpt lat="6.1351410" lon="-75.6048760">
        <ele>1792.8</ele>
        <time>2019-08-25T21:51:21Z</time>
      </trkpt>
      <trkpt lat="6.1351030" lon="-75.6048580">
        <ele>1792.8</ele>
        <time>2019-08-25T21:51:22Z</time>
      </trkpt>
      <trkpt lat="6.1350630" lon="-75.6048390">
        <ele>1792.9</ele>
        <time>2019-08-25T21:51:23Z</time>
      </trkpt>
      <trkpt lat="6.1350220" lon="-75.6048190">
        <ele>1793.0</ele>
        <time>2019-08-25T21:51:24Z</time>
      </trkpt>
      <trkpt lat="6.1349790" lon="-75.6047990">
        <ele>1793.0</ele>
        <time>2019-08-25T21:51:25Z</time>
      </trkpt>
      <trkpt lat="6.1349370" lon="-75.6047800">
        <ele>1793.1</ele>
        <time>2019-08-25T21:51:26Z</time>
      </trkpt>
      <trkpt lat="6.1348940" lon="-75.6047600">
        <ele>1793.2</ele>
        <time>2019-08-25T21:51:27Z</time>
      </trkpt>
      <trkpt lat="6.1348530" lon="-75.6047400">
        <ele>1793.3</ele>
        <time>2019-08-25T21:51:28Z</time>
      </trkpt>
      <trkpt lat="6.1348130" lon="-75.6047220">
        <ele>1793.4</ele>
        <time>2019-08-25T21:51:29Z</time>
      </trkpt>
      <trkpt lat="6.1347760" lon="-75.6047020">
        <ele>1793.4</ele>
        <time>2019-08-25T21:51:30Z</time>
      </trkpt>
      <trkpt lat="6.1347380" lon="-75.6046780">
        <ele>1793.6</ele>
        <time>2019-08-25T21:51:31Z</time>
      </trkpt>
      <trkpt lat="6.1346990" lon="-75.6046520">
        <ele>1793.7</ele>
        <time>2019-08-25T21:51:32Z</time>
      </trkpt>
      <trkpt lat="6.1346600" lon="-75.6046280">
        <ele>1793.8</ele>
        <time>2019-08-25T21:51:33Z</time>
      </trkpt>
      <trkpt lat="6.1346180" lon="-75.6046020">
        <ele>1793.9</ele>
        <time>2019-08-25T21:51:34Z</time>
      </trkpt>
      <trkpt lat="6.1345780" lon="-75.6045770">
        <ele>1794.1</ele>
        <time>2019-08-25T21:51:35Z</time>
      </trkpt>
      <trkpt lat="6.1345390" lon="-75.6045520">
        <ele>1794.2</ele>
        <time>2019-08-25T21:51:36Z</time>
      </trkpt>
      <trkpt lat="6.1345010" lon="-75.6045240">
        <ele>1794.5</ele>
        <time>2019-08-25T21:51:37Z</time>
      </trkpt>
      <trkpt lat="6.1344660" lon="-75.6044940">
        <ele>1794.8</ele>
        <time>2019-08-25T21:51:38Z</time>
      </trkpt>
      <trkpt lat="6.1344340" lon="-75.6044620">
        <ele>1795.2</ele>
        <time>2019-08-25T21:51:39Z</time>
      </trkpt>
      <trkpt lat="6.1344070" lon="-75.6044300">
        <ele>1795.4</ele>
        <time>2019-08-25T21:51:40Z</time>
      </trkpt>
      <trkpt lat="6.1343830" lon="-75.6043990">
        <ele>1795.7</ele>
        <time>2019-08-25T21:51:41Z</time>
      </trkpt>
      <trkpt lat="6.1343590" lon="-75.6043640">
        <ele>1795.9</ele>
        <time>2019-08-25T21:51:42Z</time>
      </trkpt>
      <trkpt lat="6.1343300" lon="-75.6043330">
        <ele>1796.2</ele>
        <time>2019-08-25T21:51:43Z</time>
      </trkpt>
      <trkpt lat="6.1343040" lon="-75.6043080">
        <ele>1796.6</ele>
        <time>2019-08-25T21:51:44Z</time>
      </trkpt>
      <trkpt lat="6.1342790" lon="-75.6042780">
        <ele>1797.0</ele>
        <time>2019-08-25T21:51:46Z</time>
      </trkpt>
      <trkpt lat="6.1342490" lon="-75.6042580">
        <ele>1797.4</ele>
        <time>2019-08-25T21:51:48Z</time>
      </trkpt>
      <trkpt lat="6.1342120" lon="-75.6042340">
        <ele>1797.7</ele>
        <time>2019-08-25T21:51:50Z</time>
      </trkpt>
      <trkpt lat="6.1341710" lon="-75.6042070">
        <ele>1798.1</ele>
        <time>2019-08-25T21:51:52Z</time>
      </trkpt>
      <trkpt lat="6.1341270" lon="-75.6041930">
        <ele>1798.5</ele>
        <time>2019-08-25T21:51:54Z</time>
      </trkpt>
      <trkpt lat="6.1340850" lon="-75.6041850">
        <ele>1798.9</ele>
        <time>2019-08-25T21:51:56Z</time>
      </trkpt>
      <trkpt lat="6.1340340" lon="-75.6041870">
        <ele>1799.4</ele>
        <time>2019-08-25T21:51:58Z</time>
      </trkpt>
      <trkpt lat="6.1340070" lon="-75.6041940">
        <ele>1799.6</ele>
        <time>2019-08-25T21:51:59Z</time>
      </trkpt>
      <trkpt lat="6.1339810" lon="-75.6042050">
        <ele>1800.0</ele>
        <time>2019-08-25T21:52:00Z</time>
      </trkpt>
      <trkpt lat="6.1339560" lon="-75.6042180">
        <ele>1800.5</ele>
        <time>2019-08-25T21:52:01Z</time>
      </trkpt>
      <trkpt lat="6.1339140" lon="-75.6042500">
        <ele>1801.2</ele>
        <time>2019-08-25T21:52:03Z</time>
      </trkpt>
      <trkpt lat="6.1338810" lon="-75.6042890">
        <ele>1801.8</ele>
        <time>2019-08-25T21:52:05Z</time>
      </trkpt>
      <trkpt lat="6.1338410" lon="-75.6043080">
        <ele>1802.4</ele>
        <time>2019-08-25T21:52:07Z</time>
      </trkpt>
      <trkpt lat="6.1337990" lon="-75.6043050">
        <ele>1802.9</ele>
        <time>2019-08-25T21:52:09Z</time>
      </trkpt>
      <trkpt lat="6.1337630" lon="-75.6043130">
        <ele>1803.4</ele>
        <time>2019-08-25T21:52:11Z</time>
      </trkpt>
      <trkpt lat="6.1337300" lon="-75.6043230">
        <ele>1803.9</ele>
        <time>2019-08-25T21:52:14Z</time>
      </trkpt>
      <trkpt lat="6.1337010" lon="-75.6043190">
        <ele>1804.3</ele>
        <time>2019-08-25T21:52:16Z</time>
      </trkpt>
      <trkpt lat="6.1336640" lon="-75.6043060">
        <ele>1804.9</ele>
        <time>2019-08-25T21:52:18Z</time>
      </trkpt>
      <trkpt lat="6.1336420" lon="-75.6042860">
        <ele>1805.3</ele>
        <time>2019-08-25T21:52:20Z</time>
      </trkpt>
      <trkpt lat="6.1336490" lon="-75.6042510">
        <ele>1805.7</ele>
        <time>2019-08-25T21:52:24Z</time>
      </trkpt>
      <trkpt lat="6.1336440" lon="-75.6042240">
        <ele>1806.0</ele>
        <time>2019-08-25T21:52:26Z</time>
      </trkpt>
      <trkpt lat="6.1336280" lon="-75.6041920">
        <ele>1806.3</ele>
        <time>2019-08-25T21:52:28Z</time>
      </trkpt>
      <trkpt lat="6.1336140" lon="-75.6041630">
        <ele>1806.6</ele>
        <time>2019-08-25T21:52:30Z</time>
      </trkpt>
      <trkpt lat="6.1336010" lon="-75.6041340">
        <ele>1806.9</ele>
        <time>2019-08-25T21:52:32Z</time>
      </trkpt>
      <trkpt lat="6.1336000" lon="-75.6040870">
        <ele>1807.3</ele>
        <time>2019-08-25T21:52:35Z</time>
      </trkpt>
      <trkpt lat="6.1335930" lon="-75.6040470">
        <ele>1807.7</ele>
        <time>2019-08-25T21:52:37Z</time>
      </trkpt>
      <trkpt lat="6.1335710" lon="-75.6040110">
        <ele>1808.1</ele>
        <time>2019-08-25T21:52:39Z</time>
      </trkpt>
      <trkpt lat="6.1335510" lon="-75.6039750">
        <ele>1808.6</ele>
        <time>2019-08-25T21:52:41Z</time>
      </trkpt>
      <trkpt lat="6.1335370" lon="-75.6039390">
        <ele>1808.8</ele>
        <time>2019-08-25T21:52:43Z</time>
      </trkpt>
      <trkpt lat="6.1335240" lon="-75.6039040">
        <ele>1809.0</ele>
        <time>2019-08-25T21:52:45Z</time>
      </trkpt>
      <trkpt lat="6.1335090" lon="-75.6038740">
        <ele>1809.2</ele>
        <time>2019-08-25T21:52:47Z</time>
      </trkpt>
      <trkpt lat="6.1334890" lon="-75.6038480">
        <ele>1809.4</ele>
        <time>2019-08-25T21:52:49Z</time>
      </trkpt>
      <trkpt lat="6.1334640" lon="-75.6038260">
        <ele>1809.5</ele>
        <time>2019-08-25T21:52:51Z</time>
      </trkpt>
      <trkpt lat="6.1334470" lon="-75.6038040">
        <ele>1809.6</ele>
        <time>2019-08-25T21:52:53Z</time>
      </trkpt>
      <trkpt lat="6.1334290" lon="-75.6037750">
        <ele>1809.7</ele>
        <time>2019-08-25T21:52:55Z</time>
      </trkpt>
      <trkpt lat="6.1334120" lon="-75.6037390">
        <ele>1809.8</ele>
        <time>2019-08-25T21:52:57Z</time>
      </trkpt>
      <trkpt lat="6.1334010" lon="-75.6037140">
        <ele>1809.9</ele>
        <time>2019-08-25T21:52:59Z</time>
      </trkpt>
      <trkpt lat="6.1333850" lon="-75.6036780">
        <ele>1809.9</ele>
        <time>2019-08-25T21:53:02Z</time>
      </trkpt>
      <trkpt lat="6.1333700" lon="-75.6036390">
        <ele>1810.0</ele>
        <time>2019-08-25T21:53:04Z</time>
      </trkpt>
      <trkpt lat="6.1333670" lon="-75.6036120">
        <ele>1810.0</ele>
        <time>2019-08-25T21:53:05Z</time>
      </trkpt>
      <trkpt lat="6.1333650" lon="-75.6035790">
        <ele>1810.0</ele>
        <time>2019-08-25T21:53:06Z</time>
      </trkpt>
      <trkpt lat="6.1333660" lon="-75.6035440">
        <ele>1810.1</ele>
        <time>2019-08-25T21:53:07Z</time>
      </trkpt>
      <trkpt lat="6.1333710" lon="-75.6035020">
        <ele>1809.9</ele>
        <time>2019-08-25T21:53:08Z</time>
      </trkpt>
      <trkpt lat="6.1333730" lon="-75.6034520">
        <ele>1809.7</ele>
        <time>2019-08-25T21:53:09Z</time>
      </trkpt>
      <trkpt lat="6.1333750" lon="-75.6033920">
        <ele>1809.5</ele>
        <time>2019-08-25T21:53:10Z</time>
      </trkpt>
      <trkpt lat="6.1333740" lon="-75.6033260">
        <ele>1809.1</ele>
        <time>2019-08-25T21:53:11Z</time>
      </trkpt>
      <trkpt lat="6.1333690" lon="-75.6032570">
        <ele>1808.7</ele>
        <time>2019-08-25T21:53:12Z</time>
      </trkpt>
      <trkpt lat="6.1333600" lon="-75.6031820">
        <ele>1808.3</ele>
        <time>2019-08-25T21:53:13Z</time>
      </trkpt>
      <trkpt lat="6.1333530" lon="-75.6031100">
        <ele>1808.2</ele>
        <time>2019-08-25T21:53:14Z</time>
      </trkpt>
      <trkpt lat="6.1333410" lon="-75.6030420">
        <ele>1808.0</ele>
        <time>2019-08-25T21:53:15Z</time>
      </trkpt>
      <trkpt lat="6.1332920" lon="-75.6029930">
        <ele>1807.9</ele>
        <time>2019-08-25T21:53:16Z</time>
      </trkpt>
      <trkpt lat="6.1332600" lon="-75.6029750">
        <ele>1807.8</ele>
        <time>2019-08-25T21:53:17Z</time>
      </trkpt>
      <trkpt lat="6.1332030" lon="-75.6029320">
        <ele>1807.7</ele>
        <time>2019-08-25T21:53:18Z</time>
      </trkpt>
      <trkpt lat="6.1331790" lon="-75.6028930">
        <ele>1807.6</ele>
        <time>2019-08-25T21:53:19Z</time>
      </trkpt>
      <trkpt lat="6.1331710" lon="-75.6028600">
        <ele>1807.6</ele>
        <time>2019-08-25T21:53:20Z</time>
      </trkpt>
      <trkpt lat="6.1331480" lon="-75.6028230">
        <ele>1807.7</ele>
        <time>2019-08-25T21:53:21Z</time>
      </trkpt>
      <trkpt lat="6.1331190" lon="-75.6027630">
        <ele>1807.7</ele>
        <time>2019-08-25T21:53:22Z</time>
      </trkpt>
      <trkpt lat="6.1330880" lon="-75.6027230">
        <ele>1807.7</ele>
        <time>2019-08-25T21:53:23Z</time>
      </trkpt>
      <trkpt lat="6.1330490" lon="-75.6026800">
        <ele>1807.7</ele>
        <time>2019-08-25T21:53:24Z</time>
      </trkpt>
      <trkpt lat="6.1329970" lon="-75.6026430">
        <ele>1807.9</ele>
        <time>2019-08-25T21:53:25Z</time>
      </trkpt>
      <trkpt lat="6.1329460" lon="-75.6026410">
        <ele>1808.0</ele>
        <time>2019-08-25T21:53:26Z</time>
      </trkpt>
      <trkpt lat="6.1328960" lon="-75.6026150">
        <ele>1808.2</ele>
        <time>2019-08-25T21:53:27Z</time>
      </trkpt>
      <trkpt lat="6.1328660" lon="-75.6026180">
        <ele>1808.3</ele>
        <time>2019-08-25T21:53:29Z</time>
      </trkpt>
      <trkpt lat="6.1328390" lon="-75.6026160">
        <ele>1808.4</ele>
        <time>2019-08-25T21:53:31Z</time>
      </trkpt>
      <trkpt lat="6.1328000" lon="-75.6025900">
        <ele>1808.6</ele>
        <time>2019-08-25T21:53:33Z</time>
      </trkpt>
      <trkpt lat="6.1327810" lon="-75.6025580">
        <ele>1808.8</ele>
        <time>2019-08-25T21:53:35Z</time>
      </trkpt>
      <trkpt lat="6.1327590" lon="-75.6025390">
        <ele>1808.9</ele>
        <time>2019-08-25T21:53:36Z</time>
      </trkpt>
      <trkpt lat="6.1327410" lon="-75.6024950">
        <ele>1809.1</ele>
        <time>2019-08-25T21:53:38Z</time>
      </trkpt>
      <trkpt lat="6.1327120" lon="-75.6024570">
        <ele>1809.3</ele>
        <time>2019-08-25T21:53:40Z</time>
      </trkpt>
      <trkpt lat="6.1326800" lon="-75.6024240">
        <ele>1809.5</ele>
        <time>2019-08-25T21:53:42Z</time>
      </trkpt>
      <trkpt lat="6.1326540" lon="-75.6023850">
        <ele>1809.7</ele>
        <time>2019-08-25T21:53:44Z</time>
      </trkpt>
      <trkpt lat="6.1326380" lon="-75.6023600">
        <ele>1809.8</ele>
        <time>2019-08-25T21:53:45Z</time>
      </trkpt>
      <trkpt lat="6.1326230" lon="-75.6023370">
        <ele>1809.9</ele>
        <time>2019-08-25T21:53:46Z</time>
      </trkpt>
      <trkpt lat="6.1325730" lon="-75.6022940">
        <ele>1810.1</ele>
        <time>2019-08-25T21:53:48Z</time>
      </trkpt>
      <trkpt lat="6.1325240" lon="-75.6022440">
        <ele>1810.3</ele>
        <time>2019-08-25T21:53:49Z</time>
      </trkpt>
      <trkpt lat="6.1324820" lon="-75.6022290">
        <ele>1810.4</ele>
        <time>2019-08-25T21:53:50Z</time>
      </trkpt>
      <trkpt lat="6.1324520" lon="-75.6022060">
        <ele>1810.5</ele>
        <time>2019-08-25T21:53:51Z</time>
      </trkpt>
      <trkpt lat="6.1324140" lon="-75.6021930">
        <ele>1810.6</ele>
        <time>2019-08-25T21:53:52Z</time>
      </trkpt>
      <trkpt lat="6.1323860" lon="-75.6021820">
        <ele>1810.6</ele>
        <time>2019-08-25T21:53:53Z</time>
      </trkpt>
      <trkpt lat="6.1323370" lon="-75.6021750">
        <ele>1810.7</ele>
        <time>2019-08-25T21:53:54Z</time>
      </trkpt>
      <trkpt lat="6.1322910" lon="-75.6021690">
        <ele>1810.8</ele>
        <time>2019-08-25T21:53:55Z</time>
      </trkpt>
      <trkpt lat="6.1322410" lon="-75.6021710">
        <ele>1810.9</ele>
        <time>2019-08-25T21:53:56Z</time>
      </trkpt>
      <trkpt lat="6.1321920" lon="-75.6021470">
        <ele>1810.9</ele>
        <time>2019-08-25T21:53:57Z</time>
      </trkpt>
      <trkpt lat="6.1321690" lon="-75.6021210">
        <ele>1811.0</ele>
        <time>2019-08-25T21:53:58Z</time>
      </trkpt>
      <trkpt lat="6.1321180" lon="-75.6021000">
        <ele>1811.0</ele>
        <time>2019-08-25T21:54:00Z</time>
      </trkpt>
      <trkpt lat="6.1320890" lon="-75.6020890">
        <ele>1811.1</ele>
        <time>2019-08-25T21:54:01Z</time>
      </trkpt>
      <trkpt lat="6.1320500" lon="-75.6020800">
        <ele>1811.3</ele>
        <time>2019-08-25T21:54:03Z</time>
      </trkpt>
      <trkpt lat="6.1320200" lon="-75.6020550">
        <ele>1811.4</ele>
        <time>2019-08-25T21:54:05Z</time>
      </trkpt>
      <trkpt lat="6.1319910" lon="-75.6020220">
        <ele>1811.6</ele>
        <time>2019-08-25T21:54:07Z</time>
      </trkpt>
      <trkpt lat="6.1319620" lon="-75.6019780">
        <ele>1811.8</ele>
        <time>2019-08-25T21:54:09Z</time>
      </trkpt>
      <trkpt lat="6.1319390" lon="-75.6019390">
        <ele>1812.0</ele>
        <time>2019-08-25T21:54:11Z</time>
      </trkpt>
      <trkpt lat="6.1319150" lon="-75.6019090">
        <ele>1812.2</ele>
        <time>2019-08-25T21:54:13Z</time>
      </trkpt>
      <trkpt lat="6.1318890" lon="-75.6018910">
        <ele>1812.3</ele>
        <time>2019-08-25T21:54:15Z</time>
      </trkpt>
      <trkpt lat="6.1318750" lon="-75.6018580">
        <ele>1812.4</ele>
        <time>2019-08-25T21:54:18Z</time>
      </trkpt>
      <trkpt lat="6.1318740" lon="-75.6018270">
        <ele>1812.6</ele>
        <time>2019-08-25T21:54:20Z</time>
      </trkpt>
      <trkpt lat="6.1318450" lon="-75.6017870">
        <ele>1812.8</ele>
        <time>2019-08-25T21:54:22Z</time>
      </trkpt>
      <trkpt lat="6.1318150" lon="-75.6017490">
        <ele>1813.2</ele>
        <time>2019-08-25T21:54:24Z</time>
      </trkpt>
      <trkpt lat="6.1317980" lon="-75.6017150">
        <ele>1813.5</ele>
        <time>2019-08-25T21:54:25Z</time>
      </trkpt>
      <trkpt lat="6.1317810" lon="-75.6016810">
        <ele>1813.7</ele>
        <time>2019-08-25T21:54:26Z</time>
      </trkpt>
      <trkpt lat="6.1317680" lon="-75.6016460">
        <ele>1814.1</ele>
        <time>2019-08-25T21:54:27Z</time>
      </trkpt>
      <trkpt lat="6.1317580" lon="-75.6016180">
        <ele>1814.4</ele>
        <time>2019-08-25T21:54:28Z</time>
      </trkpt>
      <trkpt lat="6.1317350" lon="-75.6016030">
        <ele>1814.6</ele>
        <time>2019-08-25T21:54:32Z</time>
      </trkpt>
      <trkpt lat="6.1317080" lon="-75.6016070">
        <ele>1814.9</ele>
        <time>2019-08-25T21:54:34Z</time>
      </trkpt>
      <trkpt lat="6.1316800" lon="-75.6016080">
        <ele>1815.2</ele>
        <time>2019-08-25T21:54:36Z</time>
      </trkpt>
      <trkpt lat="6.1316700" lon="-75.6015780">
        <ele>1815.5</ele>
        <time>2019-08-25T21:54:38Z</time>
      </trkpt>
      <trkpt lat="6.1316710" lon="-75.6015360">
        <ele>1815.9</ele>
        <time>2019-08-25T21:54:40Z</time>
      </trkpt>
      <trkpt lat="6.1316840" lon="-75.6014860">
        <ele>1816.4</ele>
        <time>2019-08-25T21:54:42Z</time>
      </trkpt>
      <trkpt lat="6.1316930" lon="-75.6014570">
        <ele>1816.7</ele>
        <time>2019-08-25T21:54:43Z</time>
      </trkpt>
      <trkpt lat="6.1316880" lon="-75.6014020">
        <ele>1817.2</ele>
        <time>2019-08-25T21:54:45Z</time>
      </trkpt>
      <trkpt lat="6.1316810" lon="-75.6013730">
        <ele>1817.6</ele>
        <time>2019-08-25T21:54:46Z</time>
      </trkpt>
      <trkpt lat="6.1316780" lon="-75.6013290">
        <ele>1818.0</ele>
        <time>2019-08-25T21:54:47Z</time>
      </trkpt>
      <trkpt lat="6.1316750" lon="-75.6012830">
        <ele>1818.4</ele>
        <time>2019-08-25T21:54:48Z</time>
      </trkpt>
      <trkpt lat="6.1316750" lon="-75.6012430">
        <ele>1818.7</ele>
        <time>2019-08-25T21:54:49Z</time>
      </trkpt>
      <trkpt lat="6.1316790" lon="-75.6012130">
        <ele>1818.9</ele>
        <time>2019-08-25T21:54:50Z</time>
      </trkpt>
      <trkpt lat="6.1316860" lon="-75.6011710">
        <ele>1819.3</ele>
        <time>2019-08-25T21:54:52Z</time>
      </trkpt>
      <trkpt lat="6.1316930" lon="-75.6011340">
        <ele>1819.6</ele>
        <time>2019-08-25T21:54:54Z</time>
      </trkpt>
      <trkpt lat="6.1316960" lon="-75.6011070">
        <ele>1819.8</ele>
        <time>2019-08-25T21:54:56Z</time>
      </trkpt>
      <trkpt lat="6.1317200" lon="-75.6010910">
        <ele>1820.1</ele>
        <time>2019-08-25T21:54:58Z</time>
      </trkpt>
      <trkpt lat="6.1317500" lon="-75.6010770">
        <ele>1820.5</ele>
        <time>2019-08-25T21:55:00Z</time>
      </trkpt>
      <trkpt lat="6.1317650" lon="-75.6010450">
        <ele>1820.9</ele>
        <time>2019-08-25T21:55:03Z</time>
      </trkpt>
      <trkpt lat="6.1317790" lon="-75.6010190">
        <ele>1821.2</ele>
        <time>2019-08-25T21:55:08Z</time>
      </trkpt>
      <trkpt lat="6.1318020" lon="-75.6009930">
        <ele>1821.6</ele>
        <time>2019-08-25T21:55:11Z</time>
      </trkpt>
      <trkpt lat="6.1318250" lon="-75.6009760">
        <ele>1822.0</ele>
        <time>2019-08-25T21:55:14Z</time>
      </trkpt>
      <trkpt lat="6.1318090" lon="-75.6009440">
        <ele>1822.4</ele>
        <time>2019-08-25T21:55:17Z</time>
      </trkpt>
      <trkpt lat="6.1318010" lon="-75.6009060">
        <ele>1823.0</ele>
        <time>2019-08-25T21:55:20Z</time>
      </trkpt>
      <trkpt lat="6.1317970" lon="-75.6008640">
        <ele>1823.7</ele>
        <time>2019-08-25T21:55:22Z</time>
      </trkpt>
      <trkpt lat="6.1317910" lon="-75.6008300">
        <ele>1824.4</ele>
        <time>2019-08-25T21:55:25Z</time>
      </trkpt>
      <trkpt lat="6.1317850" lon="-75.6008030">
        <ele>1825.1</ele>
        <time>2019-08-25T21:55:27Z</time>
      </trkpt>
      <trkpt lat="6.1317690" lon="-75.6007770">
        <ele>1825.8</ele>
        <time>2019-08-25T21:55:28Z</time>
      </trkpt>
      <trkpt lat="6.1317980" lon="-75.6007450">
        <ele>1826.7</ele>
        <time>2019-08-25T21:55:30Z</time>
      </trkpt>
      <trkpt lat="6.1318330" lon="-75.6007150">
        <ele>1827.4</ele>
        <time>2019-08-25T21:55:32Z</time>
      </trkpt>
      <trkpt lat="6.1318120" lon="-75.6006930">
        <ele>1827.9</ele>
        <time>2019-08-25T21:55:35Z</time>
      </trkpt>
      <trkpt lat="6.1317860" lon="-75.6006670">
        <ele>1828.4</ele>
        <time>2019-08-25T21:55:37Z</time>
      </trkpt>
      <trkpt lat="6.1317530" lon="-75.6006380">
        <ele>1829.3</ele>
        <time>2019-08-25T21:55:39Z</time>
      </trkpt>
      <trkpt lat="6.1317130" lon="-75.6006010">
        <ele>1830.6</ele>
        <time>2019-08-25T21:55:41Z</time>
      </trkpt>
      <trkpt lat="6.1316900" lon="-75.6005850">
        <ele>1831.1</ele>
        <time>2019-08-25T21:55:42Z</time>
      </trkpt>
      <trkpt lat="6.1316660" lon="-75.6005700">
        <ele>1831.5</ele>
        <time>2019-08-25T21:55:43Z</time>
      </trkpt>
      <trkpt lat="6.1316450" lon="-75.6005520">
        <ele>1832.0</ele>
        <time>2019-08-25T21:55:44Z</time>
      </trkpt>
      <trkpt lat="6.1316090" lon="-75.6005340">
        <ele>1832.7</ele>
        <time>2019-08-25T21:55:47Z</time>
      </trkpt>
      <trkpt lat="6.1315840" lon="-75.6005210">
        <ele>1833.4</ele>
        <time>2019-08-25T21:55:48Z</time>
      </trkpt>
      <trkpt lat="6.1315550" lon="-75.6005060">
        <ele>1834.2</ele>
        <time>2019-08-25T21:55:49Z</time>
      </trkpt>
      <trkpt lat="6.1315160" lon="-75.6004800">
        <ele>1835.3</ele>
        <time>2019-08-25T21:55:51Z</time>
      </trkpt>
      <trkpt lat="6.1315020" lon="-75.6004530">
        <ele>1836.1</ele>
        <time>2019-08-25T21:55:54Z</time>
      </trkpt>
      <trkpt lat="6.1314980" lon="-75.6004810">
        <ele>1836.8</ele>
        <time>2019-08-25T21:56:10Z</time>
      </trkpt>
      <trkpt lat="6.1314970" lon="-75.6005130">
        <ele>1837.6</ele>
        <time>2019-08-25T21:56:14Z</time>
      </trkpt>
      <trkpt lat="6.1315130" lon="-75.6005410">
        <ele>1838.5</ele>
        <time>2019-08-25T21:56:17Z</time>
      </trkpt>
      <trkpt lat="6.1315300" lon="-75.6005630">
        <ele>1839.2</ele>
        <time>2019-08-25T21:56:19Z</time>
      </trkpt>
      <trkpt lat="6.1315440" lon="-75.6005900">
        <ele>1840.1</ele>
        <time>2019-08-25T21:56:22Z</time>
      </trkpt>
      <trkpt lat="6.1315430" lon="-75.6006210">
        <ele>1841.0</ele>
        <time>2019-08-25T21:56:25Z</time>
      </trkpt>
      <trkpt lat="6.1315490" lon="-75.6006510">
        <ele>1841.8</ele>
        <time>2019-08-25T21:56:28Z</time>
      </trkpt>
      <trkpt lat="6.1315670" lon="-75.6006740">
        <ele>1842.5</ele>
        <time>2019-08-25T21:56:31Z</time>
      </trkpt>
      <trkpt lat="6.1315730" lon="-75.6007050">
        <ele>1843.2</ele>
        <time>2019-08-25T21:56:35Z</time>
      </trkpt>
      <trkpt lat="6.1315550" lon="-75.6007270">
        <ele>1843.7</ele>
        <time>2019-08-25T21:56:38Z</time>
      </trkpt>
      <trkpt lat="6.1315250" lon="-75.6007450">
        <ele>1844.4</ele>
        <time>2019-08-25T21:56:40Z</time>
      </trkpt>
      <trkpt lat="6.1315010" lon="-75.6007630">
        <ele>1844.9</ele>
        <time>2019-08-25T21:56:42Z</time>
      </trkpt>
      <trkpt lat="6.1314740" lon="-75.6007910">
        <ele>1845.7</ele>
        <time>2019-08-25T21:56:45Z</time>
      </trkpt>
      <trkpt lat="6.1314630" lon="-75.6008250">
        <ele>1846.2</ele>
        <time>2019-08-25T21:56:47Z</time>
      </trkpt>
      <trkpt lat="6.1314580" lon="-75.6008590">
        <ele>1846.7</ele>
        <time>2019-08-25T21:56:50Z</time>
      </trkpt>
      <trkpt lat="6.1314480" lon="-75.6008890">
        <ele>1847.1</ele>
        <time>2019-08-25T21:56:52Z</time>
      </trkpt>
      <trkpt lat="6.1314380" lon="-75.6009180">
        <ele>1847.4</ele>
        <time>2019-08-25T21:56:54Z</time>
      </trkpt>
      <trkpt lat="6.1314300" lon="-75.6009510">
        <ele>1847.8</ele>
        <time>2019-08-25T21:56:57Z</time>
      </trkpt>
      <trkpt lat="6.1314170" lon="-75.6009850">
        <ele>1848.2</ele>
        <time>2019-08-25T21:56:59Z</time>
      </trkpt>
      <trkpt lat="6.1314000" lon="-75.6010090">
        <ele>1848.5</ele>
        <time>2019-08-25T21:57:01Z</time>
      </trkpt>
      <trkpt lat="6.1313810" lon="-75.6010340">
        <ele>1848.8</ele>
        <time>2019-08-25T21:57:03Z</time>
      </trkpt>
      <trkpt lat="6.1313620" lon="-75.6010690">
        <ele>1849.3</ele>
        <time>2019-08-25T21:57:05Z</time>
      </trkpt>
      <trkpt lat="6.1313380" lon="-75.6010910">
        <ele>1849.7</ele>
        <time>2019-08-25T21:57:07Z</time>
      </trkpt>
      <trkpt lat="6.1312990" lon="-75.6011030">
        <ele>1850.4</ele>
        <time>2019-08-25T21:57:10Z</time>
      </trkpt>
      <trkpt lat="6.1312770" lon="-75.6011220">
        <ele>1850.8</ele>
        <time>2019-08-25T21:57:12Z</time>
      </trkpt>
      <trkpt lat="6.1312620" lon="-75.6011590">
        <ele>1851.5</ele>
        <time>2019-08-25T21:57:15Z</time>
      </trkpt>
      <trkpt lat="6.1312600" lon="-75.6011880">
        <ele>1851.8</ele>
        <time>2019-08-25T21:57:17Z</time>
      </trkpt>
      <trkpt lat="6.1312700" lon="-75.6012180">
        <ele>1852.2</ele>
        <time>2019-08-25T21:57:19Z</time>
      </trkpt>
      <trkpt lat="6.1312510" lon="-75.6012520">
        <ele>1852.6</ele>
        <time>2019-08-25T21:57:22Z</time>
      </trkpt>
      <trkpt lat="6.1312290" lon="-75.6012790">
        <ele>1852.9</ele>
        <time>2019-08-25T21:57:25Z</time>
      </trkpt>
      <trkpt lat="6.1312020" lon="-75.6013020">
        <ele>1853.3</ele>
        <time>2019-08-25T21:57:28Z</time>
      </trkpt>
      <trkpt lat="6.1311900" lon="-75.6013300">
        <ele>1853.8</ele>
        <time>2019-08-25T21:57:30Z</time>
      </trkpt>
      <trkpt lat="6.1311940" lon="-75.6013650">
        <ele>1854.3</ele>
        <time>2019-08-25T21:57:32Z</time>
      </trkpt>
      <trkpt lat="6.1312110" lon="-75.6013970">
        <ele>1854.8</ele>
        <time>2019-08-25T21:57:34Z</time>
      </trkpt>
      <trkpt lat="6.1312140" lon="-75.6014280">
        <ele>1855.3</ele>
        <time>2019-08-25T21:57:36Z</time>
      </trkpt>
      <trkpt lat="6.1312170" lon="-75.6014680">
        <ele>1856.0</ele>
        <time>2019-08-25T21:57:39Z</time>
      </trkpt>
      <trkpt lat="6.1312080" lon="-75.6015010">
        <ele>1856.6</ele>
        <time>2019-08-25T21:57:42Z</time>
      </trkpt>
      <trkpt lat="6.1311800" lon="-75.6015290">
        <ele>1857.2</ele>
        <time>2019-08-25T21:57:44Z</time>
      </trkpt>
      <trkpt lat="6.1311480" lon="-75.6015580">
        <ele>1858.0</ele>
        <time>2019-08-25T21:57:46Z</time>
      </trkpt>
      <trkpt lat="6.1311250" lon="-75.6015850">
        <ele>1858.7</ele>
        <time>2019-08-25T21:57:48Z</time>
      </trkpt>
      <trkpt lat="6.1311190" lon="-75.6016240">
        <ele>1859.4</ele>
        <time>2019-08-25T21:57:51Z</time>
      </trkpt>
      <trkpt lat="6.1311020" lon="-75.6016530">
        <ele>1860.0</ele>
        <time>2019-08-25T21:57:53Z</time>
      </trkpt>
      <trkpt lat="6.1310780" lon="-75.6016680">
        <ele>1860.6</ele>
        <time>2019-08-25T21:57:55Z</time>
      </trkpt>
      <trkpt lat="6.1310360" lon="-75.6016850">
        <ele>1861.5</ele>
        <time>2019-08-25T21:58:00Z</time>
      </trkpt>
      <trkpt lat="6.1310170" lon="-75.6017190">
        <ele>1862.2</ele>
        <time>2019-08-25T21:58:02Z</time>
      </trkpt>
      <trkpt lat="6.1309990" lon="-75.6017420">
        <ele>1862.8</ele>
        <time>2019-08-25T21:58:04Z</time>
      </trkpt>
      <trkpt lat="6.1309890" lon="-75.6017710">
        <ele>1863.4</ele>
        <time>2019-08-25T21:58:06Z</time>
      </trkpt>
      <trkpt lat="6.1309790" lon="-75.6017980">
        <ele>1864.0</ele>
        <time>2019-08-25T21:58:08Z</time>
      </trkpt>
      <trkpt lat="6.1309500" lon="-75.6017960">
        <ele>1864.6</ele>
        <time>2019-08-25T21:58:12Z</time>
      </trkpt>
      <trkpt lat="6.1309190" lon="-75.6018140">
        <ele>1865.2</ele>
        <time>2019-08-25T21:58:16Z</time>
      </trkpt>
      <trkpt lat="6.1308950" lon="-75.6018380">
        <ele>1865.8</ele>
        <time>2019-08-25T21:58:19Z</time>
      </trkpt>
      <trkpt lat="6.1308830" lon="-75.6018660">
        <ele>1866.3</ele>
        <time>2019-08-25T21:58:21Z</time>
      </trkpt>
      <trkpt lat="6.1308560" lon="-75.6018820">
        <ele>1866.8</ele>
        <time>2019-08-25T21:58:24Z</time>
      </trkpt>
      <trkpt lat="6.1308480" lon="-75.6019240">
        <ele>1867.7</ele>
        <time>2019-08-25T21:58:28Z</time>
      </trkpt>
      <trkpt lat="6.1308500" lon="-75.6019530">
        <ele>1868.4</ele>
        <time>2019-08-25T21:58:30Z</time>
      </trkpt>
      <trkpt lat="6.1308310" lon="-75.6019860">
        <ele>1869.3</ele>
        <time>2019-08-25T21:58:33Z</time>
      </trkpt>
      <trkpt lat="6.1308090" lon="-75.6020080">
        <ele>1869.9</ele>
        <time>2019-08-25T21:58:35Z</time>
      </trkpt>
      <trkpt lat="6.1307830" lon="-75.6020350">
        <ele>1870.6</ele>
        <time>2019-08-25T21:58:38Z</time>
      </trkpt>
      <trkpt lat="6.1307680" lon="-75.6020620">
        <ele>1871.1</ele>
        <time>2019-08-25T21:58:41Z</time>
      </trkpt>
      <trkpt lat="6.1307580" lon="-75.6021000">
        <ele>1872.0</ele>
        <time>2019-08-25T21:58:44Z</time>
      </trkpt>
      <trkpt lat="6.1307550" lon="-75.6021270">
        <ele>1872.7</ele>
        <time>2019-08-25T21:58:46Z</time>
      </trkpt>
      <trkpt lat="6.1307520" lon="-75.6021600">
        <ele>1873.5</ele>
        <time>2019-08-25T21:58:49Z</time>
      </trkpt>
      <trkpt lat="6.1307180" lon="-75.6021740">
        <ele>1874.5</ele>
        <time>2019-08-25T21:58:52Z</time>
      </trkpt>
      <trkpt lat="6.1306890" lon="-75.6021560">
        <ele>1875.3</ele>
        <time>2019-08-25T21:58:54Z</time>
      </trkpt>
      <trkpt lat="6.1306600" lon="-75.6021350">
        <ele>1876.3</ele>
        <time>2019-08-25T21:58:56Z</time>
      </trkpt>
      <trkpt lat="6.1306370" lon="-75.6021170">
        <ele>1877.0</ele>
        <time>2019-08-25T21:58:58Z</time>
      </trkpt>
      <trkpt lat="6.1306130" lon="-75.6021040">
        <ele>1877.7</ele>
        <time>2019-08-25T21:59:01Z</time>
      </trkpt>
      <trkpt lat="6.1305810" lon="-75.6020940">
        <ele>1878.5</ele>
        <time>2019-08-25T21:59:04Z</time>
      </trkpt>
      <trkpt lat="6.1305590" lon="-75.6020750">
        <ele>1879.1</ele>
        <time>2019-08-25T21:59:07Z</time>
      </trkpt>
      <trkpt lat="6.1305370" lon="-75.6020540">
        <ele>1879.6</ele>
        <time>2019-08-25T21:59:11Z</time>
      </trkpt>
      <trkpt lat="6.1305230" lon="-75.6020250">
        <ele>1880.2</ele>
        <time>2019-08-25T21:59:13Z</time>
      </trkpt>
      <trkpt lat="6.1305110" lon="-75.6019940">
        <ele>1880.7</ele>
        <time>2019-08-25T21:59:15Z</time>
      </trkpt>
      <trkpt lat="6.1305000" lon="-75.6019680">
        <ele>1881.1</ele>
        <time>2019-08-25T21:59:17Z</time>
      </trkpt>
      <trkpt lat="6.1304840" lon="-75.6019440">
        <ele>1881.5</ele>
        <time>2019-08-25T21:59:19Z</time>
      </trkpt>
      <trkpt lat="6.1304600" lon="-75.6019210">
        <ele>1881.6</ele>
        <time>2019-08-25T21:59:21Z</time>
      </trkpt>
      <trkpt lat="6.1304370" lon="-75.6018950">
        <ele>1881.8</ele>
        <time>2019-08-25T21:59:23Z</time>
      </trkpt>
      <trkpt lat="6.1304160" lon="-75.6018660">
        <ele>1882.0</ele>
        <time>2019-08-25T21:59:24Z</time>
      </trkpt>
      <trkpt lat="6.1303830" lon="-75.6018280">
        <ele>1882.2</ele>
        <time>2019-08-25T21:59:25Z</time>
      </trkpt>
      <trkpt lat="6.1303450" lon="-75.6017990">
        <ele>1882.3</ele>
        <time>2019-08-25T21:59:26Z</time>
      </trkpt>
      <trkpt lat="6.1303000" lon="-75.6017760">
        <ele>1882.4</ele>
        <time>2019-08-25T21:59:27Z</time>
      </trkpt>
      <trkpt lat="6.1302570" lon="-75.6017530">
        <ele>1882.4</ele>
        <time>2019-08-25T21:59:28Z</time>
      </trkpt>
      <trkpt lat="6.1302100" lon="-75.6017300">
        <ele>1882.5</ele>
        <time>2019-08-25T21:59:29Z</time>
      </trkpt>
      <trkpt lat="6.1301630" lon="-75.6017130">
        <ele>1882.5</ele>
        <time>2019-08-25T21:59:30Z</time>
      </trkpt>
      <trkpt lat="6.1301190" lon="-75.6017000">
        <ele>1882.5</ele>
        <time>2019-08-25T21:59:31Z</time>
      </trkpt>
      <trkpt lat="6.1300800" lon="-75.6016880">
        <ele>1882.4</ele>
        <time>2019-08-25T21:59:32Z</time>
      </trkpt>
      <trkpt lat="6.1300480" lon="-75.6016840">
        <ele>1882.4</ele>
        <time>2019-08-25T21:59:33Z</time>
      </trkpt>
      <trkpt lat="6.1300160" lon="-75.6016800">
        <ele>1882.3</ele>
        <time>2019-08-25T21:59:34Z</time>
      </trkpt>
      <trkpt lat="6.1299880" lon="-75.6016800">
        <ele>1882.3</ele>
        <time>2019-08-25T21:59:35Z</time>
      </trkpt>
      <trkpt lat="6.1299600" lon="-75.6016820">
        <ele>1882.2</ele>
        <time>2019-08-25T21:59:36Z</time>
      </trkpt>
      <trkpt lat="6.1299170" lon="-75.6016860">
        <ele>1882.2</ele>
        <time>2019-08-25T21:59:38Z</time>
      </trkpt>
      <trkpt lat="6.1298750" lon="-75.6016780">
        <ele>1882.1</ele>
        <time>2019-08-25T21:59:40Z</time>
      </trkpt>
      <trkpt lat="6.1298380" lon="-75.6016640">
        <ele>1882.1</ele>
        <time>2019-08-25T21:59:42Z</time>
      </trkpt>
      <trkpt lat="6.1298120" lon="-75.6016550">
        <ele>1882.0</ele>
        <time>2019-08-25T21:59:43Z</time>
      </trkpt>
      <trkpt lat="6.1297820" lon="-75.6016460">
        <ele>1882.0</ele>
        <time>2019-08-25T21:59:44Z</time>
      </trkpt>
      <trkpt lat="6.1297510" lon="-75.6016370">
        <ele>1881.9</ele>
        <time>2019-08-25T21:59:45Z</time>
      </trkpt>
      <trkpt lat="6.1297180" lon="-75.6016240">
        <ele>1881.9</ele>
        <time>2019-08-25T21:59:46Z</time>
      </trkpt>
      <trkpt lat="6.1296780" lon="-75.6016060">
        <ele>1881.7</ele>
        <time>2019-08-25T21:59:47Z</time>
      </trkpt>
      <trkpt lat="6.1296390" lon="-75.6015900">
        <ele>1881.6</ele>
        <time>2019-08-25T21:59:48Z</time>
      </trkpt>
      <trkpt lat="6.1296000" lon="-75.6015690">
        <ele>1881.5</ele>
        <time>2019-08-25T21:59:49Z</time>
      </trkpt>
      <trkpt lat="6.1295610" lon="-75.6015460">
        <ele>1881.4</ele>
        <time>2019-08-25T21:59:50Z</time>
      </trkpt>
      <trkpt lat="6.1295230" lon="-75.6015170">
        <ele>1881.2</ele>
        <time>2019-08-25T21:59:51Z</time>
      </trkpt>
      <trkpt lat="6.1294920" lon="-75.6014770">
        <ele>1881.0</ele>
        <time>2019-08-25T21:59:52Z</time>
      </trkpt>
      <trkpt lat="6.1294710" lon="-75.6014380">
        <ele>1880.8</ele>
        <time>2019-08-25T21:59:53Z</time>
      </trkpt>
      <trkpt lat="6.1294590" lon="-75.6014080">
        <ele>1880.7</ele>
        <time>2019-08-25T21:59:54Z</time>
      </trkpt>
      <trkpt lat="6.1294540" lon="-75.6013740">
        <ele>1880.5</ele>
        <time>2019-08-25T21:59:55Z</time>
      </trkpt>
      <trkpt lat="6.1294530" lon="-75.6013330">
        <ele>1880.3</ele>
        <time>2019-08-25T21:59:56Z</time>
      </trkpt>
      <trkpt lat="6.1294560" lon="-75.6012880">
        <ele>1880.0</ele>
        <time>2019-08-25T21:59:57Z</time>
      </trkpt>
      <trkpt lat="6.1294560" lon="-75.6012440">
        <ele>1879.6</ele>
        <time>2019-08-25T21:59:58Z</time>
      </trkpt>
      <trkpt lat="6.1294430" lon="-75.6012070">
        <ele>1879.3</ele>
        <time>2019-08-25T21:59:59Z</time>
      </trkpt>
      <trkpt lat="6.1294190" lon="-75.6011670">
        <ele>1879.0</ele>
        <time>2019-08-25T22:00:00Z</time>
      </trkpt>
      <trkpt lat="6.1293960" lon="-75.6011480">
        <ele>1878.8</ele>
        <time>2019-08-25T22:00:01Z</time>
      </trkpt>
      <trkpt lat="6.1293550" lon="-75.6011360">
        <ele>1878.7</ele>
        <time>2019-08-25T22:00:03Z</time>
      </trkpt>
      <trkpt lat="6.1293100" lon="-75.6011220">
        <ele>1878.5</ele>
        <time>2019-08-25T22:00:05Z</time>
      </trkpt>
      <trkpt lat="6.1292780" lon="-75.6011160">
        <ele>1878.3</ele>
        <time>2019-08-25T22:00:06Z</time>
      </trkpt>
      <trkpt lat="6.1292390" lon="-75.6011080">
        <ele>1878.3</ele>
        <time>2019-08-25T22:00:07Z</time>
      </trkpt>
      <trkpt lat="6.1292010" lon="-75.6010960">
        <ele>1878.2</ele>
        <time>2019-08-25T22:00:08Z</time>
      </trkpt>
      <trkpt lat="6.1291700" lon="-75.6010920">
        <ele>1878.3</ele>
        <time>2019-08-25T22:00:09Z</time>
      </trkpt>
      <trkpt lat="6.1291260" lon="-75.6010840">
        <ele>1878.4</ele>
        <time>2019-08-25T22:00:11Z</time>
      </trkpt>
      <trkpt lat="6.1290900" lon="-75.6010700">
        <ele>1878.6</ele>
        <time>2019-08-25T22:00:14Z</time>
      </trkpt>
      <trkpt lat="6.1290710" lon="-75.6010490">
        <ele>1878.7</ele>
        <time>2019-08-25T22:00:17Z</time>
      </trkpt>
      <trkpt lat="6.1290570" lon="-75.6010250">
        <ele>1878.9</ele>
        <time>2019-08-25T22:00:19Z</time>
      </trkpt>
      <trkpt lat="6.1290380" lon="-75.6009920">
        <ele>1879.2</ele>
        <time>2019-08-25T22:00:22Z</time>
      </trkpt>
      <trkpt lat="6.1290210" lon="-75.6009550">
        <ele>1879.5</ele>
        <time>2019-08-25T22:00:24Z</time>
      </trkpt>
      <trkpt lat="6.1289940" lon="-75.6009180">
        <ele>1879.9</ele>
        <time>2019-08-25T22:00:26Z</time>
      </trkpt>
      <trkpt lat="6.1289640" lon="-75.6008830">
        <ele>1880.3</ele>
        <time>2019-08-25T22:00:28Z</time>
      </trkpt>
      <trkpt lat="6.1289380" lon="-75.6008630">
        <ele>1880.6</ele>
        <time>2019-08-25T22:00:30Z</time>
      </trkpt>
      <trkpt lat="6.1289110" lon="-75.6008580">
        <ele>1880.9</ele>
        <time>2019-08-25T22:00:32Z</time>
      </trkpt>
      <trkpt lat="6.1288730" lon="-75.6008500">
        <ele>1881.3</ele>
        <time>2019-08-25T22:00:34Z</time>
      </trkpt>
      <trkpt lat="6.1288360" lon="-75.6008510">
        <ele>1881.6</ele>
        <time>2019-08-25T22:00:36Z</time>
      </trkpt>
      <trkpt lat="6.1287990" lon="-75.6008550">
        <ele>1882.0</ele>
        <time>2019-08-25T22:00:39Z</time>
      </trkpt>
      <trkpt lat="6.1287680" lon="-75.6008290">
        <ele>1882.5</ele>
        <time>2019-08-25T22:00:42Z</time>
      </trkpt>
      <trkpt lat="6.1287570" lon="-75.6007870">
        <ele>1883.1</ele>
        <time>2019-08-25T22:00:44Z</time>
      </trkpt>
      <trkpt lat="6.1287580" lon="-75.6007570">
        <ele>1883.4</ele>
        <time>2019-08-25T22:00:46Z</time>
      </trkpt>
      <trkpt lat="6.1287510" lon="-75.6007040">
        <ele>1884.0</ele>
        <time>2019-08-25T22:00:48Z</time>
      </trkpt>
      <trkpt lat="6.1287340" lon="-75.6006570">
        <ele>1884.3</ele>
        <time>2019-08-25T22:00:50Z</time>
      </trkpt>
      <trkpt lat="6.1286920" lon="-75.6006270">
        <ele>1884.7</ele>
        <time>2019-08-25T22:00:52Z</time>
      </trkpt>
      <trkpt lat="6.1286610" lon="-75.6006140">
        <ele>1884.9</ele>
        <time>2019-08-25T22:00:53Z</time>
      </trkpt>
      <trkpt lat="6.1286320" lon="-75.6006030">
        <ele>1885.1</ele>
        <time>2019-08-25T22:00:54Z</time>
      </trkpt>
      <trkpt lat="6.1285920" lon="-75.6005810">
        <ele>1885.3</ele>
        <time>2019-08-25T22:00:56Z</time>
      </trkpt>
      <trkpt lat="6.1285390" lon="-75.6005540">
        <ele>1885.6</ele>
        <time>2019-08-25T22:00:58Z</time>
      </trkpt>
      <trkpt lat="6.1284910" lon="-75.6005430">
        <ele>1885.9</ele>
        <time>2019-08-25T22:01:00Z</time>
      </trkpt>
      <trkpt lat="6.1284470" lon="-75.6005380">
        <ele>1886.1</ele>
        <time>2019-08-25T22:01:02Z</time>
      </trkpt>
      <trkpt lat="6.1284180" lon="-75.6005450">
        <ele>1886.3</ele>
        <time>2019-08-25T22:01:04Z</time>
      </trkpt>
      <trkpt lat="6.1283910" lon="-75.6005670">
        <ele>1886.5</ele>
        <time>2019-08-25T22:01:07Z</time>
      </trkpt>
      <trkpt lat="6.1283740" lon="-75.6005890">
        <ele>1886.6</ele>
        <time>2019-08-25T22:01:09Z</time>
      </trkpt>
      <trkpt lat="6.1283670" lon="-75.6006420">
        <ele>1886.8</ele>
        <time>2019-08-25T22:01:11Z</time>
      </trkpt>
      <trkpt lat="6.1283720" lon="-75.6006780">
        <ele>1887.0</ele>
        <time>2019-08-25T22:01:12Z</time>
      </trkpt>
      <trkpt lat="6.1283740" lon="-75.6007150">
        <ele>1887.2</ele>
        <time>2019-08-25T22:01:13Z</time>
      </trkpt>
      <trkpt lat="6.1283780" lon="-75.6007490">
        <ele>1887.4</ele>
        <time>2019-08-25T22:01:14Z</time>
      </trkpt>
      <trkpt lat="6.1283800" lon="-75.6007860">
        <ele>1887.6</ele>
        <time>2019-08-25T22:01:15Z</time>
      </trkpt>
      <trkpt lat="6.1283800" lon="-75.6008250">
        <ele>1887.8</ele>
        <time>2019-08-25T22:01:16Z</time>
      </trkpt>
      <trkpt lat="6.1283760" lon="-75.6008610">
        <ele>1888.0</ele>
        <time>2019-08-25T22:01:17Z</time>
      </trkpt>
      <trkpt lat="6.1283700" lon="-75.6008950">
        <ele>1888.1</ele>
        <time>2019-08-25T22:01:18Z</time>
      </trkpt>
      <trkpt lat="6.1283620" lon="-75.6009330">
        <ele>1888.4</ele>
        <time>2019-08-25T22:01:19Z</time>
      </trkpt>
      <trkpt lat="6.1283490" lon="-75.6009750">
        <ele>1888.6</ele>
        <time>2019-08-25T22:01:20Z</time>
      </trkpt>
      <trkpt lat="6.1283370" lon="-75.6010170">
        <ele>1888.8</ele>
        <time>2019-08-25T22:01:21Z</time>
      </trkpt>
      <trkpt lat="6.1283210" lon="-75.6010530">
        <ele>1889.0</ele>
        <time>2019-08-25T22:01:22Z</time>
      </trkpt>
      <trkpt lat="6.1283080" lon="-75.6010770">
        <ele>1889.2</ele>
        <time>2019-08-25T22:01:23Z</time>
      </trkpt>
      <trkpt lat="6.1282770" lon="-75.6011140">
        <ele>1889.4</ele>
        <time>2019-08-25T22:01:25Z</time>
      </trkpt>
      <trkpt lat="6.1282560" lon="-75.6011330">
        <ele>1889.5</ele>
        <time>2019-08-25T22:01:26Z</time>
      </trkpt>
      <trkpt lat="6.1282250" lon="-75.6011580">
        <ele>1889.7</ele>
        <time>2019-08-25T22:01:27Z</time>
      </trkpt>
      <trkpt lat="6.1281980" lon="-75.6011890">
        <ele>1889.9</ele>
        <time>2019-08-25T22:01:28Z</time>
      </trkpt>
      <trkpt lat="6.1281750" lon="-75.6012170">
        <ele>1890.0</ele>
        <time>2019-08-25T22:01:29Z</time>
      </trkpt>
      <trkpt lat="6.1281530" lon="-75.6012460">
        <ele>1890.2</ele>
        <time>2019-08-25T22:01:30Z</time>
      </trkpt>
      <trkpt lat="6.1281330" lon="-75.6012700">
        <ele>1890.3</ele>
        <time>2019-08-25T22:01:31Z</time>
      </trkpt>
      <trkpt lat="6.1280960" lon="-75.6013020">
        <ele>1890.5</ele>
        <time>2019-08-25T22:01:33Z</time>
      </trkpt>
      <trkpt lat="6.1280640" lon="-75.6013250">
        <ele>1890.6</ele>
        <time>2019-08-25T22:01:35Z</time>
      </trkpt>
      <trkpt lat="6.1280380" lon="-75.6013460">
        <ele>1890.9</ele>
        <time>2019-08-25T22:01:37Z</time>
      </trkpt>
      <trkpt lat="6.1280110" lon="-75.6013750">
        <ele>1891.3</ele>
        <time>2019-08-25T22:01:39Z</time>
      </trkpt>
      <trkpt lat="6.1279880" lon="-75.6014000">
        <ele>1891.5</ele>
        <time>2019-08-25T22:01:41Z</time>
      </trkpt>
      <trkpt lat="6.1279550" lon="-75.6014080">
        <ele>1891.8</ele>
        <time>2019-08-25T22:01:43Z</time>
      </trkpt>
      <trkpt lat="6.1279210" lon="-75.6014150">
        <ele>1892.0</ele>
        <time>2019-08-25T22:01:45Z</time>
      </trkpt>
      <trkpt lat="6.1278910" lon="-75.6014300">
        <ele>1892.3</ele>
        <time>2019-08-25T22:01:47Z</time>
      </trkpt>
      <trkpt lat="6.1278630" lon="-75.6014400">
        <ele>1892.5</ele>
        <time>2019-08-25T22:01:49Z</time>
      </trkpt>
      <trkpt lat="6.1278350" lon="-75.6014410">
        <ele>1892.8</ele>
        <time>2019-08-25T22:01:51Z</time>
      </trkpt>
      <trkpt lat="6.1278080" lon="-75.6014430">
        <ele>1893.0</ele>
        <time>2019-08-25T22:01:53Z</time>
      </trkpt>
      <trkpt lat="6.1277780" lon="-75.6014530">
        <ele>1893.2</ele>
        <time>2019-08-25T22:01:55Z</time>
      </trkpt>
      <trkpt lat="6.1277440" lon="-75.6014590">
        <ele>1893.8</ele>
        <time>2019-08-25T22:01:57Z</time>
      </trkpt>
      <trkpt lat="6.1277150" lon="-75.6014570">
        <ele>1894.2</ele>
        <time>2019-08-25T22:01:59Z</time>
      </trkpt>
      <trkpt lat="6.1276790" lon="-75.6014550">
        <ele>1894.6</ele>
        <time>2019-08-25T22:02:02Z</time>
      </trkpt>
      <trkpt lat="6.1276510" lon="-75.6014530">
        <ele>1895.0</ele>
        <time>2019-08-25T22:02:04Z</time>
      </trkpt>
      <trkpt lat="6.1276250" lon="-75.6014400">
        <ele>1895.4</ele>
        <time>2019-08-25T22:02:06Z</time>
      </trkpt>
      <trkpt lat="6.1276000" lon="-75.6014250">
        <ele>1895.8</ele>
        <time>2019-08-25T22:02:08Z</time>
      </trkpt>
      <trkpt lat="6.1275730" lon="-75.6014250">
        <ele>1896.2</ele>
        <time>2019-08-25T22:02:10Z</time>
      </trkpt>
      <trkpt lat="6.1275440" lon="-75.6014170">
        <ele>1896.7</ele>
        <time>2019-08-25T22:02:14Z</time>
      </trkpt>
      <trkpt lat="6.1275230" lon="-75.6013890">
        <ele>1897.2</ele>
        <time>2019-08-25T22:02:17Z</time>
      </trkpt>
      <trkpt lat="6.1275050" lon="-75.6013670">
        <ele>1897.7</ele>
        <time>2019-08-25T22:02:19Z</time>
      </trkpt>
      <trkpt lat="6.1274850" lon="-75.6013390">
        <ele>1898.2</ele>
        <time>2019-08-25T22:02:21Z</time>
      </trkpt>
      <trkpt lat="6.1274700" lon="-75.6013160">
        <ele>1898.8</ele>
        <time>2019-08-25T22:02:23Z</time>
      </trkpt>
      <trkpt lat="6.1274530" lon="-75.6012920">
        <ele>1899.6</ele>
        <time>2019-08-25T22:02:25Z</time>
      </trkpt>
      <trkpt lat="6.1274390" lon="-75.6012650">
        <ele>1900.4</ele>
        <time>2019-08-25T22:02:27Z</time>
      </trkpt>
      <trkpt lat="6.1274340" lon="-75.6012370">
        <ele>1901.1</ele>
        <time>2019-08-25T22:02:29Z</time>
      </trkpt>
      <trkpt lat="6.1274320" lon="-75.6012060">
        <ele>1901.7</ele>
        <time>2019-08-25T22:02:31Z</time>
      </trkpt>
      <trkpt lat="6.1274270" lon="-75.6011700">
        <ele>1902.5</ele>
        <time>2019-08-25T22:02:33Z</time>
      </trkpt>
      <trkpt lat="6.1274290" lon="-75.6011330">
        <ele>1903.1</ele>
        <time>2019-08-25T22:02:35Z</time>
      </trkpt>
      <trkpt lat="6.1274350" lon="-75.6010960">
        <ele>1903.8</ele>
        <time>2019-08-25T22:02:37Z</time>
      </trkpt>
      <trkpt lat="6.1274330" lon="-75.6010670">
        <ele>1904.3</ele>
        <time>2019-08-25T22:02:39Z</time>
      </trkpt>
      <trkpt lat="6.1274200" lon="-75.6010240">
        <ele>1905.0</ele>
        <time>2019-08-25T22:02:41Z</time>
      </trkpt>
      <trkpt lat="6.1274150" lon="-75.6009720">
        <ele>1905.9</ele>
        <time>2019-08-25T22:02:43Z</time>
      </trkpt>
      <trkpt lat="6.1274190" lon="-75.6009380">
        <ele>1906.4</ele>
        <time>2019-08-25T22:02:44Z</time>
      </trkpt>
      <trkpt lat="6.1274220" lon="-75.6009030">
        <ele>1906.7</ele>
        <time>2019-08-25T22:02:45Z</time>
      </trkpt>
      <trkpt lat="6.1274200" lon="-75.6008720">
        <ele>1907.0</ele>
        <time>2019-08-25T22:02:46Z</time>
      </trkpt>
      <trkpt lat="6.1274150" lon="-75.6008440">
        <ele>1907.2</ele>
        <time>2019-08-25T22:02:47Z</time>
      </trkpt>
      <trkpt lat="6.1274080" lon="-75.6008130">
        <ele>1907.5</ele>
        <time>2019-08-25T22:02:48Z</time>
      </trkpt>
      <trkpt lat="6.1273960" lon="-75.6007780">
        <ele>1907.8</ele>
        <time>2019-08-25T22:02:49Z</time>
      </trkpt>
      <trkpt lat="6.1273830" lon="-75.6007450">
        <ele>1907.9</ele>
        <time>2019-08-25T22:02:50Z</time>
      </trkpt>
      <trkpt lat="6.1273690" lon="-75.6007170">
        <ele>1908.1</ele>
        <time>2019-08-25T22:02:51Z</time>
      </trkpt>
      <trkpt lat="6.1273540" lon="-75.6006820">
        <ele>1908.2</ele>
        <time>2019-08-25T22:02:52Z</time>
      </trkpt>
      <trkpt lat="6.1273450" lon="-75.6006400">
        <ele>1908.4</ele>
        <time>2019-08-25T22:02:53Z</time>
      </trkpt>
      <trkpt lat="6.1273440" lon="-75.6005930">
        <ele>1908.5</ele>
        <time>2019-08-25T22:02:54Z</time>
      </trkpt>
      <trkpt lat="6.1273480" lon="-75.6005530">
        <ele>1908.6</ele>
        <time>2019-08-25T22:02:55Z</time>
      </trkpt>
      <trkpt lat="6.1273520" lon="-75.6005220">
        <ele>1908.6</ele>
        <time>2019-08-25T22:02:56Z</time>
      </trkpt>
      <trkpt lat="6.1273600" lon="-75.6004930">
        <ele>1908.7</ele>
        <time>2019-08-25T22:02:57Z</time>
      </trkpt>
      <trkpt lat="6.1273710" lon="-75.6004650">
        <ele>1908.7</ele>
        <time>2019-08-25T22:02:58Z</time>
      </trkpt>
      <trkpt lat="6.1273920" lon="-75.6004350">
        <ele>1908.7</ele>
        <time>2019-08-25T22:02:59Z</time>
      </trkpt>
      <trkpt lat="6.1274190" lon="-75.6004000">
        <ele>1908.7</ele>
        <time>2019-08-25T22:03:00Z</time>
      </trkpt>
      <trkpt lat="6.1274450" lon="-75.6003680">
        <ele>1908.6</ele>
        <time>2019-08-25T22:03:01Z</time>
      </trkpt>
      <trkpt lat="6.1274690" lon="-75.6003380">
        <ele>1908.6</ele>
        <time>2019-08-25T22:03:02Z</time>
      </trkpt>
      <trkpt lat="6.1274880" lon="-75.6003050">
        <ele>1908.5</ele>
        <time>2019-08-25T22:03:03Z</time>
      </trkpt>
      <trkpt lat="6.1275020" lon="-75.6002730">
        <ele>1908.5</ele>
        <time>2019-08-25T22:03:04Z</time>
      </trkpt>
      <trkpt lat="6.1275090" lon="-75.6002450">
        <ele>1908.4</ele>
        <time>2019-08-25T22:03:05Z</time>
      </trkpt>
      <trkpt lat="6.1274720" lon="-75.6002390">
        <ele>1908.3</ele>
        <time>2019-08-25T22:03:09Z</time>
      </trkpt>
      <trkpt lat="6.1274280" lon="-75.6002480">
        <ele>1908.2</ele>
        <time>2019-08-25T22:03:11Z</time>
      </trkpt>
      <trkpt lat="6.1273810" lon="-75.6002550">
        <ele>1908.0</ele>
        <time>2019-08-25T22:03:13Z</time>
      </trkpt>
      <trkpt lat="6.1273340" lon="-75.6002540">
        <ele>1907.8</ele>
        <time>2019-08-25T22:03:15Z</time>
      </trkpt>
      <trkpt lat="6.1272800" lon="-75.6002340">
        <ele>1907.5</ele>
        <time>2019-08-25T22:03:17Z</time>
      </trkpt>
      <trkpt lat="6.1272480" lon="-75.6002160">
        <ele>1907.4</ele>
        <time>2019-08-25T22:03:18Z</time>
      </trkpt>
      <trkpt lat="6.1272180" lon="-75.6002080">
        <ele>1907.3</ele>
        <time>2019-08-25T22:03:19Z</time>
      </trkpt>
      <trkpt lat="6.1271860" lon="-75.6001990">
        <ele>1907.1</ele>
        <time>2019-08-25T22:03:20Z</time>
      </trkpt>
      <trkpt lat="6.1271590" lon="-75.6001960">
        <ele>1907.0</ele>
        <time>2019-08-25T22:03:21Z</time>
      </trkpt>
      <trkpt lat="6.1271260" lon="-75.6002180">
        <ele>1906.9</ele>
        <time>2019-08-25T22:03:23Z</time>
      </trkpt>
      <trkpt lat="6.1271030" lon="-75.6002410">
        <ele>1906.8</ele>
        <time>2019-08-25T22:03:25Z</time>
      </trkpt>
      <trkpt lat="6.1270810" lon="-75.6002680">
        <ele>1906.7</ele>
        <time>2019-08-25T22:03:27Z</time>
      </trkpt>
      <trkpt lat="6.1270580" lon="-75.6003110">
        <ele>1906.7</ele>
        <time>2019-08-25T22:03:29Z</time>
      </trkpt>
      <trkpt lat="6.1270480" lon="-75.6003400">
        <ele>1906.7</ele>
        <time>2019-08-25T22:03:30Z</time>
      </trkpt>
      <trkpt lat="6.1270360" lon="-75.6003730">
        <ele>1906.8</ele>
        <time>2019-08-25T22:03:31Z</time>
      </trkpt>
      <trkpt lat="6.1270250" lon="-75.6004050">
        <ele>1906.9</ele>
        <time>2019-08-25T22:03:32Z</time>
      </trkpt>
      <trkpt lat="6.1270200" lon="-75.6004340">
        <ele>1907.0</ele>
        <time>2019-08-25T22:03:33Z</time>
      </trkpt>
      <trkpt lat="6.1270180" lon="-75.6004610">
        <ele>1907.1</ele>
        <time>2019-08-25T22:03:34Z</time>
      </trkpt>
      <trkpt lat="6.1270170" lon="-75.6004950">
        <ele>1907.2</ele>
        <time>2019-08-25T22:03:35Z</time>
      </trkpt>
      <trkpt lat="6.1270180" lon="-75.6005300">
        <ele>1907.4</ele>
        <time>2019-08-25T22:03:36Z</time>
      </trkpt>
      <trkpt lat="6.1270120" lon="-75.6005650">
        <ele>1907.5</ele>
        <time>2019-08-25T22:03:37Z</time>
      </trkpt>
      <trkpt lat="6.1270000" lon="-75.6005990">
        <ele>1907.5</ele>
        <time>2019-08-25T22:03:38Z</time>
      </trkpt>
      <trkpt lat="6.1269810" lon="-75.6006480">
        <ele>1907.6</ele>
        <time>2019-08-25T22:03:39Z</time>
      </trkpt>
      <trkpt lat="6.1269540" lon="-75.6007080">
        <ele>1907.6</ele>
        <time>2019-08-25T22:03:40Z</time>
      </trkpt>
      <trkpt lat="6.1269250" lon="-75.6007600">
        <ele>1907.6</ele>
        <time>2019-08-25T22:03:41Z</time>
      </trkpt>
      <trkpt lat="6.1268860" lon="-75.6008090">
        <ele>1907.4</ele>
        <time>2019-08-25T22:03:42Z</time>
      </trkpt>
      <trkpt lat="6.1268480" lon="-75.6008510">
        <ele>1907.3</ele>
        <time>2019-08-25T22:03:43Z</time>
      </trkpt>
      <trkpt lat="6.1268070" lon="-75.6008870">
        <ele>1907.1</ele>
        <time>2019-08-25T22:03:44Z</time>
      </trkpt>
      <trkpt lat="6.1267630" lon="-75.6009210">
        <ele>1906.9</ele>
        <time>2019-08-25T22:03:45Z</time>
      </trkpt>
      <trkpt lat="6.1267210" lon="-75.6009490">
        <ele>1906.7</ele>
        <time>2019-08-25T22:03:46Z</time>
      </trkpt>
      <trkpt lat="6.1266860" lon="-75.6009680">
        <ele>1906.6</ele>
        <time>2019-08-25T22:03:47Z</time>
      </trkpt>
      <trkpt lat="6.1266560" lon="-75.6009780">
        <ele>1906.5</ele>
        <time>2019-08-25T22:03:48Z</time>
      </trkpt>
      <trkpt lat="6.1266200" lon="-75.6009540">
        <ele>1906.3</ele>
        <time>2019-08-25T22:03:49Z</time>
      </trkpt>
      <trkpt lat="6.1266030" lon="-75.6006730">
        <ele>1905.3</ele>
        <time>2019-08-25T22:03:51Z</time>
      </trkpt>
      <trkpt lat="6.1265950" lon="-75.6006110">
        <ele>1905.0</ele>
        <time>2019-08-25T22:03:52Z</time>
      </trkpt>
      <trkpt lat="6.1265730" lon="-75.6005690">
        <ele>1904.6</ele>
        <time>2019-08-25T22:03:53Z</time>
      </trkpt>
      <trkpt lat="6.1265460" lon="-75.6005380">
        <ele>1904.1</ele>
        <time>2019-08-25T22:03:54Z</time>
      </trkpt>
      <trkpt lat="6.1265090" lon="-75.6005140">
        <ele>1903.6</ele>
        <time>2019-08-25T22:03:55Z</time>
      </trkpt>
      <trkpt lat="6.1264660" lon="-75.6004910">
        <ele>1903.0</ele>
        <time>2019-08-25T22:03:56Z</time>
      </trkpt>
      <trkpt lat="6.1264190" lon="-75.6004820">
        <ele>1902.3</ele>
        <time>2019-08-25T22:03:57Z</time>
      </trkpt>
      <trkpt lat="6.1263590" lon="-75.6004880">
        <ele>1901.5</ele>
        <time>2019-08-25T22:03:58Z</time>
      </trkpt>
      <trkpt lat="6.1262920" lon="-75.6005010">
        <ele>1900.3</ele>
        <time>2019-08-25T22:03:59Z</time>
      </trkpt>
      <trkpt lat="6.1262330" lon="-75.6005180">
        <ele>1899.1</ele>
        <time>2019-08-25T22:04:00Z</time>
      </trkpt>
      <trkpt lat="6.1261870" lon="-75.6005330">
        <ele>1898.0</ele>
        <time>2019-08-25T22:04:01Z</time>
      </trkpt>
      <trkpt lat="6.1261460" lon="-75.6005490">
        <ele>1897.0</ele>
        <time>2019-08-25T22:04:02Z</time>
      </trkpt>
      <trkpt lat="6.1261150" lon="-75.6005590">
        <ele>1896.3</ele>
        <time>2019-08-25T22:04:03Z</time>
      </trkpt>
      <trkpt lat="6.1260690" lon="-75.6005830">
        <ele>1895.4</ele>
        <time>2019-08-25T22:04:05Z</time>
      </trkpt>
      <trkpt lat="6.1260580" lon="-75.6006380">
        <ele>1894.7</ele>
        <time>2019-08-25T22:04:07Z</time>
      </trkpt>
      <trkpt lat="6.1260700" lon="-75.6006700">
        <ele>1894.5</ele>
        <time>2019-08-25T22:04:08Z</time>
      </trkpt>
      <trkpt lat="6.1260880" lon="-75.6006990">
        <ele>1894.4</ele>
        <time>2019-08-25T22:04:09Z</time>
      </trkpt>
      <trkpt lat="6.1261100" lon="-75.6007220">
        <ele>1894.6</ele>
        <time>2019-08-25T22:04:10Z</time>
      </trkpt>
      <trkpt lat="6.1261300" lon="-75.6007460">
        <ele>1894.8</ele>
        <time>2019-08-25T22:04:11Z</time>
      </trkpt>
      <trkpt lat="6.1261510" lon="-75.6007690">
        <ele>1895.3</ele>
        <time>2019-08-25T22:04:12Z</time>
      </trkpt>
      <trkpt lat="6.1261670" lon="-75.6007950">
        <ele>1895.8</ele>
        <time>2019-08-25T22:04:13Z</time>
      </trkpt>
      <trkpt lat="6.1261940" lon="-75.6008290">
        <ele>1896.7</ele>
        <time>2019-08-25T22:04:15Z</time>
      </trkpt>
      <trkpt lat="6.1262080" lon="-75.6008630">
        <ele>1897.6</ele>
        <time>2019-08-25T22:04:17Z</time>
      </trkpt>
      <trkpt lat="6.1262280" lon="-75.6008990">
        <ele>1898.5</ele>
        <time>2019-08-25T22:04:19Z</time>
      </trkpt>
      <trkpt lat="6.1262510" lon="-75.6009300">
        <ele>1899.4</ele>
        <time>2019-08-25T22:04:21Z</time>
      </trkpt>
      <trkpt lat="6.1262610" lon="-75.6009580">
        <ele>1900.0</ele>
        <time>2019-08-25T22:04:23Z</time>
      </trkpt>
      <trkpt lat="6.1262800" lon="-75.6009880">
        <ele>1900.7</ele>
        <time>2019-08-25T22:04:26Z</time>
      </trkpt>
      <trkpt lat="6.1262880" lon="-75.6010220">
        <ele>1901.4</ele>
        <time>2019-08-25T22:04:28Z</time>
      </trkpt>
      <trkpt lat="6.1262990" lon="-75.6010550">
        <ele>1902.1</ele>
        <time>2019-08-25T22:04:30Z</time>
      </trkpt>
      <trkpt lat="6.1263100" lon="-75.6010840">
        <ele>1902.8</ele>
        <time>2019-08-25T22:04:33Z</time>
      </trkpt>
      <trkpt lat="6.1263030" lon="-75.6011140">
        <ele>1903.5</ele>
        <time>2019-08-25T22:04:35Z</time>
      </trkpt>
      <trkpt lat="6.1262920" lon="-75.6011420">
        <ele>1904.0</ele>
        <time>2019-08-25T22:04:37Z</time>
      </trkpt>
      <trkpt lat="6.1262670" lon="-75.6011670">
        <ele>1904.5</ele>
        <time>2019-08-25T22:04:39Z</time>
      </trkpt>
      <trkpt lat="6.1262520" lon="-75.6011970">
        <ele>1904.9</ele>
        <time>2019-08-25T22:04:41Z</time>
      </trkpt>
      <trkpt lat="6.1262340" lon="-75.6012240">
        <ele>1905.4</ele>
        <time>2019-08-25T22:04:43Z</time>
      </trkpt>
      <trkpt lat="6.1262270" lon="-75.6012510">
        <ele>1905.8</ele>
        <time>2019-08-25T22:04:45Z</time>
      </trkpt>
      <trkpt lat="6.1262290" lon="-75.6012820">
        <ele>1906.2</ele>
        <time>2019-08-25T22:04:47Z</time>
      </trkpt>
      <trkpt lat="6.1262300" lon="-75.6013200">
        <ele>1906.7</ele>
        <time>2019-08-25T22:04:49Z</time>
      </trkpt>
      <trkpt lat="6.1262180" lon="-75.6013480">
        <ele>1907.2</ele>
        <time>2019-08-25T22:04:51Z</time>
      </trkpt>
      <trkpt lat="6.1262100" lon="-75.6013750">
        <ele>1907.8</ele>
        <time>2019-08-25T22:04:53Z</time>
      </trkpt>
      <trkpt lat="6.1262250" lon="-75.6014010">
        <ele>1908.4</ele>
        <time>2019-08-25T22:04:55Z</time>
      </trkpt>
      <trkpt lat="6.1262450" lon="-75.6014360">
        <ele>1909.2</ele>
        <time>2019-08-25T22:04:57Z</time>
      </trkpt>
      <trkpt lat="6.1262520" lon="-75.6014690">
        <ele>1909.6</ele>
        <time>2019-08-25T22:04:59Z</time>
      </trkpt>
      <trkpt lat="6.1262420" lon="-75.6015060">
        <ele>1910.1</ele>
        <time>2019-08-25T22:05:02Z</time>
      </trkpt>
      <trkpt lat="6.1262260" lon="-75.6015390">
        <ele>1910.5</ele>
        <time>2019-08-25T22:05:05Z</time>
      </trkpt>
      <trkpt lat="6.1262060" lon="-75.6015590">
        <ele>1910.9</ele>
        <time>2019-08-25T22:05:07Z</time>
      </trkpt>
      <trkpt lat="6.1261790" lon="-75.6015850">
        <ele>1911.4</ele>
        <time>2019-08-25T22:05:09Z</time>
      </trkpt>
      <trkpt lat="6.1261670" lon="-75.6016160">
        <ele>1911.9</ele>
        <time>2019-08-25T22:05:12Z</time>
      </trkpt>
      <trkpt lat="6.1261700" lon="-75.6016520">
        <ele>1912.5</ele>
        <time>2019-08-25T22:05:15Z</time>
      </trkpt>
      <trkpt lat="6.1261830" lon="-75.6016860">
        <ele>1913.2</ele>
        <time>2019-08-25T22:05:18Z</time>
      </trkpt>
      <trkpt lat="6.1262020" lon="-75.6017140">
        <ele>1913.8</ele>
        <time>2019-08-25T22:05:20Z</time>
      </trkpt>
      <trkpt lat="6.1262310" lon="-75.6017450">
        <ele>1914.5</ele>
        <time>2019-08-25T22:05:22Z</time>
      </trkpt>
      <trkpt lat="6.1262600" lon="-75.6017710">
        <ele>1915.0</ele>
        <time>2019-08-25T22:05:24Z</time>
      </trkpt>
      <trkpt lat="6.1262770" lon="-75.6017970">
        <ele>1915.5</ele>
        <time>2019-08-25T22:05:26Z</time>
      </trkpt>
      <trkpt lat="6.1262940" lon="-75.6018250">
        <ele>1916.1</ele>
        <time>2019-08-25T22:05:28Z</time>
      </trkpt>
      <trkpt lat="6.1263110" lon="-75.6018480">
        <ele>1916.6</ele>
        <time>2019-08-25T22:05:30Z</time>
      </trkpt>
      <trkpt lat="6.1263310" lon="-75.6018750">
        <ele>1917.1</ele>
        <time>2019-08-25T22:05:32Z</time>
      </trkpt>
      <trkpt lat="6.1263500" lon="-75.6018970">
        <ele>1917.5</ele>
        <time>2019-08-25T22:05:34Z</time>
      </trkpt>
      <trkpt lat="6.1263580" lon="-75.6019290">
        <ele>1918.0</ele>
        <time>2019-08-25T22:05:36Z</time>
      </trkpt>
      <trkpt lat="6.1263490" lon="-75.6019660">
        <ele>1918.5</ele>
        <time>2019-08-25T22:05:39Z</time>
      </trkpt>
      <trkpt lat="6.1263230" lon="-75.6019940">
        <ele>1919.2</ele>
        <time>2019-08-25T22:05:41Z</time>
      </trkpt>
      <trkpt lat="6.1262970" lon="-75.6020150">
        <ele>1919.7</ele>
        <time>2019-08-25T22:05:43Z</time>
      </trkpt>
      <trkpt lat="6.1262610" lon="-75.6020280">
        <ele>1920.4</ele>
        <time>2019-08-25T22:05:45Z</time>
      </trkpt>
      <trkpt lat="6.1262210" lon="-75.6020340">
        <ele>1921.0</ele>
        <time>2019-08-25T22:05:47Z</time>
      </trkpt>
      <trkpt lat="6.1261880" lon="-75.6020400">
        <ele>1921.5</ele>
        <time>2019-08-25T22:05:49Z</time>
      </trkpt>
      <trkpt lat="6.1261560" lon="-75.6020490">
        <ele>1922.0</ele>
        <time>2019-08-25T22:05:51Z</time>
      </trkpt>
      <trkpt lat="6.1261280" lon="-75.6020600">
        <ele>1922.5</ele>
        <time>2019-08-25T22:05:53Z</time>
      </trkpt>
      <trkpt lat="6.1260880" lon="-75.6020680">
        <ele>1923.3</ele>
        <time>2019-08-25T22:05:56Z</time>
      </trkpt>
      <trkpt lat="6.1260610" lon="-75.6020550">
        <ele>1923.8</ele>
        <time>2019-08-25T22:05:58Z</time>
      </trkpt>
      <trkpt lat="6.1260240" lon="-75.6020490">
        <ele>1924.5</ele>
        <time>2019-08-25T22:06:01Z</time>
      </trkpt>
      <trkpt lat="6.1259970" lon="-75.6020550">
        <ele>1925.0</ele>
        <time>2019-08-25T22:06:03Z</time>
      </trkpt>
      <trkpt lat="6.1259670" lon="-75.6020550">
        <ele>1925.5</ele>
        <time>2019-08-25T22:06:05Z</time>
      </trkpt>
      <trkpt lat="6.1259340" lon="-75.6020620">
        <ele>1926.0</ele>
        <time>2019-08-25T22:06:08Z</time>
      </trkpt>
      <trkpt lat="6.1259030" lon="-75.6020750">
        <ele>1926.5</ele>
        <time>2019-08-25T22:06:11Z</time>
      </trkpt>
      <trkpt lat="6.1258680" lon="-75.6020700">
        <ele>1926.9</ele>
        <time>2019-08-25T22:06:14Z</time>
      </trkpt>
      <trkpt lat="6.1258340" lon="-75.6020730">
        <ele>1927.4</ele>
        <time>2019-08-25T22:06:17Z</time>
      </trkpt>
      <trkpt lat="6.1257940" lon="-75.6020840">
        <ele>1927.9</ele>
        <time>2019-08-25T22:06:20Z</time>
      </trkpt>
      <trkpt lat="6.1257650" lon="-75.6020830">
        <ele>1928.3</ele>
        <time>2019-08-25T22:06:22Z</time>
      </trkpt>
      <trkpt lat="6.1257400" lon="-75.6020960">
        <ele>1928.6</ele>
        <time>2019-08-25T22:06:24Z</time>
      </trkpt>
      <trkpt lat="6.1257120" lon="-75.6021070">
        <ele>1928.9</ele>
        <time>2019-08-25T22:06:26Z</time>
      </trkpt>
      <trkpt lat="6.1256820" lon="-75.6021080">
        <ele>1929.2</ele>
        <time>2019-08-25T22:06:28Z</time>
      </trkpt>
      <trkpt lat="6.1256540" lon="-75.6021210">
        <ele>1929.6</ele>
        <time>2019-08-25T22:06:30Z</time>
      </trkpt>
      <trkpt lat="6.1256290" lon="-75.6021440">
        <ele>1929.9</ele>
        <time>2019-08-25T22:06:32Z</time>
      </trkpt>
      <trkpt lat="6.1256010" lon="-75.6021500">
        <ele>1930.2</ele>
        <time>2019-08-25T22:06:34Z</time>
      </trkpt>
      <trkpt lat="6.1255730" lon="-75.6021490">
        <ele>1931.0</ele>
        <time>2019-08-25T22:06:36Z</time>
      </trkpt>
      <trkpt lat="6.1255310" lon="-75.6021460">
        <ele>1931.2</ele>
        <time>2019-08-25T22:06:39Z</time>
      </trkpt>
      <trkpt lat="6.1255020" lon="-75.6021390">
        <ele>1931.3</ele>
        <time>2019-08-25T22:06:41Z</time>
      </trkpt>
      <trkpt lat="6.1254990" lon="-75.6021670">
        <ele>1931.4</ele>
        <time>2019-08-25T22:06:53Z</time>
      </trkpt>
      <trkpt lat="6.1254650" lon="-75.6021880">
        <ele>1931.5</ele>
        <time>2019-08-25T22:06:56Z</time>
      </trkpt>
      <trkpt lat="6.1254400" lon="-75.6022070">
        <ele>1931.6</ele>
        <time>2019-08-25T22:06:58Z</time>
      </trkpt>
      <trkpt lat="6.1254180" lon="-75.6022250">
        <ele>1931.7</ele>
        <time>2019-08-25T22:07:00Z</time>
      </trkpt>
      <trkpt lat="6.1253910" lon="-75.6022320">
        <ele>1931.8</ele>
        <time>2019-08-25T22:07:02Z</time>
      </trkpt>
      <trkpt lat="6.1253550" lon="-75.6022350">
        <ele>1931.9</ele>
        <time>2019-08-25T22:07:04Z</time>
      </trkpt>
      <trkpt lat="6.1253210" lon="-75.6022280">
        <ele>1932.1</ele>
        <time>2019-08-25T22:07:06Z</time>
      </trkpt>
      <trkpt lat="6.1252830" lon="-75.6022180">
        <ele>1932.2</ele>
        <time>2019-08-25T22:07:08Z</time>
      </trkpt>
      <trkpt lat="6.1252510" lon="-75.6022070">
        <ele>1932.3</ele>
        <time>2019-08-25T22:07:10Z</time>
      </trkpt>
      <trkpt lat="6.1252220" lon="-75.6021980">
        <ele>1932.5</ele>
        <time>2019-08-25T22:07:12Z</time>
      </trkpt>
      <trkpt lat="6.1251910" lon="-75.6021760">
        <ele>1932.6</ele>
        <time>2019-08-25T22:07:14Z</time>
      </trkpt>
      <trkpt lat="6.1251650" lon="-75.6021520">
        <ele>1932.8</ele>
        <time>2019-08-25T22:07:16Z</time>
      </trkpt>
      <trkpt lat="6.1251310" lon="-75.6021330">
        <ele>1933.0</ele>
        <time>2019-08-25T22:07:18Z</time>
      </trkpt>
      <trkpt lat="6.1251010" lon="-75.6021170">
        <ele>1933.1</ele>
        <time>2019-08-25T22:07:19Z</time>
      </trkpt>
      <trkpt lat="6.1250670" lon="-75.6020990">
        <ele>1933.3</ele>
        <time>2019-08-25T22:07:21Z</time>
      </trkpt>
      <trkpt lat="6.1250420" lon="-75.6020670">
        <ele>1933.4</ele>
        <time>2019-08-25T22:07:23Z</time>
      </trkpt>
      <trkpt lat="6.1250150" lon="-75.6020390">
        <ele>1933.6</ele>
        <time>2019-08-25T22:07:25Z</time>
      </trkpt>
      <trkpt lat="6.1249780" lon="-75.6020180">
        <ele>1933.7</ele>
        <time>2019-08-25T22:07:27Z</time>
      </trkpt>
      <trkpt lat="6.1249430" lon="-75.6020130">
        <ele>1934.0</ele>
        <time>2019-08-25T22:07:29Z</time>
      </trkpt>
      <trkpt lat="6.1248890" lon="-75.6020110">
        <ele>1934.3</ele>
        <time>2019-08-25T22:07:31Z</time>
      </trkpt>
      <trkpt lat="6.1248500" lon="-75.6020200">
        <ele>1934.7</ele>
        <time>2019-08-25T22:07:33Z</time>
      </trkpt>
      <trkpt lat="6.1248180" lon="-75.6020220">
        <ele>1935.0</ele>
        <time>2019-08-25T22:07:35Z</time>
      </trkpt>
      <trkpt lat="6.1247750" lon="-75.6020110">
        <ele>1935.5</ele>
        <time>2019-08-25T22:07:37Z</time>
      </trkpt>
      <trkpt lat="6.1247430" lon="-75.6020060">
        <ele>1935.8</ele>
        <time>2019-08-25T22:07:38Z</time>
      </trkpt>
      <trkpt lat="6.1247140" lon="-75.6020070">
        <ele>1936.1</ele>
        <time>2019-08-25T22:07:39Z</time>
      </trkpt>
      <trkpt lat="6.1246800" lon="-75.6020280">
        <ele>1936.5</ele>
        <time>2019-08-25T22:07:41Z</time>
      </trkpt>
      <trkpt lat="6.1246560" lon="-75.6020750">
        <ele>1937.1</ele>
        <time>2019-08-25T22:07:43Z</time>
      </trkpt>
      <trkpt lat="6.1246430" lon="-75.6020990">
        <ele>1937.4</ele>
        <time>2019-08-25T22:07:44Z</time>
      </trkpt>
      <trkpt lat="6.1246270" lon="-75.6021390">
        <ele>1937.8</ele>
        <time>2019-08-25T22:07:46Z</time>
      </trkpt>
      <trkpt lat="6.1246130" lon="-75.6021710">
        <ele>1938.0</ele>
        <time>2019-08-25T22:07:48Z</time>
      </trkpt>
      <trkpt lat="6.1245920" lon="-75.6022030">
        <ele>1938.3</ele>
        <time>2019-08-25T22:07:51Z</time>
      </trkpt>
      <trkpt lat="6.1245750" lon="-75.6022330">
        <ele>1938.7</ele>
        <time>2019-08-25T22:07:53Z</time>
      </trkpt>
      <trkpt lat="6.1245420" lon="-75.6022620">
        <ele>1939.0</ele>
        <time>2019-08-25T22:07:55Z</time>
      </trkpt>
      <trkpt lat="6.1244920" lon="-75.6022920">
        <ele>1939.6</ele>
        <time>2019-08-25T22:07:57Z</time>
      </trkpt>
      <trkpt lat="6.1244600" lon="-75.6022990">
        <ele>1939.9</ele>
        <time>2019-08-25T22:07:58Z</time>
      </trkpt>
      <trkpt lat="6.1244260" lon="-75.6023040">
        <ele>1940.1</ele>
        <time>2019-08-25T22:07:59Z</time>
      </trkpt>
      <trkpt lat="6.1243940" lon="-75.6023060">
        <ele>1940.4</ele>
        <time>2019-08-25T22:08:00Z</time>
      </trkpt>
      <trkpt lat="6.1243590" lon="-75.6023070">
        <ele>1940.7</ele>
        <time>2019-08-25T22:08:01Z</time>
      </trkpt>
      <trkpt lat="6.1243270" lon="-75.6023040">
        <ele>1941.0</ele>
        <time>2019-08-25T22:08:02Z</time>
      </trkpt>
      <trkpt lat="6.1242960" lon="-75.6023000">
        <ele>1941.4</ele>
        <time>2019-08-25T22:08:03Z</time>
      </trkpt>
      <trkpt lat="6.1242650" lon="-75.6022890">
        <ele>1941.8</ele>
        <time>2019-08-25T22:08:04Z</time>
      </trkpt>
      <trkpt lat="6.1242320" lon="-75.6022790">
        <ele>1942.2</ele>
        <time>2019-08-25T22:08:05Z</time>
      </trkpt>
      <trkpt lat="6.1241980" lon="-75.6022610">
        <ele>1942.7</ele>
        <time>2019-08-25T22:08:06Z</time>
      </trkpt>
      <trkpt lat="6.1241700" lon="-75.6022410">
        <ele>1943.1</ele>
        <time>2019-08-25T22:08:07Z</time>
      </trkpt>
      <trkpt lat="6.1241420" lon="-75.6022160">
        <ele>1943.6</ele>
        <time>2019-08-25T22:08:08Z</time>
      </trkpt>
      <trkpt lat="6.1241100" lon="-75.6021880">
        <ele>1944.1</ele>
        <time>2019-08-25T22:08:09Z</time>
      </trkpt>
      <trkpt lat="6.1240830" lon="-75.6021670">
        <ele>1944.6</ele>
        <time>2019-08-25T22:08:10Z</time>
      </trkpt>
      <trkpt lat="6.1240570" lon="-75.6021570">
        <ele>1945.0</ele>
        <time>2019-08-25T22:08:11Z</time>
      </trkpt>
      <trkpt lat="6.1240290" lon="-75.6021630">
        <ele>1945.4</ele>
        <time>2019-08-25T22:08:12Z</time>
      </trkpt>
      <trkpt lat="6.1239820" lon="-75.6021950">
        <ele>1946.3</ele>
        <time>2019-08-25T22:08:14Z</time>
      </trkpt>
      <trkpt lat="6.1239590" lon="-75.6022320">
        <ele>1946.9</ele>
        <time>2019-08-25T22:08:15Z</time>
      </trkpt>
      <trkpt lat="6.1239380" lon="-75.6022730">
        <ele>1947.5</ele>
        <time>2019-08-25T22:08:16Z</time>
      </trkpt>
      <trkpt lat="6.1239180" lon="-75.6023190">
        <ele>1948.1</ele>
        <time>2019-08-25T22:08:17Z</time>
      </trkpt>
      <trkpt lat="6.1238990" lon="-75.6023540">
        <ele>1948.6</ele>
        <time>2019-08-25T22:08:18Z</time>
      </trkpt>
      <trkpt lat="6.1238670" lon="-75.6023750">
        <ele>1949.0</ele>
        <time>2019-08-25T22:08:20Z</time>
      </trkpt>
      <trkpt lat="6.1238350" lon="-75.6023760">
        <ele>1949.4</ele>
        <time>2019-08-25T22:08:23Z</time>
      </trkpt>
      <trkpt lat="6.1238080" lon="-75.6023700">
        <ele>1949.7</ele>
        <time>2019-08-25T22:08:26Z</time>
      </trkpt>
      <trkpt lat="6.1237820" lon="-75.6023920">
        <ele>1950.1</ele>
        <time>2019-08-25T22:08:31Z</time>
      </trkpt>
      <trkpt lat="6.1237720" lon="-75.6024250">
        <ele>1950.5</ele>
        <time>2019-08-25T22:08:33Z</time>
      </trkpt>
      <trkpt lat="6.1237550" lon="-75.6024470">
        <ele>1950.8</ele>
        <time>2019-08-25T22:08:36Z</time>
      </trkpt>
      <trkpt lat="6.1237260" lon="-75.6024690">
        <ele>1951.2</ele>
        <time>2019-08-25T22:08:39Z</time>
      </trkpt>
      <trkpt lat="6.1237100" lon="-75.6024960">
        <ele>1951.6</ele>
        <time>2019-08-25T22:08:41Z</time>
      </trkpt>
      <trkpt lat="6.1236940" lon="-75.6025190">
        <ele>1951.9</ele>
        <time>2019-08-25T22:08:43Z</time>
      </trkpt>
      <trkpt lat="6.1236700" lon="-75.6025330">
        <ele>1952.3</ele>
        <time>2019-08-25T22:08:45Z</time>
      </trkpt>
      <trkpt lat="6.1236440" lon="-75.6025450">
        <ele>1952.6</ele>
        <time>2019-08-25T22:08:47Z</time>
      </trkpt>
      <trkpt lat="6.1236170" lon="-75.6025500">
        <ele>1953.0</ele>
        <time>2019-08-25T22:08:49Z</time>
      </trkpt>
      <trkpt lat="6.1235800" lon="-75.6025550">
        <ele>1953.5</ele>
        <time>2019-08-25T22:08:52Z</time>
      </trkpt>
      <trkpt lat="6.1235510" lon="-75.6025740">
        <ele>1954.0</ele>
        <time>2019-08-25T22:08:55Z</time>
      </trkpt>
      <trkpt lat="6.1235150" lon="-75.6025750">
        <ele>1954.7</ele>
        <time>2019-08-25T22:08:58Z</time>
      </trkpt>
      <trkpt lat="6.1234800" lon="-75.6025760">
        <ele>1955.3</ele>
        <time>2019-08-25T22:09:01Z</time>
      </trkpt>
      <trkpt lat="6.1234450" lon="-75.6025740">
        <ele>1955.9</ele>
        <time>2019-08-25T22:09:04Z</time>
      </trkpt>
      <trkpt lat="6.1234080" lon="-75.6025620">
        <ele>1956.6</ele>
        <time>2019-08-25T22:09:07Z</time>
      </trkpt>
      <trkpt lat="6.1233700" lon="-75.6025510">
        <ele>1957.2</ele>
        <time>2019-08-25T22:09:10Z</time>
      </trkpt>
      <trkpt lat="6.1233420" lon="-75.6025380">
        <ele>1957.7</ele>
        <time>2019-08-25T22:09:12Z</time>
      </trkpt>
      <trkpt lat="6.1233160" lon="-75.6025300">
        <ele>1958.3</ele>
        <time>2019-08-25T22:09:14Z</time>
      </trkpt>
      <trkpt lat="6.1232920" lon="-75.6025160">
        <ele>1958.9</ele>
        <time>2019-08-25T22:09:16Z</time>
      </trkpt>
      <trkpt lat="6.1232570" lon="-75.6024980">
        <ele>1959.6</ele>
        <time>2019-08-25T22:09:19Z</time>
      </trkpt>
      <trkpt lat="6.1232310" lon="-75.6024860">
        <ele>1960.1</ele>
        <time>2019-08-25T22:09:22Z</time>
      </trkpt>
      <trkpt lat="6.1232030" lon="-75.6024710">
        <ele>1960.6</ele>
        <time>2019-08-25T22:09:25Z</time>
      </trkpt>
      <trkpt lat="6.1231630" lon="-75.6024640">
        <ele>1961.3</ele>
        <time>2019-08-25T22:09:28Z</time>
      </trkpt>
      <trkpt lat="6.1231310" lon="-75.6024670">
        <ele>1961.8</ele>
        <time>2019-08-25T22:09:31Z</time>
      </trkpt>
      <trkpt lat="6.1231010" lon="-75.6024560">
        <ele>1962.3</ele>
        <time>2019-08-25T22:09:34Z</time>
      </trkpt>
      <trkpt lat="6.1230750" lon="-75.6024310">
        <ele>1962.8</ele>
        <time>2019-08-25T22:09:37Z</time>
      </trkpt>
      <trkpt lat="6.1230480" lon="-75.6024080">
        <ele>1963.3</ele>
        <time>2019-08-25T22:09:40Z</time>
      </trkpt>
      <trkpt lat="6.1230130" lon="-75.6024090">
        <ele>1963.9</ele>
        <time>2019-08-25T22:09:43Z</time>
      </trkpt>
      <trkpt lat="6.1229830" lon="-75.6024030">
        <ele>1964.3</ele>
        <time>2019-08-25T22:09:46Z</time>
      </trkpt>
      <trkpt lat="6.1229470" lon="-75.6023900">
        <ele>1964.8</ele>
        <time>2019-08-25T22:09:49Z</time>
      </trkpt>
      <trkpt lat="6.1229160" lon="-75.6023950">
        <ele>1965.3</ele>
        <time>2019-08-25T22:09:52Z</time>
      </trkpt>
      <trkpt lat="6.1228830" lon="-75.6024120">
        <ele>1965.9</ele>
        <time>2019-08-25T22:09:55Z</time>
      </trkpt>
      <trkpt lat="6.1228510" lon="-75.6024250">
        <ele>1966.4</ele>
        <time>2019-08-25T22:09:58Z</time>
      </trkpt>
      <trkpt lat="6.1228210" lon="-75.6024270">
        <ele>1966.7</ele>
        <time>2019-08-25T22:10:01Z</time>
      </trkpt>
      <trkpt lat="6.1227900" lon="-75.6024250">
        <ele>1967.1</ele>
        <time>2019-08-25T22:10:04Z</time>
      </trkpt>
      <trkpt lat="6.1227550" lon="-75.6024230">
        <ele>1967.5</ele>
        <time>2019-08-25T22:10:07Z</time>
      </trkpt>
      <trkpt lat="6.1227240" lon="-75.6024100">
        <ele>1968.0</ele>
        <time>2019-08-25T22:10:10Z</time>
      </trkpt>
      <trkpt lat="6.1226910" lon="-75.6024120">
        <ele>1968.4</ele>
        <time>2019-08-25T22:10:13Z</time>
      </trkpt>
      <trkpt lat="6.1226620" lon="-75.6024100">
        <ele>1968.8</ele>
        <time>2019-08-25T22:10:16Z</time>
      </trkpt>
      <trkpt lat="6.1226380" lon="-75.6024220">
        <ele>1969.2</ele>
        <time>2019-08-25T22:10:19Z</time>
      </trkpt>
      <trkpt lat="6.1226140" lon="-75.6024060">
        <ele>1969.6</ele>
        <time>2019-08-25T22:10:23Z</time>
      </trkpt>
      <trkpt lat="6.1226010" lon="-75.6023810">
        <ele>1970.0</ele>
        <time>2019-08-25T22:10:25Z</time>
      </trkpt>
      <trkpt lat="6.1225890" lon="-75.6023550">
        <ele>1970.4</ele>
        <time>2019-08-25T22:10:27Z</time>
      </trkpt>
      <trkpt lat="6.1225710" lon="-75.6023230">
        <ele>1971.0</ele>
        <time>2019-08-25T22:10:30Z</time>
      </trkpt>
      <trkpt lat="6.1225620" lon="-75.6022960">
        <ele>1971.4</ele>
        <time>2019-08-25T22:10:33Z</time>
      </trkpt>
      <trkpt lat="6.1225620" lon="-75.6022680">
        <ele>1971.9</ele>
        <time>2019-08-25T22:10:36Z</time>
      </trkpt>
      <trkpt lat="6.1225610" lon="-75.6022400">
        <ele>1972.3</ele>
        <time>2019-08-25T22:10:38Z</time>
      </trkpt>
      <trkpt lat="6.1225650" lon="-75.6022100">
        <ele>1972.8</ele>
        <time>2019-08-25T22:10:41Z</time>
      </trkpt>
      <trkpt lat="6.1225900" lon="-75.6021850">
        <ele>1973.4</ele>
        <time>2019-08-25T22:10:44Z</time>
      </trkpt>
      <trkpt lat="6.1226340" lon="-75.6021820">
        <ele>1974.3</ele>
        <time>2019-08-25T22:10:46Z</time>
      </trkpt>
      <trkpt lat="6.1226660" lon="-75.6021770">
        <ele>1974.9</ele>
        <time>2019-08-25T22:10:49Z</time>
      </trkpt>
      <trkpt lat="6.1226990" lon="-75.6021650">
        <ele>1975.7</ele>
        <time>2019-08-25T22:10:52Z</time>
      </trkpt>
      <trkpt lat="6.1227270" lon="-75.6021560">
        <ele>1976.5</ele>
        <time>2019-08-25T22:10:54Z</time>
      </trkpt>
      <trkpt lat="6.1227660" lon="-75.6021580">
        <ele>1977.5</ele>
        <time>2019-08-25T22:10:57Z</time>
      </trkpt>
      <trkpt lat="6.1227950" lon="-75.6021640">
        <ele>1978.3</ele>
        <time>2019-08-25T22:10:59Z</time>
      </trkpt>
      <trkpt lat="6.1228340" lon="-75.6021690">
        <ele>1979.3</ele>
        <time>2019-08-25T22:11:02Z</time>
      </trkpt>
      <trkpt lat="6.1228620" lon="-75.6021650">
        <ele>1980.0</ele>
        <time>2019-08-25T22:11:04Z</time>
      </trkpt>
      <trkpt lat="6.1228940" lon="-75.6021550">
        <ele>1980.8</ele>
        <time>2019-08-25T22:11:07Z</time>
      </trkpt>
      <trkpt lat="6.1229240" lon="-75.6021430">
        <ele>1981.4</ele>
        <time>2019-08-25T22:11:10Z</time>
      </trkpt>
      <trkpt lat="6.1229590" lon="-75.6021280">
        <ele>1982.2</ele>
        <time>2019-08-25T22:11:13Z</time>
      </trkpt>
      <trkpt lat="6.1229970" lon="-75.6021190">
        <ele>1982.9</ele>
        <time>2019-08-25T22:11:16Z</time>
      </trkpt>
      <trkpt lat="6.1230240" lon="-75.6020970">
        <ele>1983.6</ele>
        <time>2019-08-25T22:11:18Z</time>
      </trkpt>
      <trkpt lat="6.1230390" lon="-75.6020630">
        <ele>1984.2</ele>
        <time>2019-08-25T22:11:22Z</time>
      </trkpt>
      <trkpt lat="6.1230320" lon="-75.6020190">
        <ele>1984.8</ele>
        <time>2019-08-25T22:11:24Z</time>
      </trkpt>
      <trkpt lat="6.1230220" lon="-75.6019930">
        <ele>1985.3</ele>
        <time>2019-08-25T22:11:25Z</time>
      </trkpt>
      <trkpt lat="6.1230190" lon="-75.6019590">
        <ele>1986.0</ele>
        <time>2019-08-25T22:11:27Z</time>
      </trkpt>
      <trkpt lat="6.1230330" lon="-75.6019350">
        <ele>1986.5</ele>
        <time>2019-08-25T22:11:29Z</time>
      </trkpt>
      <trkpt lat="6.1230810" lon="-75.6019640">
        <ele>1987.3</ele>
        <time>2019-08-25T22:11:31Z</time>
      </trkpt>
      <trkpt lat="6.1231130" lon="-75.6019760">
        <ele>1987.9</ele>
        <time>2019-08-25T22:11:33Z</time>
      </trkpt>
      <trkpt lat="6.1231370" lon="-75.6019540">
        <ele>1988.5</ele>
        <time>2019-08-25T22:11:35Z</time>
      </trkpt>
      <trkpt lat="6.1231480" lon="-75.6019200">
        <ele>1989.3</ele>
        <time>2019-08-25T22:11:39Z</time>
      </trkpt>
      <trkpt lat="6.1231240" lon="-75.6018980">
        <ele>1990.1</ele>
        <time>2019-08-25T22:11:43Z</time>
      </trkpt>
      <trkpt lat="6.1230930" lon="-75.6018910">
        <ele>1990.9</ele>
        <time>2019-08-25T22:11:46Z</time>
      </trkpt>
      <trkpt lat="6.1230630" lon="-75.6018870">
        <ele>1991.7</ele>
        <time>2019-08-25T22:11:49Z</time>
      </trkpt>
      <trkpt lat="6.1230330" lon="-75.6018870">
        <ele>1992.5</ele>
        <time>2019-08-25T22:11:52Z</time>
      </trkpt>
      <trkpt lat="6.1229970" lon="-75.6018960">
        <ele>1993.3</ele>
        <time>2019-08-25T22:11:55Z</time>
      </trkpt>
      <trkpt lat="6.1229610" lon="-75.6018920">
        <ele>1994.1</ele>
        <time>2019-08-25T22:11:58Z</time>
      </trkpt>
      <trkpt lat="6.1229310" lon="-75.6018950">
        <ele>1994.7</ele>
        <time>2019-08-25T22:12:01Z</time>
      </trkpt>
      <trkpt lat="6.1228970" lon="-75.6018940">
        <ele>1995.4</ele>
        <time>2019-08-25T22:12:05Z</time>
      </trkpt>
      <trkpt lat="6.1228650" lon="-75.6018930">
        <ele>1996.0</ele>
        <time>2019-08-25T22:12:08Z</time>
      </trkpt>
      <trkpt lat="6.1228310" lon="-75.6018820">
        <ele>1996.6</ele>
        <time>2019-08-25T22:12:11Z</time>
      </trkpt>
      <trkpt lat="6.1227960" lon="-75.6018620">
        <ele>1997.2</ele>
        <time>2019-08-25T22:12:14Z</time>
      </trkpt>
      <trkpt lat="6.1227690" lon="-75.6018330">
        <ele>1997.8</ele>
        <time>2019-08-25T22:12:17Z</time>
      </trkpt>
      <trkpt lat="6.1227430" lon="-75.6018080">
        <ele>1998.3</ele>
        <time>2019-08-25T22:12:20Z</time>
      </trkpt>
      <trkpt lat="6.1227230" lon="-75.6017840">
        <ele>1998.8</ele>
        <time>2019-08-25T22:12:24Z</time>
      </trkpt>
      <trkpt lat="6.1226950" lon="-75.6017650">
        <ele>1999.2</ele>
        <time>2019-08-25T22:12:27Z</time>
      </trkpt>
      <trkpt lat="6.1226810" lon="-75.6017410">
        <ele>1999.6</ele>
        <time>2019-08-25T22:12:29Z</time>
      </trkpt>
      <trkpt lat="6.1226690" lon="-75.6017100">
        <ele>2000.1</ele>
        <time>2019-08-25T22:12:33Z</time>
      </trkpt>
      <trkpt lat="6.1226400" lon="-75.6016970">
        <ele>2000.5</ele>
        <time>2019-08-25T22:12:38Z</time>
      </trkpt>
      <trkpt lat="6.1226240" lon="-75.6016730">
        <ele>2000.9</ele>
        <time>2019-08-25T22:12:41Z</time>
      </trkpt>
      <trkpt lat="6.1226000" lon="-75.6016450">
        <ele>2001.4</ele>
        <time>2019-08-25T22:12:44Z</time>
      </trkpt>
      <trkpt lat="6.1225900" lon="-75.6016190">
        <ele>2001.8</ele>
        <time>2019-08-25T22:12:46Z</time>
      </trkpt>
      <trkpt lat="6.1225740" lon="-75.6015900">
        <ele>2002.3</ele>
        <time>2019-08-25T22:12:49Z</time>
      </trkpt>
      <trkpt lat="6.1225510" lon="-75.6015600">
        <ele>2002.8</ele>
        <time>2019-08-25T22:12:53Z</time>
      </trkpt>
      <trkpt lat="6.1225240" lon="-75.6015420">
        <ele>2003.3</ele>
        <time>2019-08-25T22:12:56Z</time>
      </trkpt>
      <trkpt lat="6.1224980" lon="-75.6015270">
        <ele>2003.8</ele>
        <time>2019-08-25T22:12:59Z</time>
      </trkpt>
      <trkpt lat="6.1224760" lon="-75.6014940">
        <ele>2004.5</ele>
        <time>2019-08-25T22:13:02Z</time>
      </trkpt>
      <trkpt lat="6.1224470" lon="-75.6014710">
        <ele>2005.2</ele>
        <time>2019-08-25T22:13:05Z</time>
      </trkpt>
      <trkpt lat="6.1224200" lon="-75.6014460">
        <ele>2005.9</ele>
        <time>2019-08-25T22:13:08Z</time>
      </trkpt>
      <trkpt lat="6.1224390" lon="-75.6014220">
        <ele>2006.6</ele>
        <time>2019-08-25T22:13:18Z</time>
      </trkpt>
      <trkpt lat="6.1224540" lon="-75.6013950">
        <ele>2007.3</ele>
        <time>2019-08-25T22:13:20Z</time>
      </trkpt>
      <trkpt lat="6.1224750" lon="-75.6013740">
        <ele>2008.1</ele>
        <time>2019-08-25T22:13:22Z</time>
      </trkpt>
      <trkpt lat="6.1225070" lon="-75.6013630">
        <ele>2009.0</ele>
        <time>2019-08-25T22:13:24Z</time>
      </trkpt>
      <trkpt lat="6.1225310" lon="-75.6013490">
        <ele>2009.7</ele>
        <time>2019-08-25T22:13:26Z</time>
      </trkpt>
      <trkpt lat="6.1225530" lon="-75.6013300">
        <ele>2010.5</ele>
        <time>2019-08-25T22:13:28Z</time>
      </trkpt>
      <trkpt lat="6.1225800" lon="-75.6013210">
        <ele>2011.1</ele>
        <time>2019-08-25T22:13:30Z</time>
      </trkpt>
      <trkpt lat="6.1226260" lon="-75.6013410">
        <ele>2012.2</ele>
        <time>2019-08-25T22:13:33Z</time>
      </trkpt>
      <trkpt lat="6.1226590" lon="-75.6013640">
        <ele>2013.0</ele>
        <time>2019-08-25T22:13:35Z</time>
      </trkpt>
      <trkpt lat="6.1226880" lon="-75.6013680">
        <ele>2013.5</ele>
        <time>2019-08-25T22:13:37Z</time>
      </trkpt>
      <trkpt lat="6.1227310" lon="-75.6013900">
        <ele>2014.2</ele>
        <time>2019-08-25T22:13:39Z</time>
      </trkpt>
      <trkpt lat="6.1227630" lon="-75.6013920">
        <ele>2014.7</ele>
        <time>2019-08-25T22:13:42Z</time>
      </trkpt>
      <trkpt lat="6.1227900" lon="-75.6013720">
        <ele>2015.1</ele>
        <time>2019-08-25T22:13:45Z</time>
      </trkpt>
      <trkpt lat="6.1228010" lon="-75.6013320">
        <ele>2015.6</ele>
        <time>2019-08-25T22:13:48Z</time>
      </trkpt>
      <trkpt lat="6.1228090" lon="-75.6012960">
        <ele>2016.1</ele>
        <time>2019-08-25T22:13:51Z</time>
      </trkpt>
      <trkpt lat="6.1228180" lon="-75.6012700">
        <ele>2016.4</ele>
        <time>2019-08-25T22:13:54Z</time>
      </trkpt>
      <trkpt lat="6.1228460" lon="-75.6012500">
        <ele>2016.8</ele>
        <time>2019-08-25T22:13:57Z</time>
      </trkpt>
      <trkpt lat="6.1228900" lon="-75.6012450">
        <ele>2017.2</ele>
        <time>2019-08-25T22:13:59Z</time>
      </trkpt>
      <trkpt lat="6.1229330" lon="-75.6012600">
        <ele>2017.7</ele>
        <time>2019-08-25T22:14:01Z</time>
      </trkpt>
      <trkpt lat="6.1229680" lon="-75.6012690">
        <ele>2018.0</ele>
        <time>2019-08-25T22:14:03Z</time>
      </trkpt>
      <trkpt lat="6.1230060" lon="-75.6012680">
        <ele>2018.4</ele>
        <time>2019-08-25T22:14:06Z</time>
      </trkpt>
      <trkpt lat="6.1230320" lon="-75.6012580">
        <ele>2018.7</ele>
        <time>2019-08-25T22:14:08Z</time>
      </trkpt>
      <trkpt lat="6.1230380" lon="-75.6012170">
        <ele>2019.1</ele>
        <time>2019-08-25T22:14:11Z</time>
      </trkpt>
      <trkpt lat="6.1230430" lon="-75.6011840">
        <ele>2019.4</ele>
        <time>2019-08-25T22:14:13Z</time>
      </trkpt>
      <trkpt lat="6.1230690" lon="-75.6011660">
        <ele>2019.7</ele>
        <time>2019-08-25T22:14:16Z</time>
      </trkpt>
      <trkpt lat="6.1230990" lon="-75.6011760">
        <ele>2020.0</ele>
        <time>2019-08-25T22:14:19Z</time>
      </trkpt>
      <trkpt lat="6.1231250" lon="-75.6011590">
        <ele>2020.3</ele>
        <time>2019-08-25T22:14:22Z</time>
      </trkpt>
      <trkpt lat="6.1231560" lon="-75.6011470">
        <ele>2020.6</ele>
        <time>2019-08-25T22:14:26Z</time>
      </trkpt>
      <trkpt lat="6.1231790" lon="-75.6011150">
        <ele>2021.0</ele>
        <time>2019-08-25T22:14:30Z</time>
      </trkpt>
      <trkpt lat="6.1232070" lon="-75.6011100">
        <ele>2021.2</ele>
        <time>2019-08-25T22:14:32Z</time>
      </trkpt>
      <trkpt lat="6.1232400" lon="-75.6011110">
        <ele>2021.6</ele>
        <time>2019-08-25T22:14:35Z</time>
      </trkpt>
      <trkpt lat="6.1232530" lon="-75.6010850">
        <ele>2021.9</ele>
        <time>2019-08-25T22:14:38Z</time>
      </trkpt>
      <trkpt lat="6.1232630" lon="-75.6010480">
        <ele>2022.4</ele>
        <time>2019-08-25T22:14:41Z</time>
      </trkpt>
      <trkpt lat="6.1232620" lon="-75.6010210">
        <ele>2022.8</ele>
        <time>2019-08-25T22:14:44Z</time>
      </trkpt>
      <trkpt lat="6.1232640" lon="-75.6009880">
        <ele>2023.7</ele>
        <time>2019-08-25T22:14:48Z</time>
      </trkpt>
      <trkpt lat="6.1232570" lon="-75.6009500">
        <ele>2025.4</ele>
        <time>2019-08-25T22:14:51Z</time>
      </trkpt>
      <trkpt lat="6.1232420" lon="-75.6009210">
        <ele>2026.8</ele>
        <time>2019-08-25T22:14:54Z</time>
      </trkpt>
      <trkpt lat="6.1232200" lon="-75.6008990">
        <ele>2028.0</ele>
        <time>2019-08-25T22:14:57Z</time>
      </trkpt>
      <trkpt lat="6.1232030" lon="-75.6008760">
        <ele>2029.2</ele>
        <time>2019-08-25T22:15:00Z</time>
      </trkpt>
      <trkpt lat="6.1231840" lon="-75.6008510">
        <ele>2030.4</ele>
        <time>2019-08-25T22:15:03Z</time>
      </trkpt>
      <trkpt lat="6.1231520" lon="-75.6008260">
        <ele>2031.9</ele>
        <time>2019-08-25T22:15:06Z</time>
      </trkpt>
      <trkpt lat="6.1231230" lon="-75.6008100">
        <ele>2033.1</ele>
        <time>2019-08-25T22:15:09Z</time>
      </trkpt>
      <trkpt lat="6.1230900" lon="-75.6008000">
        <ele>2034.2</ele>
        <time>2019-08-25T22:15:13Z</time>
      </trkpt>
      <trkpt lat="6.1230640" lon="-75.6007900">
        <ele>2035.1</ele>
        <time>2019-08-25T22:15:15Z</time>
      </trkpt>
      <trkpt lat="6.1230310" lon="-75.6007680">
        <ele>2036.3</ele>
        <time>2019-08-25T22:15:19Z</time>
      </trkpt>
      <trkpt lat="6.1230050" lon="-75.6007460">
        <ele>2037.2</ele>
        <time>2019-08-25T22:15:22Z</time>
      </trkpt>
      <trkpt lat="6.1229770" lon="-75.6007350">
        <ele>2037.9</ele>
        <time>2019-08-25T22:15:25Z</time>
      </trkpt>
      <trkpt lat="6.1229440" lon="-75.6007270">
        <ele>2038.7</ele>
        <time>2019-08-25T22:15:27Z</time>
      </trkpt>
      <trkpt lat="6.1229250" lon="-75.6007070">
        <ele>2039.3</ele>
        <time>2019-08-25T22:15:28Z</time>
      </trkpt>
      <trkpt lat="6.1229060" lon="-75.6006780">
        <ele>2039.9</ele>
        <time>2019-08-25T22:15:30Z</time>
      </trkpt>
      <trkpt lat="6.1228790" lon="-75.6006690">
        <ele>2040.4</ele>
        <time>2019-08-25T22:15:34Z</time>
      </trkpt>
      <trkpt lat="6.1228460" lon="-75.6006560">
        <ele>2041.0</ele>
        <time>2019-08-25T22:15:37Z</time>
      </trkpt>
      <trkpt lat="6.1228160" lon="-75.6006470">
        <ele>2041.4</ele>
        <time>2019-08-25T22:15:40Z</time>
      </trkpt>
      <trkpt lat="6.1227870" lon="-75.6006340">
        <ele>2041.9</ele>
        <time>2019-08-25T22:15:43Z</time>
      </trkpt>
      <trkpt lat="6.1227550" lon="-75.6006230">
        <ele>2042.4</ele>
        <time>2019-08-25T22:15:47Z</time>
      </trkpt>
      <trkpt lat="6.1227160" lon="-75.6006310">
        <ele>2042.9</ele>
        <time>2019-08-25T22:15:51Z</time>
      </trkpt>
      <trkpt lat="6.1226770" lon="-75.6006290">
        <ele>2043.5</ele>
        <time>2019-08-25T22:15:54Z</time>
      </trkpt>
      <trkpt lat="6.1226460" lon="-75.6006180">
        <ele>2044.0</ele>
        <time>2019-08-25T22:15:56Z</time>
      </trkpt>
      <trkpt lat="6.1226140" lon="-75.6006120">
        <ele>2044.5</ele>
        <time>2019-08-25T22:15:58Z</time>
      </trkpt>
      <trkpt lat="6.1225820" lon="-75.6006000">
        <ele>2045.2</ele>
        <time>2019-08-25T22:16:01Z</time>
      </trkpt>
      <trkpt lat="6.1225560" lon="-75.6005880">
        <ele>2045.8</ele>
        <time>2019-08-25T22:16:03Z</time>
      </trkpt>
      <trkpt lat="6.1225200" lon="-75.6005680">
        <ele>2046.7</ele>
        <time>2019-08-25T22:16:06Z</time>
      </trkpt>
      <trkpt lat="6.1224890" lon="-75.6005470">
        <ele>2047.6</ele>
        <time>2019-08-25T22:16:08Z</time>
      </trkpt>
      <trkpt lat="6.1224530" lon="-75.6005230">
        <ele>2048.8</ele>
        <time>2019-08-25T22:16:10Z</time>
      </trkpt>
      <trkpt lat="6.1224280" lon="-75.6005040">
        <ele>2049.6</ele>
        <time>2019-08-25T22:16:12Z</time>
      </trkpt>
      <trkpt lat="6.1223990" lon="-75.6004920">
        <ele>2050.6</ele>
        <time>2019-08-25T22:16:15Z</time>
      </trkpt>
      <trkpt lat="6.1223740" lon="-75.6004770">
        <ele>2051.4</ele>
        <time>2019-08-25T22:16:17Z</time>
      </trkpt>
      <trkpt lat="6.1223490" lon="-75.6004380">
        <ele>2052.9</ele>
        <time>2019-08-25T22:16:19Z</time>
      </trkpt>
      <trkpt lat="6.1223220" lon="-75.6004160">
        <ele>2054.1</ele>
        <time>2019-08-25T22:16:21Z</time>
      </trkpt>
      <trkpt lat="6.1222910" lon="-75.6003940">
        <ele>2055.6</ele>
        <time>2019-08-25T22:16:24Z</time>
      </trkpt>
      <trkpt lat="6.1222610" lon="-75.6003800">
        <ele>2056.8</ele>
        <time>2019-08-25T22:16:27Z</time>
      </trkpt>
      <trkpt lat="6.1222440" lon="-75.6003580">
        <ele>2057.8</ele>
        <time>2019-08-25T22:16:29Z</time>
      </trkpt>
      <trkpt lat="6.1222290" lon="-75.6003300">
        <ele>2059.2</ele>
        <time>2019-08-25T22:16:31Z</time>
      </trkpt>
      <trkpt lat="6.1222100" lon="-75.6003050">
        <ele>2059.8</ele>
        <time>2019-08-25T22:16:33Z</time>
      </trkpt>
      <trkpt lat="6.1221900" lon="-75.6002820">
        <ele>2060.3</ele>
        <time>2019-08-25T22:16:35Z</time>
      </trkpt>
      <trkpt lat="6.1221680" lon="-75.6002570">
        <ele>2060.9</ele>
        <time>2019-08-25T22:16:38Z</time>
      </trkpt>
      <trkpt lat="6.1221440" lon="-75.6002320">
        <ele>2061.5</ele>
        <time>2019-08-25T22:16:41Z</time>
      </trkpt>
      <trkpt lat="6.1221190" lon="-75.6002050">
        <ele>2062.1</ele>
        <time>2019-08-25T22:16:44Z</time>
      </trkpt>
      <trkpt lat="6.1220940" lon="-75.6001890">
        <ele>2062.6</ele>
        <time>2019-08-25T22:16:47Z</time>
      </trkpt>
      <trkpt lat="6.1220700" lon="-75.6001750">
        <ele>2063.0</ele>
        <time>2019-08-25T22:16:51Z</time>
      </trkpt>
      <trkpt lat="6.1220700" lon="-75.6001390">
        <ele>2063.5</ele>
        <time>2019-08-25T22:17:00Z</time>
      </trkpt>
      <trkpt lat="6.1220620" lon="-75.6001040">
        <ele>2064.0</ele>
        <time>2019-08-25T22:17:02Z</time>
      </trkpt>
      <trkpt lat="6.1220690" lon="-75.6000750">
        <ele>2064.4</ele>
        <time>2019-08-25T22:17:05Z</time>
      </trkpt>
      <trkpt lat="6.1220740" lon="-75.6000440">
        <ele>2064.9</ele>
        <time>2019-08-25T22:17:09Z</time>
      </trkpt>
      <trkpt lat="6.1220840" lon="-75.6000140">
        <ele>2065.3</ele>
        <time>2019-08-25T22:17:14Z</time>
      </trkpt>
      <trkpt lat="6.1221090" lon="-75.5999920">
        <ele>2065.8</ele>
        <time>2019-08-25T22:17:17Z</time>
      </trkpt>
      <trkpt lat="6.1221240" lon="-75.5999620">
        <ele>2066.2</ele>
        <time>2019-08-25T22:17:20Z</time>
      </trkpt>
      <trkpt lat="6.1221350" lon="-75.5999170">
        <ele>2066.9</ele>
        <time>2019-08-25T22:17:22Z</time>
      </trkpt>
      <trkpt lat="6.1221480" lon="-75.5998830">
        <ele>2067.5</ele>
        <time>2019-08-25T22:17:24Z</time>
      </trkpt>
      <trkpt lat="6.1221630" lon="-75.5998560">
        <ele>2067.9</ele>
        <time>2019-08-25T22:17:26Z</time>
      </trkpt>
      <trkpt lat="6.1221790" lon="-75.5998210">
        <ele>2068.5</ele>
        <time>2019-08-25T22:17:28Z</time>
      </trkpt>
      <trkpt lat="6.1221870" lon="-75.5997860">
        <ele>2069.1</ele>
        <time>2019-08-25T22:17:30Z</time>
      </trkpt>
      <trkpt lat="6.1222010" lon="-75.5997550">
        <ele>2069.7</ele>
        <time>2019-08-25T22:17:32Z</time>
      </trkpt>
      <trkpt lat="6.1222270" lon="-75.5997370">
        <ele>2070.2</ele>
        <time>2019-08-25T22:17:34Z</time>
      </trkpt>
      <trkpt lat="6.1222540" lon="-75.5997190">
        <ele>2070.7</ele>
        <time>2019-08-25T22:17:36Z</time>
      </trkpt>
      <trkpt lat="6.1222740" lon="-75.5996920">
        <ele>2071.3</ele>
        <time>2019-08-25T22:17:38Z</time>
      </trkpt>
      <trkpt lat="6.1222870" lon="-75.5996670">
        <ele>2071.8</ele>
        <time>2019-08-25T22:17:40Z</time>
      </trkpt>
      <trkpt lat="6.1223070" lon="-75.5996470">
        <ele>2072.3</ele>
        <time>2019-08-25T22:17:42Z</time>
      </trkpt>
      <trkpt lat="6.1223280" lon="-75.5996280">
        <ele>2072.8</ele>
        <time>2019-08-25T22:17:45Z</time>
      </trkpt>
      <trkpt lat="6.1223330" lon="-75.5996010">
        <ele>2073.3</ele>
        <time>2019-08-25T22:17:48Z</time>
      </trkpt>
      <trkpt lat="6.1222970" lon="-75.5995880">
        <ele>2074.0</ele>
        <time>2019-08-25T22:17:52Z</time>
      </trkpt>
      <trkpt lat="6.1222680" lon="-75.5995800">
        <ele>2074.6</ele>
        <time>2019-08-25T22:17:54Z</time>
      </trkpt>
      <trkpt lat="6.1222340" lon="-75.5995710">
        <ele>2075.2</ele>
        <time>2019-08-25T22:17:57Z</time>
      </trkpt>
      <trkpt lat="6.1221970" lon="-75.5995650">
        <ele>2075.9</ele>
        <time>2019-08-25T22:18:00Z</time>
      </trkpt>
      <trkpt lat="6.1221590" lon="-75.5995650">
        <ele>2076.7</ele>
        <time>2019-08-25T22:18:03Z</time>
      </trkpt>
      <trkpt lat="6.1221240" lon="-75.5995660">
        <ele>2077.3</ele>
        <time>2019-08-25T22:18:06Z</time>
      </trkpt>
      <trkpt lat="6.1220970" lon="-75.5995570">
        <ele>2077.8</ele>
        <time>2019-08-25T22:18:08Z</time>
      </trkpt>
      <trkpt lat="6.1220620" lon="-75.5995390">
        <ele>2078.6</ele>
        <time>2019-08-25T22:18:11Z</time>
      </trkpt>
      <trkpt lat="6.1220320" lon="-75.5995280">
        <ele>2079.2</ele>
        <time>2019-08-25T22:18:14Z</time>
      </trkpt>
      <trkpt lat="6.1220060" lon="-75.5995170">
        <ele>2079.7</ele>
        <time>2019-08-25T22:18:16Z</time>
      </trkpt>
      <trkpt lat="6.1219790" lon="-75.5995000">
        <ele>2080.3</ele>
        <time>2019-08-25T22:18:19Z</time>
      </trkpt>
      <trkpt lat="6.1219560" lon="-75.5994770">
        <ele>2080.9</ele>
        <time>2019-08-25T22:18:22Z</time>
      </trkpt>
      <trkpt lat="6.1219350" lon="-75.5994410">
        <ele>2081.7</ele>
        <time>2019-08-25T22:18:25Z</time>
      </trkpt>
      <trkpt lat="6.1219210" lon="-75.5994120">
        <ele>2082.4</ele>
        <time>2019-08-25T22:18:27Z</time>
      </trkpt>
      <trkpt lat="6.1219110" lon="-75.5993840">
        <ele>2083.0</ele>
        <time>2019-08-25T22:18:29Z</time>
      </trkpt>
      <trkpt lat="6.1219050" lon="-75.5993540">
        <ele>2083.5</ele>
        <time>2019-08-25T22:18:32Z</time>
      </trkpt>
      <trkpt lat="6.1219170" lon="-75.5993190">
        <ele>2084.2</ele>
        <time>2019-08-25T22:18:35Z</time>
      </trkpt>
      <trkpt lat="6.1219370" lon="-75.5993000">
        <ele>2084.7</ele>
        <time>2019-08-25T22:18:38Z</time>
      </trkpt>
      <trkpt lat="6.1219440" lon="-75.5992720">
        <ele>2085.2</ele>
        <time>2019-08-25T22:18:41Z</time>
      </trkpt>
      <trkpt lat="6.1219500" lon="-75.5992320">
        <ele>2085.9</ele>
        <time>2019-08-25T22:18:44Z</time>
      </trkpt>
      <trkpt lat="6.1219520" lon="-75.5991990">
        <ele>2086.5</ele>
        <time>2019-08-25T22:18:46Z</time>
      </trkpt>
      <trkpt lat="6.1219610" lon="-75.5991630">
        <ele>2087.0</ele>
        <time>2019-08-25T22:18:50Z</time>
      </trkpt>
      <trkpt lat="6.1219870" lon="-75.5991360">
        <ele>2087.6</ele>
        <time>2019-08-25T22:18:53Z</time>
      </trkpt>
      <trkpt lat="6.1219910" lon="-75.5991050">
        <ele>2088.0</ele>
        <time>2019-08-25T22:18:57Z</time>
      </trkpt>
      <trkpt lat="6.1219920" lon="-75.5990720">
        <ele>2088.5</ele>
        <time>2019-08-25T22:19:00Z</time>
      </trkpt>
      <trkpt lat="6.1220260" lon="-75.5990710">
        <ele>2089.0</ele>
        <time>2019-08-25T22:19:03Z</time>
      </trkpt>
      <trkpt lat="6.1220660" lon="-75.5990880">
        <ele>2089.7</ele>
        <time>2019-08-25T22:19:05Z</time>
      </trkpt>
      <trkpt lat="6.1220570" lon="-75.5990510">
        <ele>2090.3</ele>
        <time>2019-08-25T22:19:09Z</time>
      </trkpt>
      <trkpt lat="6.1220450" lon="-75.5990250">
        <ele>2090.7</ele>
        <time>2019-08-25T22:19:11Z</time>
      </trkpt>
      <trkpt lat="6.1220410" lon="-75.5989980">
        <ele>2091.1</ele>
        <time>2019-08-25T22:19:13Z</time>
      </trkpt>
      <trkpt lat="6.1220360" lon="-75.5989520">
        <ele>2091.8</ele>
        <time>2019-08-25T22:19:16Z</time>
      </trkpt>
      <trkpt lat="6.1220330" lon="-75.5989150">
        <ele>2092.3</ele>
        <time>2019-08-25T22:19:18Z</time>
      </trkpt>
      <trkpt lat="6.1220280" lon="-75.5988800">
        <ele>2092.8</ele>
        <time>2019-08-25T22:19:20Z</time>
      </trkpt>
      <trkpt lat="6.1220220" lon="-75.5988420">
        <ele>2093.4</ele>
        <time>2019-08-25T22:19:22Z</time>
      </trkpt>
      <trkpt lat="6.1220250" lon="-75.5988020">
        <ele>2093.9</ele>
        <time>2019-08-25T22:19:24Z</time>
      </trkpt>
      <trkpt lat="6.1220280" lon="-75.5987600">
        <ele>2094.5</ele>
        <time>2019-08-25T22:19:26Z</time>
      </trkpt>
      <trkpt lat="6.1220270" lon="-75.5987230">
        <ele>2095.1</ele>
        <time>2019-08-25T22:19:28Z</time>
      </trkpt>
      <trkpt lat="6.1220240" lon="-75.5986860">
        <ele>2095.6</ele>
        <time>2019-08-25T22:19:30Z</time>
      </trkpt>
      <trkpt lat="6.1220250" lon="-75.5986520">
        <ele>2096.1</ele>
        <time>2019-08-25T22:19:32Z</time>
      </trkpt>
      <trkpt lat="6.1220380" lon="-75.5986180">
        <ele>2096.6</ele>
        <time>2019-08-25T22:19:35Z</time>
      </trkpt>
      <trkpt lat="6.1220490" lon="-75.5985870">
        <ele>2097.1</ele>
        <time>2019-08-25T22:19:38Z</time>
      </trkpt>
      <trkpt lat="6.1220640" lon="-75.5985610">
        <ele>2097.5</ele>
        <time>2019-08-25T22:19:41Z</time>
      </trkpt>
      <trkpt lat="6.1220870" lon="-75.5985330">
        <ele>2098.1</ele>
        <time>2019-08-25T22:19:44Z</time>
      </trkpt>
      <trkpt lat="6.1220920" lon="-75.5984970">
        <ele>2098.7</ele>
        <time>2019-08-25T22:19:48Z</time>
      </trkpt>
      <trkpt lat="6.1220910" lon="-75.5984650">
        <ele>2099.1</ele>
        <time>2019-08-25T22:19:51Z</time>
      </trkpt>
      <trkpt lat="6.1220890" lon="-75.5984370">
        <ele>2099.6</ele>
        <time>2019-08-25T22:19:53Z</time>
      </trkpt>
      <trkpt lat="6.1220830" lon="-75.5984080">
        <ele>2100.0</ele>
        <time>2019-08-25T22:19:55Z</time>
      </trkpt>
      <trkpt lat="6.1220800" lon="-75.5983770">
        <ele>2100.4</ele>
        <time>2019-08-25T22:19:57Z</time>
      </trkpt>
      <trkpt lat="6.1220740" lon="-75.5983420">
        <ele>2100.9</ele>
        <time>2019-08-25T22:19:59Z</time>
      </trkpt>
      <trkpt lat="6.1220620" lon="-75.5983020">
        <ele>2101.3</ele>
        <time>2019-08-25T22:20:02Z</time>
      </trkpt>
      <trkpt lat="6.1220510" lon="-75.5982620">
        <ele>2101.7</ele>
        <time>2019-08-25T22:20:04Z</time>
      </trkpt>
      <trkpt lat="6.1220380" lon="-75.5982290">
        <ele>2102.0</ele>
        <time>2019-08-25T22:20:06Z</time>
      </trkpt>
      <trkpt lat="6.1220230" lon="-75.5981970">
        <ele>2102.3</ele>
        <time>2019-08-25T22:20:08Z</time>
      </trkpt>
      <trkpt lat="6.1220110" lon="-75.5981640">
        <ele>2102.5</ele>
        <time>2019-08-25T22:20:10Z</time>
      </trkpt>
      <trkpt lat="6.1220000" lon="-75.5981250">
        <ele>2102.7</ele>
        <time>2019-08-25T22:20:12Z</time>
      </trkpt>
      <trkpt lat="6.1219950" lon="-75.5980970">
        <ele>2102.8</ele>
        <time>2019-08-25T22:20:14Z</time>
      </trkpt>
      <trkpt lat="6.1219980" lon="-75.5980650">
        <ele>2102.9</ele>
        <time>2019-08-25T22:20:18Z</time>
      </trkpt>
      <trkpt lat="6.1220040" lon="-75.5980360">
        <ele>2103.0</ele>
        <time>2019-08-25T22:20:20Z</time>
      </trkpt>
      <trkpt lat="6.1220200" lon="-75.5980120">
        <ele>2103.1</ele>
        <time>2019-08-25T22:20:22Z</time>
      </trkpt>
      <trkpt lat="6.1220330" lon="-75.5979810">
        <ele>2103.2</ele>
        <time>2019-08-25T22:20:24Z</time>
      </trkpt>
      <trkpt lat="6.1220360" lon="-75.5979400">
        <ele>2103.4</ele>
        <time>2019-08-25T22:20:26Z</time>
      </trkpt>
      <trkpt lat="6.1220310" lon="-75.5978990">
        <ele>2103.6</ele>
        <time>2019-08-25T22:20:28Z</time>
      </trkpt>
      <trkpt lat="6.1220240" lon="-75.5978710">
        <ele>2103.8</ele>
        <time>2019-08-25T22:20:30Z</time>
      </trkpt>
      <trkpt lat="6.1220310" lon="-75.5978450">
        <ele>2104.0</ele>
        <time>2019-08-25T22:20:33Z</time>
      </trkpt>
      <trkpt lat="6.1220400" lon="-75.5978140">
        <ele>2104.2</ele>
        <time>2019-08-25T22:20:36Z</time>
      </trkpt>
      <trkpt lat="6.1220450" lon="-75.5977760">
        <ele>2104.6</ele>
        <time>2019-08-25T22:20:38Z</time>
      </trkpt>
      <trkpt lat="6.1220480" lon="-75.5977390">
        <ele>2105.0</ele>
        <time>2019-08-25T22:20:40Z</time>
      </trkpt>
      <trkpt lat="6.1220610" lon="-75.5977110">
        <ele>2105.3</ele>
        <time>2019-08-25T22:20:42Z</time>
      </trkpt>
      <trkpt lat="6.1220810" lon="-75.5976870">
        <ele>2105.6</ele>
        <time>2019-08-25T22:20:44Z</time>
      </trkpt>
      <trkpt lat="6.1221050" lon="-75.5976650">
        <ele>2106.1</ele>
        <time>2019-08-25T22:20:46Z</time>
      </trkpt>
      <trkpt lat="6.1221320" lon="-75.5976400">
        <ele>2106.6</ele>
        <time>2019-08-25T22:20:48Z</time>
      </trkpt>
      <trkpt lat="6.1221580" lon="-75.5976200">
        <ele>2107.1</ele>
        <time>2019-08-25T22:20:50Z</time>
      </trkpt>
      <trkpt lat="6.1221790" lon="-75.5976010">
        <ele>2107.6</ele>
        <time>2019-08-25T22:20:52Z</time>
      </trkpt>
      <trkpt lat="6.1222010" lon="-75.5975730">
        <ele>2108.2</ele>
        <time>2019-08-25T22:20:55Z</time>
      </trkpt>
      <trkpt lat="6.1222310" lon="-75.5975370">
        <ele>2109.0</ele>
        <time>2019-08-25T22:20:57Z</time>
      </trkpt>
      <trkpt lat="6.1222680" lon="-75.5975300">
        <ele>2109.6</ele>
        <time>2019-08-25T22:21:00Z</time>
      </trkpt>
      <trkpt lat="6.1223010" lon="-75.5975300">
        <ele>2110.2</ele>
        <time>2019-08-25T22:21:02Z</time>
      </trkpt>
      <trkpt lat="6.1223270" lon="-75.5975110">
        <ele>2110.7</ele>
        <time>2019-08-25T22:21:05Z</time>
      </trkpt>
      <trkpt lat="6.1223380" lon="-75.5974800">
        <ele>2111.2</ele>
        <time>2019-08-25T22:21:07Z</time>
      </trkpt>
      <trkpt lat="6.1223490" lon="-75.5974540">
        <ele>2111.6</ele>
        <time>2019-08-25T22:21:09Z</time>
      </trkpt>
      <trkpt lat="6.1223600" lon="-75.5974250">
        <ele>2112.1</ele>
        <time>2019-08-25T22:21:11Z</time>
      </trkpt>
      <trkpt lat="6.1223610" lon="-75.5973880">
        <ele>2112.7</ele>
        <time>2019-08-25T22:21:13Z</time>
      </trkpt>
      <trkpt lat="6.1223580" lon="-75.5973560">
        <ele>2113.2</ele>
        <time>2019-08-25T22:21:15Z</time>
      </trkpt>
      <trkpt lat="6.1223550" lon="-75.5973290">
        <ele>2113.6</ele>
        <time>2019-08-25T22:21:22Z</time>
      </trkpt>
      <trkpt lat="6.1223340" lon="-75.5972900">
        <ele>2114.3</ele>
        <time>2019-08-25T22:21:27Z</time>
      </trkpt>
      <trkpt lat="6.1223020" lon="-75.5972760">
        <ele>2114.8</ele>
        <time>2019-08-25T22:21:29Z</time>
      </trkpt>
      <trkpt lat="6.1222720" lon="-75.5972730">
        <ele>2115.2</ele>
        <time>2019-08-25T22:21:31Z</time>
      </trkpt>
      <trkpt lat="6.1222410" lon="-75.5972740">
        <ele>2115.7</ele>
        <time>2019-08-25T22:21:33Z</time>
      </trkpt>
      <trkpt lat="6.1222060" lon="-75.5972920">
        <ele>2116.4</ele>
        <time>2019-08-25T22:21:36Z</time>
      </trkpt>
      <trkpt lat="6.1221800" lon="-75.5973090">
        <ele>2117.0</ele>
        <time>2019-08-25T22:21:39Z</time>
      </trkpt>
      <trkpt lat="6.1221430" lon="-75.5973250">
        <ele>2117.7</ele>
        <time>2019-08-25T22:21:46Z</time>
      </trkpt>
      <trkpt lat="6.1221030" lon="-75.5973290">
        <ele>2118.3</ele>
        <time>2019-08-25T22:21:48Z</time>
      </trkpt>
      <trkpt lat="6.1220740" lon="-75.5973510">
        <ele>2119.0</ele>
        <time>2019-08-25T22:21:51Z</time>
      </trkpt>
      <trkpt lat="6.1220410" lon="-75.5973660">
        <ele>2119.6</ele>
        <time>2019-08-25T22:21:54Z</time>
      </trkpt>
      <trkpt lat="6.1220070" lon="-75.5973810">
        <ele>2120.2</ele>
        <time>2019-08-25T22:21:57Z</time>
      </trkpt>
      <trkpt lat="6.1219690" lon="-75.5973900">
        <ele>2120.9</ele>
        <time>2019-08-25T22:22:00Z</time>
      </trkpt>
      <trkpt lat="6.1219350" lon="-75.5974010">
        <ele>2121.4</ele>
        <time>2019-08-25T22:22:03Z</time>
      </trkpt>
      <trkpt lat="6.1219040" lon="-75.5974090">
        <ele>2122.0</ele>
        <time>2019-08-25T22:22:06Z</time>
      </trkpt>
      <trkpt lat="6.1218640" lon="-75.5974040">
        <ele>2122.8</ele>
        <time>2019-08-25T22:22:09Z</time>
      </trkpt>
      <trkpt lat="6.1218370" lon="-75.5973760">
        <ele>2123.5</ele>
        <time>2019-08-25T22:22:12Z</time>
      </trkpt>
      <trkpt lat="6.1218270" lon="-75.5973340">
        <ele>2124.4</ele>
        <time>2019-08-25T22:22:14Z</time>
      </trkpt>
      <trkpt lat="6.1218210" lon="-75.5972860">
        <ele>2125.3</ele>
        <time>2019-08-25T22:22:16Z</time>
      </trkpt>
      <trkpt lat="6.1218210" lon="-75.5972480">
        <ele>2126.1</ele>
        <time>2019-08-25T22:22:18Z</time>
      </trkpt>
      <trkpt lat="6.1218310" lon="-75.5972080">
        <ele>2126.9</ele>
        <time>2019-08-25T22:22:20Z</time>
      </trkpt>
      <trkpt lat="6.1218460" lon="-75.5971790">
        <ele>2127.5</ele>
        <time>2019-08-25T22:22:22Z</time>
      </trkpt>
      <trkpt lat="6.1218640" lon="-75.5971470">
        <ele>2128.1</ele>
        <time>2019-08-25T22:22:25Z</time>
      </trkpt>
      <trkpt lat="6.1218850" lon="-75.5971180">
        <ele>2128.7</ele>
        <time>2019-08-25T22:22:29Z</time>
      </trkpt>
      <trkpt lat="6.1219120" lon="-75.5970950">
        <ele>2129.2</ele>
        <time>2019-08-25T22:22:32Z</time>
      </trkpt>
      <trkpt lat="6.1219240" lon="-75.5970640">
        <ele>2129.7</ele>
        <time>2019-08-25T22:22:35Z</time>
      </trkpt>
      <trkpt lat="6.1219390" lon="-75.5970320">
        <ele>2130.2</ele>
        <time>2019-08-25T22:22:38Z</time>
      </trkpt>
      <trkpt lat="6.1219480" lon="-75.5970040">
        <ele>2130.7</ele>
        <time>2019-08-25T22:22:41Z</time>
      </trkpt>
      <trkpt lat="6.1219450" lon="-75.5969720">
        <ele>2131.2</ele>
        <time>2019-08-25T22:22:43Z</time>
      </trkpt>
      <trkpt lat="6.1219400" lon="-75.5969330">
        <ele>2131.8</ele>
        <time>2019-08-25T22:22:46Z</time>
      </trkpt>
      <trkpt lat="6.1219380" lon="-75.5968980">
        <ele>2132.5</ele>
        <time>2019-08-25T22:22:49Z</time>
      </trkpt>
      <trkpt lat="6.1219240" lon="-75.5968690">
        <ele>2133.1</ele>
        <time>2019-08-25T22:22:52Z</time>
      </trkpt>
      <trkpt lat="6.1219080" lon="-75.5968430">
        <ele>2133.7</ele>
        <time>2019-08-25T22:22:54Z</time>
      </trkpt>
      <trkpt lat="6.1218980" lon="-75.5968110">
        <ele>2134.3</ele>
        <time>2019-08-25T22:22:56Z</time>
      </trkpt>
      <trkpt lat="6.1218780" lon="-75.5967660">
        <ele>2135.3</ele>
        <time>2019-08-25T22:22:58Z</time>
      </trkpt>
      <trkpt lat="6.1218580" lon="-75.5967420">
        <ele>2135.8</ele>
        <time>2019-08-25T22:23:00Z</time>
      </trkpt>
      <trkpt lat="6.1218440" lon="-75.5967150">
        <ele>2136.4</ele>
        <time>2019-08-25T22:23:02Z</time>
      </trkpt>
      <trkpt lat="6.1218220" lon="-75.5966960">
        <ele>2137.0</ele>
        <time>2019-08-25T22:23:04Z</time>
      </trkpt>
      <trkpt lat="6.1217940" lon="-75.5966850">
        <ele>2137.6</ele>
        <time>2019-08-25T22:23:08Z</time>
      </trkpt>
      <trkpt lat="6.1217640" lon="-75.5966750">
        <ele>2138.1</ele>
        <time>2019-08-25T22:23:15Z</time>
      </trkpt>
      <trkpt lat="6.1217460" lon="-75.5966490">
        <ele>2138.7</ele>
        <time>2019-08-25T22:23:18Z</time>
      </trkpt>
      <trkpt lat="6.1217130" lon="-75.5966130">
        <ele>2139.6</ele>
        <time>2019-08-25T22:23:20Z</time>
      </trkpt>
      <trkpt lat="6.1216980" lon="-75.5965890">
        <ele>2140.2</ele>
        <time>2019-08-25T22:23:23Z</time>
      </trkpt>
      <trkpt lat="6.1216780" lon="-75.5965630">
        <ele>2141.0</ele>
        <time>2019-08-25T22:23:26Z</time>
      </trkpt>
      <trkpt lat="6.1216460" lon="-75.5965660">
        <ele>2141.8</ele>
        <time>2019-08-25T22:23:29Z</time>
      </trkpt>
      <trkpt lat="6.1216240" lon="-75.5965910">
        <ele>2142.6</ele>
        <time>2019-08-25T22:23:31Z</time>
      </trkpt>
      <trkpt lat="6.1215950" lon="-75.5965980">
        <ele>2143.4</ele>
        <time>2019-08-25T22:23:34Z</time>
      </trkpt>
      <trkpt lat="6.1215600" lon="-75.5965950">
        <ele>2144.3</ele>
        <time>2019-08-25T22:23:37Z</time>
      </trkpt>
      <trkpt lat="6.1215610" lon="-75.5966320">
        <ele>2145.1</ele>
        <time>2019-08-25T22:23:43Z</time>
      </trkpt>
      <trkpt lat="6.1215720" lon="-75.5966640">
        <ele>2145.8</ele>
        <time>2019-08-25T22:23:46Z</time>
      </trkpt>
      <trkpt lat="6.1215620" lon="-75.5966970">
        <ele>2146.6</ele>
        <time>2019-08-25T22:23:50Z</time>
      </trkpt>
      <trkpt lat="6.1215270" lon="-75.5967060">
        <ele>2147.5</ele>
        <time>2019-08-25T22:23:53Z</time>
      </trkpt>
      <trkpt lat="6.1214970" lon="-75.5967200">
        <ele>2148.3</ele>
        <time>2019-08-25T22:23:56Z</time>
      </trkpt>
      <trkpt lat="6.1214670" lon="-75.5967180">
        <ele>2149.0</ele>
        <time>2019-08-25T22:23:58Z</time>
      </trkpt>
      <trkpt lat="6.1214390" lon="-75.5967150">
        <ele>2149.6</ele>
        <time>2019-08-25T22:24:00Z</time>
      </trkpt>
      <trkpt lat="6.1214010" lon="-75.5967110">
        <ele>2150.3</ele>
        <time>2019-08-25T22:24:03Z</time>
      </trkpt>
      <trkpt lat="6.1213730" lon="-75.5967170">
        <ele>2150.8</ele>
        <time>2019-08-25T22:24:06Z</time>
      </trkpt>
      <trkpt lat="6.1213460" lon="-75.5967250">
        <ele>2151.3</ele>
        <time>2019-08-25T22:24:09Z</time>
      </trkpt>
      <trkpt lat="6.1213110" lon="-75.5967220">
        <ele>2151.9</ele>
        <time>2019-08-25T22:24:14Z</time>
      </trkpt>
      <trkpt lat="6.1212830" lon="-75.5967180">
        <ele>2152.4</ele>
        <time>2019-08-25T22:24:16Z</time>
      </trkpt>
      <trkpt lat="6.1212520" lon="-75.5967120">
        <ele>2152.9</ele>
        <time>2019-08-25T22:24:18Z</time>
      </trkpt>
      <trkpt lat="6.1212230" lon="-75.5967060">
        <ele>2153.4</ele>
        <time>2019-08-25T22:24:20Z</time>
      </trkpt>
      <trkpt lat="6.1211840" lon="-75.5967000">
        <ele>2154.2</ele>
        <time>2019-08-25T22:24:22Z</time>
      </trkpt>
      <trkpt lat="6.1211470" lon="-75.5966910">
        <ele>2155.0</ele>
        <time>2019-08-25T22:24:24Z</time>
      </trkpt>
      <trkpt lat="6.1211150" lon="-75.5966820">
        <ele>2155.7</ele>
        <time>2019-08-25T22:24:26Z</time>
      </trkpt>
      <trkpt lat="6.1210800" lon="-75.5966650">
        <ele>2156.3</ele>
        <time>2019-08-25T22:24:29Z</time>
      </trkpt>
      <trkpt lat="6.1210510" lon="-75.5966510">
        <ele>2156.9</ele>
        <time>2019-08-25T22:24:31Z</time>
      </trkpt>
      <trkpt lat="6.1210090" lon="-75.5966190">
        <ele>2157.5</ele>
        <time>2019-08-25T22:24:33Z</time>
      </trkpt>
      <trkpt lat="6.1209800" lon="-75.5966180">
        <ele>2157.9</ele>
        <time>2019-08-25T22:24:35Z</time>
      </trkpt>
      <trkpt lat="6.1209530" lon="-75.5966450">
        <ele>2158.3</ele>
        <time>2019-08-25T22:24:38Z</time>
      </trkpt>
      <trkpt lat="6.1209400" lon="-75.5966730">
        <ele>2158.7</ele>
        <time>2019-08-25T22:24:40Z</time>
      </trkpt>
      <trkpt lat="6.1209350" lon="-75.5967030">
        <ele>2159.0</ele>
        <time>2019-08-25T22:24:42Z</time>
      </trkpt>
      <trkpt lat="6.1209320" lon="-75.5967360">
        <ele>2159.4</ele>
        <time>2019-08-25T22:24:44Z</time>
      </trkpt>
      <trkpt lat="6.1209370" lon="-75.5967750">
        <ele>2159.9</ele>
        <time>2019-08-25T22:24:46Z</time>
      </trkpt>
      <trkpt lat="6.1209500" lon="-75.5968130">
        <ele>2160.4</ele>
        <time>2019-08-25T22:24:48Z</time>
      </trkpt>
      <trkpt lat="6.1209640" lon="-75.5968460">
        <ele>2160.9</ele>
        <time>2019-08-25T22:24:50Z</time>
      </trkpt>
      <trkpt lat="6.1209800" lon="-75.5968790">
        <ele>2161.4</ele>
        <time>2019-08-25T22:24:52Z</time>
      </trkpt>
      <trkpt lat="6.1209960" lon="-75.5969100">
        <ele>2161.9</ele>
        <time>2019-08-25T22:24:54Z</time>
      </trkpt>
      <trkpt lat="6.1210130" lon="-75.5969340">
        <ele>2162.3</ele>
        <time>2019-08-25T22:24:56Z</time>
      </trkpt>
      <trkpt lat="6.1210290" lon="-75.5969610">
        <ele>2162.8</ele>
        <time>2019-08-25T22:24:58Z</time>
      </trkpt>
      <trkpt lat="6.1210370" lon="-75.5969890">
        <ele>2163.3</ele>
        <time>2019-08-25T22:25:00Z</time>
      </trkpt>
      <trkpt lat="6.1210510" lon="-75.5970250">
        <ele>2164.0</ele>
        <time>2019-08-25T22:25:03Z</time>
      </trkpt>
      <trkpt lat="6.1210440" lon="-75.5970600">
        <ele>2164.7</ele>
        <time>2019-08-25T22:25:06Z</time>
      </trkpt>
      <trkpt lat="6.1210250" lon="-75.5970890">
        <ele>2165.3</ele>
        <time>2019-08-25T22:25:09Z</time>
      </trkpt>
      <trkpt lat="6.1209990" lon="-75.5971100">
        <ele>2165.9</ele>
        <time>2019-08-25T22:25:11Z</time>
      </trkpt>
      <trkpt lat="6.1209770" lon="-75.5971320">
        <ele>2166.3</ele>
        <time>2019-08-25T22:25:13Z</time>
      </trkpt>
      <trkpt lat="6.1209490" lon="-75.5971630">
        <ele>2166.9</ele>
        <time>2019-08-25T22:25:16Z</time>
      </trkpt>
      <trkpt lat="6.1209290" lon="-75.5971860">
        <ele>2167.4</ele>
        <time>2019-08-25T22:25:18Z</time>
      </trkpt>
      <trkpt lat="6.1208940" lon="-75.5972040">
        <ele>2168.0</ele>
        <time>2019-08-25T22:25:21Z</time>
      </trkpt>
      <trkpt lat="6.1208690" lon="-75.5972180">
        <ele>2168.5</ele>
        <time>2019-08-25T22:25:23Z</time>
      </trkpt>
      <trkpt lat="6.1208420" lon="-75.5972420">
        <ele>2169.2</ele>
        <time>2019-08-25T22:25:26Z</time>
      </trkpt>
      <trkpt lat="6.1208200" lon="-75.5972670">
        <ele>2169.7</ele>
        <time>2019-08-25T22:25:29Z</time>
      </trkpt>
      <trkpt lat="6.1208090" lon="-75.5972920">
        <ele>2170.2</ele>
        <time>2019-08-25T22:25:31Z</time>
      </trkpt>
      <trkpt lat="6.1207970" lon="-75.5973190">
        <ele>2170.6</ele>
        <time>2019-08-25T22:25:33Z</time>
      </trkpt>
      <trkpt lat="6.1207780" lon="-75.5973490">
        <ele>2171.2</ele>
        <time>2019-08-25T22:25:36Z</time>
      </trkpt>
      <trkpt lat="6.1207560" lon="-75.5973750">
        <ele>2171.7</ele>
        <time>2019-08-25T22:25:39Z</time>
      </trkpt>
      <trkpt lat="6.1207490" lon="-75.5974050">
        <ele>2172.2</ele>
        <time>2019-08-25T22:25:43Z</time>
      </trkpt>
      <trkpt lat="6.1207490" lon="-75.5974450">
        <ele>2172.8</ele>
        <time>2019-08-25T22:25:46Z</time>
      </trkpt>
      <trkpt lat="6.1207440" lon="-75.5974760">
        <ele>2173.4</ele>
        <time>2019-08-25T22:25:48Z</time>
      </trkpt>
      <trkpt lat="6.1207300" lon="-75.5975090">
        <ele>2174.0</ele>
        <time>2019-08-25T22:25:51Z</time>
      </trkpt>
      <trkpt lat="6.1207030" lon="-75.5975220">
        <ele>2174.5</ele>
        <time>2019-08-25T22:25:53Z</time>
      </trkpt>
      <trkpt lat="6.1206710" lon="-75.5975380">
        <ele>2175.1</ele>
        <time>2019-08-25T22:25:55Z</time>
      </trkpt>
      <trkpt lat="6.1206460" lon="-75.5975590">
        <ele>2175.5</ele>
        <time>2019-08-25T22:25:58Z</time>
      </trkpt>
      <trkpt lat="6.1206070" lon="-75.5975790">
        <ele>2176.1</ele>
        <time>2019-08-25T22:26:01Z</time>
      </trkpt>
      <trkpt lat="6.1205890" lon="-75.5975820">
        <ele>2176.4</ele>
        <time>2019-08-25T22:26:04Z</time>
      </trkpt>
      <trkpt lat="6.1205720" lon="-75.5975850">
        <ele>2176.6</ele>
        <time>2019-08-25T22:26:08Z</time>
      </trkpt>
      <trkpt lat="6.1205540" lon="-75.5975880">
        <ele>2176.9</ele>
        <time>2019-08-25T22:26:11Z</time>
      </trkpt>
      <trkpt lat="6.1205370" lon="-75.5975910">
        <ele>2177.1</ele>
        <time>2019-08-25T22:26:14Z</time>
      </trkpt>
      <trkpt lat="6.1205200" lon="-75.5975940">
        <ele>2177.4</ele>
        <time>2019-08-25T22:26:17Z</time>
      </trkpt>
      <trkpt lat="6.1205020" lon="-75.5975970">
        <ele>2177.7</ele>
        <time>2019-08-25T22:26:20Z</time>
      </trkpt>
      <trkpt lat="6.1204850" lon="-75.5976000">
        <ele>2177.9</ele>
        <time>2019-08-25T22:26:23Z</time>
      </trkpt>
      <trkpt lat="6.1204670" lon="-75.5976030">
        <ele>2178.2</ele>
        <time>2019-08-25T22:26:26Z</time>
      </trkpt>
      <trkpt lat="6.1204500" lon="-75.5976060">
        <ele>2178.5</ele>
        <time>2019-08-25T22:26:29Z</time>
      </trkpt>
      <trkpt lat="6.1204320" lon="-75.5976090">
        <ele>2178.8</ele>
        <time>2019-08-25T22:26:32Z</time>
      </trkpt>
      <trkpt lat="6.1204150" lon="-75.5976120">
        <ele>2179.1</ele>
        <time>2019-08-25T22:26:34Z</time>
      </trkpt>
      <trkpt lat="6.1203980" lon="-75.5976150">
        <ele>2179.3</ele>
        <time>2019-08-25T22:26:37Z</time>
      </trkpt>
      <trkpt lat="6.1203800" lon="-75.5976180">
        <ele>2179.6</ele>
        <time>2019-08-25T22:26:40Z</time>
      </trkpt>
      <trkpt lat="6.1203630" lon="-75.5976210">
        <ele>2179.9</ele>
        <time>2019-08-25T22:26:43Z</time>
      </trkpt>
      <trkpt lat="6.1203450" lon="-75.5976240">
        <ele>2180.2</ele>
        <time>2019-08-25T22:26:45Z</time>
      </trkpt>
      <trkpt lat="6.1203280" lon="-75.5976270">
        <ele>2180.4</ele>
        <time>2019-08-25T22:26:48Z</time>
      </trkpt>
      <trkpt lat="6.1203110" lon="-75.5976300">
        <ele>2186.0</ele>
        <time>2019-08-25T22:26:51Z</time>
      </trkpt>
      <trkpt lat="6.1202930" lon="-75.5976330">
        <ele>2186.1</ele>
        <time>2019-08-25T22:26:54Z</time>
      </trkpt>
      <trkpt lat="6.1202760" lon="-75.5976360">
        <ele>2186.1</ele>
        <time>2019-08-25T22:26:57Z</time>
      </trkpt>
      <trkpt lat="6.1202580" lon="-75.5976390">
        <ele>2186.1</ele>
        <time>2019-08-25T22:26:59Z</time>
      </trkpt>
      <trkpt lat="6.1202410" lon="-75.5976420">
        <ele>2186.1</ele>
        <time>2019-08-25T22:27:02Z</time>
      </trkpt>
      <trkpt lat="6.1202230" lon="-75.5976450">
        <ele>2186.2</ele>
        <time>2019-08-25T22:27:05Z</time>
      </trkpt>
      <trkpt lat="6.1202060" lon="-75.5976480">
        <ele>2186.2</ele>
        <time>2019-08-25T22:27:08Z</time>
      </trkpt>
      <trkpt lat="6.1201890" lon="-75.5976510">
        <ele>2186.2</ele>
        <time>2019-08-25T22:27:11Z</time>
      </trkpt>
      <trkpt lat="6.1201710" lon="-75.5976540">
        <ele>2186.3</ele>
        <time>2019-08-25T22:27:14Z</time>
      </trkpt>
      <trkpt lat="6.1201540" lon="-75.5976570">
        <ele>2186.3</ele>
        <time>2019-08-25T22:27:17Z</time>
      </trkpt>
      <trkpt lat="6.1201360" lon="-75.5976600">
        <ele>2186.3</ele>
        <time>2019-08-25T22:27:19Z</time>
      </trkpt>
      <trkpt lat="6.1201190" lon="-75.5976630">
        <ele>2186.4</ele>
        <time>2019-08-25T22:27:21Z</time>
      </trkpt>
      <trkpt lat="6.1201020" lon="-75.5976660">
        <ele>2186.4</ele>
        <time>2019-08-25T22:27:23Z</time>
      </trkpt>
      <trkpt lat="6.1200840" lon="-75.5976690">
        <ele>2186.4</ele>
        <time>2019-08-25T22:27:26Z</time>
      </trkpt>
      <trkpt lat="6.1200670" lon="-75.5976720">
        <ele>2186.4</ele>
        <time>2019-08-25T22:27:32Z</time>
      </trkpt>
      <trkpt lat="6.1200490" lon="-75.5976750">
        <ele>2186.4</ele>
        <time>2019-08-25T22:27:35Z</time>
      </trkpt>
      <trkpt lat="6.1201570" lon="-75.5974950">
        <ele>2187.1</ele>
        <time>2019-08-25T23:00:18Z</time>
      </trkpt>
      <trkpt lat="6.1201680" lon="-75.5975270">
        <ele>2187.0</ele>
        <time>2019-08-25T23:00:20Z</time>
      </trkpt>
      <trkpt lat="6.1201780" lon="-75.5975560">
        <ele>2186.9</ele>
        <time>2019-08-25T23:00:22Z</time>
      </trkpt>
      <trkpt lat="6.1201780" lon="-75.5975920">
        <ele>2186.7</ele>
        <time>2019-08-25T23:00:24Z</time>
      </trkpt>
      <trkpt lat="6.1201800" lon="-75.5976500">
        <ele>2186.5</ele>
        <time>2019-08-25T23:00:26Z</time>
      </trkpt>
      <trkpt lat="6.1201790" lon="-75.5976850">
        <ele>2186.3</ele>
        <time>2019-08-25T23:00:27Z</time>
      </trkpt>
      <trkpt lat="6.1201860" lon="-75.5977250">
        <ele>2186.1</ele>
        <time>2019-08-25T23:00:28Z</time>
      </trkpt>
      <trkpt lat="6.1201990" lon="-75.5977630">
        <ele>2184.6</ele>
        <time>2019-08-25T23:00:29Z</time>
      </trkpt>
      <trkpt lat="6.1202260" lon="-75.5977870">
        <ele>2183.5</ele>
        <time>2019-08-25T23:00:30Z</time>
      </trkpt>
      <trkpt lat="6.1202610" lon="-75.5977990">
        <ele>2182.6</ele>
        <time>2019-08-25T23:00:31Z</time>
      </trkpt>
      <trkpt lat="6.1203050" lon="-75.5978020">
        <ele>2181.6</ele>
        <time>2019-08-25T23:00:32Z</time>
      </trkpt>
      <trkpt lat="6.1203490" lon="-75.5977970">
        <ele>2180.7</ele>
        <time>2019-08-25T23:00:33Z</time>
      </trkpt>
      <trkpt lat="6.1203790" lon="-75.5977880">
        <ele>2180.1</ele>
        <time>2019-08-25T23:00:34Z</time>
      </trkpt>
      <trkpt lat="6.1204050" lon="-75.5977740">
        <ele>2179.5</ele>
        <time>2019-08-25T23:00:35Z</time>
      </trkpt>
      <trkpt lat="6.1204370" lon="-75.5977550">
        <ele>2178.8</ele>
        <time>2019-08-25T23:00:36Z</time>
      </trkpt>
      <trkpt lat="6.1204720" lon="-75.5977270">
        <ele>2178.0</ele>
        <time>2019-08-25T23:00:37Z</time>
      </trkpt>
      <trkpt lat="6.1205080" lon="-75.5976940">
        <ele>2177.1</ele>
        <time>2019-08-25T23:00:38Z</time>
      </trkpt>
      <trkpt lat="6.1205540" lon="-75.5976590">
        <ele>2176.1</ele>
        <time>2019-08-25T23:00:39Z</time>
      </trkpt>
      <trkpt lat="6.1206050" lon="-75.5976190">
        <ele>2175.0</ele>
        <time>2019-08-25T23:00:40Z</time>
      </trkpt>
      <trkpt lat="6.1206600" lon="-75.5975690">
        <ele>2173.6</ele>
        <time>2019-08-25T23:00:41Z</time>
      </trkpt>
      <trkpt lat="6.1207140" lon="-75.5975100">
        <ele>2172.0</ele>
        <time>2019-08-25T23:00:42Z</time>
      </trkpt>
      <trkpt lat="6.1207610" lon="-75.5974550">
        <ele>2170.6</ele>
        <time>2019-08-25T23:00:43Z</time>
      </trkpt>
      <trkpt lat="6.1208040" lon="-75.5973940">
        <ele>2169.2</ele>
        <time>2019-08-25T23:00:44Z</time>
      </trkpt>
      <trkpt lat="6.1208490" lon="-75.5973410">
        <ele>2167.7</ele>
        <time>2019-08-25T23:00:45Z</time>
      </trkpt>
      <trkpt lat="6.1208950" lon="-75.5972900">
        <ele>2166.5</ele>
        <time>2019-08-25T23:00:46Z</time>
      </trkpt>
      <trkpt lat="6.1209460" lon="-75.5972590">
        <ele>2165.4</ele>
        <time>2019-08-25T23:00:47Z</time>
      </trkpt>
      <trkpt lat="6.1210090" lon="-75.5972310">
        <ele>2163.9</ele>
        <time>2019-08-25T23:00:48Z</time>
      </trkpt>
      <trkpt lat="6.1210250" lon="-75.5971840">
        <ele>2162.9</ele>
        <time>2019-08-25T23:00:49Z</time>
      </trkpt>
      <trkpt lat="6.1210730" lon="-75.5971500">
        <ele>2161.8</ele>
        <time>2019-08-25T23:00:50Z</time>
      </trkpt>
      <trkpt lat="6.1211160" lon="-75.5971000">
        <ele>2160.7</ele>
        <time>2019-08-25T23:00:51Z</time>
      </trkpt>
      <trkpt lat="6.1211410" lon="-75.5970430">
        <ele>2159.8</ele>
        <time>2019-08-25T23:00:52Z</time>
      </trkpt>
      <trkpt lat="6.1211430" lon="-75.5969830">
        <ele>2158.9</ele>
        <time>2019-08-25T23:00:53Z</time>
      </trkpt>
      <trkpt lat="6.1211370" lon="-75.5969310">
        <ele>2158.2</ele>
        <time>2019-08-25T23:00:54Z</time>
      </trkpt>
      <trkpt lat="6.1211550" lon="-75.5968710">
        <ele>2157.3</ele>
        <time>2019-08-25T23:00:55Z</time>
      </trkpt>
      <trkpt lat="6.1212110" lon="-75.5968370">
        <ele>2156.1</ele>
        <time>2019-08-25T23:00:56Z</time>
      </trkpt>
      <trkpt lat="6.1212570" lon="-75.5968500">
        <ele>2155.1</ele>
        <time>2019-08-25T23:00:58Z</time>
      </trkpt>
      <trkpt lat="6.1213150" lon="-75.5968740">
        <ele>2153.5</ele>
        <time>2019-08-25T23:00:59Z</time>
      </trkpt>
      <trkpt lat="6.1213560" lon="-75.5968750">
        <ele>2152.7</ele>
        <time>2019-08-25T23:01:00Z</time>
      </trkpt>
      <trkpt lat="6.1214420" lon="-75.5968860">
        <ele>2150.9</ele>
        <time>2019-08-25T23:01:01Z</time>
      </trkpt>
      <trkpt lat="6.1214890" lon="-75.5968600">
        <ele>2149.8</ele>
        <time>2019-08-25T23:01:02Z</time>
      </trkpt>
      <trkpt lat="6.1214970" lon="-75.5968050">
        <ele>2148.3</ele>
        <time>2019-08-25T23:01:03Z</time>
      </trkpt>
      <trkpt lat="6.1215390" lon="-75.5967980">
        <ele>2147.0</ele>
        <time>2019-08-25T23:01:04Z</time>
      </trkpt>
      <trkpt lat="6.1215710" lon="-75.5967490">
        <ele>2145.4</ele>
        <time>2019-08-25T23:01:05Z</time>
      </trkpt>
      <trkpt lat="6.1216070" lon="-75.5966890">
        <ele>2143.6</ele>
        <time>2019-08-25T23:01:06Z</time>
      </trkpt>
      <trkpt lat="6.1216410" lon="-75.5966210">
        <ele>2141.3</ele>
        <time>2019-08-25T23:01:07Z</time>
      </trkpt>
      <trkpt lat="6.1216650" lon="-75.5965910">
        <ele>2140.2</ele>
        <time>2019-08-25T23:01:08Z</time>
      </trkpt>
      <trkpt lat="6.1217170" lon="-75.5965760">
        <ele>2139.6</ele>
        <time>2019-08-25T23:01:09Z</time>
      </trkpt>
      <trkpt lat="6.1217440" lon="-75.5965770">
        <ele>2139.1</ele>
        <time>2019-08-25T23:01:10Z</time>
      </trkpt>
      <trkpt lat="6.1217840" lon="-75.5965720">
        <ele>2138.4</ele>
        <time>2019-08-25T23:01:11Z</time>
      </trkpt>
      <trkpt lat="6.1218060" lon="-75.5966640">
        <ele>2136.7</ele>
        <time>2019-08-25T23:01:12Z</time>
      </trkpt>
      <trkpt lat="6.1218900" lon="-75.5967550">
        <ele>2134.4</ele>
        <time>2019-08-25T23:01:13Z</time>
      </trkpt>
      <trkpt lat="6.1219440" lon="-75.5968300">
        <ele>2132.6</ele>
        <time>2019-08-25T23:01:14Z</time>
      </trkpt>
      <trkpt lat="6.1219940" lon="-75.5968880">
        <ele>2131.4</ele>
        <time>2019-08-25T23:01:15Z</time>
      </trkpt>
      <trkpt lat="6.1220590" lon="-75.5969480">
        <ele>2130.0</ele>
        <time>2019-08-25T23:01:16Z</time>
      </trkpt>
      <trkpt lat="6.1221390" lon="-75.5970130">
        <ele>2128.6</ele>
        <time>2019-08-25T23:01:17Z</time>
      </trkpt>
      <trkpt lat="6.1221470" lon="-75.5970770">
        <ele>2127.5</ele>
        <time>2019-08-25T23:01:18Z</time>
      </trkpt>
      <trkpt lat="6.1220890" lon="-75.5971890">
        <ele>2125.1</ele>
        <time>2019-08-25T23:01:19Z</time>
      </trkpt>
      <trkpt lat="6.1220320" lon="-75.5972610">
        <ele>2123.4</ele>
        <time>2019-08-25T23:01:20Z</time>
      </trkpt>
      <trkpt lat="6.1220110" lon="-75.5973070">
        <ele>2122.4</ele>
        <time>2019-08-25T23:01:21Z</time>
      </trkpt>
      <trkpt lat="6.1219980" lon="-75.5973570">
        <ele>2121.5</ele>
        <time>2019-08-25T23:01:22Z</time>
      </trkpt>
      <trkpt lat="6.1219780" lon="-75.5973920">
        <ele>2120.9</ele>
        <time>2019-08-25T23:01:23Z</time>
      </trkpt>
      <trkpt lat="6.1220180" lon="-75.5974360">
        <ele>2120.0</ele>
        <time>2019-08-25T23:01:24Z</time>
      </trkpt>
      <trkpt lat="6.1220370" lon="-75.5974570">
        <ele>2119.5</ele>
        <time>2019-08-25T23:01:25Z</time>
      </trkpt>
      <trkpt lat="6.1220720" lon="-75.5974960">
        <ele>2118.6</ele>
        <time>2019-08-25T23:01:26Z</time>
      </trkpt>
      <trkpt lat="6.1221470" lon="-75.5974270">
        <ele>2116.9</ele>
        <time>2019-08-25T23:01:27Z</time>
      </trkpt>
      <trkpt lat="6.1221930" lon="-75.5974050">
        <ele>2116.1</ele>
        <time>2019-08-25T23:01:28Z</time>
      </trkpt>
      <trkpt lat="6.1222810" lon="-75.5974120">
        <ele>2114.7</ele>
        <time>2019-08-25T23:01:29Z</time>
      </trkpt>
      <trkpt lat="6.1223430" lon="-75.5974160">
        <ele>2113.8</ele>
        <time>2019-08-25T23:01:30Z</time>
      </trkpt>
      <trkpt lat="6.1224090" lon="-75.5974520">
        <ele>2112.7</ele>
        <time>2019-08-25T23:01:31Z</time>
      </trkpt>
      <trkpt lat="6.1224550" lon="-75.5974500">
        <ele>2112.0</ele>
        <time>2019-08-25T23:01:32Z</time>
      </trkpt>
      <trkpt lat="6.1224920" lon="-75.5974750">
        <ele>2111.3</ele>
        <time>2019-08-25T23:01:33Z</time>
      </trkpt>
      <trkpt lat="6.1225550" lon="-75.5974890">
        <ele>2110.3</ele>
        <time>2019-08-25T23:01:34Z</time>
      </trkpt>
      <trkpt lat="6.1223740" lon="-75.5976450">
        <ele>2106.5</ele>
        <time>2019-08-25T23:01:36Z</time>
      </trkpt>
      <trkpt lat="6.1222850" lon="-75.5976820">
        <ele>2105.3</ele>
        <time>2019-08-25T23:01:37Z</time>
      </trkpt>
      <trkpt lat="6.1222240" lon="-75.5977350">
        <ele>2104.5</ele>
        <time>2019-08-25T23:01:38Z</time>
      </trkpt>
      <trkpt lat="6.1221530" lon="-75.5977320">
        <ele>2103.9</ele>
        <time>2019-08-25T23:01:39Z</time>
      </trkpt>
      <trkpt lat="6.1221160" lon="-75.5977590">
        <ele>2103.6</ele>
        <time>2019-08-25T23:01:40Z</time>
      </trkpt>
      <trkpt lat="6.1220860" lon="-75.5978120">
        <ele>2103.3</ele>
        <time>2019-08-25T23:01:41Z</time>
      </trkpt>
      <trkpt lat="6.1220770" lon="-75.5978580">
        <ele>2103.2</ele>
        <time>2019-08-25T23:01:42Z</time>
      </trkpt>
      <trkpt lat="6.1220660" lon="-75.5979340">
        <ele>2102.9</ele>
        <time>2019-08-25T23:01:43Z</time>
      </trkpt>
      <trkpt lat="6.1220540" lon="-75.5980130">
        <ele>2102.6</ele>
        <time>2019-08-25T23:01:44Z</time>
      </trkpt>
      <trkpt lat="6.1220400" lon="-75.5980870">
        <ele>2102.2</ele>
        <time>2019-08-25T23:01:45Z</time>
      </trkpt>
      <trkpt lat="6.1220420" lon="-75.5981460">
        <ele>2101.7</ele>
        <time>2019-08-25T23:01:46Z</time>
      </trkpt>
      <trkpt lat="6.1220710" lon="-75.5982210">
        <ele>2100.9</ele>
        <time>2019-08-25T23:01:47Z</time>
      </trkpt>
      <trkpt lat="6.1221130" lon="-75.5982810">
        <ele>2100.0</ele>
        <time>2019-08-25T23:01:48Z</time>
      </trkpt>
      <trkpt lat="6.1221440" lon="-75.5983330">
        <ele>2099.1</ele>
        <time>2019-08-25T23:01:49Z</time>
      </trkpt>
      <trkpt lat="6.1221830" lon="-75.5983660">
        <ele>2098.4</ele>
        <time>2019-08-25T23:01:50Z</time>
      </trkpt>
      <trkpt lat="6.1221920" lon="-75.5984080">
        <ele>2097.7</ele>
        <time>2019-08-25T23:01:51Z</time>
      </trkpt>
      <trkpt lat="6.1222170" lon="-75.5984580">
        <ele>2096.9</ele>
        <time>2019-08-25T23:01:52Z</time>
      </trkpt>
      <trkpt lat="6.1222220" lon="-75.5984990">
        <ele>2096.3</ele>
        <time>2019-08-25T23:01:53Z</time>
      </trkpt>
      <trkpt lat="6.1222070" lon="-75.5985390">
        <ele>2095.8</ele>
        <time>2019-08-25T23:01:54Z</time>
      </trkpt>
      <trkpt lat="6.1221760" lon="-75.5985560">
        <ele>2095.3</ele>
        <time>2019-08-25T23:01:55Z</time>
      </trkpt>
      <trkpt lat="6.1221350" lon="-75.5986320">
        <ele>2094.0</ele>
        <time>2019-08-25T23:01:56Z</time>
      </trkpt>
      <trkpt lat="6.1221000" lon="-75.5986980">
        <ele>2093.0</ele>
        <time>2019-08-25T23:01:57Z</time>
      </trkpt>
      <trkpt lat="6.1221010" lon="-75.5987830">
        <ele>2091.9</ele>
        <time>2019-08-25T23:01:58Z</time>
      </trkpt>
      <trkpt lat="6.1221130" lon="-75.5988490">
        <ele>2090.9</ele>
        <time>2019-08-25T23:01:59Z</time>
      </trkpt>
      <trkpt lat="6.1220950" lon="-75.5989240">
        <ele>2089.8</ele>
        <time>2019-08-25T23:02:00Z</time>
      </trkpt>
      <trkpt lat="6.1220210" lon="-75.5989580">
        <ele>2088.6</ele>
        <time>2019-08-25T23:02:01Z</time>
      </trkpt>
      <trkpt lat="6.1220700" lon="-75.5990450">
        <ele>2087.2</ele>
        <time>2019-08-25T23:02:02Z</time>
      </trkpt>
      <trkpt lat="6.1220850" lon="-75.5991420">
        <ele>2085.7</ele>
        <time>2019-08-25T23:02:03Z</time>
      </trkpt>
      <trkpt lat="6.1221050" lon="-75.5992220">
        <ele>2084.3</ele>
        <time>2019-08-25T23:02:04Z</time>
      </trkpt>
      <trkpt lat="6.1221050" lon="-75.5992940">
        <ele>2083.0</ele>
        <time>2019-08-25T23:02:05Z</time>
      </trkpt>
      <trkpt lat="6.1220410" lon="-75.5993620">
        <ele>2081.2</ele>
        <time>2019-08-25T23:02:06Z</time>
      </trkpt>
      <trkpt lat="6.1220410" lon="-75.5994470">
        <ele>2079.6</ele>
        <time>2019-08-25T23:02:07Z</time>
      </trkpt>
      <trkpt lat="6.1220590" lon="-75.5995190">
        <ele>2078.3</ele>
        <time>2019-08-25T23:02:09Z</time>
      </trkpt>
      <trkpt lat="6.1220970" lon="-75.5995900">
        <ele>2076.8</ele>
        <time>2019-08-25T23:02:10Z</time>
      </trkpt>
      <trkpt lat="6.1221560" lon="-75.5996050">
        <ele>2075.7</ele>
        <time>2019-08-25T23:02:11Z</time>
      </trkpt>
      <trkpt lat="6.1222610" lon="-75.5996130">
        <ele>2073.8</ele>
        <time>2019-08-25T23:02:12Z</time>
      </trkpt>
      <trkpt lat="6.1223310" lon="-75.5996240">
        <ele>2072.5</ele>
        <time>2019-08-25T23:02:13Z</time>
      </trkpt>
      <trkpt lat="6.1223960" lon="-75.5996460">
        <ele>2071.3</ele>
        <time>2019-08-25T23:02:14Z</time>
      </trkpt>
      <trkpt lat="6.1224460" lon="-75.5996940">
        <ele>2070.2</ele>
        <time>2019-08-25T23:02:15Z</time>
      </trkpt>
      <trkpt lat="6.1224710" lon="-75.5997670">
        <ele>2069.0</ele>
        <time>2019-08-25T23:02:16Z</time>
      </trkpt>
      <trkpt lat="6.1224360" lon="-75.5998270">
        <ele>2068.0</ele>
        <time>2019-08-25T23:02:17Z</time>
      </trkpt>
      <trkpt lat="6.1224050" lon="-75.5998860">
        <ele>2067.0</ele>
        <time>2019-08-25T23:02:18Z</time>
      </trkpt>
      <trkpt lat="6.1223320" lon="-75.5998900">
        <ele>2065.9</ele>
        <time>2019-08-25T23:02:19Z</time>
      </trkpt>
      <trkpt lat="6.1222920" lon="-75.5999320">
        <ele>2065.1</ele>
        <time>2019-08-25T23:02:20Z</time>
      </trkpt>
      <trkpt lat="6.1222540" lon="-75.5999950">
        <ele>2064.2</ele>
        <time>2019-08-25T23:02:21Z</time>
      </trkpt>
      <trkpt lat="6.1222220" lon="-75.6000690">
        <ele>2063.1</ele>
        <time>2019-08-25T23:02:22Z</time>
      </trkpt>
      <trkpt lat="6.1222180" lon="-75.6001420">
        <ele>2062.0</ele>
        <time>2019-08-25T23:02:23Z</time>
      </trkpt>
      <trkpt lat="6.1222170" lon="-75.6002020">
        <ele>2061.1</ele>
        <time>2019-08-25T23:02:24Z</time>
      </trkpt>
      <trkpt lat="6.1222390" lon="-75.6002760">
        <ele>2059.7</ele>
        <time>2019-08-25T23:02:25Z</time>
      </trkpt>
      <trkpt lat="6.1222720" lon="-75.6003540">
        <ele>2057.7</ele>
        <time>2019-08-25T23:02:26Z</time>
      </trkpt>
      <trkpt lat="6.1223070" lon="-75.6004120">
        <ele>2055.6</ele>
        <time>2019-08-25T23:02:27Z</time>
      </trkpt>
      <trkpt lat="6.1223700" lon="-75.6004470">
        <ele>2053.3</ele>
        <time>2019-08-25T23:02:28Z</time>
      </trkpt>
      <trkpt lat="6.1224200" lon="-75.6004770">
        <ele>2051.7</ele>
        <time>2019-08-25T23:02:29Z</time>
      </trkpt>
      <trkpt lat="6.1224610" lon="-75.6005160">
        <ele>2050.2</ele>
        <time>2019-08-25T23:02:30Z</time>
      </trkpt>
      <trkpt lat="6.1225050" lon="-75.6005540">
        <ele>2048.8</ele>
        <time>2019-08-25T23:02:31Z</time>
      </trkpt>
      <trkpt lat="6.1225750" lon="-75.6005850">
        <ele>2047.1</ele>
        <time>2019-08-25T23:02:32Z</time>
      </trkpt>
      <trkpt lat="6.1226220" lon="-75.6006020">
        <ele>2046.1</ele>
        <time>2019-08-25T23:02:33Z</time>
      </trkpt>
      <trkpt lat="6.1226910" lon="-75.6006190">
        <ele>2044.8</ele>
        <time>2019-08-25T23:02:34Z</time>
      </trkpt>
      <trkpt lat="6.1227590" lon="-75.6006510">
        <ele>2043.7</ele>
        <time>2019-08-25T23:02:35Z</time>
      </trkpt>
      <trkpt lat="6.1227990" lon="-75.6006850">
        <ele>2043.1</ele>
        <time>2019-08-25T23:02:36Z</time>
      </trkpt>
      <trkpt lat="6.1228770" lon="-75.6006960">
        <ele>2042.1</ele>
        <time>2019-08-25T23:02:37Z</time>
      </trkpt>
      <trkpt lat="6.1229530" lon="-75.6007130">
        <ele>2041.2</ele>
        <time>2019-08-25T23:02:38Z</time>
      </trkpt>
      <trkpt lat="6.1229860" lon="-75.6007010">
        <ele>2040.7</ele>
        <time>2019-08-25T23:02:39Z</time>
      </trkpt>
      <trkpt lat="6.1230510" lon="-75.6007150">
        <ele>2039.7</ele>
        <time>2019-08-25T23:02:40Z</time>
      </trkpt>
      <trkpt lat="6.1231040" lon="-75.6007280">
        <ele>2038.9</ele>
        <time>2019-08-25T23:02:41Z</time>
      </trkpt>
      <trkpt lat="6.1230960" lon="-75.6007790">
        <ele>2037.8</ele>
        <time>2019-08-25T23:02:42Z</time>
      </trkpt>
      <trkpt lat="6.1231310" lon="-75.6008180">
        <ele>2036.7</ele>
        <time>2019-08-25T23:02:43Z</time>
      </trkpt>
      <trkpt lat="6.1231640" lon="-75.6008350">
        <ele>2035.8</ele>
        <time>2019-08-25T23:02:44Z</time>
      </trkpt>
      <trkpt lat="6.1231920" lon="-75.6008660">
        <ele>2034.7</ele>
        <time>2019-08-25T23:02:45Z</time>
      </trkpt>
      <trkpt lat="6.1232270" lon="-75.6008820">
        <ele>2033.6</ele>
        <time>2019-08-25T23:02:46Z</time>
      </trkpt>
      <trkpt lat="6.1231790" lon="-75.6008910">
        <ele>2032.2</ele>
        <time>2019-08-25T23:02:47Z</time>
      </trkpt>
      <trkpt lat="6.1232170" lon="-75.6008930">
        <ele>2031.0</ele>
        <time>2019-08-25T23:02:50Z</time>
      </trkpt>
      <trkpt lat="6.1232490" lon="-75.6008800">
        <ele>2029.8</ele>
        <time>2019-08-25T23:02:54Z</time>
      </trkpt>
      <trkpt lat="6.1232800" lon="-75.6008700">
        <ele>2028.8</ele>
        <time>2019-08-25T23:02:57Z</time>
      </trkpt>
      <trkpt lat="6.1233040" lon="-75.6008920">
        <ele>2027.6</ele>
        <time>2019-08-25T23:03:01Z</time>
      </trkpt>
      <trkpt lat="6.1233010" lon="-75.6009200">
        <ele>2026.6</ele>
        <time>2019-08-25T23:03:07Z</time>
      </trkpt>
      <trkpt lat="6.1233190" lon="-75.6009620">
        <ele>2025.0</ele>
        <time>2019-08-25T23:03:09Z</time>
      </trkpt>
      <trkpt lat="6.1233360" lon="-75.6009990">
        <ele>2023.5</ele>
        <time>2019-08-25T23:03:10Z</time>
      </trkpt>
      <trkpt lat="6.1233460" lon="-75.6010400">
        <ele>2022.1</ele>
        <time>2019-08-25T23:03:11Z</time>
      </trkpt>
      <trkpt lat="6.1233500" lon="-75.6010800">
        <ele>2021.6</ele>
        <time>2019-08-25T23:03:12Z</time>
      </trkpt>
      <trkpt lat="6.1233500" lon="-75.6011260">
        <ele>2021.1</ele>
        <time>2019-08-25T23:03:13Z</time>
      </trkpt>
      <trkpt lat="6.1233320" lon="-75.6011700">
        <ele>2020.7</ele>
        <time>2019-08-25T23:03:14Z</time>
      </trkpt>
      <trkpt lat="6.1232900" lon="-75.6012100">
        <ele>2020.2</ele>
        <time>2019-08-25T23:03:15Z</time>
      </trkpt>
      <trkpt lat="6.1232340" lon="-75.6012500">
        <ele>2019.5</ele>
        <time>2019-08-25T23:03:16Z</time>
      </trkpt>
      <trkpt lat="6.1231690" lon="-75.6012820">
        <ele>2018.8</ele>
        <time>2019-08-25T23:03:17Z</time>
      </trkpt>
      <trkpt lat="6.1231100" lon="-75.6013110">
        <ele>2018.1</ele>
        <time>2019-08-25T23:03:18Z</time>
      </trkpt>
      <trkpt lat="6.1230610" lon="-75.6013390">
        <ele>2017.5</ele>
        <time>2019-08-25T23:03:19Z</time>
      </trkpt>
      <trkpt lat="6.1230010" lon="-75.6013720">
        <ele>2016.8</ele>
        <time>2019-08-25T23:03:20Z</time>
      </trkpt>
      <trkpt lat="6.1228950" lon="-75.6013880">
        <ele>2015.6</ele>
        <time>2019-08-25T23:03:21Z</time>
      </trkpt>
      <trkpt lat="6.1228420" lon="-75.6014200">
        <ele>2014.8</ele>
        <time>2019-08-25T23:03:22Z</time>
      </trkpt>
      <trkpt lat="6.1227880" lon="-75.6014540">
        <ele>2013.8</ele>
        <time>2019-08-25T23:03:23Z</time>
      </trkpt>
      <trkpt lat="6.1227280" lon="-75.6014940">
        <ele>2012.6</ele>
        <time>2019-08-25T23:03:24Z</time>
      </trkpt>
      <trkpt lat="6.1226740" lon="-75.6015190">
        <ele>2011.3</ele>
        <time>2019-08-25T23:03:25Z</time>
      </trkpt>
      <trkpt lat="6.1226200" lon="-75.6015160">
        <ele>2010.1</ele>
        <time>2019-08-25T23:03:26Z</time>
      </trkpt>
      <trkpt lat="6.1225570" lon="-75.6015280">
        <ele>2008.3</ele>
        <time>2019-08-25T23:03:27Z</time>
      </trkpt>
      <trkpt lat="6.1225190" lon="-75.6015690">
        <ele>2006.8</ele>
        <time>2019-08-25T23:03:28Z</time>
      </trkpt>
      <trkpt lat="6.1224930" lon="-75.6015350">
        <ele>2005.8</ele>
        <time>2019-08-25T23:03:29Z</time>
      </trkpt>
      <trkpt lat="6.1224940" lon="-75.6015810">
        <ele>2005.0</ele>
        <time>2019-08-25T23:03:30Z</time>
      </trkpt>
      <trkpt lat="6.1225070" lon="-75.6016190">
        <ele>2004.2</ele>
        <time>2019-08-25T23:03:31Z</time>
      </trkpt>
      <trkpt lat="6.1225270" lon="-75.6016650">
        <ele>2003.4</ele>
        <time>2019-08-25T23:03:32Z</time>
      </trkpt>
      <trkpt lat="6.1225560" lon="-75.6017190">
        <ele>2002.4</ele>
        <time>2019-08-25T23:03:33Z</time>
      </trkpt>
      <trkpt lat="6.1225950" lon="-75.6017700">
        <ele>2001.5</ele>
        <time>2019-08-25T23:03:34Z</time>
      </trkpt>
      <trkpt lat="6.1226380" lon="-75.6018190">
        <ele>2000.6</ele>
        <time>2019-08-25T23:03:35Z</time>
      </trkpt>
      <trkpt lat="6.1226890" lon="-75.6018790">
        <ele>1999.5</ele>
        <time>2019-08-25T23:03:36Z</time>
      </trkpt>
      <trkpt lat="6.1227490" lon="-75.6019420">
        <ele>1998.2</ele>
        <time>2019-08-25T23:03:37Z</time>
      </trkpt>
      <trkpt lat="6.1228070" lon="-75.6019930">
        <ele>1997.1</ele>
        <time>2019-08-25T23:03:38Z</time>
      </trkpt>
      <trkpt lat="6.1229140" lon="-75.6020350">
        <ele>1995.1</ele>
        <time>2019-08-25T23:03:39Z</time>
      </trkpt>
      <trkpt lat="6.1229910" lon="-75.6020250">
        <ele>1993.4</ele>
        <time>2019-08-25T23:03:40Z</time>
      </trkpt>
      <trkpt lat="6.1230600" lon="-75.6019900">
        <ele>1991.5</ele>
        <time>2019-08-25T23:03:41Z</time>
      </trkpt>
      <trkpt lat="6.1231240" lon="-75.6020160">
        <ele>1989.7</ele>
        <time>2019-08-25T23:03:42Z</time>
      </trkpt>
      <trkpt lat="6.1231800" lon="-75.6020430">
        <ele>1988.3</ele>
        <time>2019-08-25T23:03:43Z</time>
      </trkpt>
      <trkpt lat="6.1232090" lon="-75.6021120">
        <ele>1987.0</ele>
        <time>2019-08-25T23:03:44Z</time>
      </trkpt>
      <trkpt lat="6.1232370" lon="-75.6021440">
        <ele>1986.3</ele>
        <time>2019-08-25T23:03:45Z</time>
      </trkpt>
      <trkpt lat="6.1232640" lon="-75.6022000">
        <ele>1985.1</ele>
        <time>2019-08-25T23:03:46Z</time>
      </trkpt>
      <trkpt lat="6.1232150" lon="-75.6022470">
        <ele>1984.1</ele>
        <time>2019-08-25T23:03:47Z</time>
      </trkpt>
      <trkpt lat="6.1229350" lon="-75.6022480">
        <ele>1978.0</ele>
        <time>2019-08-25T23:03:49Z</time>
      </trkpt>
      <trkpt lat="6.1228440" lon="-75.6022660">
        <ele>1975.6</ele>
        <time>2019-08-25T23:03:50Z</time>
      </trkpt>
      <trkpt lat="6.1227560" lon="-75.6022810">
        <ele>1973.7</ele>
        <time>2019-08-25T23:03:51Z</time>
      </trkpt>
      <trkpt lat="6.1226830" lon="-75.6023030">
        <ele>1972.4</ele>
        <time>2019-08-25T23:03:52Z</time>
      </trkpt>
      <trkpt lat="6.1226360" lon="-75.6023540">
        <ele>1971.2</ele>
        <time>2019-08-25T23:03:53Z</time>
      </trkpt>
      <trkpt lat="6.1225800" lon="-75.6023690">
        <ele>1970.3</ele>
        <time>2019-08-25T23:03:54Z</time>
      </trkpt>
      <trkpt lat="6.1226190" lon="-75.6024130">
        <ele>1969.4</ele>
        <time>2019-08-25T23:03:55Z</time>
      </trkpt>
      <trkpt lat="6.1226570" lon="-75.6024460">
        <ele>1968.7</ele>
        <time>2019-08-25T23:03:56Z</time>
      </trkpt>
      <trkpt lat="6.1227170" lon="-75.6024680">
        <ele>1967.9</ele>
        <time>2019-08-25T23:03:57Z</time>
      </trkpt>
      <trkpt lat="6.1227970" lon="-75.6024900">
        <ele>1966.8</ele>
        <time>2019-08-25T23:03:58Z</time>
      </trkpt>
      <trkpt lat="6.1228650" lon="-75.6024990">
        <ele>1965.9</ele>
        <time>2019-08-25T23:03:59Z</time>
      </trkpt>
      <trkpt lat="6.1229340" lon="-75.6025000">
        <ele>1964.8</ele>
        <time>2019-08-25T23:04:00Z</time>
      </trkpt>
      <trkpt lat="6.1229980" lon="-75.6025300">
        <ele>1963.8</ele>
        <time>2019-08-25T23:04:01Z</time>
      </trkpt>
      <trkpt lat="6.1230990" lon="-75.6025360">
        <ele>1962.3</ele>
        <time>2019-08-25T23:04:02Z</time>
      </trkpt>
      <trkpt lat="6.1231930" lon="-75.6025640">
        <ele>1960.7</ele>
        <time>2019-08-25T23:04:03Z</time>
      </trkpt>
      <trkpt lat="6.1232670" lon="-75.6025650">
        <ele>1959.4</ele>
        <time>2019-08-25T23:04:04Z</time>
      </trkpt>
      <trkpt lat="6.1233480" lon="-75.6025800">
        <ele>1957.7</ele>
        <time>2019-08-25T23:04:05Z</time>
      </trkpt>
      <trkpt lat="6.1233920" lon="-75.6025720">
        <ele>1957.0</ele>
        <time>2019-08-25T23:04:06Z</time>
      </trkpt>
      <trkpt lat="6.1234560" lon="-75.6025580">
        <ele>1955.9</ele>
        <time>2019-08-25T23:04:07Z</time>
      </trkpt>
      <trkpt lat="6.1235100" lon="-75.6025470">
        <ele>1954.8</ele>
        <time>2019-08-25T23:04:08Z</time>
      </trkpt>
      <trkpt lat="6.1235720" lon="-75.6025590">
        <ele>1953.8</ele>
        <time>2019-08-25T23:04:09Z</time>
      </trkpt>
      <trkpt lat="6.1236480" lon="-75.6025360">
        <ele>1952.6</ele>
        <time>2019-08-25T23:04:10Z</time>
      </trkpt>
      <trkpt lat="6.1236920" lon="-75.6024280">
        <ele>1951.2</ele>
        <time>2019-08-25T23:04:11Z</time>
      </trkpt>
      <trkpt lat="6.1237610" lon="-75.6023590">
        <ele>1950.0</ele>
        <time>2019-08-25T23:04:12Z</time>
      </trkpt>
      <trkpt lat="6.1238400" lon="-75.6023100">
        <ele>1949.0</ele>
        <time>2019-08-25T23:04:13Z</time>
      </trkpt>
      <trkpt lat="6.1239030" lon="-75.6022570">
        <ele>1948.0</ele>
        <time>2019-08-25T23:04:14Z</time>
      </trkpt>
      <trkpt lat="6.1239820" lon="-75.6022040">
        <ele>1946.7</ele>
        <time>2019-08-25T23:04:15Z</time>
      </trkpt>
      <trkpt lat="6.1240420" lon="-75.6021510">
        <ele>1945.6</ele>
        <time>2019-08-25T23:04:16Z</time>
      </trkpt>
      <trkpt lat="6.1241080" lon="-75.6021260">
        <ele>1944.5</ele>
        <time>2019-08-25T23:04:17Z</time>
      </trkpt>
      <trkpt lat="6.1241760" lon="-75.6020890">
        <ele>1943.4</ele>
        <time>2019-08-25T23:04:18Z</time>
      </trkpt>
      <trkpt lat="6.1242850" lon="-75.6020830">
        <ele>1942.1</ele>
        <time>2019-08-25T23:04:19Z</time>
      </trkpt>
      <trkpt lat="6.1243330" lon="-75.6021590">
        <ele>1941.0</ele>
        <time>2019-08-25T23:04:20Z</time>
      </trkpt>
      <trkpt lat="6.1243640" lon="-75.6021780">
        <ele>1940.6</ele>
        <time>2019-08-25T23:04:21Z</time>
      </trkpt>
      <trkpt lat="6.1243860" lon="-75.6022200">
        <ele>1940.2</ele>
        <time>2019-08-25T23:04:22Z</time>
      </trkpt>
      <trkpt lat="6.1244350" lon="-75.6022400">
        <ele>1939.8</ele>
        <time>2019-08-25T23:04:23Z</time>
      </trkpt>
      <trkpt lat="6.1244960" lon="-75.6022770">
        <ele>1939.1</ele>
        <time>2019-08-25T23:04:24Z</time>
      </trkpt>
      <trkpt lat="6.1245650" lon="-75.6022350">
        <ele>1938.4</ele>
        <time>2019-08-25T23:04:25Z</time>
      </trkpt>
      <trkpt lat="6.1246150" lon="-75.6021870">
        <ele>1937.8</ele>
        <time>2019-08-25T23:04:26Z</time>
      </trkpt>
      <trkpt lat="6.1246500" lon="-75.6021260">
        <ele>1937.2</ele>
        <time>2019-08-25T23:04:27Z</time>
      </trkpt>
      <trkpt lat="6.1246910" lon="-75.6020850">
        <ele>1936.5</ele>
        <time>2019-08-25T23:04:28Z</time>
      </trkpt>
      <trkpt lat="6.1247350" lon="-75.6020530">
        <ele>1935.9</ele>
        <time>2019-08-25T23:04:29Z</time>
      </trkpt>
      <trkpt lat="6.1248010" lon="-75.6020310">
        <ele>1935.2</ele>
        <time>2019-08-25T23:04:30Z</time>
      </trkpt>
      <trkpt lat="6.1248560" lon="-75.6020600">
        <ele>1934.5</ele>
        <time>2019-08-25T23:04:31Z</time>
      </trkpt>
      <trkpt lat="6.1249050" lon="-75.6020540">
        <ele>1934.2</ele>
        <time>2019-08-25T23:04:32Z</time>
      </trkpt>
      <trkpt lat="6.1249750" lon="-75.6020980">
        <ele>1933.7</ele>
        <time>2019-08-25T23:04:33Z</time>
      </trkpt>
      <trkpt lat="6.1250280" lon="-75.6021530">
        <ele>1933.4</ele>
        <time>2019-08-25T23:04:34Z</time>
      </trkpt>
      <trkpt lat="6.1250820" lon="-75.6022050">
        <ele>1933.1</ele>
        <time>2019-08-25T23:04:35Z</time>
      </trkpt>
      <trkpt lat="6.1251710" lon="-75.6022830">
        <ele>1932.5</ele>
        <time>2019-08-25T23:04:36Z</time>
      </trkpt>
      <trkpt lat="6.1252320" lon="-75.6023290">
        <ele>1932.2</ele>
        <time>2019-08-25T23:04:37Z</time>
      </trkpt>
      <trkpt lat="6.1252970" lon="-75.6023260">
        <ele>1932.0</ele>
        <time>2019-08-25T23:04:38Z</time>
      </trkpt>
      <trkpt lat="6.1253660" lon="-75.6023370">
        <ele>1931.7</ele>
        <time>2019-08-25T23:04:39Z</time>
      </trkpt>
      <trkpt lat="6.1254360" lon="-75.6023280">
        <ele>1931.5</ele>
        <time>2019-08-25T23:04:40Z</time>
      </trkpt>
      <trkpt lat="6.1254920" lon="-75.6023160">
        <ele>1931.3</ele>
        <time>2019-08-25T23:04:41Z</time>
      </trkpt>
      <trkpt lat="6.1255610" lon="-75.6023110">
        <ele>1931.0</ele>
        <time>2019-08-25T23:04:42Z</time>
      </trkpt>
      <trkpt lat="6.1256110" lon="-75.6023200">
        <ele>1930.5</ele>
        <time>2019-08-25T23:04:43Z</time>
      </trkpt>
      <trkpt lat="6.1256580" lon="-75.6023180">
        <ele>1930.0</ele>
        <time>2019-08-25T23:04:44Z</time>
      </trkpt>
      <trkpt lat="6.1257010" lon="-75.6023050">
        <ele>1929.5</ele>
        <time>2019-08-25T23:04:45Z</time>
      </trkpt>
      <trkpt lat="6.1257380" lon="-75.6022840">
        <ele>1929.0</ele>
        <time>2019-08-25T23:04:46Z</time>
      </trkpt>
      <trkpt lat="6.1257800" lon="-75.6022710">
        <ele>1928.5</ele>
        <time>2019-08-25T23:04:47Z</time>
      </trkpt>
      <trkpt lat="6.1258270" lon="-75.6022640">
        <ele>1928.0</ele>
        <time>2019-08-25T23:04:48Z</time>
      </trkpt>
      <trkpt lat="6.1258830" lon="-75.6022570">
        <ele>1927.3</ele>
        <time>2019-08-25T23:04:49Z</time>
      </trkpt>
      <trkpt lat="6.1259530" lon="-75.6022500">
        <ele>1926.3</ele>
        <time>2019-08-25T23:04:50Z</time>
      </trkpt>
      <trkpt lat="6.1260810" lon="-75.6022300">
        <ele>1924.2</ele>
        <time>2019-08-25T23:04:51Z</time>
      </trkpt>
      <trkpt lat="6.1261450" lon="-75.6021750">
        <ele>1922.6</ele>
        <time>2019-08-25T23:04:52Z</time>
      </trkpt>
      <trkpt lat="6.1262290" lon="-75.6021460">
        <ele>1921.2</ele>
        <time>2019-08-25T23:04:53Z</time>
      </trkpt>
      <trkpt lat="6.1262960" lon="-75.6021180">
        <ele>1920.0</ele>
        <time>2019-08-25T23:04:54Z</time>
      </trkpt>
      <trkpt lat="6.1263290" lon="-75.6020820">
        <ele>1919.2</ele>
        <time>2019-08-25T23:04:55Z</time>
      </trkpt>
      <trkpt lat="6.1263920" lon="-75.6020540">
        <ele>1918.1</ele>
        <time>2019-08-25T23:04:56Z</time>
      </trkpt>
      <trkpt lat="6.1263410" lon="-75.6019630">
        <ele>1916.5</ele>
        <time>2019-08-25T23:04:57Z</time>
      </trkpt>
      <trkpt lat="6.1263360" lon="-75.6018580">
        <ele>1914.8</ele>
        <time>2019-08-25T23:04:58Z</time>
      </trkpt>
      <trkpt lat="6.1263230" lon="-75.6017400">
        <ele>1912.8</ele>
        <time>2019-08-25T23:04:59Z</time>
      </trkpt>
      <trkpt lat="6.1263440" lon="-75.6016650">
        <ele>1911.5</ele>
        <time>2019-08-25T23:05:00Z</time>
      </trkpt>
      <trkpt lat="6.1263380" lon="-75.6015660">
        <ele>1910.2</ele>
        <time>2019-08-25T23:05:01Z</time>
      </trkpt>
      <trkpt lat="6.1263380" lon="-75.6014780">
        <ele>1909.0</ele>
        <time>2019-08-25T23:05:02Z</time>
      </trkpt>
      <trkpt lat="6.1263590" lon="-75.6014060">
        <ele>1907.5</ele>
        <time>2019-08-25T23:05:03Z</time>
      </trkpt>
      <trkpt lat="6.1263820" lon="-75.6013580">
        <ele>1906.6</ele>
        <time>2019-08-25T23:05:04Z</time>
      </trkpt>
      <trkpt lat="6.1263820" lon="-75.6012580">
        <ele>1905.1</ele>
        <time>2019-08-25T23:05:05Z</time>
      </trkpt>
      <trkpt lat="6.1264140" lon="-75.6011960">
        <ele>1904.2</ele>
        <time>2019-08-25T23:05:06Z</time>
      </trkpt>
      <trkpt lat="6.1264110" lon="-75.6011400">
        <ele>1903.3</ele>
        <time>2019-08-25T23:05:07Z</time>
      </trkpt>
      <trkpt lat="6.1263870" lon="-75.6010740">
        <ele>1901.7</ele>
        <time>2019-08-25T23:05:08Z</time>
      </trkpt>
      <trkpt lat="6.1263350" lon="-75.6010010">
        <ele>1899.9</ele>
        <time>2019-08-25T23:05:09Z</time>
      </trkpt>
      <trkpt lat="6.1263040" lon="-75.6009350">
        <ele>1898.3</ele>
        <time>2019-08-25T23:05:10Z</time>
      </trkpt>
      <trkpt lat="6.1262850" lon="-75.6008980">
        <ele>1897.3</ele>
        <time>2019-08-25T23:05:11Z</time>
      </trkpt>
      <trkpt lat="6.1263230" lon="-75.6008700">
        <ele>1896.2</ele>
        <time>2019-08-25T23:05:12Z</time>
      </trkpt>
      <trkpt lat="6.1262980" lon="-75.6008390">
        <ele>1895.4</ele>
        <time>2019-08-25T23:05:13Z</time>
      </trkpt>
      <trkpt lat="6.1262810" lon="-75.6008010">
        <ele>1894.8</ele>
        <time>2019-08-25T23:05:14Z</time>
      </trkpt>
      <trkpt lat="6.1262600" lon="-75.6007830">
        <ele>1894.6</ele>
        <time>2019-08-25T23:05:15Z</time>
      </trkpt>
      <trkpt lat="6.1262630" lon="-75.6007560">
        <ele>1894.4</ele>
        <time>2019-08-25T23:05:16Z</time>
      </trkpt>
      <trkpt lat="6.1262700" lon="-75.6007100">
        <ele>1894.5</ele>
        <time>2019-08-25T23:05:17Z</time>
      </trkpt>
      <trkpt lat="6.1263020" lon="-75.6007130">
        <ele>1894.8</ele>
        <time>2019-08-25T23:05:20Z</time>
      </trkpt>
      <trkpt lat="6.1263140" lon="-75.6006800">
        <ele>1895.1</ele>
        <time>2019-08-25T23:05:21Z</time>
      </trkpt>
      <trkpt lat="6.1263590" lon="-75.6006850">
        <ele>1895.9</ele>
        <time>2019-08-25T23:05:28Z</time>
      </trkpt>
      <trkpt lat="6.1263570" lon="-75.6007140">
        <ele>1896.5</ele>
        <time>2019-08-25T23:05:33Z</time>
      </trkpt>
      <trkpt lat="6.1263650" lon="-75.6007400">
        <ele>1897.1</ele>
        <time>2019-08-25T23:05:36Z</time>
      </trkpt>
      <trkpt lat="6.1264050" lon="-75.6007440">
        <ele>1898.0</ele>
        <time>2019-08-25T23:05:39Z</time>
      </trkpt>
      <trkpt lat="6.1264160" lon="-75.6007180">
        <ele>1898.7</ele>
        <time>2019-08-25T23:05:43Z</time>
      </trkpt>
      <trkpt lat="6.1264390" lon="-75.6007370">
        <ele>1899.4</ele>
        <time>2019-08-25T23:05:45Z</time>
      </trkpt>
      <trkpt lat="6.1264580" lon="-75.6007640">
        <ele>1900.1</ele>
        <time>2019-08-25T23:05:47Z</time>
      </trkpt>
      <trkpt lat="6.1264760" lon="-75.6008100">
        <ele>1900.9</ele>
        <time>2019-08-25T23:05:50Z</time>
      </trkpt>
      <trkpt lat="6.1265070" lon="-75.6008270">
        <ele>1901.5</ele>
        <time>2019-08-25T23:05:52Z</time>
      </trkpt>
      <trkpt lat="6.1266490" lon="-75.6006750">
        <ele>1904.2</ele>
        <time>2019-08-25T23:05:55Z</time>
      </trkpt>
      <trkpt lat="6.1266490" lon="-75.6007260">
        <ele>1904.8</ele>
        <time>2019-08-25T23:05:57Z</time>
      </trkpt>
      <trkpt lat="6.1266450" lon="-75.6007540">
        <ele>1905.0</ele>
        <time>2019-08-25T23:05:58Z</time>
      </trkpt>
      <trkpt lat="6.1266860" lon="-75.6007710">
        <ele>1905.2</ele>
        <time>2019-08-25T23:06:00Z</time>
      </trkpt>
      <trkpt lat="6.1267180" lon="-75.6008150">
        <ele>1905.5</ele>
        <time>2019-08-25T23:06:02Z</time>
      </trkpt>
      <trkpt lat="6.1267310" lon="-75.6008400">
        <ele>1905.6</ele>
        <time>2019-08-25T23:06:03Z</time>
      </trkpt>
      <trkpt lat="6.1267480" lon="-75.6008990">
        <ele>1905.9</ele>
        <time>2019-08-25T23:06:05Z</time>
      </trkpt>
      <trkpt lat="6.1267670" lon="-75.6009370">
        <ele>1906.0</ele>
        <time>2019-08-25T23:06:07Z</time>
      </trkpt>
      <trkpt lat="6.1268050" lon="-75.6009320">
        <ele>1906.1</ele>
        <time>2019-08-25T23:06:10Z</time>
      </trkpt>
      <trkpt lat="6.1268390" lon="-75.6009180">
        <ele>1906.2</ele>
        <time>2019-08-25T23:06:13Z</time>
      </trkpt>
      <trkpt lat="6.1268620" lon="-75.6008950">
        <ele>1906.3</ele>
        <time>2019-08-25T23:06:16Z</time>
      </trkpt>
      <trkpt lat="6.1268770" lon="-75.6008630">
        <ele>1906.4</ele>
        <time>2019-08-25T23:06:18Z</time>
      </trkpt>
      <trkpt lat="6.1268950" lon="-75.6008200">
        <ele>1906.6</ele>
        <time>2019-08-25T23:06:20Z</time>
      </trkpt>
      <trkpt lat="6.1268950" lon="-75.6007780">
        <ele>1906.8</ele>
        <time>2019-08-25T23:06:22Z</time>
      </trkpt>
      <trkpt lat="6.1268870" lon="-75.6007310">
        <ele>1907.0</ele>
        <time>2019-08-25T23:06:24Z</time>
      </trkpt>
      <trkpt lat="6.1268860" lon="-75.6006850">
        <ele>1907.1</ele>
        <time>2019-08-25T23:06:26Z</time>
      </trkpt>
      <trkpt lat="6.1268920" lon="-75.6006530">
        <ele>1907.2</ele>
        <time>2019-08-25T23:06:28Z</time>
      </trkpt>
      <trkpt lat="6.1269100" lon="-75.6006250">
        <ele>1907.3</ele>
        <time>2019-08-25T23:06:30Z</time>
      </trkpt>
      <trkpt lat="6.1269180" lon="-75.6005900">
        <ele>1907.4</ele>
        <time>2019-08-25T23:06:32Z</time>
      </trkpt>
      <trkpt lat="6.1269190" lon="-75.6005520">
        <ele>1907.5</ele>
        <time>2019-08-25T23:06:34Z</time>
      </trkpt>
      <trkpt lat="6.1269400" lon="-75.6005220">
        <ele>1907.6</ele>
        <time>2019-08-25T23:06:36Z</time>
      </trkpt>
      <trkpt lat="6.1269750" lon="-75.6004930">
        <ele>1907.6</ele>
        <time>2019-08-25T23:06:38Z</time>
      </trkpt>
      <trkpt lat="6.1270160" lon="-75.6004680">
        <ele>1907.6</ele>
        <time>2019-08-25T23:06:40Z</time>
      </trkpt>
      <trkpt lat="6.1270550" lon="-75.6004520">
        <ele>1907.6</ele>
        <time>2019-08-25T23:06:42Z</time>
      </trkpt>
      <trkpt lat="6.1270920" lon="-75.6004290">
        <ele>1907.5</ele>
        <time>2019-08-25T23:06:44Z</time>
      </trkpt>
      <trkpt lat="6.1271290" lon="-75.6004000">
        <ele>1907.4</ele>
        <time>2019-08-25T23:06:46Z</time>
      </trkpt>
      <trkpt lat="6.1271440" lon="-75.6003760">
        <ele>1907.3</ele>
        <time>2019-08-25T23:06:48Z</time>
      </trkpt>
      <trkpt lat="6.1271510" lon="-75.6003320">
        <ele>1907.1</ele>
        <time>2019-08-25T23:06:50Z</time>
      </trkpt>
      <trkpt lat="6.1271560" lon="-75.6002990">
        <ele>1907.0</ele>
        <time>2019-08-25T23:06:51Z</time>
      </trkpt>
      <trkpt lat="6.1271610" lon="-75.6002680">
        <ele>1906.9</ele>
        <time>2019-08-25T23:06:52Z</time>
      </trkpt>
      <trkpt lat="6.1271620" lon="-75.6002350">
        <ele>1906.8</ele>
        <time>2019-08-25T23:06:53Z</time>
      </trkpt>
      <trkpt lat="6.1271660" lon="-75.6002020">
        <ele>1906.7</ele>
        <time>2019-08-25T23:06:54Z</time>
      </trkpt>
      <trkpt lat="6.1271500" lon="-75.6001680">
        <ele>1906.7</ele>
        <time>2019-08-25T23:06:56Z</time>
      </trkpt>
      <trkpt lat="6.1271820" lon="-75.6001690">
        <ele>1906.7</ele>
        <time>2019-08-25T23:07:00Z</time>
      </trkpt>
      <trkpt lat="6.1271770" lon="-75.6002050">
        <ele>1906.8</ele>
        <time>2019-08-25T23:07:04Z</time>
      </trkpt>
      <trkpt lat="6.1271780" lon="-75.6002470">
        <ele>1906.9</ele>
        <time>2019-08-25T23:07:08Z</time>
      </trkpt>
      <trkpt lat="6.1271680" lon="-75.6002720">
        <ele>1907.0</ele>
        <time>2019-08-25T23:07:09Z</time>
      </trkpt>
      <trkpt lat="6.1271700" lon="-75.6003120">
        <ele>1907.1</ele>
        <time>2019-08-25T23:07:10Z</time>
      </trkpt>
      <trkpt lat="6.1271730" lon="-75.6003520">
        <ele>1907.3</ele>
        <time>2019-08-25T23:07:11Z</time>
      </trkpt>
      <trkpt lat="6.1271800" lon="-75.6003940">
        <ele>1907.5</ele>
        <time>2019-08-25T23:07:12Z</time>
      </trkpt>
      <trkpt lat="6.1271890" lon="-75.6004360">
        <ele>1907.7</ele>
        <time>2019-08-25T23:07:13Z</time>
      </trkpt>
      <trkpt lat="6.1272000" lon="-75.6004760">
        <ele>1907.8</ele>
        <time>2019-08-25T23:07:14Z</time>
      </trkpt>
      <trkpt lat="6.1272140" lon="-75.6005180">
        <ele>1908.1</ele>
        <time>2019-08-25T23:07:15Z</time>
      </trkpt>
      <trkpt lat="6.1272410" lon="-75.6005650">
        <ele>1908.3</ele>
        <time>2019-08-25T23:07:16Z</time>
      </trkpt>
      <trkpt lat="6.1272740" lon="-75.6006090">
        <ele>1908.4</ele>
        <time>2019-08-25T23:07:17Z</time>
      </trkpt>
      <trkpt lat="6.1273080" lon="-75.6006530">
        <ele>1908.5</ele>
        <time>2019-08-25T23:07:18Z</time>
      </trkpt>
      <trkpt lat="6.1273300" lon="-75.6006870">
        <ele>1908.6</ele>
        <time>2019-08-25T23:07:19Z</time>
      </trkpt>
      <trkpt lat="6.1273430" lon="-75.6007150">
        <ele>1908.6</ele>
        <time>2019-08-25T23:07:20Z</time>
      </trkpt>
      <trkpt lat="6.1273590" lon="-75.6007640">
        <ele>1908.7</ele>
        <time>2019-08-25T23:07:22Z</time>
      </trkpt>
      <trkpt lat="6.1273690" lon="-75.6008160">
        <ele>1908.7</ele>
        <time>2019-08-25T23:07:24Z</time>
      </trkpt>
      <trkpt lat="6.1273790" lon="-75.6008520">
        <ele>1908.7</ele>
        <time>2019-08-25T23:07:26Z</time>
      </trkpt>
      <trkpt lat="6.1274040" lon="-75.6008830">
        <ele>1908.7</ele>
        <time>2019-08-25T23:07:29Z</time>
      </trkpt>
      <trkpt lat="6.1274180" lon="-75.6009350">
        <ele>1908.6</ele>
        <time>2019-08-25T23:07:31Z</time>
      </trkpt>
      <trkpt lat="6.1274240" lon="-75.6009620">
        <ele>1908.5</ele>
        <time>2019-08-25T23:07:32Z</time>
      </trkpt>
      <trkpt lat="6.1274310" lon="-75.6009990">
        <ele>1908.5</ele>
        <time>2019-08-25T23:07:33Z</time>
      </trkpt>
      <trkpt lat="6.1274310" lon="-75.6010410">
        <ele>1908.3</ele>
        <time>2019-08-25T23:07:34Z</time>
      </trkpt>
      <trkpt lat="6.1274300" lon="-75.6010760">
        <ele>1908.1</ele>
        <time>2019-08-25T23:07:35Z</time>
      </trkpt>
      <trkpt lat="6.1274410" lon="-75.6011250">
        <ele>1907.9</ele>
        <time>2019-08-25T23:07:37Z</time>
      </trkpt>
      <trkpt lat="6.1274480" lon="-75.6011670">
        <ele>1907.7</ele>
        <time>2019-08-25T23:07:39Z</time>
      </trkpt>
      <trkpt lat="6.1274540" lon="-75.6012020">
        <ele>1907.4</ele>
        <time>2019-08-25T23:07:41Z</time>
      </trkpt>
      <trkpt lat="6.1274610" lon="-75.6012520">
        <ele>1907.0</ele>
        <time>2019-08-25T23:07:43Z</time>
      </trkpt>
      <trkpt lat="6.1274570" lon="-75.6012800">
        <ele>1906.7</ele>
        <time>2019-08-25T23:07:44Z</time>
      </trkpt>
      <trkpt lat="6.1274440" lon="-75.6013180">
        <ele>1906.4</ele>
        <time>2019-08-25T23:07:46Z</time>
      </trkpt>
      <trkpt lat="6.1274360" lon="-75.6013640">
        <ele>1905.6</ele>
        <time>2019-08-25T23:07:48Z</time>
      </trkpt>
      <trkpt lat="6.1274370" lon="-75.6013920">
        <ele>1905.2</ele>
        <time>2019-08-25T23:07:49Z</time>
      </trkpt>
      <trkpt lat="6.1274460" lon="-75.6014210">
        <ele>1904.6</ele>
        <time>2019-08-25T23:07:50Z</time>
      </trkpt>
      <trkpt lat="6.1274620" lon="-75.6014520">
        <ele>1904.0</ele>
        <time>2019-08-25T23:07:51Z</time>
      </trkpt>
      <trkpt lat="6.1274810" lon="-75.6014780">
        <ele>1903.5</ele>
        <time>2019-08-25T23:07:52Z</time>
      </trkpt>
      <trkpt lat="6.1275030" lon="-75.6015010">
        <ele>1902.9</ele>
        <time>2019-08-25T23:07:53Z</time>
      </trkpt>
      <trkpt lat="6.1275290" lon="-75.6015250">
        <ele>1902.3</ele>
        <time>2019-08-25T23:07:54Z</time>
      </trkpt>
      <trkpt lat="6.1275540" lon="-75.6015510">
        <ele>1901.5</ele>
        <time>2019-08-25T23:07:55Z</time>
      </trkpt>
      <trkpt lat="6.1275770" lon="-75.6015710">
        <ele>1900.9</ele>
        <time>2019-08-25T23:07:56Z</time>
      </trkpt>
      <trkpt lat="6.1276280" lon="-75.6015960">
        <ele>1899.4</ele>
        <time>2019-08-25T23:07:58Z</time>
      </trkpt>
      <trkpt lat="6.1276630" lon="-75.6016100">
        <ele>1898.4</ele>
        <time>2019-08-25T23:07:59Z</time>
      </trkpt>
      <trkpt lat="6.1277080" lon="-75.6016190">
        <ele>1897.6</ele>
        <time>2019-08-25T23:08:00Z</time>
      </trkpt>
      <trkpt lat="6.1277590" lon="-75.6016260">
        <ele>1896.8</ele>
        <time>2019-08-25T23:08:01Z</time>
      </trkpt>
      <trkpt lat="6.1278130" lon="-75.6016280">
        <ele>1896.0</ele>
        <time>2019-08-25T23:08:02Z</time>
      </trkpt>
      <trkpt lat="6.1278710" lon="-75.6016230">
        <ele>1895.1</ele>
        <time>2019-08-25T23:08:03Z</time>
      </trkpt>
      <trkpt lat="6.1279320" lon="-75.6016120">
        <ele>1894.3</ele>
        <time>2019-08-25T23:08:04Z</time>
      </trkpt>
      <trkpt lat="6.1279910" lon="-75.6015860">
        <ele>1893.4</ele>
        <time>2019-08-25T23:08:05Z</time>
      </trkpt>
      <trkpt lat="6.1280520" lon="-75.6015440">
        <ele>1892.7</ele>
        <time>2019-08-25T23:08:06Z</time>
      </trkpt>
      <trkpt lat="6.1281180" lon="-75.6014850">
        <ele>1892.0</ele>
        <time>2019-08-25T23:08:07Z</time>
      </trkpt>
      <trkpt lat="6.1281780" lon="-75.6014150">
        <ele>1891.3</ele>
        <time>2019-08-25T23:08:08Z</time>
      </trkpt>
      <trkpt lat="6.1282290" lon="-75.6013450">
        <ele>1890.6</ele>
        <time>2019-08-25T23:08:09Z</time>
      </trkpt>
      <trkpt lat="6.1282720" lon="-75.6012770">
        <ele>1890.3</ele>
        <time>2019-08-25T23:08:10Z</time>
      </trkpt>
      <trkpt lat="6.1283040" lon="-75.6012120">
        <ele>1890.0</ele>
        <time>2019-08-25T23:08:11Z</time>
      </trkpt>
      <trkpt lat="6.1283440" lon="-75.6011130">
        <ele>1889.5</ele>
        <time>2019-08-25T23:08:12Z</time>
      </trkpt>
      <trkpt lat="6.1283850" lon="-75.6010280">
        <ele>1889.1</ele>
        <time>2019-08-25T23:08:13Z</time>
      </trkpt>
      <trkpt lat="6.1284860" lon="-75.6009720">
        <ele>1888.5</ele>
        <time>2019-08-25T23:08:14Z</time>
      </trkpt>
      <trkpt lat="6.1284340" lon="-75.6008800">
        <ele>1887.9</ele>
        <time>2019-08-25T23:08:15Z</time>
      </trkpt>
      <trkpt lat="6.1284310" lon="-75.6008120">
        <ele>1887.5</ele>
        <time>2019-08-25T23:08:16Z</time>
      </trkpt>
      <trkpt lat="6.1284360" lon="-75.6007270">
        <ele>1887.1</ele>
        <time>2019-08-25T23:08:17Z</time>
      </trkpt>
      <trkpt lat="6.1284410" lon="-75.6006810">
        <ele>1886.8</ele>
        <time>2019-08-25T23:08:18Z</time>
      </trkpt>
      <trkpt lat="6.1284160" lon="-75.6006430">
        <ele>1886.6</ele>
        <time>2019-08-25T23:08:19Z</time>
      </trkpt>
      <trkpt lat="6.1284090" lon="-75.6006100">
        <ele>1886.5</ele>
        <time>2019-08-25T23:08:20Z</time>
      </trkpt>
      <trkpt lat="6.1284400" lon="-75.6005880">
        <ele>1886.3</ele>
        <time>2019-08-25T23:08:21Z</time>
      </trkpt>
      <trkpt lat="6.1284680" lon="-75.6005750">
        <ele>1886.1</ele>
        <time>2019-08-25T23:08:22Z</time>
      </trkpt>
      <trkpt lat="6.1284960" lon="-75.6005810">
        <ele>1886.0</ele>
        <time>2019-08-25T23:08:23Z</time>
      </trkpt>
      <trkpt lat="6.1285230" lon="-75.6005930">
        <ele>1885.8</ele>
        <time>2019-08-25T23:08:24Z</time>
      </trkpt>
      <trkpt lat="6.1285510" lon="-75.6006200">
        <ele>1885.6</ele>
        <time>2019-08-25T23:08:25Z</time>
      </trkpt>
      <trkpt lat="6.1285740" lon="-75.6006450">
        <ele>1885.4</ele>
        <time>2019-08-25T23:08:26Z</time>
      </trkpt>
      <trkpt lat="6.1286000" lon="-75.6006730">
        <ele>1885.2</ele>
        <time>2019-08-25T23:08:27Z</time>
      </trkpt>
      <trkpt lat="6.1286270" lon="-75.6007030">
        <ele>1885.0</ele>
        <time>2019-08-25T23:08:28Z</time>
      </trkpt>
      <trkpt lat="6.1286470" lon="-75.6007300">
        <ele>1884.7</ele>
        <time>2019-08-25T23:08:29Z</time>
      </trkpt>
      <trkpt lat="6.1286640" lon="-75.6007560">
        <ele>1884.6</ele>
        <time>2019-08-25T23:08:30Z</time>
      </trkpt>
      <trkpt lat="6.1286740" lon="-75.6007850">
        <ele>1884.4</ele>
        <time>2019-08-25T23:08:31Z</time>
      </trkpt>
      <trkpt lat="6.1286880" lon="-75.6008210">
        <ele>1884.1</ele>
        <time>2019-08-25T23:08:32Z</time>
      </trkpt>
      <trkpt lat="6.1287050" lon="-75.6008570">
        <ele>1883.7</ele>
        <time>2019-08-25T23:08:33Z</time>
      </trkpt>
      <trkpt lat="6.1287250" lon="-75.6008920">
        <ele>1883.2</ele>
        <time>2019-08-25T23:08:34Z</time>
      </trkpt>
      <trkpt lat="6.1287510" lon="-75.6009250">
        <ele>1882.7</ele>
        <time>2019-08-25T23:08:35Z</time>
      </trkpt>
      <trkpt lat="6.1287810" lon="-75.6009540">
        <ele>1882.2</ele>
        <time>2019-08-25T23:08:36Z</time>
      </trkpt>
      <trkpt lat="6.1288150" lon="-75.6009770">
        <ele>1881.7</ele>
        <time>2019-08-25T23:08:37Z</time>
      </trkpt>
      <trkpt lat="6.1288530" lon="-75.6009950">
        <ele>1881.3</ele>
        <time>2019-08-25T23:08:38Z</time>
      </trkpt>
      <trkpt lat="6.1288930" lon="-75.6010100">
        <ele>1880.9</ele>
        <time>2019-08-25T23:08:39Z</time>
      </trkpt>
      <trkpt lat="6.1289310" lon="-75.6010350">
        <ele>1880.5</ele>
        <time>2019-08-25T23:08:40Z</time>
      </trkpt>
      <trkpt lat="6.1289580" lon="-75.6010500">
        <ele>1880.2</ele>
        <time>2019-08-25T23:08:41Z</time>
      </trkpt>
      <trkpt lat="6.1290010" lon="-75.6010770">
        <ele>1879.7</ele>
        <time>2019-08-25T23:08:43Z</time>
      </trkpt>
      <trkpt lat="6.1290370" lon="-75.6011030">
        <ele>1879.3</ele>
        <time>2019-08-25T23:08:45Z</time>
      </trkpt>
      <trkpt lat="6.1290740" lon="-75.6011250">
        <ele>1879.0</ele>
        <time>2019-08-25T23:08:47Z</time>
      </trkpt>
      <trkpt lat="6.1291080" lon="-75.6011350">
        <ele>1878.7</ele>
        <time>2019-08-25T23:08:49Z</time>
      </trkpt>
      <trkpt lat="6.1291530" lon="-75.6011430">
        <ele>1878.5</ele>
        <time>2019-08-25T23:08:51Z</time>
      </trkpt>
      <trkpt lat="6.1291810" lon="-75.6011490">
        <ele>1878.4</ele>
        <time>2019-08-25T23:08:52Z</time>
      </trkpt>
      <trkpt lat="6.1292330" lon="-75.6011610">
        <ele>1878.2</ele>
        <time>2019-08-25T23:08:54Z</time>
      </trkpt>
      <trkpt lat="6.1292860" lon="-75.6011680">
        <ele>1878.3</ele>
        <time>2019-08-25T23:08:56Z</time>
      </trkpt>
      <trkpt lat="6.1293160" lon="-75.6011730">
        <ele>1878.3</ele>
        <time>2019-08-25T23:08:57Z</time>
      </trkpt>
      <trkpt lat="6.1293490" lon="-75.6011780">
        <ele>1878.4</ele>
        <time>2019-08-25T23:08:58Z</time>
      </trkpt>
      <trkpt lat="6.1293800" lon="-75.6011960">
        <ele>1878.6</ele>
        <time>2019-08-25T23:08:59Z</time>
      </trkpt>
      <trkpt lat="6.1294090" lon="-75.6012270">
        <ele>1878.7</ele>
        <time>2019-08-25T23:09:00Z</time>
      </trkpt>
      <trkpt lat="6.1294310" lon="-75.6012640">
        <ele>1878.9</ele>
        <time>2019-08-25T23:09:01Z</time>
      </trkpt>
      <trkpt lat="6.1294430" lon="-75.6013010">
        <ele>1879.2</ele>
        <time>2019-08-25T23:09:02Z</time>
      </trkpt>
      <trkpt lat="6.1294470" lon="-75.6013350">
        <ele>1879.4</ele>
        <time>2019-08-25T23:09:03Z</time>
      </trkpt>
      <trkpt lat="6.1294480" lon="-75.6013700">
        <ele>1879.8</ele>
        <time>2019-08-25T23:09:04Z</time>
      </trkpt>
      <trkpt lat="6.1294530" lon="-75.6014050">
        <ele>1880.1</ele>
        <time>2019-08-25T23:09:05Z</time>
      </trkpt>
      <trkpt lat="6.1294560" lon="-75.6014360">
        <ele>1880.3</ele>
        <time>2019-08-25T23:09:06Z</time>
      </trkpt>
      <trkpt lat="6.1294690" lon="-75.6014670">
        <ele>1880.5</ele>
        <time>2019-08-25T23:09:08Z</time>
      </trkpt>
      <trkpt lat="6.1294960" lon="-75.6015090">
        <ele>1880.7</ele>
        <time>2019-08-25T23:09:10Z</time>
      </trkpt>
      <trkpt lat="6.1295170" lon="-75.6015410">
        <ele>1880.9</ele>
        <time>2019-08-25T23:09:11Z</time>
      </trkpt>
      <trkpt lat="6.1295330" lon="-75.6015690">
        <ele>1881.0</ele>
        <time>2019-08-25T23:09:12Z</time>
      </trkpt>
      <trkpt lat="6.1295490" lon="-75.6015930">
        <ele>1881.1</ele>
        <time>2019-08-25T23:09:14Z</time>
      </trkpt>
      <trkpt lat="6.1295660" lon="-75.6016170">
        <ele>1881.2</ele>
        <time>2019-08-25T23:09:16Z</time>
      </trkpt>
      <trkpt lat="6.1295900" lon="-75.6016410">
        <ele>1881.3</ele>
        <time>2019-08-25T23:09:18Z</time>
      </trkpt>
      <trkpt lat="6.1296130" lon="-75.6016600">
        <ele>1881.4</ele>
        <time>2019-08-25T23:09:20Z</time>
      </trkpt>
      <trkpt lat="6.1296420" lon="-75.6016750">
        <ele>1881.5</ele>
        <time>2019-08-25T23:09:22Z</time>
      </trkpt>
      <trkpt lat="6.1296750" lon="-75.6016870">
        <ele>1881.6</ele>
        <time>2019-08-25T23:09:24Z</time>
      </trkpt>
      <trkpt lat="6.1297090" lon="-75.6017010">
        <ele>1881.7</ele>
        <time>2019-08-25T23:09:26Z</time>
      </trkpt>
      <trkpt lat="6.1297430" lon="-75.6017130">
        <ele>1881.8</ele>
        <time>2019-08-25T23:09:28Z</time>
      </trkpt>
      <trkpt lat="6.1297770" lon="-75.6017200">
        <ele>1881.9</ele>
        <time>2019-08-25T23:09:32Z</time>
      </trkpt>
      <trkpt lat="6.1298050" lon="-75.6017330">
        <ele>1882.0</ele>
        <time>2019-08-25T23:09:34Z</time>
      </trkpt>
      <trkpt lat="6.1298350" lon="-75.6017470">
        <ele>1882.0</ele>
        <time>2019-08-25T23:09:36Z</time>
      </trkpt>
      <trkpt lat="6.1298690" lon="-75.6017580">
        <ele>1882.1</ele>
        <time>2019-08-25T23:09:38Z</time>
      </trkpt>
      <trkpt lat="6.1299060" lon="-75.6017580">
        <ele>1882.1</ele>
        <time>2019-08-25T23:09:40Z</time>
      </trkpt>
      <trkpt lat="6.1299430" lon="-75.6017440">
        <ele>1882.2</ele>
        <time>2019-08-25T23:09:42Z</time>
      </trkpt>
      <trkpt lat="6.1299770" lon="-75.6017290">
        <ele>1882.2</ele>
        <time>2019-08-25T23:09:44Z</time>
      </trkpt>
      <trkpt lat="6.1300070" lon="-75.6017360">
        <ele>1882.3</ele>
        <time>2019-08-25T23:09:46Z</time>
      </trkpt>
      <trkpt lat="6.1300340" lon="-75.6017410">
        <ele>1882.3</ele>
        <time>2019-08-25T23:09:48Z</time>
      </trkpt>
      <trkpt lat="6.1300650" lon="-75.6017390">
        <ele>1882.3</ele>
        <time>2019-08-25T23:09:50Z</time>
      </trkpt>
      <trkpt lat="6.1300990" lon="-75.6017440">
        <ele>1882.4</ele>
        <time>2019-08-25T23:09:52Z</time>
      </trkpt>
      <trkpt lat="6.1301550" lon="-75.6017450">
        <ele>1882.5</ele>
        <time>2019-08-25T23:09:54Z</time>
      </trkpt>
      <trkpt lat="6.1301880" lon="-75.6017460">
        <ele>1882.5</ele>
        <time>2019-08-25T23:09:55Z</time>
      </trkpt>
      <trkpt lat="6.1302260" lon="-75.6017500">
        <ele>1882.5</ele>
        <time>2019-08-25T23:09:56Z</time>
      </trkpt>
      <trkpt lat="6.1302720" lon="-75.6017550">
        <ele>1882.4</ele>
        <time>2019-08-25T23:09:58Z</time>
      </trkpt>
      <trkpt lat="6.1303030" lon="-75.6017610">
        <ele>1882.4</ele>
        <time>2019-08-25T23:10:00Z</time>
      </trkpt>
      <trkpt lat="6.1303370" lon="-75.6017780">
        <ele>1882.4</ele>
        <time>2019-08-25T23:10:02Z</time>
      </trkpt>
      <trkpt lat="6.1303730" lon="-75.6018060">
        <ele>1882.3</ele>
        <time>2019-08-25T23:10:04Z</time>
      </trkpt>
      <trkpt lat="6.1303990" lon="-75.6018290">
        <ele>1882.2</ele>
        <time>2019-08-25T23:10:06Z</time>
      </trkpt>
      <trkpt lat="6.1304280" lon="-75.6018460">
        <ele>1882.1</ele>
        <time>2019-08-25T23:10:08Z</time>
      </trkpt>
      <trkpt lat="6.1304540" lon="-75.6018640">
        <ele>1881.9</ele>
        <time>2019-08-25T23:10:10Z</time>
      </trkpt>
      <trkpt lat="6.1304770" lon="-75.6018790">
        <ele>1881.8</ele>
        <time>2019-08-25T23:10:12Z</time>
      </trkpt>
      <trkpt lat="6.1305020" lon="-75.6019060">
        <ele>1881.7</ele>
        <time>2019-08-25T23:10:14Z</time>
      </trkpt>
      <trkpt lat="6.1305220" lon="-75.6019240">
        <ele>1881.5</ele>
        <time>2019-08-25T23:10:16Z</time>
      </trkpt>
      <trkpt lat="6.1305470" lon="-75.6019680">
        <ele>1880.9</ele>
        <time>2019-08-25T23:10:18Z</time>
      </trkpt>
      <trkpt lat="6.1305590" lon="-75.6019950">
        <ele>1880.4</ele>
        <time>2019-08-25T23:10:19Z</time>
      </trkpt>
      <trkpt lat="6.1305760" lon="-75.6020300">
        <ele>1879.8</ele>
        <time>2019-08-25T23:10:20Z</time>
      </trkpt>
      <trkpt lat="6.1305990" lon="-75.6020730">
        <ele>1878.9</ele>
        <time>2019-08-25T23:10:21Z</time>
      </trkpt>
      <trkpt lat="6.1306240" lon="-75.6021150">
        <ele>1877.8</ele>
        <time>2019-08-25T23:10:22Z</time>
      </trkpt>
      <trkpt lat="6.1306510" lon="-75.6021550">
        <ele>1876.5</ele>
        <time>2019-08-25T23:10:23Z</time>
      </trkpt>
      <trkpt lat="6.1306770" lon="-75.6021920">
        <ele>1875.4</ele>
        <time>2019-08-25T23:10:24Z</time>
      </trkpt>
      <trkpt lat="6.1307050" lon="-75.6022150">
        <ele>1874.4</ele>
        <time>2019-08-25T23:10:25Z</time>
      </trkpt>
      <trkpt lat="6.1307390" lon="-75.6022190">
        <ele>1873.5</ele>
        <time>2019-08-25T23:10:26Z</time>
      </trkpt>
      <trkpt lat="6.1307740" lon="-75.6022050">
        <ele>1872.5</ele>
        <time>2019-08-25T23:10:27Z</time>
      </trkpt>
      <trkpt lat="6.1308040" lon="-75.6021760">
        <ele>1871.5</ele>
        <time>2019-08-25T23:10:28Z</time>
      </trkpt>
      <trkpt lat="6.1308350" lon="-75.6021370">
        <ele>1870.5</ele>
        <time>2019-08-25T23:10:29Z</time>
      </trkpt>
      <trkpt lat="6.1308650" lon="-75.6020930">
        <ele>1869.5</ele>
        <time>2019-08-25T23:10:30Z</time>
      </trkpt>
      <trkpt lat="6.1309000" lon="-75.6020430">
        <ele>1868.2</ele>
        <time>2019-08-25T23:10:31Z</time>
      </trkpt>
      <trkpt lat="6.1309290" lon="-75.6019950">
        <ele>1866.9</ele>
        <time>2019-08-25T23:10:32Z</time>
      </trkpt>
      <trkpt lat="6.1309590" lon="-75.6019540">
        <ele>1866.0</ele>
        <time>2019-08-25T23:10:33Z</time>
      </trkpt>
      <trkpt lat="6.1309920" lon="-75.6019150">
        <ele>1865.1</ele>
        <time>2019-08-25T23:10:34Z</time>
      </trkpt>
      <trkpt lat="6.1310310" lon="-75.6018770">
        <ele>1864.2</ele>
        <time>2019-08-25T23:10:35Z</time>
      </trkpt>
      <trkpt lat="6.1310710" lon="-75.6018350">
        <ele>1863.0</ele>
        <time>2019-08-25T23:10:36Z</time>
      </trkpt>
      <trkpt lat="6.1311060" lon="-75.6017930">
        <ele>1861.9</ele>
        <time>2019-08-25T23:10:37Z</time>
      </trkpt>
      <trkpt lat="6.1311410" lon="-75.6017470">
        <ele>1860.7</ele>
        <time>2019-08-25T23:10:38Z</time>
      </trkpt>
      <trkpt lat="6.1311740" lon="-75.6016960">
        <ele>1859.5</ele>
        <time>2019-08-25T23:10:39Z</time>
      </trkpt>
      <trkpt lat="6.1312050" lon="-75.6016410">
        <ele>1858.3</ele>
        <time>2019-08-25T23:10:40Z</time>
      </trkpt>
      <trkpt lat="6.1312350" lon="-75.6015800">
        <ele>1857.1</ele>
        <time>2019-08-25T23:10:41Z</time>
      </trkpt>
      <trkpt lat="6.1312590" lon="-75.6015170">
        <ele>1855.9</ele>
        <time>2019-08-25T23:10:42Z</time>
      </trkpt>
      <trkpt lat="6.1312820" lon="-75.6014590">
        <ele>1854.9</ele>
        <time>2019-08-25T23:10:43Z</time>
      </trkpt>
      <trkpt lat="6.1313070" lon="-75.6014060">
        <ele>1854.0</ele>
        <time>2019-08-25T23:10:44Z</time>
      </trkpt>
      <trkpt lat="6.1313390" lon="-75.6013620">
        <ele>1853.2</ele>
        <time>2019-08-25T23:10:45Z</time>
      </trkpt>
      <trkpt lat="6.1313720" lon="-75.6013250">
        <ele>1852.7</ele>
        <time>2019-08-25T23:10:46Z</time>
      </trkpt>
      <trkpt lat="6.1314020" lon="-75.6012960">
        <ele>1852.3</ele>
        <time>2019-08-25T23:10:47Z</time>
      </trkpt>
      <trkpt lat="6.1314290" lon="-75.6012660">
        <ele>1851.8</ele>
        <time>2019-08-25T23:10:48Z</time>
      </trkpt>
      <trkpt lat="6.1314590" lon="-75.6012260">
        <ele>1851.1</ele>
        <time>2019-08-25T23:10:49Z</time>
      </trkpt>
      <trkpt lat="6.1314830" lon="-75.6011760">
        <ele>1850.2</ele>
        <time>2019-08-25T23:10:50Z</time>
      </trkpt>
      <trkpt lat="6.1315030" lon="-75.6011260">
        <ele>1849.5</ele>
        <time>2019-08-25T23:10:51Z</time>
      </trkpt>
      <trkpt lat="6.1315240" lon="-75.6010760">
        <ele>1848.8</ele>
        <time>2019-08-25T23:10:52Z</time>
      </trkpt>
      <trkpt lat="6.1315470" lon="-75.6010290">
        <ele>1848.2</ele>
        <time>2019-08-25T23:10:53Z</time>
      </trkpt>
      <trkpt lat="6.1315730" lon="-75.6009800">
        <ele>1847.6</ele>
        <time>2019-08-25T23:10:54Z</time>
      </trkpt>
      <trkpt lat="6.1315950" lon="-75.6009350">
        <ele>1847.0</ele>
        <time>2019-08-25T23:10:55Z</time>
      </trkpt>
      <trkpt lat="6.1316110" lon="-75.6008940">
        <ele>1846.5</ele>
        <time>2019-08-25T23:10:56Z</time>
      </trkpt>
      <trkpt lat="6.1316240" lon="-75.6008530">
        <ele>1845.9</ele>
        <time>2019-08-25T23:10:57Z</time>
      </trkpt>
      <trkpt lat="6.1316310" lon="-75.6008050">
        <ele>1844.9</ele>
        <time>2019-08-25T23:10:58Z</time>
      </trkpt>
      <trkpt lat="6.1316310" lon="-75.6007490">
        <ele>1843.9</ele>
        <time>2019-08-25T23:10:59Z</time>
      </trkpt>
      <trkpt lat="6.1316330" lon="-75.6006880">
        <ele>1842.7</ele>
        <time>2019-08-25T23:11:00Z</time>
      </trkpt>
      <trkpt lat="6.1316360" lon="-75.6006290">
        <ele>1841.1</ele>
        <time>2019-08-25T23:11:01Z</time>
      </trkpt>
      <trkpt lat="6.1316400" lon="-75.6005810">
        <ele>1839.8</ele>
        <time>2019-08-25T23:11:02Z</time>
      </trkpt>
      <trkpt lat="6.1316460" lon="-75.6005450">
        <ele>1838.8</ele>
        <time>2019-08-25T23:11:03Z</time>
      </trkpt>
      <trkpt lat="6.1316520" lon="-75.6005150">
        <ele>1837.9</ele>
        <time>2019-08-25T23:11:04Z</time>
      </trkpt>
      <trkpt lat="6.1316530" lon="-75.6004840">
        <ele>1837.1</ele>
        <time>2019-08-25T23:11:05Z</time>
      </trkpt>
      <trkpt lat="6.1316770" lon="-75.6005450">
        <ele>1835.4</ele>
        <time>2019-08-25T23:11:09Z</time>
      </trkpt>
      <trkpt lat="6.1316770" lon="-75.6005690">
        <ele>1834.8</ele>
        <time>2019-08-25T23:11:10Z</time>
      </trkpt>
      <trkpt lat="6.1316780" lon="-75.6006150">
        <ele>1833.7</ele>
        <time>2019-08-25T23:11:11Z</time>
      </trkpt>
      <trkpt lat="6.1316840" lon="-75.6006650">
        <ele>1832.5</ele>
        <time>2019-08-25T23:11:12Z</time>
      </trkpt>
      <trkpt lat="6.1316930" lon="-75.6007180">
        <ele>1831.6</ele>
        <time>2019-08-25T23:11:13Z</time>
      </trkpt>
      <trkpt lat="6.1317080" lon="-75.6007790">
        <ele>1830.5</ele>
        <time>2019-08-25T23:11:14Z</time>
      </trkpt>
      <trkpt lat="6.1317210" lon="-75.6008540">
        <ele>1828.7</ele>
        <time>2019-08-25T23:11:15Z</time>
      </trkpt>
      <trkpt lat="6.1317360" lon="-75.6009450">
        <ele>1827.3</ele>
        <time>2019-08-25T23:11:16Z</time>
      </trkpt>
      <trkpt lat="6.1317270" lon="-75.6010290">
        <ele>1825.7</ele>
        <time>2019-08-25T23:11:17Z</time>
      </trkpt>
      <trkpt lat="6.1317180" lon="-75.6011170">
        <ele>1823.7</ele>
        <time>2019-08-25T23:11:18Z</time>
      </trkpt>
      <trkpt lat="6.1317120" lon="-75.6012140">
        <ele>1822.2</ele>
        <time>2019-08-25T23:11:19Z</time>
      </trkpt>
      <trkpt lat="6.1317150" lon="-75.6013120">
        <ele>1821.0</ele>
        <time>2019-08-25T23:11:20Z</time>
      </trkpt>
      <trkpt lat="6.1317660" lon="-75.6014720">
        <ele>1819.3</ele>
        <time>2019-08-25T23:11:21Z</time>
      </trkpt>
      <trkpt lat="6.1317620" lon="-75.6015620">
        <ele>1818.6</ele>
        <time>2019-08-25T23:11:22Z</time>
      </trkpt>
      <trkpt lat="6.1317620" lon="-75.6016030">
        <ele>1818.3</ele>
        <time>2019-08-25T23:11:23Z</time>
      </trkpt>
      <trkpt lat="6.1317970" lon="-75.6016850">
        <ele>1817.4</ele>
        <time>2019-08-25T23:11:24Z</time>
      </trkpt>
      <trkpt lat="6.1316680" lon="-75.6017210">
        <ele>1816.0</ele>
        <time>2019-08-25T23:11:25Z</time>
      </trkpt>
      <trkpt lat="6.1318230" lon="-75.6017740">
        <ele>1814.4</ele>
        <time>2019-08-25T23:11:26Z</time>
      </trkpt>
      <trkpt lat="6.1318850" lon="-75.6018250">
        <ele>1813.6</ele>
        <time>2019-08-25T23:11:27Z</time>
      </trkpt>
      <trkpt lat="6.1319330" lon="-75.6018630">
        <ele>1813.2</ele>
        <time>2019-08-25T23:11:28Z</time>
      </trkpt>
      <trkpt lat="6.1319340" lon="-75.6019160">
        <ele>1812.8</ele>
        <time>2019-08-25T23:11:29Z</time>
      </trkpt>
      <trkpt lat="6.1318820" lon="-75.6019380">
        <ele>1812.5</ele>
        <time>2019-08-25T23:11:30Z</time>
      </trkpt>
      <trkpt lat="6.1318760" lon="-75.6019820">
        <ele>1812.3</ele>
        <time>2019-08-25T23:11:31Z</time>
      </trkpt>
      <trkpt lat="6.1318180" lon="-75.6019850">
        <ele>1812.1</ele>
        <time>2019-08-25T23:11:32Z</time>
      </trkpt>
      <trkpt lat="6.1318460" lon="-75.6020050">
        <ele>1812.0</ele>
        <time>2019-08-25T23:11:33Z</time>
      </trkpt>
      <trkpt lat="6.1319760" lon="-75.6020190">
        <ele>1811.4</ele>
        <time>2019-08-25T23:11:34Z</time>
      </trkpt>
      <trkpt lat="6.1320790" lon="-75.6021040">
        <ele>1811.0</ele>
        <time>2019-08-25T23:11:35Z</time>
      </trkpt>
      <trkpt lat="6.1321480" lon="-75.6021680">
        <ele>1810.9</ele>
        <time>2019-08-25T23:11:36Z</time>
      </trkpt>
      <trkpt lat="6.1321930" lon="-75.6022200">
        <ele>1810.8</ele>
        <time>2019-08-25T23:11:37Z</time>
      </trkpt>
      <trkpt lat="6.1322730" lon="-75.6022330">
        <ele>1810.7</ele>
        <time>2019-08-25T23:11:39Z</time>
      </trkpt>
      <trkpt lat="6.1323390" lon="-75.6022500">
        <ele>1810.5</ele>
        <time>2019-08-25T23:11:40Z</time>
      </trkpt>
      <trkpt lat="6.1324130" lon="-75.6022750">
        <ele>1810.4</ele>
        <time>2019-08-25T23:11:41Z</time>
      </trkpt>
      <trkpt lat="6.1324640" lon="-75.6023280">
        <ele>1810.1</ele>
        <time>2019-08-25T23:11:42Z</time>
      </trkpt>
      <trkpt lat="6.1325390" lon="-75.6023640">
        <ele>1809.8</ele>
        <time>2019-08-25T23:11:43Z</time>
      </trkpt>
      <trkpt lat="6.1326140" lon="-75.6024180">
        <ele>1809.5</ele>
        <time>2019-08-25T23:11:45Z</time>
      </trkpt>
      <trkpt lat="6.1326670" lon="-75.6024430">
        <ele>1809.3</ele>
        <time>2019-08-25T23:11:46Z</time>
      </trkpt>
      <trkpt lat="6.1327060" lon="-75.6025050">
        <ele>1809.0</ele>
        <time>2019-08-25T23:11:47Z</time>
      </trkpt>
      <trkpt lat="6.1327770" lon="-75.6025650">
        <ele>1808.6</ele>
        <time>2019-08-25T23:11:48Z</time>
      </trkpt>
      <trkpt lat="6.1327740" lon="-75.6026090">
        <ele>1808.4</ele>
        <time>2019-08-25T23:11:50Z</time>
      </trkpt>
      <trkpt lat="6.1327950" lon="-75.6026410">
        <ele>1808.2</ele>
        <time>2019-08-25T23:11:51Z</time>
      </trkpt>
      <trkpt lat="6.1328380" lon="-75.6026820">
        <ele>1808.0</ele>
        <time>2019-08-25T23:11:52Z</time>
      </trkpt>
      <trkpt lat="6.1328900" lon="-75.6027080">
        <ele>1807.9</ele>
        <time>2019-08-25T23:11:53Z</time>
      </trkpt>
      <trkpt lat="6.1329410" lon="-75.6027390">
        <ele>1807.7</ele>
        <time>2019-08-25T23:11:54Z</time>
      </trkpt>
      <trkpt lat="6.1330100" lon="-75.6027580">
        <ele>1807.7</ele>
        <time>2019-08-25T23:11:55Z</time>
      </trkpt>
      <trkpt lat="6.1330800" lon="-75.6027720">
        <ele>1807.7</ele>
        <time>2019-08-25T23:11:56Z</time>
      </trkpt>
      <trkpt lat="6.1331460" lon="-75.6028150">
        <ele>1807.6</ele>
        <time>2019-08-25T23:11:57Z</time>
      </trkpt>
      <trkpt lat="6.1331450" lon="-75.6028570">
        <ele>1807.7</ele>
        <time>2019-08-25T23:11:58Z</time>
      </trkpt>
      <trkpt lat="6.1331750" lon="-75.6028590">
        <ele>1807.7</ele>
        <time>2019-08-25T23:11:59Z</time>
      </trkpt>
      <trkpt lat="6.1331930" lon="-75.6028820">
        <ele>1807.8</ele>
        <time>2019-08-25T23:12:00Z</time>
      </trkpt>
      <trkpt lat="6.1332270" lon="-75.6029010">
        <ele>1807.8</ele>
        <time>2019-08-25T23:12:01Z</time>
      </trkpt>
      <trkpt lat="6.1332490" lon="-75.6029330">
        <ele>1807.9</ele>
        <time>2019-08-25T23:12:02Z</time>
      </trkpt>
      <trkpt lat="6.1332890" lon="-75.6029620">
        <ele>1808.0</ele>
        <time>2019-08-25T23:12:03Z</time>
      </trkpt>
      <trkpt lat="6.1333160" lon="-75.6029820">
        <ele>1808.1</ele>
        <time>2019-08-25T23:12:04Z</time>
      </trkpt>
      <trkpt lat="6.1333390" lon="-75.6030090">
        <ele>1808.2</ele>
        <time>2019-08-25T23:12:05Z</time>
      </trkpt>
      <trkpt lat="6.1333680" lon="-75.6030390">
        <ele>1808.2</ele>
        <time>2019-08-25T23:12:06Z</time>
      </trkpt>
      <trkpt lat="6.1333760" lon="-75.6030870">
        <ele>1808.3</ele>
        <time>2019-08-25T23:12:07Z</time>
      </trkpt>
      <trkpt lat="6.1333770" lon="-75.6031420">
        <ele>1808.6</ele>
        <time>2019-08-25T23:12:08Z</time>
      </trkpt>
      <trkpt lat="6.1333880" lon="-75.6031790">
        <ele>1808.8</ele>
        <time>2019-08-25T23:12:10Z</time>
      </trkpt>
      <trkpt lat="6.1333750" lon="-75.6032170">
        <ele>1809.1</ele>
        <time>2019-08-25T23:12:11Z</time>
      </trkpt>
      <trkpt lat="6.1333680" lon="-75.6032590">
        <ele>1809.4</ele>
        <time>2019-08-25T23:12:12Z</time>
      </trkpt>
      <trkpt lat="6.1333610" lon="-75.6032990">
        <ele>1809.6</ele>
        <time>2019-08-25T23:12:13Z</time>
      </trkpt>
      <trkpt lat="6.1333450" lon="-75.6033380">
        <ele>1809.7</ele>
        <time>2019-08-25T23:12:14Z</time>
      </trkpt>
      <trkpt lat="6.1333300" lon="-75.6033760">
        <ele>1809.9</ele>
        <time>2019-08-25T23:12:15Z</time>
      </trkpt>
      <trkpt lat="6.1333190" lon="-75.6034080">
        <ele>1810.0</ele>
        <time>2019-08-25T23:12:16Z</time>
      </trkpt>
      <trkpt lat="6.1333100" lon="-75.6034390">
        <ele>1810.0</ele>
        <time>2019-08-25T23:12:17Z</time>
      </trkpt>
      <trkpt lat="6.1333020" lon="-75.6034710">
        <ele>1810.0</ele>
        <time>2019-08-25T23:12:18Z</time>
      </trkpt>
      <trkpt lat="6.1332950" lon="-75.6035010">
        <ele>1810.0</ele>
        <time>2019-08-25T23:12:19Z</time>
      </trkpt>
      <trkpt lat="6.1332860" lon="-75.6035310">
        <ele>1810.0</ele>
        <time>2019-08-25T23:12:20Z</time>
      </trkpt>
      <trkpt lat="6.1332800" lon="-75.6035620">
        <ele>1809.9</ele>
        <time>2019-08-25T23:12:21Z</time>
      </trkpt>
      <trkpt lat="6.1332780" lon="-75.6035940">
        <ele>1809.9</ele>
        <time>2019-08-25T23:12:22Z</time>
      </trkpt>
      <trkpt lat="6.1332780" lon="-75.6036270">
        <ele>1809.8</ele>
        <time>2019-08-25T23:12:23Z</time>
      </trkpt>
      <trkpt lat="6.1332780" lon="-75.6036580">
        <ele>1809.7</ele>
        <time>2019-08-25T23:12:24Z</time>
      </trkpt>
      <trkpt lat="6.1332800" lon="-75.6036910">
        <ele>1809.6</ele>
        <time>2019-08-25T23:12:25Z</time>
      </trkpt>
      <trkpt lat="6.1332720" lon="-75.6037290">
        <ele>1809.4</ele>
        <time>2019-08-25T23:12:26Z</time>
      </trkpt>
      <trkpt lat="6.1332670" lon="-75.6037670">
        <ele>1809.3</ele>
        <time>2019-08-25T23:12:27Z</time>
      </trkpt>
      <trkpt lat="6.1332840" lon="-75.6038210">
        <ele>1809.0</ele>
        <time>2019-08-25T23:12:28Z</time>
      </trkpt>
      <trkpt lat="6.1333040" lon="-75.6038790">
        <ele>1808.6</ele>
        <time>2019-08-25T23:12:29Z</time>
      </trkpt>
      <trkpt lat="6.1333560" lon="-75.6039270">
        <ele>1807.9</ele>
        <time>2019-08-25T23:12:30Z</time>
      </trkpt>
      <trkpt lat="6.1334140" lon="-75.6039830">
        <ele>1807.1</ele>
        <time>2019-08-25T23:12:31Z</time>
      </trkpt>
      <trkpt lat="6.1334660" lon="-75.6040390">
        <ele>1806.4</ele>
        <time>2019-08-25T23:12:32Z</time>
      </trkpt>
      <trkpt lat="6.1335060" lon="-75.6040990">
        <ele>1805.7</ele>
        <time>2019-08-25T23:12:33Z</time>
      </trkpt>
      <trkpt lat="6.1335380" lon="-75.6041550">
        <ele>1804.9</ele>
        <time>2019-08-25T23:12:34Z</time>
      </trkpt>
      <trkpt lat="6.1336050" lon="-75.6042140">
        <ele>1803.6</ele>
        <time>2019-08-25T23:12:35Z</time>
      </trkpt>
      <trkpt lat="6.1336250" lon="-75.6042600">
        <ele>1802.9</ele>
        <time>2019-08-25T23:12:36Z</time>
      </trkpt>
      <trkpt lat="6.1336560" lon="-75.6043230">
        <ele>1802.0</ele>
        <time>2019-08-25T23:12:37Z</time>
      </trkpt>
      <trkpt lat="6.1336830" lon="-75.6043630">
        <ele>1801.4</ele>
        <time>2019-08-25T23:12:38Z</time>
      </trkpt>
      <trkpt lat="6.1337270" lon="-75.6043880">
        <ele>1800.8</ele>
        <time>2019-08-25T23:12:40Z</time>
      </trkpt>
      <trkpt lat="6.1337820" lon="-75.6044050">
        <ele>1799.9</ele>
        <time>2019-08-25T23:12:41Z</time>
      </trkpt>
      <trkpt lat="6.1338430" lon="-75.6044110">
        <ele>1799.2</ele>
        <time>2019-08-25T23:12:42Z</time>
      </trkpt>
      <trkpt lat="6.1339240" lon="-75.6044000">
        <ele>1798.5</ele>
        <time>2019-08-25T23:12:43Z</time>
      </trkpt>
      <trkpt lat="6.1339690" lon="-75.6043820">
        <ele>1798.1</ele>
        <time>2019-08-25T23:12:44Z</time>
      </trkpt>
      <trkpt lat="6.1340230" lon="-75.6043630">
        <ele>1797.6</ele>
        <time>2019-08-25T23:12:45Z</time>
      </trkpt>
      <trkpt lat="6.1340920" lon="-75.6043770">
        <ele>1796.9</ele>
        <time>2019-08-25T23:12:46Z</time>
      </trkpt>
      <trkpt lat="6.1341460" lon="-75.6043610">
        <ele>1796.3</ele>
        <time>2019-08-25T23:12:47Z</time>
      </trkpt>
      <trkpt lat="6.1342030" lon="-75.6043650">
        <ele>1795.9</ele>
        <time>2019-08-25T23:12:48Z</time>
      </trkpt>
      <trkpt lat="6.1342700" lon="-75.6044290">
        <ele>1795.3</ele>
        <time>2019-08-25T23:12:49Z</time>
      </trkpt>
      <trkpt lat="6.1343470" lon="-75.6044650">
        <ele>1794.7</ele>
        <time>2019-08-25T23:12:50Z</time>
      </trkpt>
      <trkpt lat="6.1343810" lon="-75.6044920">
        <ele>1794.4</ele>
        <time>2019-08-25T23:12:51Z</time>
      </trkpt>
      <trkpt lat="6.1344130" lon="-75.6045300">
        <ele>1794.1</ele>
        <time>2019-08-25T23:12:52Z</time>
      </trkpt>
      <trkpt lat="6.1344420" lon="-75.6045740">
        <ele>1794.0</ele>
        <time>2019-08-25T23:12:53Z</time>
      </trkpt>
      <trkpt lat="6.1344840" lon="-75.6046050">
        <ele>1793.9</ele>
        <time>2019-08-25T23:12:54Z</time>
      </trkpt>
      <trkpt lat="6.1345280" lon="-75.6046280">
        <ele>1793.7</ele>
        <time>2019-08-25T23:12:55Z</time>
      </trkpt>
      <trkpt lat="6.1345780" lon="-75.6046530">
        <ele>1793.6</ele>
        <time>2019-08-25T23:12:56Z</time>
      </trkpt>
      <trkpt lat="6.1346270" lon="-75.6046770">
        <ele>1793.4</ele>
        <time>2019-08-25T23:12:57Z</time>
      </trkpt>
      <trkpt lat="6.1346730" lon="-75.6046990">
        <ele>1793.3</ele>
        <time>2019-08-25T23:12:58Z</time>
      </trkpt>
      <trkpt lat="6.1347210" lon="-75.6047240">
        <ele>1793.2</ele>
        <time>2019-08-25T23:12:59Z</time>
      </trkpt>
      <trkpt lat="6.1347690" lon="-75.6047500">
        <ele>1793.1</ele>
        <time>2019-08-25T23:13:00Z</time>
      </trkpt>
      <trkpt lat="6.1348150" lon="-75.6047770">
        <ele>1793.0</ele>
        <time>2019-08-25T23:13:01Z</time>
      </trkpt>
      <trkpt lat="6.1348630" lon="-75.6048030">
        <ele>1793.0</ele>
        <time>2019-08-25T23:13:02Z</time>
      </trkpt>
      <trkpt lat="6.1349110" lon="-75.6048300">
        <ele>1792.9</ele>
        <time>2019-08-25T23:13:03Z</time>
      </trkpt>
      <trkpt lat="6.1349600" lon="-75.6048570">
        <ele>1792.8</ele>
        <time>2019-08-25T23:13:04Z</time>
      </trkpt>
      <trkpt lat="6.1350170" lon="-75.6048890">
        <ele>1792.8</ele>
        <time>2019-08-25T23:13:05Z</time>
      </trkpt>
      <trkpt lat="6.1350700" lon="-75.6049110">
        <ele>1792.8</ele>
        <time>2019-08-25T23:13:06Z</time>
      </trkpt>
      <trkpt lat="6.1351200" lon="-75.6049340">
        <ele>1792.7</ele>
        <time>2019-08-25T23:13:07Z</time>
      </trkpt>
      <trkpt lat="6.1351680" lon="-75.6049530">
        <ele>1792.7</ele>
        <time>2019-08-25T23:13:08Z</time>
      </trkpt>
      <trkpt lat="6.1352080" lon="-75.6049770">
        <ele>1792.6</ele>
        <time>2019-08-25T23:13:09Z</time>
      </trkpt>
      <trkpt lat="6.1352540" lon="-75.6049950">
        <ele>1792.5</ele>
        <time>2019-08-25T23:13:11Z</time>
      </trkpt>
      <trkpt lat="6.1352850" lon="-75.6050020">
        <ele>1792.5</ele>
        <time>2019-08-25T23:13:12Z</time>
      </trkpt>
      <trkpt lat="6.1353180" lon="-75.6050200">
        <ele>1792.4</ele>
        <time>2019-08-25T23:13:13Z</time>
      </trkpt>
      <trkpt lat="6.1353530" lon="-75.6050290">
        <ele>1792.3</ele>
        <time>2019-08-25T23:13:14Z</time>
      </trkpt>
      <trkpt lat="6.1354010" lon="-75.6050550">
        <ele>1792.1</ele>
        <time>2019-08-25T23:13:15Z</time>
      </trkpt>
      <trkpt lat="6.1354370" lon="-75.6050560">
        <ele>1791.9</ele>
        <time>2019-08-25T23:13:16Z</time>
      </trkpt>
      <trkpt lat="6.1354790" lon="-75.6049900">
        <ele>1791.5</ele>
        <time>2019-08-25T23:13:17Z</time>
      </trkpt>
      <trkpt lat="6.1355190" lon="-75.6049460">
        <ele>1790.8</ele>
        <time>2019-08-25T23:13:18Z</time>
      </trkpt>
      <trkpt lat="6.1355630" lon="-75.6048920">
        <ele>1790.0</ele>
        <time>2019-08-25T23:13:19Z</time>
      </trkpt>
      <trkpt lat="6.1355870" lon="-75.6048280">
        <ele>1789.0</ele>
        <time>2019-08-25T23:13:20Z</time>
      </trkpt>
      <trkpt lat="6.1356080" lon="-75.6047700">
        <ele>1787.9</ele>
        <time>2019-08-25T23:13:21Z</time>
      </trkpt>
      <trkpt lat="6.1356310" lon="-75.6047320">
        <ele>1787.3</ele>
        <time>2019-08-25T23:13:22Z</time>
      </trkpt>
      <trkpt lat="6.1356570" lon="-75.6046780">
        <ele>1786.4</ele>
        <time>2019-08-25T23:13:23Z</time>
      </trkpt>
      <trkpt lat="6.1356720" lon="-75.6046090">
        <ele>1785.4</ele>
        <time>2019-08-25T23:13:24Z</time>
      </trkpt>
      <trkpt lat="6.1357200" lon="-75.6045570">
        <ele>1784.5</ele>
        <time>2019-08-25T23:13:25Z</time>
      </trkpt>
      <trkpt lat="6.1357540" lon="-75.6045000">
        <ele>1783.6</ele>
        <time>2019-08-25T23:13:26Z</time>
      </trkpt>
      <trkpt lat="6.1358100" lon="-75.6044640">
        <ele>1782.7</ele>
        <time>2019-08-25T23:13:27Z</time>
      </trkpt>
      <trkpt lat="6.1358350" lon="-75.6044280">
        <ele>1782.3</ele>
        <time>2019-08-25T23:13:28Z</time>
      </trkpt>
      <trkpt lat="6.1358730" lon="-75.6043900">
        <ele>1781.8</ele>
        <time>2019-08-25T23:13:30Z</time>
      </trkpt>
      <trkpt lat="6.1359530" lon="-75.6044110">
        <ele>1781.7</ele>
        <time>2019-08-25T23:13:31Z</time>
      </trkpt>
      <trkpt lat="6.1359940" lon="-75.6044390">
        <ele>1781.9</ele>
        <time>2019-08-25T23:13:32Z</time>
      </trkpt>
      <trkpt lat="6.1360180" lon="-75.6044600">
        <ele>1782.1</ele>
        <time>2019-08-25T23:13:33Z</time>
      </trkpt>
      <trkpt lat="6.1360640" lon="-75.6044770">
        <ele>1782.4</ele>
        <time>2019-08-25T23:13:34Z</time>
      </trkpt>
      <trkpt lat="6.1360880" lon="-75.6044910">
        <ele>1782.7</ele>
        <time>2019-08-25T23:13:35Z</time>
      </trkpt>
      <trkpt lat="6.1361380" lon="-75.6045190">
        <ele>1783.5</ele>
        <time>2019-08-25T23:13:37Z</time>
      </trkpt>
      <trkpt lat="6.1361670" lon="-75.6045380">
        <ele>1784.0</ele>
        <time>2019-08-25T23:13:39Z</time>
      </trkpt>
      <trkpt lat="6.1361950" lon="-75.6045540">
        <ele>1784.4</ele>
        <time>2019-08-25T23:13:42Z</time>
      </trkpt>
      <trkpt lat="6.1362190" lon="-75.6045690">
        <ele>1784.8</ele>
        <time>2019-08-25T23:13:44Z</time>
      </trkpt>
      <trkpt lat="6.1362450" lon="-75.6045780">
        <ele>1785.1</ele>
        <time>2019-08-25T23:13:46Z</time>
      </trkpt>
      <trkpt lat="6.1362700" lon="-75.6045900">
        <ele>1785.5</ele>
        <time>2019-08-25T23:13:48Z</time>
      </trkpt>
      <trkpt lat="6.1363050" lon="-75.6046020">
        <ele>1786.1</ele>
        <time>2019-08-25T23:13:51Z</time>
      </trkpt>
      <trkpt lat="6.1363390" lon="-75.6046160">
        <ele>1786.6</ele>
        <time>2019-08-25T23:13:53Z</time>
      </trkpt>
      <trkpt lat="6.1363720" lon="-75.6046300">
        <ele>1786.9</ele>
        <time>2019-08-25T23:13:55Z</time>
      </trkpt>
      <trkpt lat="6.1364040" lon="-75.6046490">
        <ele>1787.2</ele>
        <time>2019-08-25T23:13:57Z</time>
      </trkpt>
      <trkpt lat="6.1364290" lon="-75.6046810">
        <ele>1787.5</ele>
        <time>2019-08-25T23:13:59Z</time>
      </trkpt>
      <trkpt lat="6.1364410" lon="-75.6047050">
        <ele>1787.8</ele>
        <time>2019-08-25T23:14:00Z</time>
      </trkpt>
      <trkpt lat="6.1364650" lon="-75.6047490">
        <ele>1788.2</ele>
        <time>2019-08-25T23:14:02Z</time>
      </trkpt>
      <trkpt lat="6.1364870" lon="-75.6047890">
        <ele>1788.7</ele>
        <time>2019-08-25T23:14:04Z</time>
      </trkpt>
      <trkpt lat="6.1365080" lon="-75.6048220">
        <ele>1789.0</ele>
        <time>2019-08-25T23:14:06Z</time>
      </trkpt>
      <trkpt lat="6.1365250" lon="-75.6048510">
        <ele>1789.2</ele>
        <time>2019-08-25T23:14:08Z</time>
      </trkpt>
      <trkpt lat="6.1365490" lon="-75.6048810">
        <ele>1789.5</ele>
        <time>2019-08-25T23:14:10Z</time>
      </trkpt>
      <trkpt lat="6.1365680" lon="-75.6049140">
        <ele>1789.8</ele>
        <time>2019-08-25T23:14:12Z</time>
      </trkpt>
      <trkpt lat="6.1365880" lon="-75.6049460">
        <ele>1790.3</ele>
        <time>2019-08-25T23:14:14Z</time>
      </trkpt>
      <trkpt lat="6.1366060" lon="-75.6049780">
        <ele>1790.7</ele>
        <time>2019-08-25T23:14:16Z</time>
      </trkpt>
      <trkpt lat="6.1366250" lon="-75.6050070">
        <ele>1791.1</ele>
        <time>2019-08-25T23:14:18Z</time>
      </trkpt>
      <trkpt lat="6.1366420" lon="-75.6050370">
        <ele>1791.6</ele>
        <time>2019-08-25T23:14:20Z</time>
      </trkpt>
      <trkpt lat="6.1366600" lon="-75.6050690">
        <ele>1792.1</ele>
        <time>2019-08-25T23:14:22Z</time>
      </trkpt>
      <trkpt lat="6.1366720" lon="-75.6051080">
        <ele>1792.7</ele>
        <time>2019-08-25T23:14:24Z</time>
      </trkpt>
      <trkpt lat="6.1366760" lon="-75.6051440">
        <ele>1793.2</ele>
        <time>2019-08-25T23:14:26Z</time>
      </trkpt>
      <trkpt lat="6.1366890" lon="-75.6051760">
        <ele>1793.6</ele>
        <time>2019-08-25T23:14:28Z</time>
      </trkpt>
      <trkpt lat="6.1367160" lon="-75.6051710">
        <ele>1794.1</ele>
        <time>2019-08-25T23:14:36Z</time>
      </trkpt>
      <trkpt lat="6.1367500" lon="-75.6051460">
        <ele>1796.1</ele>
        <time>2019-08-25T23:14:39Z</time>
      </trkpt>
      <trkpt lat="6.1367820" lon="-75.6051440">
        <ele>1796.7</ele>
        <time>2019-08-25T23:14:49Z</time>
      </trkpt>
      <trkpt lat="6.1367310" lon="-75.6051280">
        <ele>1797.6</ele>
        <time>2019-08-25T23:15:14Z</time>
      </trkpt>
      <trkpt lat="6.1367400" lon="-75.6050810">
        <ele>1798.4</ele>
        <time>2019-08-25T23:15:16Z</time>
      </trkpt>
      <trkpt lat="6.1367450" lon="-75.6050530">
        <ele>1798.8</ele>
        <time>2019-08-25T23:15:17Z</time>
      </trkpt>
      <trkpt lat="6.1367490" lon="-75.6050030">
        <ele>1799.6</ele>
        <time>2019-08-25T23:15:19Z</time>
      </trkpt>
      <trkpt lat="6.1367480" lon="-75.6049740">
        <ele>1800.1</ele>
        <time>2019-08-25T23:15:20Z</time>
      </trkpt>
      <trkpt lat="6.1367460" lon="-75.6049440">
        <ele>1800.6</ele>
        <time>2019-08-25T23:15:21Z</time>
      </trkpt>
      <trkpt lat="6.1367420" lon="-75.6049130">
        <ele>1801.1</ele>
        <time>2019-08-25T23:15:22Z</time>
      </trkpt>
      <trkpt lat="6.1367380" lon="-75.6048830">
        <ele>1801.6</ele>
        <time>2019-08-25T23:15:23Z</time>
      </trkpt>
      <trkpt lat="6.1367360" lon="-75.6048290">
        <ele>1802.8</ele>
        <time>2019-08-25T23:15:25Z</time>
      </trkpt>
      <trkpt lat="6.1367370" lon="-75.6048000">
        <ele>1803.5</ele>
        <time>2019-08-25T23:15:26Z</time>
      </trkpt>
      <trkpt lat="6.1367340" lon="-75.6047510">
        <ele>1804.6</ele>
        <time>2019-08-25T23:15:28Z</time>
      </trkpt>
      <trkpt lat="6.1367320" lon="-75.6047230">
        <ele>1805.3</ele>
        <time>2019-08-25T23:15:29Z</time>
      </trkpt>
      <trkpt lat="6.1367390" lon="-75.6046710">
        <ele>1806.4</ele>
        <time>2019-08-25T23:15:31Z</time>
      </trkpt>
      <trkpt lat="6.1367430" lon="-75.6046250">
        <ele>1807.4</ele>
        <time>2019-08-25T23:15:33Z</time>
      </trkpt>
      <trkpt lat="6.1367350" lon="-75.6045810">
        <ele>1808.4</ele>
        <time>2019-08-25T23:15:35Z</time>
      </trkpt>
      <trkpt lat="6.1367280" lon="-75.6045400">
        <ele>1809.3</ele>
        <time>2019-08-25T23:15:37Z</time>
      </trkpt>
      <trkpt lat="6.1367150" lon="-75.6045010">
        <ele>1810.2</ele>
        <time>2019-08-25T23:15:39Z</time>
      </trkpt>
      <trkpt lat="6.1367050" lon="-75.6044600">
        <ele>1811.1</ele>
        <time>2019-08-25T23:15:41Z</time>
      </trkpt>
      <trkpt lat="6.1367070" lon="-75.6044170">
        <ele>1812.0</ele>
        <time>2019-08-25T23:15:43Z</time>
      </trkpt>
      <trkpt lat="6.1367050" lon="-75.6043770">
        <ele>1812.8</ele>
        <time>2019-08-25T23:15:45Z</time>
      </trkpt>
      <trkpt lat="6.1366960" lon="-75.6043400">
        <ele>1813.6</ele>
        <time>2019-08-25T23:15:47Z</time>
      </trkpt>
      <trkpt lat="6.1366820" lon="-75.6043050">
        <ele>1814.3</ele>
        <time>2019-08-25T23:15:49Z</time>
      </trkpt>
      <trkpt lat="6.1366770" lon="-75.6042690">
        <ele>1815.1</ele>
        <time>2019-08-25T23:15:51Z</time>
      </trkpt>
      <trkpt lat="6.1366820" lon="-75.6042300">
        <ele>1815.9</ele>
        <time>2019-08-25T23:15:53Z</time>
      </trkpt>
      <trkpt lat="6.1366960" lon="-75.6041970">
        <ele>1816.6</ele>
        <time>2019-08-25T23:15:55Z</time>
      </trkpt>
      <trkpt lat="6.1367040" lon="-75.6041700">
        <ele>1817.0</ele>
        <time>2019-08-25T23:15:57Z</time>
      </trkpt>
      <trkpt lat="6.1366990" lon="-75.6041400">
        <ele>1817.4</ele>
        <time>2019-08-25T23:15:59Z</time>
      </trkpt>
      <trkpt lat="6.1366920" lon="-75.6041080">
        <ele>1817.9</ele>
        <time>2019-08-25T23:16:01Z</time>
      </trkpt>
      <trkpt lat="6.1366920" lon="-75.6040740">
        <ele>1818.4</ele>
        <time>2019-08-25T23:16:03Z</time>
      </trkpt>
      <trkpt lat="6.1366810" lon="-75.6040360">
        <ele>1819.2</ele>
        <time>2019-08-25T23:16:06Z</time>
      </trkpt>
      <trkpt lat="6.1366770" lon="-75.6040080">
        <ele>1819.7</ele>
        <time>2019-08-25T23:16:08Z</time>
      </trkpt>
      <trkpt lat="6.1366650" lon="-75.6039730">
        <ele>1820.1</ele>
        <time>2019-08-25T23:16:11Z</time>
      </trkpt>
      <trkpt lat="6.1366540" lon="-75.6039420">
        <ele>1820.4</ele>
        <time>2019-08-25T23:16:14Z</time>
      </trkpt>
      <trkpt lat="6.1366430" lon="-75.6039090">
        <ele>1820.8</ele>
        <time>2019-08-25T23:16:17Z</time>
      </trkpt>
      <trkpt lat="6.1366440" lon="-75.6038700">
        <ele>1821.2</ele>
        <time>2019-08-25T23:16:20Z</time>
      </trkpt>
      <trkpt lat="6.1366580" lon="-75.6038420">
        <ele>1821.7</ele>
        <time>2019-08-25T23:16:22Z</time>
      </trkpt>
      <trkpt lat="6.1366790" lon="-75.6038220">
        <ele>1822.1</ele>
        <time>2019-08-25T23:16:24Z</time>
      </trkpt>
      <trkpt lat="6.1367120" lon="-75.6038030">
        <ele>1822.5</ele>
        <time>2019-08-25T23:16:26Z</time>
      </trkpt>
      <trkpt lat="6.1367460" lon="-75.6037770">
        <ele>1822.9</ele>
        <time>2019-08-25T23:16:28Z</time>
      </trkpt>
      <trkpt lat="6.1367810" lon="-75.6037470">
        <ele>1823.3</ele>
        <time>2019-08-25T23:16:30Z</time>
      </trkpt>
      <trkpt lat="6.1368160" lon="-75.6037100">
        <ele>1823.7</ele>
        <time>2019-08-25T23:16:32Z</time>
      </trkpt>
      <trkpt lat="6.1368520" lon="-75.6036730">
        <ele>1824.1</ele>
        <time>2019-08-25T23:16:34Z</time>
      </trkpt>
      <trkpt lat="6.1368890" lon="-75.6036430">
        <ele>1824.4</ele>
        <time>2019-08-25T23:16:36Z</time>
      </trkpt>
      <trkpt lat="6.1369270" lon="-75.6036200">
        <ele>1824.7</ele>
        <time>2019-08-25T23:16:38Z</time>
      </trkpt>
      <trkpt lat="6.1369610" lon="-75.6035980">
        <ele>1825.0</ele>
        <time>2019-08-25T23:16:40Z</time>
      </trkpt>
      <trkpt lat="6.1369940" lon="-75.6035750">
        <ele>1825.2</ele>
        <time>2019-08-25T23:16:42Z</time>
      </trkpt>
      <trkpt lat="6.1370260" lon="-75.6035530">
        <ele>1825.5</ele>
        <time>2019-08-25T23:16:44Z</time>
      </trkpt>
      <trkpt lat="6.1370540" lon="-75.6035300">
        <ele>1825.7</ele>
        <time>2019-08-25T23:16:46Z</time>
      </trkpt>
      <trkpt lat="6.1370700" lon="-75.6035020">
        <ele>1825.9</ele>
        <time>2019-08-25T23:16:48Z</time>
      </trkpt>
      <trkpt lat="6.1370760" lon="-75.6034570">
        <ele>1826.0</ele>
        <time>2019-08-25T23:16:50Z</time>
      </trkpt>
      <trkpt lat="6.1370760" lon="-75.6034080">
        <ele>1826.2</ele>
        <time>2019-08-25T23:16:52Z</time>
      </trkpt>
      <trkpt lat="6.1370650" lon="-75.6033640">
        <ele>1826.3</ele>
        <time>2019-08-25T23:16:54Z</time>
      </trkpt>
      <trkpt lat="6.1370480" lon="-75.6033150">
        <ele>1826.5</ele>
        <time>2019-08-25T23:16:56Z</time>
      </trkpt>
      <trkpt lat="6.1370370" lon="-75.6032670">
        <ele>1826.7</ele>
        <time>2019-08-25T23:16:58Z</time>
      </trkpt>
      <trkpt lat="6.1370320" lon="-75.6032370">
        <ele>1826.8</ele>
        <time>2019-08-25T23:16:59Z</time>
      </trkpt>
      <trkpt lat="6.1370280" lon="-75.6032030">
        <ele>1826.9</ele>
        <time>2019-08-25T23:17:00Z</time>
      </trkpt>
      <trkpt lat="6.1370210" lon="-75.6031690">
        <ele>1827.0</ele>
        <time>2019-08-25T23:17:01Z</time>
      </trkpt>
      <trkpt lat="6.1370140" lon="-75.6031360">
        <ele>1827.1</ele>
        <time>2019-08-25T23:17:02Z</time>
      </trkpt>
      <trkpt lat="6.1370030" lon="-75.6031000">
        <ele>1827.2</ele>
        <time>2019-08-25T23:17:03Z</time>
      </trkpt>
      <trkpt lat="6.1369890" lon="-75.6030640">
        <ele>1827.3</ele>
        <time>2019-08-25T23:17:04Z</time>
      </trkpt>
      <trkpt lat="6.1369780" lon="-75.6030280">
        <ele>1827.5</ele>
        <time>2019-08-25T23:17:05Z</time>
      </trkpt>
      <trkpt lat="6.1369660" lon="-75.6029970">
        <ele>1827.7</ele>
        <time>2019-08-25T23:17:06Z</time>
      </trkpt>
      <trkpt lat="6.1369540" lon="-75.6029660">
        <ele>1827.9</ele>
        <time>2019-08-25T23:17:07Z</time>
      </trkpt>
      <trkpt lat="6.1369420" lon="-75.6029330">
        <ele>1828.1</ele>
        <time>2019-08-25T23:17:08Z</time>
      </trkpt>
      <trkpt lat="6.1369290" lon="-75.6028970">
        <ele>1828.3</ele>
        <time>2019-08-25T23:17:09Z</time>
      </trkpt>
      <trkpt lat="6.1369170" lon="-75.6028660">
        <ele>1828.4</ele>
        <time>2019-08-25T23:17:10Z</time>
      </trkpt>
      <trkpt lat="6.1369110" lon="-75.6028360">
        <ele>1828.5</ele>
        <time>2019-08-25T23:17:11Z</time>
      </trkpt>
      <trkpt lat="6.1369060" lon="-75.6028080">
        <ele>1828.6</ele>
        <time>2019-08-25T23:17:12Z</time>
      </trkpt>
      <trkpt lat="6.1369050" lon="-75.6027760">
        <ele>1828.7</ele>
        <time>2019-08-25T23:17:13Z</time>
      </trkpt>
      <trkpt lat="6.1369050" lon="-75.6027380">
        <ele>1828.9</ele>
        <time>2019-08-25T23:17:14Z</time>
      </trkpt>
      <trkpt lat="6.1369050" lon="-75.6027010">
        <ele>1829.1</ele>
        <time>2019-08-25T23:17:15Z</time>
      </trkpt>
      <trkpt lat="6.1369020" lon="-75.6026650">
        <ele>1829.3</ele>
        <time>2019-08-25T23:17:16Z</time>
      </trkpt>
      <trkpt lat="6.1368960" lon="-75.6026290">
        <ele>1829.6</ele>
        <time>2019-08-25T23:17:17Z</time>
      </trkpt>
      <trkpt lat="6.1368990" lon="-75.6025950">
        <ele>1829.8</ele>
        <time>2019-08-25T23:17:18Z</time>
      </trkpt>
      <trkpt lat="6.1369030" lon="-75.6025630">
        <ele>1829.9</ele>
        <time>2019-08-25T23:17:19Z</time>
      </trkpt>
      <trkpt lat="6.1369110" lon="-75.6025340">
        <ele>1830.0</ele>
        <time>2019-08-25T23:17:20Z</time>
      </trkpt>
      <trkpt lat="6.1369210" lon="-75.6025060">
        <ele>1830.1</ele>
        <time>2019-08-25T23:17:21Z</time>
      </trkpt>
      <trkpt lat="6.1369290" lon="-75.6024750">
        <ele>1830.2</ele>
        <time>2019-08-25T23:17:22Z</time>
      </trkpt>
      <trkpt lat="6.1369370" lon="-75.6024450">
        <ele>1830.3</ele>
        <time>2019-08-25T23:17:23Z</time>
      </trkpt>
      <trkpt lat="6.1369410" lon="-75.6024150">
        <ele>1830.4</ele>
        <time>2019-08-25T23:17:24Z</time>
      </trkpt>
      <trkpt lat="6.1369420" lon="-75.6023810">
        <ele>1830.5</ele>
        <time>2019-08-25T23:17:25Z</time>
      </trkpt>
      <trkpt lat="6.1369390" lon="-75.6023480">
        <ele>1830.7</ele>
        <time>2019-08-25T23:17:26Z</time>
      </trkpt>
      <trkpt lat="6.1369360" lon="-75.6023140">
        <ele>1830.8</ele>
        <time>2019-08-25T23:17:27Z</time>
      </trkpt>
      <trkpt lat="6.1369370" lon="-75.6022800">
        <ele>1830.9</ele>
        <time>2019-08-25T23:17:28Z</time>
      </trkpt>
      <trkpt lat="6.1369400" lon="-75.6022490">
        <ele>1831.0</ele>
        <time>2019-08-25T23:17:29Z</time>
      </trkpt>
      <trkpt lat="6.1369440" lon="-75.6022180">
        <ele>1831.0</ele>
        <time>2019-08-25T23:17:30Z</time>
      </trkpt>
      <trkpt lat="6.1369460" lon="-75.6021870">
        <ele>1831.1</ele>
        <time>2019-08-25T23:17:31Z</time>
      </trkpt>
      <trkpt lat="6.1369520" lon="-75.6021560">
        <ele>1831.1</ele>
        <time>2019-08-25T23:17:32Z</time>
      </trkpt>
      <trkpt lat="6.1369620" lon="-75.6021270">
        <ele>1831.2</ele>
        <time>2019-08-25T23:17:33Z</time>
      </trkpt>
      <trkpt lat="6.1369730" lon="-75.6020960">
        <ele>1831.2</ele>
        <time>2019-08-25T23:17:34Z</time>
      </trkpt>
      <trkpt lat="6.1369850" lon="-75.6020670">
        <ele>1831.2</ele>
        <time>2019-08-25T23:17:35Z</time>
      </trkpt>
      <trkpt lat="6.1369930" lon="-75.6020390">
        <ele>1831.3</ele>
        <time>2019-08-25T23:17:36Z</time>
      </trkpt>
      <trkpt lat="6.1370010" lon="-75.6020110">
        <ele>1831.3</ele>
        <time>2019-08-25T23:17:37Z</time>
      </trkpt>
      <trkpt lat="6.1370070" lon="-75.6019800">
        <ele>1831.3</ele>
        <time>2019-08-25T23:17:38Z</time>
      </trkpt>
      <trkpt lat="6.1370110" lon="-75.6019460">
        <ele>1831.3</ele>
        <time>2019-08-25T23:17:39Z</time>
      </trkpt>
      <trkpt lat="6.1370190" lon="-75.6019090">
        <ele>1831.3</ele>
        <time>2019-08-25T23:17:40Z</time>
      </trkpt>
      <trkpt lat="6.1370280" lon="-75.6018690">
        <ele>1831.2</ele>
        <time>2019-08-25T23:17:41Z</time>
      </trkpt>
      <trkpt lat="6.1370360" lon="-75.6018210">
        <ele>1831.1</ele>
        <time>2019-08-25T23:17:42Z</time>
      </trkpt>
      <trkpt lat="6.1370430" lon="-75.6017750">
        <ele>1830.9</ele>
        <time>2019-08-25T23:17:43Z</time>
      </trkpt>
      <trkpt lat="6.1370340" lon="-75.6017260">
        <ele>1830.7</ele>
        <time>2019-08-25T23:17:44Z</time>
      </trkpt>
      <trkpt lat="6.1370070" lon="-75.6016690">
        <ele>1830.5</ele>
        <time>2019-08-25T23:17:45Z</time>
      </trkpt>
      <trkpt lat="6.1368870" lon="-75.6016030">
        <ele>1830.1</ele>
        <time>2019-08-25T23:17:46Z</time>
      </trkpt>
      <trkpt lat="6.1368670" lon="-75.6015430">
        <ele>1830.0</ele>
        <time>2019-08-25T23:17:47Z</time>
      </trkpt>
      <trkpt lat="6.1368380" lon="-75.6015030">
        <ele>1830.1</ele>
        <time>2019-08-25T23:17:48Z</time>
      </trkpt>
      <trkpt lat="6.1368930" lon="-75.6014460">
        <ele>1830.3</ele>
        <time>2019-08-25T23:17:49Z</time>
      </trkpt>
      <trkpt lat="6.1369270" lon="-75.6014050">
        <ele>1830.7</ele>
        <time>2019-08-25T23:17:50Z</time>
      </trkpt>
      <trkpt lat="6.1369510" lon="-75.6013690">
        <ele>1831.1</ele>
        <time>2019-08-25T23:17:51Z</time>
      </trkpt>
      <trkpt lat="6.1369800" lon="-75.6013330">
        <ele>1831.4</ele>
        <time>2019-08-25T23:17:52Z</time>
      </trkpt>
      <trkpt lat="6.1370050" lon="-75.6012980">
        <ele>1831.9</ele>
        <time>2019-08-25T23:17:53Z</time>
      </trkpt>
      <trkpt lat="6.1370250" lon="-75.6012610">
        <ele>1832.3</ele>
        <time>2019-08-25T23:17:54Z</time>
      </trkpt>
      <trkpt lat="6.1370470" lon="-75.6012330">
        <ele>1832.8</ele>
        <time>2019-08-25T23:17:55Z</time>
      </trkpt>
      <trkpt lat="6.1370730" lon="-75.6012170">
        <ele>1833.2</ele>
        <time>2019-08-25T23:17:56Z</time>
      </trkpt>
      <trkpt lat="6.1371050" lon="-75.6012110">
        <ele>1833.7</ele>
        <time>2019-08-25T23:17:57Z</time>
      </trkpt>
      <trkpt lat="6.1371390" lon="-75.6012150">
        <ele>1834.3</ele>
        <time>2019-08-25T23:17:58Z</time>
      </trkpt>
      <trkpt lat="6.1371730" lon="-75.6012300">
        <ele>1834.8</ele>
        <time>2019-08-25T23:17:59Z</time>
      </trkpt>
      <trkpt lat="6.1372030" lon="-75.6012490">
        <ele>1835.2</ele>
        <time>2019-08-25T23:18:00Z</time>
      </trkpt>
      <trkpt lat="6.1372220" lon="-75.6012720">
        <ele>1835.6</ele>
        <time>2019-08-25T23:18:01Z</time>
      </trkpt>
      <trkpt lat="6.1372340" lon="-75.6013140">
        <ele>1836.1</ele>
        <time>2019-08-25T23:18:03Z</time>
      </trkpt>
      <trkpt lat="6.1372540" lon="-75.6013600">
        <ele>1836.8</ele>
        <time>2019-08-25T23:18:05Z</time>
      </trkpt>
      <trkpt lat="6.1372840" lon="-75.6014090">
        <ele>1837.8</ele>
        <time>2019-08-25T23:18:07Z</time>
      </trkpt>
      <trkpt lat="6.1373150" lon="-75.6014420">
        <ele>1838.7</ele>
        <time>2019-08-25T23:18:09Z</time>
      </trkpt>
      <trkpt lat="6.1373340" lon="-75.6014690">
        <ele>1839.4</ele>
        <time>2019-08-25T23:18:11Z</time>
      </trkpt>
      <trkpt lat="6.1373630" lon="-75.6014910">
        <ele>1840.2</ele>
        <time>2019-08-25T23:18:13Z</time>
      </trkpt>
      <trkpt lat="6.1374010" lon="-75.6015040">
        <ele>1841.0</ele>
        <time>2019-08-25T23:18:15Z</time>
      </trkpt>
      <trkpt lat="6.1374400" lon="-75.6015150">
        <ele>1841.9</ele>
        <time>2019-08-25T23:18:17Z</time>
      </trkpt>
      <trkpt lat="6.1374770" lon="-75.6015160">
        <ele>1842.7</ele>
        <time>2019-08-25T23:18:19Z</time>
      </trkpt>
      <trkpt lat="6.1375110" lon="-75.6015100">
        <ele>1843.4</ele>
        <time>2019-08-25T23:18:21Z</time>
      </trkpt>
      <trkpt lat="6.1375450" lon="-75.6015110">
        <ele>1844.1</ele>
        <time>2019-08-25T23:18:23Z</time>
      </trkpt>
      <trkpt lat="6.1375780" lon="-75.6015160">
        <ele>1844.7</ele>
        <time>2019-08-25T23:18:25Z</time>
      </trkpt>
      <trkpt lat="6.1376140" lon="-75.6015240">
        <ele>1845.4</ele>
        <time>2019-08-25T23:18:27Z</time>
      </trkpt>
      <trkpt lat="6.1376470" lon="-75.6015240">
        <ele>1846.0</ele>
        <time>2019-08-25T23:18:29Z</time>
      </trkpt>
      <trkpt lat="6.1376790" lon="-75.6015200">
        <ele>1846.6</ele>
        <time>2019-08-25T23:18:31Z</time>
      </trkpt>
      <trkpt lat="6.1377200" lon="-75.6015240">
        <ele>1847.3</ele>
        <time>2019-08-25T23:18:34Z</time>
      </trkpt>
      <trkpt lat="6.1377490" lon="-75.6015190">
        <ele>1847.9</ele>
        <time>2019-08-25T23:18:36Z</time>
      </trkpt>
      <trkpt lat="6.1377780" lon="-75.6015160">
        <ele>1848.5</ele>
        <time>2019-08-25T23:18:38Z</time>
      </trkpt>
      <trkpt lat="6.1378100" lon="-75.6015160">
        <ele>1849.1</ele>
        <time>2019-08-25T23:18:40Z</time>
      </trkpt>
      <trkpt lat="6.1378370" lon="-75.6015220">
        <ele>1849.7</ele>
        <time>2019-08-25T23:18:42Z</time>
      </trkpt>
      <trkpt lat="6.1378710" lon="-75.6015340">
        <ele>1850.5</ele>
        <time>2019-08-25T23:18:45Z</time>
      </trkpt>
      <trkpt lat="6.1379000" lon="-75.6015450">
        <ele>1851.3</ele>
        <time>2019-08-25T23:18:47Z</time>
      </trkpt>
      <trkpt lat="6.1379260" lon="-75.6015540">
        <ele>1851.9</ele>
        <time>2019-08-25T23:18:49Z</time>
      </trkpt>
      <trkpt lat="6.1379630" lon="-75.6015600">
        <ele>1853.0</ele>
        <time>2019-08-25T23:18:52Z</time>
      </trkpt>
      <trkpt lat="6.1380040" lon="-75.6015600">
        <ele>1854.1</ele>
        <time>2019-08-25T23:18:55Z</time>
      </trkpt>
      <trkpt lat="6.1380320" lon="-75.6015610">
        <ele>1854.9</ele>
        <time>2019-08-25T23:18:57Z</time>
      </trkpt>
      <trkpt lat="6.1380650" lon="-75.6015600">
        <ele>1855.8</ele>
        <time>2019-08-25T23:18:59Z</time>
      </trkpt>
      <trkpt lat="6.1380910" lon="-75.6015450">
        <ele>1856.6</ele>
        <time>2019-08-25T23:19:01Z</time>
      </trkpt>
      <trkpt lat="6.1381070" lon="-75.6015190">
        <ele>1857.4</ele>
        <time>2019-08-25T23:19:03Z</time>
      </trkpt>
      <trkpt lat="6.1381090" lon="-75.6014920">
        <ele>1858.1</ele>
        <time>2019-08-25T23:19:05Z</time>
      </trkpt>
      <trkpt lat="6.1381010" lon="-75.6014650">
        <ele>1858.9</ele>
        <time>2019-08-25T23:19:07Z</time>
      </trkpt>
      <trkpt lat="6.1380840" lon="-75.6014400">
        <ele>1859.6</ele>
        <time>2019-08-25T23:19:09Z</time>
      </trkpt>
      <trkpt lat="6.1380610" lon="-75.6014060">
        <ele>1860.6</ele>
        <time>2019-08-25T23:19:12Z</time>
      </trkpt>
      <trkpt lat="6.1380460" lon="-75.6013830">
        <ele>1861.2</ele>
        <time>2019-08-25T23:19:14Z</time>
      </trkpt>
      <trkpt lat="6.1380240" lon="-75.6013620">
        <ele>1861.8</ele>
        <time>2019-08-25T23:19:16Z</time>
      </trkpt>
      <trkpt lat="6.1380080" lon="-75.6013380">
        <ele>1862.4</ele>
        <time>2019-08-25T23:19:18Z</time>
      </trkpt>
      <trkpt lat="6.1379820" lon="-75.6013060">
        <ele>1863.1</ele>
        <time>2019-08-25T23:19:21Z</time>
      </trkpt>
      <trkpt lat="6.1379670" lon="-75.6012700">
        <ele>1863.8</ele>
        <time>2019-08-25T23:19:24Z</time>
      </trkpt>
      <trkpt lat="6.1379570" lon="-75.6012370">
        <ele>1864.4</ele>
        <time>2019-08-25T23:19:27Z</time>
      </trkpt>
      <trkpt lat="6.1379530" lon="-75.6012100">
        <ele>1864.8</ele>
        <time>2019-08-25T23:19:30Z</time>
      </trkpt>
      <trkpt lat="6.1379430" lon="-75.6011810">
        <ele>1865.2</ele>
        <time>2019-08-25T23:19:33Z</time>
      </trkpt>
      <trkpt lat="6.1379430" lon="-75.6011540">
        <ele>1865.5</ele>
        <time>2019-08-25T23:19:36Z</time>
      </trkpt>
      <trkpt lat="6.1379390" lon="-75.6011180">
        <ele>1865.9</ele>
        <time>2019-08-25T23:19:39Z</time>
      </trkpt>
      <trkpt lat="6.1379350" lon="-75.6010780">
        <ele>1866.3</ele>
        <time>2019-08-25T23:19:42Z</time>
      </trkpt>
      <trkpt lat="6.1379310" lon="-75.6010510">
        <ele>1866.6</ele>
        <time>2019-08-25T23:19:44Z</time>
      </trkpt>
      <trkpt lat="6.1379280" lon="-75.6010220">
        <ele>1866.9</ele>
        <time>2019-08-25T23:19:47Z</time>
      </trkpt>
      <trkpt lat="6.1379310" lon="-75.6009880">
        <ele>1867.3</ele>
        <time>2019-08-25T23:19:50Z</time>
      </trkpt>
      <trkpt lat="6.1379320" lon="-75.6009580">
        <ele>1867.7</ele>
        <time>2019-08-25T23:19:52Z</time>
      </trkpt>
      <trkpt lat="6.1379400" lon="-75.6009310">
        <ele>1868.0</ele>
        <time>2019-08-25T23:19:54Z</time>
      </trkpt>
      <trkpt lat="6.1379450" lon="-75.6009030">
        <ele>1868.3</ele>
        <time>2019-08-25T23:19:56Z</time>
      </trkpt>
      <trkpt lat="6.1379540" lon="-75.6008770">
        <ele>1868.5</ele>
        <time>2019-08-25T23:19:58Z</time>
      </trkpt>
      <trkpt lat="6.1379720" lon="-75.6008550">
        <ele>1868.7</ele>
        <time>2019-08-25T23:20:00Z</time>
      </trkpt>
      <trkpt lat="6.1380020" lon="-75.6008250">
        <ele>1869.1</ele>
        <time>2019-08-25T23:20:03Z</time>
      </trkpt>
      <trkpt lat="6.1380290" lon="-75.6008090">
        <ele>1869.4</ele>
        <time>2019-08-25T23:20:05Z</time>
      </trkpt>
      <trkpt lat="6.1380590" lon="-75.6007800">
        <ele>1869.8</ele>
        <time>2019-08-25T23:20:07Z</time>
      </trkpt>
      <trkpt lat="6.1380740" lon="-75.6007450">
        <ele>1870.2</ele>
        <time>2019-08-25T23:20:09Z</time>
      </trkpt>
      <trkpt lat="6.1380780" lon="-75.6007050">
        <ele>1870.6</ele>
        <time>2019-08-25T23:20:11Z</time>
      </trkpt>
      <trkpt lat="6.1380810" lon="-75.6006690">
        <ele>1871.0</ele>
        <time>2019-08-25T23:20:13Z</time>
      </trkpt>
      <trkpt lat="6.1380860" lon="-75.6006240">
        <ele>1871.5</ele>
        <time>2019-08-25T23:20:15Z</time>
      </trkpt>
      <trkpt lat="6.1380850" lon="-75.6005810">
        <ele>1871.9</ele>
        <time>2019-08-25T23:20:17Z</time>
      </trkpt>
      <trkpt lat="6.1380890" lon="-75.6005410">
        <ele>1872.6</ele>
        <time>2019-08-25T23:20:19Z</time>
      </trkpt>
      <trkpt lat="6.1380970" lon="-75.6005140">
        <ele>1873.1</ele>
        <time>2019-08-25T23:20:21Z</time>
      </trkpt>
      <trkpt lat="6.1381100" lon="-75.6004860">
        <ele>1873.7</ele>
        <time>2019-08-25T23:20:24Z</time>
      </trkpt>
      <trkpt lat="6.1381170" lon="-75.6004460">
        <ele>1874.3</ele>
        <time>2019-08-25T23:20:26Z</time>
      </trkpt>
      <trkpt lat="6.1381280" lon="-75.6004080">
        <ele>1874.8</ele>
        <time>2019-08-25T23:20:28Z</time>
      </trkpt>
      <trkpt lat="6.1381360" lon="-75.6003720">
        <ele>1875.3</ele>
        <time>2019-08-25T23:20:30Z</time>
      </trkpt>
      <trkpt lat="6.1381570" lon="-75.6003400">
        <ele>1875.7</ele>
        <time>2019-08-25T23:20:32Z</time>
      </trkpt>
      <trkpt lat="6.1381890" lon="-75.6003280">
        <ele>1876.1</ele>
        <time>2019-08-25T23:20:34Z</time>
      </trkpt>
      <trkpt lat="6.1382240" lon="-75.6003350">
        <ele>1876.6</ele>
        <time>2019-08-25T23:20:36Z</time>
      </trkpt>
      <trkpt lat="6.1382580" lon="-75.6003540">
        <ele>1877.1</ele>
        <time>2019-08-25T23:20:38Z</time>
      </trkpt>
      <trkpt lat="6.1382800" lon="-75.6003740">
        <ele>1877.6</ele>
        <time>2019-08-25T23:20:40Z</time>
      </trkpt>
      <trkpt lat="6.1382920" lon="-75.6004020">
        <ele>1878.0</ele>
        <time>2019-08-25T23:20:42Z</time>
      </trkpt>
      <trkpt lat="6.1382990" lon="-75.6004360">
        <ele>1878.6</ele>
        <time>2019-08-25T23:20:44Z</time>
      </trkpt>
      <trkpt lat="6.1383080" lon="-75.6004690">
        <ele>1879.3</ele>
        <time>2019-08-25T23:20:46Z</time>
      </trkpt>
      <trkpt lat="6.1383160" lon="-75.6004960">
        <ele>1879.6</ele>
        <time>2019-08-25T23:20:48Z</time>
      </trkpt>
      <trkpt lat="6.1383340" lon="-75.6005260">
        <ele>1880.1</ele>
        <time>2019-08-25T23:20:50Z</time>
      </trkpt>
      <trkpt lat="6.1383490" lon="-75.6005540">
        <ele>1880.5</ele>
        <time>2019-08-25T23:20:52Z</time>
      </trkpt>
      <trkpt lat="6.1383640" lon="-75.6005890">
        <ele>1881.0</ele>
        <time>2019-08-25T23:20:54Z</time>
      </trkpt>
      <trkpt lat="6.1383840" lon="-75.6006220">
        <ele>1881.6</ele>
        <time>2019-08-25T23:20:56Z</time>
      </trkpt>
      <trkpt lat="6.1384100" lon="-75.6006420">
        <ele>1882.0</ele>
        <time>2019-08-25T23:20:58Z</time>
      </trkpt>
      <trkpt lat="6.1384410" lon="-75.6006610">
        <ele>1882.6</ele>
        <time>2019-08-25T23:21:00Z</time>
      </trkpt>
      <trkpt lat="6.1384810" lon="-75.6006700">
        <ele>1883.4</ele>
        <time>2019-08-25T23:21:02Z</time>
      </trkpt>
      <trkpt lat="6.1385230" lon="-75.6006640">
        <ele>1884.1</ele>
        <time>2019-08-25T23:21:04Z</time>
      </trkpt>
      <trkpt lat="6.1385690" lon="-75.6006520">
        <ele>1884.9</ele>
        <time>2019-08-25T23:21:06Z</time>
      </trkpt>
      <trkpt lat="6.1386100" lon="-75.6006430">
        <ele>1885.5</ele>
        <time>2019-08-25T23:21:08Z</time>
      </trkpt>
      <trkpt lat="6.1386490" lon="-75.6006330">
        <ele>1886.2</ele>
        <time>2019-08-25T23:21:10Z</time>
      </trkpt>
      <trkpt lat="6.1386860" lon="-75.6006270">
        <ele>1886.8</ele>
        <time>2019-08-25T23:21:12Z</time>
      </trkpt>
      <trkpt lat="6.1387240" lon="-75.6006290">
        <ele>1887.4</ele>
        <time>2019-08-25T23:21:14Z</time>
      </trkpt>
      <trkpt lat="6.1387570" lon="-75.6006220">
        <ele>1887.9</ele>
        <time>2019-08-25T23:21:16Z</time>
      </trkpt>
      <trkpt lat="6.1387970" lon="-75.6006080">
        <ele>1888.6</ele>
        <time>2019-08-25T23:21:18Z</time>
      </trkpt>
      <trkpt lat="6.1388310" lon="-75.6005960">
        <ele>1889.2</ele>
        <time>2019-08-25T23:21:20Z</time>
      </trkpt>
      <trkpt lat="6.1388640" lon="-75.6005900">
        <ele>1889.8</ele>
        <time>2019-08-25T23:21:22Z</time>
      </trkpt>
      <trkpt lat="6.1388990" lon="-75.6005920">
        <ele>1890.4</ele>
        <time>2019-08-25T23:21:24Z</time>
      </trkpt>
      <trkpt lat="6.1389280" lon="-75.6005870">
        <ele>1890.8</ele>
        <time>2019-08-25T23:21:26Z</time>
      </trkpt>
      <trkpt lat="6.1389620" lon="-75.6005820">
        <ele>1891.3</ele>
        <time>2019-08-25T23:21:28Z</time>
      </trkpt>
      <trkpt lat="6.1389900" lon="-75.6005670">
        <ele>1891.7</ele>
        <time>2019-08-25T23:21:30Z</time>
      </trkpt>
      <trkpt lat="6.1390140" lon="-75.6005500">
        <ele>1892.1</ele>
        <time>2019-08-25T23:21:32Z</time>
      </trkpt>
      <trkpt lat="6.1390320" lon="-75.6005240">
        <ele>1892.4</ele>
        <time>2019-08-25T23:21:34Z</time>
      </trkpt>
      <trkpt lat="6.1390410" lon="-75.6004930">
        <ele>1892.8</ele>
        <time>2019-08-25T23:21:36Z</time>
      </trkpt>
      <trkpt lat="6.1390680" lon="-75.6004650">
        <ele>1893.3</ele>
        <time>2019-08-25T23:21:39Z</time>
      </trkpt>
      <trkpt lat="6.1390900" lon="-75.6004440">
        <ele>1893.6</ele>
        <time>2019-08-25T23:21:41Z</time>
      </trkpt>
      <trkpt lat="6.1391100" lon="-75.6004160">
        <ele>1894.0</ele>
        <time>2019-08-25T23:21:43Z</time>
      </trkpt>
      <trkpt lat="6.1391240" lon="-75.6003840">
        <ele>1894.5</ele>
        <time>2019-08-25T23:21:45Z</time>
      </trkpt>
      <trkpt lat="6.1391440" lon="-75.6003550">
        <ele>1894.9</ele>
        <time>2019-08-25T23:21:47Z</time>
      </trkpt>
      <trkpt lat="6.1391670" lon="-75.6003330">
        <ele>1895.3</ele>
        <time>2019-08-25T23:21:49Z</time>
      </trkpt>
      <trkpt lat="6.1391920" lon="-75.6003160">
        <ele>1895.7</ele>
        <time>2019-08-25T23:21:51Z</time>
      </trkpt>
      <trkpt lat="6.1392240" lon="-75.6003000">
        <ele>1896.3</ele>
        <time>2019-08-25T23:21:53Z</time>
      </trkpt>
      <trkpt lat="6.1392590" lon="-75.6002880">
        <ele>1896.9</ele>
        <time>2019-08-25T23:21:55Z</time>
      </trkpt>
      <trkpt lat="6.1392960" lon="-75.6002810">
        <ele>1897.5</ele>
        <time>2019-08-25T23:21:57Z</time>
      </trkpt>
      <trkpt lat="6.1393340" lon="-75.6002820">
        <ele>1898.3</ele>
        <time>2019-08-25T23:21:59Z</time>
      </trkpt>
      <trkpt lat="6.1393730" lon="-75.6002900">
        <ele>1899.1</ele>
        <time>2019-08-25T23:22:01Z</time>
      </trkpt>
      <trkpt lat="6.1394070" lon="-75.6002830">
        <ele>1899.6</ele>
        <time>2019-08-25T23:22:03Z</time>
      </trkpt>
      <trkpt lat="6.1394420" lon="-75.6002710">
        <ele>1900.3</ele>
        <time>2019-08-25T23:22:05Z</time>
      </trkpt>
      <trkpt lat="6.1394770" lon="-75.6002760">
        <ele>1900.8</ele>
        <time>2019-08-25T23:22:07Z</time>
      </trkpt>
      <trkpt lat="6.1395090" lon="-75.6002860">
        <ele>1900.8</ele>
        <time>2019-08-25T23:22:09Z</time>
      </trkpt>
      <trkpt lat="6.1395420" lon="-75.6003070">
        <ele>1901.1</ele>
        <time>2019-08-25T23:22:11Z</time>
      </trkpt>
      <trkpt lat="6.1395740" lon="-75.6003180">
        <ele>1901.3</ele>
        <time>2019-08-25T23:22:13Z</time>
      </trkpt>
      <trkpt lat="6.1396170" lon="-75.6003250">
        <ele>1901.5</ele>
        <time>2019-08-25T23:22:15Z</time>
      </trkpt>
      <trkpt lat="6.1396550" lon="-75.6003170">
        <ele>1901.6</ele>
        <time>2019-08-25T23:22:17Z</time>
      </trkpt>
      <trkpt lat="6.1396820" lon="-75.6003330">
        <ele>1901.7</ele>
        <time>2019-08-25T23:22:20Z</time>
      </trkpt>
      <trkpt lat="6.1396960" lon="-75.6003560">
        <ele>1901.8</ele>
        <time>2019-08-25T23:22:22Z</time>
      </trkpt>
      <trkpt lat="6.1397090" lon="-75.6003850">
        <ele>1901.9</ele>
        <time>2019-08-25T23:22:24Z</time>
      </trkpt>
      <trkpt lat="6.1397250" lon="-75.6004100">
        <ele>1902.0</ele>
        <time>2019-08-25T23:22:26Z</time>
      </trkpt>
      <trkpt lat="6.1397470" lon="-75.6004350">
        <ele>1902.2</ele>
        <time>2019-08-25T23:22:29Z</time>
      </trkpt>
      <trkpt lat="6.1397710" lon="-75.6004560">
        <ele>1902.3</ele>
        <time>2019-08-25T23:22:31Z</time>
      </trkpt>
      <trkpt lat="6.1398070" lon="-75.6004660">
        <ele>1902.4</ele>
        <time>2019-08-25T23:22:33Z</time>
      </trkpt>
      <trkpt lat="6.1398450" lon="-75.6004660">
        <ele>1902.6</ele>
        <time>2019-08-25T23:22:35Z</time>
      </trkpt>
      <trkpt lat="6.1398800" lon="-75.6004640">
        <ele>1902.8</ele>
        <time>2019-08-25T23:22:37Z</time>
      </trkpt>
      <trkpt lat="6.1399310" lon="-75.6004490">
        <ele>1903.0</ele>
        <time>2019-08-25T23:22:39Z</time>
      </trkpt>
      <trkpt lat="6.1399560" lon="-75.6004390">
        <ele>1903.1</ele>
        <time>2019-08-25T23:22:40Z</time>
      </trkpt>
      <trkpt lat="6.1399820" lon="-75.6004260">
        <ele>1903.2</ele>
        <time>2019-08-25T23:22:41Z</time>
      </trkpt>
      <trkpt lat="6.1400080" lon="-75.6004120">
        <ele>1903.2</ele>
        <time>2019-08-25T23:22:42Z</time>
      </trkpt>
      <trkpt lat="6.1400570" lon="-75.6003940">
        <ele>1903.4</ele>
        <time>2019-08-25T23:22:44Z</time>
      </trkpt>
      <trkpt lat="6.1401090" lon="-75.6003780">
        <ele>1903.5</ele>
        <time>2019-08-25T23:22:46Z</time>
      </trkpt>
      <trkpt lat="6.1401530" lon="-75.6003520">
        <ele>1903.6</ele>
        <time>2019-08-25T23:22:48Z</time>
      </trkpt>
      <trkpt lat="6.1402030" lon="-75.6003350">
        <ele>1903.7</ele>
        <time>2019-08-25T23:22:50Z</time>
      </trkpt>
      <trkpt lat="6.1402320" lon="-75.6003290">
        <ele>1903.8</ele>
        <time>2019-08-25T23:22:51Z</time>
      </trkpt>
      <trkpt lat="6.1402600" lon="-75.6003200">
        <ele>1903.9</ele>
        <time>2019-08-25T23:22:52Z</time>
      </trkpt>
      <trkpt lat="6.1402870" lon="-75.6003080">
        <ele>1903.9</ele>
        <time>2019-08-25T23:22:53Z</time>
      </trkpt>
      <trkpt lat="6.1403070" lon="-75.6002880">
        <ele>1904.0</ele>
        <time>2019-08-25T23:22:54Z</time>
      </trkpt>
      <trkpt lat="6.1403220" lon="-75.6002610">
        <ele>1904.0</ele>
        <time>2019-08-25T23:22:55Z</time>
      </trkpt>
      <trkpt lat="6.1403330" lon="-75.6002340">
        <ele>1904.2</ele>
        <time>2019-08-25T23:22:56Z</time>
      </trkpt>
      <trkpt lat="6.1403670" lon="-75.6001990">
        <ele>1904.5</ele>
        <time>2019-08-25T23:22:58Z</time>
      </trkpt>
      <trkpt lat="6.1404080" lon="-75.6001740">
        <ele>1904.9</ele>
        <time>2019-08-25T23:23:00Z</time>
      </trkpt>
      <trkpt lat="6.1404470" lon="-75.6001440">
        <ele>1905.4</ele>
        <time>2019-08-25T23:23:02Z</time>
      </trkpt>
      <trkpt lat="6.1404750" lon="-75.6001330">
        <ele>1905.7</ele>
        <time>2019-08-25T23:23:03Z</time>
      </trkpt>
      <trkpt lat="6.1405010" lon="-75.6001220">
        <ele>1906.0</ele>
        <time>2019-08-25T23:23:04Z</time>
      </trkpt>
      <trkpt lat="6.1405350" lon="-75.6001130">
        <ele>1906.5</ele>
        <time>2019-08-25T23:23:05Z</time>
      </trkpt>
      <trkpt lat="6.1405670" lon="-75.6001050">
        <ele>1906.9</ele>
        <time>2019-08-25T23:23:06Z</time>
      </trkpt>
      <trkpt lat="6.1405940" lon="-75.6001010">
        <ele>1907.2</ele>
        <time>2019-08-25T23:23:07Z</time>
      </trkpt>
      <trkpt lat="6.1406470" lon="-75.6001060">
        <ele>1907.9</ele>
        <time>2019-08-25T23:23:09Z</time>
      </trkpt>
      <trkpt lat="6.1406880" lon="-75.6001320">
        <ele>1908.5</ele>
        <time>2019-08-25T23:23:11Z</time>
      </trkpt>
      <trkpt lat="6.1407220" lon="-75.6001680">
        <ele>1909.0</ele>
        <time>2019-08-25T23:23:13Z</time>
      </trkpt>
      <trkpt lat="6.1407510" lon="-75.6002030">
        <ele>1909.5</ele>
        <time>2019-08-25T23:23:15Z</time>
      </trkpt>
      <trkpt lat="6.1407830" lon="-75.6002420">
        <ele>1910.0</ele>
        <time>2019-08-25T23:23:17Z</time>
      </trkpt>
      <trkpt lat="6.1408020" lon="-75.6002630">
        <ele>1910.3</ele>
        <time>2019-08-25T23:23:18Z</time>
      </trkpt>
      <trkpt lat="6.1408210" lon="-75.6002830">
        <ele>1910.5</ele>
        <time>2019-08-25T23:23:19Z</time>
      </trkpt>
      <trkpt lat="6.1408400" lon="-75.6003060">
        <ele>1910.7</ele>
        <time>2019-08-25T23:23:20Z</time>
      </trkpt>
      <trkpt lat="6.1408610" lon="-75.6003290">
        <ele>1910.9</ele>
        <time>2019-08-25T23:23:21Z</time>
      </trkpt>
      <trkpt lat="6.1408810" lon="-75.6003540">
        <ele>1911.1</ele>
        <time>2019-08-25T23:23:22Z</time>
      </trkpt>
      <trkpt lat="6.1408990" lon="-75.6003820">
        <ele>1911.3</ele>
        <time>2019-08-25T23:23:23Z</time>
      </trkpt>
      <trkpt lat="6.1409140" lon="-75.6004100">
        <ele>1911.5</ele>
        <time>2019-08-25T23:23:24Z</time>
      </trkpt>
      <trkpt lat="6.1409290" lon="-75.6004370">
        <ele>1911.6</ele>
        <time>2019-08-25T23:23:25Z</time>
      </trkpt>
      <trkpt lat="6.1409440" lon="-75.6004600">
        <ele>1911.7</ele>
        <time>2019-08-25T23:23:26Z</time>
      </trkpt>
      <trkpt lat="6.1409780" lon="-75.6004980">
        <ele>1911.9</ele>
        <time>2019-08-25T23:23:28Z</time>
      </trkpt>
      <trkpt lat="6.1410280" lon="-75.6005180">
        <ele>1912.1</ele>
        <time>2019-08-25T23:23:30Z</time>
      </trkpt>
      <trkpt lat="6.1410570" lon="-75.6005190">
        <ele>1912.1</ele>
        <time>2019-08-25T23:23:31Z</time>
      </trkpt>
      <trkpt lat="6.1410860" lon="-75.6005120">
        <ele>1912.2</ele>
        <time>2019-08-25T23:23:32Z</time>
      </trkpt>
      <trkpt lat="6.1411140" lon="-75.6005010">
        <ele>1912.2</ele>
        <time>2019-08-25T23:23:33Z</time>
      </trkpt>
      <trkpt lat="6.1411380" lon="-75.6004840">
        <ele>1912.3</ele>
        <time>2019-08-25T23:23:34Z</time>
      </trkpt>
      <trkpt lat="6.1411570" lon="-75.6004580">
        <ele>1912.3</ele>
        <time>2019-08-25T23:23:35Z</time>
      </trkpt>
      <trkpt lat="6.1411690" lon="-75.6004250">
        <ele>1912.4</ele>
        <time>2019-08-25T23:23:36Z</time>
      </trkpt>
      <trkpt lat="6.1411750" lon="-75.6003870">
        <ele>1912.5</ele>
        <time>2019-08-25T23:23:37Z</time>
      </trkpt>
      <trkpt lat="6.1411770" lon="-75.6003450">
        <ele>1912.7</ele>
        <time>2019-08-25T23:23:38Z</time>
      </trkpt>
      <trkpt lat="6.1411770" lon="-75.6003000">
        <ele>1912.9</ele>
        <time>2019-08-25T23:23:39Z</time>
      </trkpt>
      <trkpt lat="6.1411770" lon="-75.6002570">
        <ele>1913.1</ele>
        <time>2019-08-25T23:23:40Z</time>
      </trkpt>
      <trkpt lat="6.1411770" lon="-75.6002170">
        <ele>1913.4</ele>
        <time>2019-08-25T23:23:41Z</time>
      </trkpt>
      <trkpt lat="6.1411800" lon="-75.6001810">
        <ele>1913.7</ele>
        <time>2019-08-25T23:23:42Z</time>
      </trkpt>
      <trkpt lat="6.1411840" lon="-75.6001460">
        <ele>1914.0</ele>
        <time>2019-08-25T23:23:43Z</time>
      </trkpt>
      <trkpt lat="6.1411900" lon="-75.6001160">
        <ele>1914.2</ele>
        <time>2019-08-25T23:23:44Z</time>
      </trkpt>
      <trkpt lat="6.1411970" lon="-75.6000880">
        <ele>1914.5</ele>
        <time>2019-08-25T23:23:45Z</time>
      </trkpt>
      <trkpt lat="6.1412140" lon="-75.6000430">
        <ele>1914.9</ele>
        <time>2019-08-25T23:23:47Z</time>
      </trkpt>
      <trkpt lat="6.1412310" lon="-75.6000030">
        <ele>1915.3</ele>
        <time>2019-08-25T23:23:49Z</time>
      </trkpt>
      <trkpt lat="6.1412560" lon="-75.5999670">
        <ele>1915.8</ele>
        <time>2019-08-25T23:23:51Z</time>
      </trkpt>
      <trkpt lat="6.1412830" lon="-75.5999320">
        <ele>1916.2</ele>
        <time>2019-08-25T23:23:53Z</time>
      </trkpt>
      <trkpt lat="6.1413150" lon="-75.5999050">
        <ele>1916.6</ele>
        <time>2019-08-25T23:23:55Z</time>
      </trkpt>
      <trkpt lat="6.1413530" lon="-75.5998780">
        <ele>1917.1</ele>
        <time>2019-08-25T23:23:57Z</time>
      </trkpt>
      <trkpt lat="6.1413950" lon="-75.5998530">
        <ele>1917.6</ele>
        <time>2019-08-25T23:23:59Z</time>
      </trkpt>
      <trkpt lat="6.1414400" lon="-75.5998370">
        <ele>1918.2</ele>
        <time>2019-08-25T23:24:01Z</time>
      </trkpt>
      <trkpt lat="6.1414830" lon="-75.5998250">
        <ele>1918.7</ele>
        <time>2019-08-25T23:24:03Z</time>
      </trkpt>
      <trkpt lat="6.1415330" lon="-75.5998180">
        <ele>1919.2</ele>
        <time>2019-08-25T23:24:05Z</time>
      </trkpt>
      <trkpt lat="6.1415840" lon="-75.5998180">
        <ele>1919.8</ele>
        <time>2019-08-25T23:24:07Z</time>
      </trkpt>
      <trkpt lat="6.1416330" lon="-75.5998220">
        <ele>1920.3</ele>
        <time>2019-08-25T23:24:09Z</time>
      </trkpt>
      <trkpt lat="6.1416720" lon="-75.5998310">
        <ele>1920.8</ele>
        <time>2019-08-25T23:24:11Z</time>
      </trkpt>
      <trkpt lat="6.1417080" lon="-75.5998370">
        <ele>1921.2</ele>
        <time>2019-08-25T23:24:13Z</time>
      </trkpt>
      <trkpt lat="6.1417450" lon="-75.5998450">
        <ele>1921.6</ele>
        <time>2019-08-25T23:24:15Z</time>
      </trkpt>
      <trkpt lat="6.1417800" lon="-75.5998580">
        <ele>1922.0</ele>
        <time>2019-08-25T23:24:17Z</time>
      </trkpt>
      <trkpt lat="6.1418200" lon="-75.5998710">
        <ele>1922.4</ele>
        <time>2019-08-25T23:24:19Z</time>
      </trkpt>
      <trkpt lat="6.1418580" lon="-75.5998850">
        <ele>1922.8</ele>
        <time>2019-08-25T23:24:21Z</time>
      </trkpt>
      <trkpt lat="6.1418940" lon="-75.5998990">
        <ele>1923.1</ele>
        <time>2019-08-25T23:24:23Z</time>
      </trkpt>
      <trkpt lat="6.1419290" lon="-75.5999030">
        <ele>1923.4</ele>
        <time>2019-08-25T23:24:25Z</time>
      </trkpt>
      <trkpt lat="6.1419630" lon="-75.5998980">
        <ele>1923.6</ele>
        <time>2019-08-25T23:24:27Z</time>
      </trkpt>
      <trkpt lat="6.1419990" lon="-75.5998970">
        <ele>1923.8</ele>
        <time>2019-08-25T23:24:29Z</time>
      </trkpt>
      <trkpt lat="6.1420410" lon="-75.5998990">
        <ele>1924.1</ele>
        <time>2019-08-25T23:24:31Z</time>
      </trkpt>
      <trkpt lat="6.1420810" lon="-75.5998980">
        <ele>1924.3</ele>
        <time>2019-08-25T23:24:33Z</time>
      </trkpt>
      <trkpt lat="6.1421160" lon="-75.5999010">
        <ele>1924.5</ele>
        <time>2019-08-25T23:24:35Z</time>
      </trkpt>
      <trkpt lat="6.1421580" lon="-75.5999170">
        <ele>1924.7</ele>
        <time>2019-08-25T23:24:37Z</time>
      </trkpt>
      <trkpt lat="6.1421970" lon="-75.5999400">
        <ele>1924.9</ele>
        <time>2019-08-25T23:24:39Z</time>
      </trkpt>
      <trkpt lat="6.1422380" lon="-75.5999630">
        <ele>1925.0</ele>
        <time>2019-08-25T23:24:41Z</time>
      </trkpt>
      <trkpt lat="6.1422850" lon="-75.5999770">
        <ele>1925.2</ele>
        <time>2019-08-25T23:24:43Z</time>
      </trkpt>
      <trkpt lat="6.1423190" lon="-75.5999980">
        <ele>1925.3</ele>
        <time>2019-08-25T23:24:45Z</time>
      </trkpt>
      <trkpt lat="6.1423350" lon="-75.6000470">
        <ele>1925.5</ele>
        <time>2019-08-25T23:24:47Z</time>
      </trkpt>
      <trkpt lat="6.1423350" lon="-75.6000740">
        <ele>1925.7</ele>
        <time>2019-08-25T23:24:48Z</time>
      </trkpt>
      <trkpt lat="6.1423300" lon="-75.6001040">
        <ele>1925.8</ele>
        <time>2019-08-25T23:24:49Z</time>
      </trkpt>
      <trkpt lat="6.1423240" lon="-75.6001360">
        <ele>1926.1</ele>
        <time>2019-08-25T23:24:50Z</time>
      </trkpt>
      <trkpt lat="6.1423200" lon="-75.6001690">
        <ele>1926.3</ele>
        <time>2019-08-25T23:24:51Z</time>
      </trkpt>
      <trkpt lat="6.1423160" lon="-75.6002050">
        <ele>1926.5</ele>
        <time>2019-08-25T23:24:52Z</time>
      </trkpt>
      <trkpt lat="6.1423100" lon="-75.6002400">
        <ele>1926.7</ele>
        <time>2019-08-25T23:24:53Z</time>
      </trkpt>
      <trkpt lat="6.1423040" lon="-75.6002760">
        <ele>1926.9</ele>
        <time>2019-08-25T23:24:54Z</time>
      </trkpt>
      <trkpt lat="6.1423040" lon="-75.6003090">
        <ele>1927.2</ele>
        <time>2019-08-25T23:24:55Z</time>
      </trkpt>
      <trkpt lat="6.1423130" lon="-75.6003410">
        <ele>1927.4</ele>
        <time>2019-08-25T23:24:56Z</time>
      </trkpt>
      <trkpt lat="6.1423280" lon="-75.6003710">
        <ele>1927.7</ele>
        <time>2019-08-25T23:24:57Z</time>
      </trkpt>
      <trkpt lat="6.1423440" lon="-75.6003970">
        <ele>1927.9</ele>
        <time>2019-08-25T23:24:58Z</time>
      </trkpt>
      <trkpt lat="6.1423640" lon="-75.6004210">
        <ele>1928.0</ele>
        <time>2019-08-25T23:24:59Z</time>
      </trkpt>
      <trkpt lat="6.1423880" lon="-75.6004390">
        <ele>1928.1</ele>
        <time>2019-08-25T23:25:00Z</time>
      </trkpt>
      <trkpt lat="6.1424180" lon="-75.6004510">
        <ele>1928.2</ele>
        <time>2019-08-25T23:25:01Z</time>
      </trkpt>
      <trkpt lat="6.1424530" lon="-75.6004570">
        <ele>1928.3</ele>
        <time>2019-08-25T23:25:02Z</time>
      </trkpt>
      <trkpt lat="6.1424900" lon="-75.6004600">
        <ele>1928.3</ele>
        <time>2019-08-25T23:25:03Z</time>
      </trkpt>
      <trkpt lat="6.1425230" lon="-75.6004560">
        <ele>1928.3</ele>
        <time>2019-08-25T23:25:04Z</time>
      </trkpt>
      <trkpt lat="6.1425520" lon="-75.6004450">
        <ele>1928.3</ele>
        <time>2019-08-25T23:25:05Z</time>
      </trkpt>
      <trkpt lat="6.1425790" lon="-75.6004290">
        <ele>1928.3</ele>
        <time>2019-08-25T23:25:06Z</time>
      </trkpt>
      <trkpt lat="6.1426020" lon="-75.6004120">
        <ele>1928.2</ele>
        <time>2019-08-25T23:25:07Z</time>
      </trkpt>
      <trkpt lat="6.1426240" lon="-75.6003960">
        <ele>1928.2</ele>
        <time>2019-08-25T23:25:08Z</time>
      </trkpt>
      <trkpt lat="6.1426430" lon="-75.6003750">
        <ele>1928.1</ele>
        <time>2019-08-25T23:25:09Z</time>
      </trkpt>
      <trkpt lat="6.1426620" lon="-75.6003510">
        <ele>1928.0</ele>
        <time>2019-08-25T23:25:10Z</time>
      </trkpt>
      <trkpt lat="6.1426810" lon="-75.6003310">
        <ele>1927.9</ele>
        <time>2019-08-25T23:25:11Z</time>
      </trkpt>
      <trkpt lat="6.1427100" lon="-75.6003650">
        <ele>1927.7</ele>
        <time>2019-08-25T23:25:14Z</time>
      </trkpt>
      <trkpt lat="6.1427130" lon="-75.6003930">
        <ele>1927.7</ele>
        <time>2019-08-25T23:25:15Z</time>
      </trkpt>
      <trkpt lat="6.1427220" lon="-75.6004250">
        <ele>1927.5</ele>
        <time>2019-08-25T23:25:16Z</time>
      </trkpt>
      <trkpt lat="6.1427400" lon="-75.6004600">
        <ele>1927.2</ele>
        <time>2019-08-25T23:25:17Z</time>
      </trkpt>
      <trkpt lat="6.1427640" lon="-75.6004970">
        <ele>1926.9</ele>
        <time>2019-08-25T23:25:18Z</time>
      </trkpt>
      <trkpt lat="6.1427930" lon="-75.6005360">
        <ele>1926.6</ele>
        <time>2019-08-25T23:25:19Z</time>
      </trkpt>
      <trkpt lat="6.1428310" lon="-75.6005750">
        <ele>1926.2</ele>
        <time>2019-08-25T23:25:20Z</time>
      </trkpt>
      <trkpt lat="6.1428780" lon="-75.6006130">
        <ele>1925.8</ele>
        <time>2019-08-25T23:25:21Z</time>
      </trkpt>
      <trkpt lat="6.1429290" lon="-75.6006520">
        <ele>1925.2</ele>
        <time>2019-08-25T23:25:22Z</time>
      </trkpt>
      <trkpt lat="6.1429770" lon="-75.6006930">
        <ele>1924.6</ele>
        <time>2019-08-25T23:25:23Z</time>
      </trkpt>
      <trkpt lat="6.1430170" lon="-75.6007390">
        <ele>1923.9</ele>
        <time>2019-08-25T23:25:24Z</time>
      </trkpt>
      <trkpt lat="6.1430520" lon="-75.6007950">
        <ele>1923.2</ele>
        <time>2019-08-25T23:25:25Z</time>
      </trkpt>
      <trkpt lat="6.1430780" lon="-75.6008540">
        <ele>1922.4</ele>
        <time>2019-08-25T23:25:26Z</time>
      </trkpt>
      <trkpt lat="6.1430950" lon="-75.6009070">
        <ele>1921.7</ele>
        <time>2019-08-25T23:25:27Z</time>
      </trkpt>
      <trkpt lat="6.1431060" lon="-75.6009540">
        <ele>1921.0</ele>
        <time>2019-08-25T23:25:28Z</time>
      </trkpt>
      <trkpt lat="6.1431130" lon="-75.6009910">
        <ele>1920.4</ele>
        <time>2019-08-25T23:25:29Z</time>
      </trkpt>
      <trkpt lat="6.1431200" lon="-75.6010260">
        <ele>1919.9</ele>
        <time>2019-08-25T23:25:30Z</time>
      </trkpt>
      <trkpt lat="6.1431300" lon="-75.6010610">
        <ele>1919.4</ele>
        <time>2019-08-25T23:25:31Z</time>
      </trkpt>
      <trkpt lat="6.1431390" lon="-75.6010940">
        <ele>1918.9</ele>
        <time>2019-08-25T23:25:32Z</time>
      </trkpt>
      <trkpt lat="6.1431460" lon="-75.6011240">
        <ele>1918.4</ele>
        <time>2019-08-25T23:25:33Z</time>
      </trkpt>
      <trkpt lat="6.1431450" lon="-75.6011600">
        <ele>1917.8</ele>
        <time>2019-08-25T23:25:34Z</time>
      </trkpt>
      <trkpt lat="6.1431360" lon="-75.6012030">
        <ele>1917.1</ele>
        <time>2019-08-25T23:25:35Z</time>
      </trkpt>
      <trkpt lat="6.1431080" lon="-75.6012610">
        <ele>1916.1</ele>
        <time>2019-08-25T23:25:36Z</time>
      </trkpt>
      <trkpt lat="6.1430690" lon="-75.6013230">
        <ele>1914.9</ele>
        <time>2019-08-25T23:25:37Z</time>
      </trkpt>
      <trkpt lat="6.1430270" lon="-75.6013800">
        <ele>1913.9</ele>
        <time>2019-08-25T23:25:38Z</time>
      </trkpt>
      <trkpt lat="6.1429910" lon="-75.6014270">
        <ele>1913.3</ele>
        <time>2019-08-25T23:25:39Z</time>
      </trkpt>
      <trkpt lat="6.1429650" lon="-75.6014640">
        <ele>1912.8</ele>
        <time>2019-08-25T23:25:40Z</time>
      </trkpt>
      <trkpt lat="6.1429460" lon="-75.6015000">
        <ele>1912.5</ele>
        <time>2019-08-25T23:25:41Z</time>
      </trkpt>
      <trkpt lat="6.1429290" lon="-75.6015350">
        <ele>1912.2</ele>
        <time>2019-08-25T23:25:42Z</time>
      </trkpt>
      <trkpt lat="6.1429150" lon="-75.6015680">
        <ele>1911.9</ele>
        <time>2019-08-25T23:25:43Z</time>
      </trkpt>
      <trkpt lat="6.1429030" lon="-75.6015970">
        <ele>1911.8</ele>
        <time>2019-08-25T23:25:44Z</time>
      </trkpt>
      <trkpt lat="6.1428880" lon="-75.6016410">
        <ele>1911.5</ele>
        <time>2019-08-25T23:25:46Z</time>
      </trkpt>
      <trkpt lat="6.1428760" lon="-75.6016820">
        <ele>1911.3</ele>
        <time>2019-08-25T23:25:48Z</time>
      </trkpt>
      <trkpt lat="6.1428780" lon="-75.6017200">
        <ele>1911.1</ele>
        <time>2019-08-25T23:25:50Z</time>
      </trkpt>
      <trkpt lat="6.1428890" lon="-75.6017460">
        <ele>1910.8</ele>
        <time>2019-08-25T23:25:52Z</time>
      </trkpt>
      <trkpt lat="6.1429170" lon="-75.6017530">
        <ele>1910.8</ele>
        <time>2019-08-25T23:25:55Z</time>
      </trkpt>
      <trkpt lat="6.1429530" lon="-75.6017030">
        <ele>1911.3</ele>
        <time>2019-08-25T23:26:31Z</time>
      </trkpt>
      <trkpt lat="6.1429260" lon="-75.6016860">
        <ele>1911.2</ele>
        <time>2019-08-25T23:26:34Z</time>
      </trkpt>
      <trkpt lat="6.1428900" lon="-75.6017100">
        <ele>1911.1</ele>
        <time>2019-08-25T23:26:36Z</time>
      </trkpt>
      <trkpt lat="6.1428700" lon="-75.6017380">
        <ele>1910.8</ele>
        <time>2019-08-25T23:26:37Z</time>
      </trkpt>
      <trkpt lat="6.1428520" lon="-75.6017710">
        <ele>1910.3</ele>
        <time>2019-08-25T23:26:38Z</time>
      </trkpt>
      <trkpt lat="6.1428380" lon="-75.6018000">
        <ele>1909.9</ele>
        <time>2019-08-25T23:26:39Z</time>
      </trkpt>
      <trkpt lat="6.1428280" lon="-75.6018260">
        <ele>1909.5</ele>
        <time>2019-08-25T23:26:40Z</time>
      </trkpt>
      <trkpt lat="6.1428200" lon="-75.6018600">
        <ele>1909.0</ele>
        <time>2019-08-25T23:26:41Z</time>
      </trkpt>
      <trkpt lat="6.1428160" lon="-75.6018960">
        <ele>1908.5</ele>
        <time>2019-08-25T23:26:42Z</time>
      </trkpt>
      <trkpt lat="6.1428110" lon="-75.6019270">
        <ele>1908.2</ele>
        <time>2019-08-25T23:26:43Z</time>
      </trkpt>
      <trkpt lat="6.1428040" lon="-75.6019540">
        <ele>1908.0</ele>
        <time>2019-08-25T23:26:44Z</time>
      </trkpt>
      <trkpt lat="6.1427900" lon="-75.6020110">
        <ele>1907.4</ele>
        <time>2019-08-25T23:26:46Z</time>
      </trkpt>
      <trkpt lat="6.1427900" lon="-75.6020500">
        <ele>1907.0</ele>
        <time>2019-08-25T23:26:47Z</time>
      </trkpt>
      <trkpt lat="6.1427490" lon="-75.6020910">
        <ele>1906.1</ele>
        <time>2019-08-25T23:26:48Z</time>
      </trkpt>
      <trkpt lat="6.1427270" lon="-75.6021370">
        <ele>1905.6</ele>
        <time>2019-08-25T23:26:49Z</time>
      </trkpt>
      <trkpt lat="6.1426940" lon="-75.6021980">
        <ele>1904.8</ele>
        <time>2019-08-25T23:26:50Z</time>
      </trkpt>
      <trkpt lat="6.1426710" lon="-75.6022630">
        <ele>1904.1</ele>
        <time>2019-08-25T23:26:51Z</time>
      </trkpt>
      <trkpt lat="6.1426300" lon="-75.6023280">
        <ele>1903.5</ele>
        <time>2019-08-25T23:26:52Z</time>
      </trkpt>
      <trkpt lat="6.1426020" lon="-75.6024170">
        <ele>1903.1</ele>
        <time>2019-08-25T23:26:53Z</time>
      </trkpt>
      <trkpt lat="6.1425760" lon="-75.6024880">
        <ele>1902.7</ele>
        <time>2019-08-25T23:26:54Z</time>
      </trkpt>
      <trkpt lat="6.1425340" lon="-75.6025440">
        <ele>1902.2</ele>
        <time>2019-08-25T23:26:55Z</time>
      </trkpt>
      <trkpt lat="6.1425060" lon="-75.6026210">
        <ele>1901.7</ele>
        <time>2019-08-25T23:26:56Z</time>
      </trkpt>
      <trkpt lat="6.1424880" lon="-75.6026960">
        <ele>1901.0</ele>
        <time>2019-08-25T23:26:57Z</time>
      </trkpt>
      <trkpt lat="6.1424590" lon="-75.6027730">
        <ele>1900.6</ele>
        <time>2019-08-25T23:26:58Z</time>
      </trkpt>
      <trkpt lat="6.1424420" lon="-75.6028440">
        <ele>1900.2</ele>
        <time>2019-08-25T23:26:59Z</time>
      </trkpt>
      <trkpt lat="6.1424190" lon="-75.6029150">
        <ele>1899.7</ele>
        <time>2019-08-25T23:27:00Z</time>
      </trkpt>
      <trkpt lat="6.1424010" lon="-75.6029650">
        <ele>1899.2</ele>
        <time>2019-08-25T23:27:01Z</time>
      </trkpt>
      <trkpt lat="6.1423810" lon="-75.6030230">
        <ele>1898.7</ele>
        <time>2019-08-25T23:27:02Z</time>
      </trkpt>
      <trkpt lat="6.1423740" lon="-75.6030790">
        <ele>1898.1</ele>
        <time>2019-08-25T23:27:03Z</time>
      </trkpt>
      <trkpt lat="6.1423570" lon="-75.6031440">
        <ele>1897.4</ele>
        <time>2019-08-25T23:27:04Z</time>
      </trkpt>
      <trkpt lat="6.1423530" lon="-75.6032120">
        <ele>1896.8</ele>
        <time>2019-08-25T23:27:05Z</time>
      </trkpt>
      <trkpt lat="6.1423560" lon="-75.6032780">
        <ele>1896.0</ele>
        <time>2019-08-25T23:27:06Z</time>
      </trkpt>
      <trkpt lat="6.1423550" lon="-75.6033490">
        <ele>1895.0</ele>
        <time>2019-08-25T23:27:07Z</time>
      </trkpt>
      <trkpt lat="6.1423540" lon="-75.6034220">
        <ele>1893.9</ele>
        <time>2019-08-25T23:27:08Z</time>
      </trkpt>
      <trkpt lat="6.1423460" lon="-75.6034920">
        <ele>1893.1</ele>
        <time>2019-08-25T23:27:09Z</time>
      </trkpt>
      <trkpt lat="6.1423470" lon="-75.6035630">
        <ele>1892.1</ele>
        <time>2019-08-25T23:27:10Z</time>
      </trkpt>
      <trkpt lat="6.1423540" lon="-75.6036350">
        <ele>1891.1</ele>
        <time>2019-08-25T23:27:11Z</time>
      </trkpt>
      <trkpt lat="6.1423700" lon="-75.6036980">
        <ele>1890.1</ele>
        <time>2019-08-25T23:27:12Z</time>
      </trkpt>
      <trkpt lat="6.1423890" lon="-75.6037690">
        <ele>1889.0</ele>
        <time>2019-08-25T23:27:13Z</time>
      </trkpt>
      <trkpt lat="6.1424060" lon="-75.6038200">
        <ele>1888.4</ele>
        <time>2019-08-25T23:27:14Z</time>
      </trkpt>
      <trkpt lat="6.1424270" lon="-75.6038810">
        <ele>1887.6</ele>
        <time>2019-08-25T23:27:15Z</time>
      </trkpt>
      <trkpt lat="6.1424580" lon="-75.6039220">
        <ele>1886.9</ele>
        <time>2019-08-25T23:27:16Z</time>
      </trkpt>
      <trkpt lat="6.1424930" lon="-75.6039530">
        <ele>1886.2</ele>
        <time>2019-08-25T23:27:18Z</time>
      </trkpt>
      <trkpt lat="6.1425180" lon="-75.6039710">
        <ele>1885.8</ele>
        <time>2019-08-25T23:27:20Z</time>
      </trkpt>
      <trkpt lat="6.1425410" lon="-75.6039860">
        <ele>1885.3</ele>
        <time>2019-08-25T23:27:22Z</time>
      </trkpt>
      <trkpt lat="6.1425680" lon="-75.6040120">
        <ele>1884.7</ele>
        <time>2019-08-25T23:27:24Z</time>
      </trkpt>
      <trkpt lat="6.1425900" lon="-75.6040410">
        <ele>1884.1</ele>
        <time>2019-08-25T23:27:25Z</time>
      </trkpt>
      <trkpt lat="6.1426130" lon="-75.6040750">
        <ele>1883.4</ele>
        <time>2019-08-25T23:27:26Z</time>
      </trkpt>
      <trkpt lat="6.1426400" lon="-75.6041100">
        <ele>1882.8</ele>
        <time>2019-08-25T23:27:27Z</time>
      </trkpt>
      <trkpt lat="6.1426810" lon="-75.6041460">
        <ele>1882.1</ele>
        <time>2019-08-25T23:27:28Z</time>
      </trkpt>
      <trkpt lat="6.1427310" lon="-75.6041700">
        <ele>1881.3</ele>
        <time>2019-08-25T23:27:29Z</time>
      </trkpt>
      <trkpt lat="6.1427650" lon="-75.6042000">
        <ele>1880.7</ele>
        <time>2019-08-25T23:27:30Z</time>
      </trkpt>
      <trkpt lat="6.1427880" lon="-75.6042380">
        <ele>1880.0</ele>
        <time>2019-08-25T23:27:31Z</time>
      </trkpt>
      <trkpt lat="6.1428260" lon="-75.6042620">
        <ele>1879.2</ele>
        <time>2019-08-25T23:27:32Z</time>
      </trkpt>
      <trkpt lat="6.1428560" lon="-75.6042800">
        <ele>1878.6</ele>
        <time>2019-08-25T23:27:33Z</time>
      </trkpt>
      <trkpt lat="6.1428830" lon="-75.6043100">
        <ele>1877.9</ele>
        <time>2019-08-25T23:27:34Z</time>
      </trkpt>
      <trkpt lat="6.1429110" lon="-75.6043350">
        <ele>1877.3</ele>
        <time>2019-08-25T23:27:35Z</time>
      </trkpt>
      <trkpt lat="6.1429450" lon="-75.6043710">
        <ele>1876.5</ele>
        <time>2019-08-25T23:27:36Z</time>
      </trkpt>
      <trkpt lat="6.1429810" lon="-75.6044100">
        <ele>1875.7</ele>
        <time>2019-08-25T23:27:37Z</time>
      </trkpt>
      <trkpt lat="6.1430200" lon="-75.6044380">
        <ele>1874.9</ele>
        <time>2019-08-25T23:27:38Z</time>
      </trkpt>
      <trkpt lat="6.1430570" lon="-75.6044700">
        <ele>1873.9</ele>
        <time>2019-08-25T23:27:39Z</time>
      </trkpt>
      <trkpt lat="6.1430770" lon="-75.6045070">
        <ele>1873.2</ele>
        <time>2019-08-25T23:27:40Z</time>
      </trkpt>
      <trkpt lat="6.1431060" lon="-75.6045490">
        <ele>1872.3</ele>
        <time>2019-08-25T23:27:41Z</time>
      </trkpt>
      <trkpt lat="6.1431220" lon="-75.6045910">
        <ele>1871.3</ele>
        <time>2019-08-25T23:27:42Z</time>
      </trkpt>
      <trkpt lat="6.1431120" lon="-75.6046430">
        <ele>1870.2</ele>
        <time>2019-08-25T23:27:43Z</time>
      </trkpt>
      <trkpt lat="6.1431100" lon="-75.6046950">
        <ele>1869.0</ele>
        <time>2019-08-25T23:27:44Z</time>
      </trkpt>
      <trkpt lat="6.1431150" lon="-75.6047350">
        <ele>1868.1</ele>
        <time>2019-08-25T23:27:45Z</time>
      </trkpt>
      <trkpt lat="6.1431140" lon="-75.6047920">
        <ele>1866.7</ele>
        <time>2019-08-25T23:27:46Z</time>
      </trkpt>
      <trkpt lat="6.1431240" lon="-75.6048310">
        <ele>1865.7</ele>
        <time>2019-08-25T23:27:47Z</time>
      </trkpt>
      <trkpt lat="6.1431900" lon="-75.6048320">
        <ele>1864.4</ele>
        <time>2019-08-25T23:27:49Z</time>
      </trkpt>
      <trkpt lat="6.1432570" lon="-75.6048230">
        <ele>1862.8</ele>
        <time>2019-08-25T23:27:50Z</time>
      </trkpt>
      <trkpt lat="6.1433010" lon="-75.6048300">
        <ele>1861.5</ele>
        <time>2019-08-25T23:27:51Z</time>
      </trkpt>
      <trkpt lat="6.1433600" lon="-75.6048040">
        <ele>1859.9</ele>
        <time>2019-08-25T23:27:52Z</time>
      </trkpt>
      <trkpt lat="6.1434130" lon="-75.6048100">
        <ele>1858.6</ele>
        <time>2019-08-25T23:27:53Z</time>
      </trkpt>
      <trkpt lat="6.1434440" lon="-75.6048290">
        <ele>1857.6</ele>
        <time>2019-08-25T23:27:54Z</time>
      </trkpt>
      <trkpt lat="6.1435090" lon="-75.6048600">
        <ele>1855.9</ele>
        <time>2019-08-25T23:27:55Z</time>
      </trkpt>
      <trkpt lat="6.1435850" lon="-75.6049010">
        <ele>1854.2</ele>
        <time>2019-08-25T23:27:56Z</time>
      </trkpt>
      <trkpt lat="6.1436410" lon="-75.6049240">
        <ele>1852.7</ele>
        <time>2019-08-25T23:27:57Z</time>
      </trkpt>
      <trkpt lat="6.1436880" lon="-75.6049630">
        <ele>1851.6</ele>
        <time>2019-08-25T23:27:58Z</time>
      </trkpt>
      <trkpt lat="6.1437150" lon="-75.6049760">
        <ele>1851.0</ele>
        <time>2019-08-25T23:27:59Z</time>
      </trkpt>
      <trkpt lat="6.1437220" lon="-75.6050130">
        <ele>1850.3</ele>
        <time>2019-08-25T23:28:00Z</time>
      </trkpt>
      <trkpt lat="6.1437090" lon="-75.6050470">
        <ele>1849.6</ele>
        <time>2019-08-25T23:28:01Z</time>
      </trkpt>
      <trkpt lat="6.1436840" lon="-75.6050810">
        <ele>1848.6</ele>
        <time>2019-08-25T23:28:02Z</time>
      </trkpt>
      <trkpt lat="6.1436540" lon="-75.6051120">
        <ele>1847.7</ele>
        <time>2019-08-25T23:28:03Z</time>
      </trkpt>
      <trkpt lat="6.1436170" lon="-75.6051320">
        <ele>1846.9</ele>
        <time>2019-08-25T23:28:04Z</time>
      </trkpt>
      <trkpt lat="6.1435790" lon="-75.6051450">
        <ele>1846.1</ele>
        <time>2019-08-25T23:28:05Z</time>
      </trkpt>
      <trkpt lat="6.1435260" lon="-75.6051580">
        <ele>1845.0</ele>
        <time>2019-08-25T23:28:06Z</time>
      </trkpt>
      <trkpt lat="6.1434680" lon="-75.6051820">
        <ele>1844.0</ele>
        <time>2019-08-25T23:28:07Z</time>
      </trkpt>
      <trkpt lat="6.1434100" lon="-75.6052320">
        <ele>1842.5</ele>
        <time>2019-08-25T23:28:08Z</time>
      </trkpt>
      <trkpt lat="6.1433530" lon="-75.6052910">
        <ele>1841.1</ele>
        <time>2019-08-25T23:28:09Z</time>
      </trkpt>
      <trkpt lat="6.1433090" lon="-75.6053480">
        <ele>1840.0</ele>
        <time>2019-08-25T23:28:10Z</time>
      </trkpt>
      <trkpt lat="6.1432710" lon="-75.6053980">
        <ele>1839.3</ele>
        <time>2019-08-25T23:28:11Z</time>
      </trkpt>
      <trkpt lat="6.1432350" lon="-75.6054410">
        <ele>1838.8</ele>
        <time>2019-08-25T23:28:12Z</time>
      </trkpt>
      <trkpt lat="6.1431890" lon="-75.6054940">
        <ele>1838.2</ele>
        <time>2019-08-25T23:28:13Z</time>
      </trkpt>
      <trkpt lat="6.1431500" lon="-75.6055340">
        <ele>1837.8</ele>
        <time>2019-08-25T23:28:14Z</time>
      </trkpt>
      <trkpt lat="6.1431060" lon="-75.6055740">
        <ele>1837.2</ele>
        <time>2019-08-25T23:28:15Z</time>
      </trkpt>
      <trkpt lat="6.1430750" lon="-75.6056110">
        <ele>1836.8</ele>
        <time>2019-08-25T23:28:16Z</time>
      </trkpt>
      <trkpt lat="6.1430400" lon="-75.6056660">
        <ele>1836.1</ele>
        <time>2019-08-25T23:28:17Z</time>
      </trkpt>
      <trkpt lat="6.1430300" lon="-75.6057170">
        <ele>1835.6</ele>
        <time>2019-08-25T23:28:18Z</time>
      </trkpt>
      <trkpt lat="6.1430260" lon="-75.6057730">
        <ele>1834.7</ele>
        <time>2019-08-25T23:28:19Z</time>
      </trkpt>
      <trkpt lat="6.1430390" lon="-75.6058360">
        <ele>1834.0</ele>
        <time>2019-08-25T23:28:20Z</time>
      </trkpt>
      <trkpt lat="6.1430650" lon="-75.6058870">
        <ele>1833.3</ele>
        <time>2019-08-25T23:28:21Z</time>
      </trkpt>
      <trkpt lat="6.1430280" lon="-75.6059590">
        <ele>1832.4</ele>
        <time>2019-08-25T23:28:22Z</time>
      </trkpt>
      <trkpt lat="6.1429960" lon="-75.6060390">
        <ele>1831.4</ele>
        <time>2019-08-25T23:28:23Z</time>
      </trkpt>
      <trkpt lat="6.1429790" lon="-75.6061070">
        <ele>1830.4</ele>
        <time>2019-08-25T23:28:24Z</time>
      </trkpt>
      <trkpt lat="6.1429750" lon="-75.6061560">
        <ele>1829.6</ele>
        <time>2019-08-25T23:28:25Z</time>
      </trkpt>
      <trkpt lat="6.1429620" lon="-75.6062040">
        <ele>1828.6</ele>
        <time>2019-08-25T23:28:26Z</time>
      </trkpt>
      <trkpt lat="6.1429400" lon="-75.6062730">
        <ele>1827.3</ele>
        <time>2019-08-25T23:28:27Z</time>
      </trkpt>
      <trkpt lat="6.1429330" lon="-75.6063530">
        <ele>1825.9</ele>
        <time>2019-08-25T23:28:28Z</time>
      </trkpt>
      <trkpt lat="6.1429250" lon="-75.6064190">
        <ele>1824.7</ele>
        <time>2019-08-25T23:28:29Z</time>
      </trkpt>
      <trkpt lat="6.1429200" lon="-75.6064700">
        <ele>1823.8</ele>
        <time>2019-08-25T23:28:30Z</time>
      </trkpt>
      <trkpt lat="6.1429200" lon="-75.6065390">
        <ele>1822.6</ele>
        <time>2019-08-25T23:28:31Z</time>
      </trkpt>
      <trkpt lat="6.1429290" lon="-75.6065990">
        <ele>1821.5</ele>
        <time>2019-08-25T23:28:32Z</time>
      </trkpt>
      <trkpt lat="6.1429280" lon="-75.6066550">
        <ele>1820.4</ele>
        <time>2019-08-25T23:28:33Z</time>
      </trkpt>
      <trkpt lat="6.1429270" lon="-75.6067210">
        <ele>1819.1</ele>
        <time>2019-08-25T23:28:34Z</time>
      </trkpt>
      <trkpt lat="6.1429390" lon="-75.6067960">
        <ele>1817.7</ele>
        <time>2019-08-25T23:28:35Z</time>
      </trkpt>
      <trkpt lat="6.1429520" lon="-75.6068530">
        <ele>1816.4</ele>
        <time>2019-08-25T23:28:36Z</time>
      </trkpt>
      <trkpt lat="6.1430050" lon="-75.6069060">
        <ele>1814.9</ele>
        <time>2019-08-25T23:28:37Z</time>
      </trkpt>
      <trkpt lat="6.1430440" lon="-75.6069460">
        <ele>1813.7</ele>
        <time>2019-08-25T23:28:38Z</time>
      </trkpt>
      <trkpt lat="6.1430820" lon="-75.6069740">
        <ele>1812.8</ele>
        <time>2019-08-25T23:28:39Z</time>
      </trkpt>
      <trkpt lat="6.1431340" lon="-75.6069890">
        <ele>1811.7</ele>
        <time>2019-08-25T23:28:40Z</time>
      </trkpt>
      <trkpt lat="6.1431650" lon="-75.6069960">
        <ele>1811.1</ele>
        <time>2019-08-25T23:28:41Z</time>
      </trkpt>
      <trkpt lat="6.1432070" lon="-75.6070090">
        <ele>1810.1</ele>
        <time>2019-08-25T23:28:43Z</time>
      </trkpt>
      <trkpt lat="6.1432540" lon="-75.6070180">
        <ele>1809.1</ele>
        <time>2019-08-25T23:28:45Z</time>
      </trkpt>
      <trkpt lat="6.1432830" lon="-75.6070240">
        <ele>1808.4</ele>
        <time>2019-08-25T23:28:46Z</time>
      </trkpt>
      <trkpt lat="6.1433140" lon="-75.6070340">
        <ele>1807.6</ele>
        <time>2019-08-25T23:28:47Z</time>
      </trkpt>
      <trkpt lat="6.1433460" lon="-75.6070540">
        <ele>1806.7</ele>
        <time>2019-08-25T23:28:48Z</time>
      </trkpt>
      <trkpt lat="6.1433750" lon="-75.6070810">
        <ele>1805.7</ele>
        <time>2019-08-25T23:28:49Z</time>
      </trkpt>
      <trkpt lat="6.1433980" lon="-75.6071090">
        <ele>1804.8</ele>
        <time>2019-08-25T23:28:50Z</time>
      </trkpt>
      <trkpt lat="6.1434260" lon="-75.6071450">
        <ele>1803.7</ele>
        <time>2019-08-25T23:28:51Z</time>
      </trkpt>
      <trkpt lat="6.1434600" lon="-75.6071870">
        <ele>1802.5</ele>
        <time>2019-08-25T23:28:52Z</time>
      </trkpt>
      <trkpt lat="6.1434950" lon="-75.6072270">
        <ele>1801.4</ele>
        <time>2019-08-25T23:28:53Z</time>
      </trkpt>
      <trkpt lat="6.1435250" lon="-75.6072730">
        <ele>1800.3</ele>
        <time>2019-08-25T23:28:54Z</time>
      </trkpt>
      <trkpt lat="6.1435500" lon="-75.6073290">
        <ele>1799.2</ele>
        <time>2019-08-25T23:28:55Z</time>
      </trkpt>
      <trkpt lat="6.1435670" lon="-75.6073920">
        <ele>1798.0</ele>
        <time>2019-08-25T23:28:56Z</time>
      </trkpt>
      <trkpt lat="6.1435830" lon="-75.6074550">
        <ele>1796.7</ele>
        <time>2019-08-25T23:28:57Z</time>
      </trkpt>
      <trkpt lat="6.1435960" lon="-75.6075160">
        <ele>1795.5</ele>
        <time>2019-08-25T23:28:58Z</time>
      </trkpt>
      <trkpt lat="6.1436150" lon="-75.6075700">
        <ele>1794.3</ele>
        <time>2019-08-25T23:28:59Z</time>
      </trkpt>
      <trkpt lat="6.1436410" lon="-75.6076210">
        <ele>1793.2</ele>
        <time>2019-08-25T23:29:00Z</time>
      </trkpt>
      <trkpt lat="6.1436600" lon="-75.6076580">
        <ele>1792.4</ele>
        <time>2019-08-25T23:29:01Z</time>
      </trkpt>
      <trkpt lat="6.1436960" lon="-75.6076740">
        <ele>1791.6</ele>
        <time>2019-08-25T23:29:03Z</time>
      </trkpt>
      <trkpt lat="6.1436980" lon="-75.6077040">
        <ele>1791.0</ele>
        <time>2019-08-25T23:29:04Z</time>
      </trkpt>
      <trkpt lat="6.1437150" lon="-75.6077390">
        <ele>1790.1</ele>
        <time>2019-08-25T23:29:05Z</time>
      </trkpt>
      <trkpt lat="6.1437320" lon="-75.6077870">
        <ele>1789.1</ele>
        <time>2019-08-25T23:29:06Z</time>
      </trkpt>
      <trkpt lat="6.1437620" lon="-75.6078220">
        <ele>1788.1</ele>
        <time>2019-08-25T23:29:07Z</time>
      </trkpt>
      <trkpt lat="6.1438050" lon="-75.6078620">
        <ele>1786.9</ele>
        <time>2019-08-25T23:29:08Z</time>
      </trkpt>
      <trkpt lat="6.1438280" lon="-75.6079220">
        <ele>1785.5</ele>
        <time>2019-08-25T23:29:09Z</time>
      </trkpt>
      <trkpt lat="6.1438940" lon="-75.6079650">
        <ele>1783.9</ele>
        <time>2019-08-25T23:29:10Z</time>
      </trkpt>
      <trkpt lat="6.1439610" lon="-75.6079700">
        <ele>1782.4</ele>
        <time>2019-08-25T23:29:11Z</time>
      </trkpt>
      <trkpt lat="6.1440330" lon="-75.6079980">
        <ele>1780.8</ele>
        <time>2019-08-25T23:29:12Z</time>
      </trkpt>
      <trkpt lat="6.1440950" lon="-75.6080290">
        <ele>1779.3</ele>
        <time>2019-08-25T23:29:13Z</time>
      </trkpt>
      <trkpt lat="6.1441620" lon="-75.6080480">
        <ele>1777.8</ele>
        <time>2019-08-25T23:29:14Z</time>
      </trkpt>
      <trkpt lat="6.1442180" lon="-75.6080950">
        <ele>1776.2</ele>
        <time>2019-08-25T23:29:15Z</time>
      </trkpt>
      <trkpt lat="6.1442650" lon="-75.6081150">
        <ele>1775.2</ele>
        <time>2019-08-25T23:29:16Z</time>
      </trkpt>
      <trkpt lat="6.1442990" lon="-75.6081440">
        <ele>1774.4</ele>
        <time>2019-08-25T23:29:17Z</time>
      </trkpt>
      <trkpt lat="6.1443290" lon="-75.6081770">
        <ele>1773.6</ele>
        <time>2019-08-25T23:29:18Z</time>
      </trkpt>
      <trkpt lat="6.1443500" lon="-75.6082040">
        <ele>1773.1</ele>
        <time>2019-08-25T23:29:19Z</time>
      </trkpt>
      <trkpt lat="6.1443710" lon="-75.6082450">
        <ele>1772.4</ele>
        <time>2019-08-25T23:29:21Z</time>
      </trkpt>
      <trkpt lat="6.1443740" lon="-75.6082800">
        <ele>1771.7</ele>
        <time>2019-08-25T23:29:22Z</time>
      </trkpt>
      <trkpt lat="6.1443820" lon="-75.6083070">
        <ele>1771.1</ele>
        <time>2019-08-25T23:29:23Z</time>
      </trkpt>
      <trkpt lat="6.1443940" lon="-75.6083670">
        <ele>1770.0</ele>
        <time>2019-08-25T23:29:25Z</time>
      </trkpt>
      <trkpt lat="6.1444030" lon="-75.6084190">
        <ele>1769.2</ele>
        <time>2019-08-25T23:29:26Z</time>
      </trkpt>
      <trkpt lat="6.1444110" lon="-75.6084850">
        <ele>1768.2</ele>
        <time>2019-08-25T23:29:27Z</time>
      </trkpt>
      <trkpt lat="6.1444180" lon="-75.6085580">
        <ele>1766.8</ele>
        <time>2019-08-25T23:29:28Z</time>
      </trkpt>
      <trkpt lat="6.1444290" lon="-75.6086310">
        <ele>1765.3</ele>
        <time>2019-08-25T23:29:29Z</time>
      </trkpt>
      <trkpt lat="6.1444350" lon="-75.6087090">
        <ele>1763.8</ele>
        <time>2019-08-25T23:29:30Z</time>
      </trkpt>
      <trkpt lat="6.1444490" lon="-75.6087920">
        <ele>1762.1</ele>
        <time>2019-08-25T23:29:31Z</time>
      </trkpt>
      <trkpt lat="6.1444570" lon="-75.6088690">
        <ele>1760.6</ele>
        <time>2019-08-25T23:29:32Z</time>
      </trkpt>
      <trkpt lat="6.1444730" lon="-75.6089510">
        <ele>1759.0</ele>
        <time>2019-08-25T23:29:33Z</time>
      </trkpt>
      <trkpt lat="6.1444720" lon="-75.6090310">
        <ele>1757.4</ele>
        <time>2019-08-25T23:29:34Z</time>
      </trkpt>
      <trkpt lat="6.1445070" lon="-75.6091240">
        <ele>1755.6</ele>
        <time>2019-08-25T23:29:35Z</time>
      </trkpt>
      <trkpt lat="6.1445130" lon="-75.6092050">
        <ele>1754.1</ele>
        <time>2019-08-25T23:29:36Z</time>
      </trkpt>
      <trkpt lat="6.1445400" lon="-75.6093020">
        <ele>1752.1</ele>
        <time>2019-08-25T23:29:37Z</time>
      </trkpt>
      <trkpt lat="6.1445620" lon="-75.6093880">
        <ele>1750.4</ele>
        <time>2019-08-25T23:29:38Z</time>
      </trkpt>
      <trkpt lat="6.1446020" lon="-75.6094780">
        <ele>1748.3</ele>
        <time>2019-08-25T23:29:39Z</time>
      </trkpt>
      <trkpt lat="6.1446450" lon="-75.6095730">
        <ele>1746.0</ele>
        <time>2019-08-25T23:29:40Z</time>
      </trkpt>
      <trkpt lat="6.1446880" lon="-75.6096670">
        <ele>1743.5</ele>
        <time>2019-08-25T23:29:41Z</time>
      </trkpt>
      <trkpt lat="6.1447260" lon="-75.6097660">
        <ele>1740.7</ele>
        <time>2019-08-25T23:29:42Z</time>
      </trkpt>
      <trkpt lat="6.1447720" lon="-75.6098670">
        <ele>1737.9</ele>
        <time>2019-08-25T23:29:43Z</time>
      </trkpt>
      <trkpt lat="6.1448110" lon="-75.6099510">
        <ele>1736.8</ele>
        <time>2019-08-25T23:29:44Z</time>
      </trkpt>
      <trkpt lat="6.1448560" lon="-75.6100270">
        <ele>1736.9</ele>
        <time>2019-08-25T23:29:45Z</time>
      </trkpt>
      <trkpt lat="6.1448810" lon="-75.6101000">
        <ele>1736.9</ele>
        <time>2019-08-25T23:29:46Z</time>
      </trkpt>
      <trkpt lat="6.1448850" lon="-75.6101650">
        <ele>1736.9</ele>
        <time>2019-08-25T23:29:47Z</time>
      </trkpt>
      <trkpt lat="6.1448710" lon="-75.6102500">
        <ele>1736.9</ele>
        <time>2019-08-25T23:29:48Z</time>
      </trkpt>
      <trkpt lat="6.1448670" lon="-75.6103330">
        <ele>1736.8</ele>
        <time>2019-08-25T23:29:49Z</time>
      </trkpt>
      <trkpt lat="6.1448790" lon="-75.6104090">
        <ele>1736.8</ele>
        <time>2019-08-25T23:29:50Z</time>
      </trkpt>
      <trkpt lat="6.1448790" lon="-75.6104820">
        <ele>1736.7</ele>
        <time>2019-08-25T23:29:51Z</time>
      </trkpt>
      <trkpt lat="6.1448790" lon="-75.6105720">
        <ele>1736.5</ele>
        <time>2019-08-25T23:29:52Z</time>
      </trkpt>
      <trkpt lat="6.1448930" lon="-75.6106330">
        <ele>1736.4</ele>
        <time>2019-08-25T23:29:53Z</time>
      </trkpt>
      <trkpt lat="6.1449030" lon="-75.6107030">
        <ele>1736.1</ele>
        <time>2019-08-25T23:29:54Z</time>
      </trkpt>
      <trkpt lat="6.1449250" lon="-75.6107540">
        <ele>1736.0</ele>
        <time>2019-08-25T23:29:55Z</time>
      </trkpt>
      <trkpt lat="6.1449360" lon="-75.6108440">
        <ele>1735.7</ele>
        <time>2019-08-25T23:29:56Z</time>
      </trkpt>
      <trkpt lat="6.1449540" lon="-75.6109210">
        <ele>1735.4</ele>
        <time>2019-08-25T23:29:57Z</time>
      </trkpt>
      <trkpt lat="6.1449520" lon="-75.6110370">
        <ele>1734.9</ele>
        <time>2019-08-25T23:29:58Z</time>
      </trkpt>
      <trkpt lat="6.1449670" lon="-75.6111250">
        <ele>1734.6</ele>
        <time>2019-08-25T23:29:59Z</time>
      </trkpt>
      <trkpt lat="6.1449560" lon="-75.6112310">
        <ele>1734.2</ele>
        <time>2019-08-25T23:30:00Z</time>
      </trkpt>
      <trkpt lat="6.1450080" lon="-75.6113180">
        <ele>1733.8</ele>
        <time>2019-08-25T23:30:01Z</time>
      </trkpt>
      <trkpt lat="6.1450470" lon="-75.6114080">
        <ele>1733.3</ele>
        <time>2019-08-25T23:30:02Z</time>
      </trkpt>
      <trkpt lat="6.1451350" lon="-75.6114510">
        <ele>1732.7</ele>
        <time>2019-08-25T23:30:03Z</time>
      </trkpt>
      <trkpt lat="6.1451770" lon="-75.6115410">
        <ele>1732.1</ele>
        <time>2019-08-25T23:30:04Z</time>
      </trkpt>
      <trkpt lat="6.1452200" lon="-75.6116130">
        <ele>1731.5</ele>
        <time>2019-08-25T23:30:05Z</time>
      </trkpt>
      <trkpt lat="6.1452700" lon="-75.6116660">
        <ele>1731.0</ele>
        <time>2019-08-25T23:30:06Z</time>
      </trkpt>
      <trkpt lat="6.1453220" lon="-75.6117150">
        <ele>1730.6</ele>
        <time>2019-08-25T23:30:07Z</time>
      </trkpt>
      <trkpt lat="6.1453690" lon="-75.6117900">
        <ele>1729.2</ele>
        <time>2019-08-25T23:30:08Z</time>
      </trkpt>
      <trkpt lat="6.1454390" lon="-75.6118470">
        <ele>1727.7</ele>
        <time>2019-08-25T23:30:09Z</time>
      </trkpt>
      <trkpt lat="6.1455130" lon="-75.6119150">
        <ele>1726.1</ele>
        <time>2019-08-25T23:30:10Z</time>
      </trkpt>
      <trkpt lat="6.1455800" lon="-75.6119650">
        <ele>1724.7</ele>
        <time>2019-08-25T23:30:11Z</time>
      </trkpt>
      <trkpt lat="6.1456240" lon="-75.6120230">
        <ele>1723.7</ele>
        <time>2019-08-25T23:30:12Z</time>
      </trkpt>
      <trkpt lat="6.1456960" lon="-75.6120710">
        <ele>1722.5</ele>
        <time>2019-08-25T23:30:13Z</time>
      </trkpt>
      <trkpt lat="6.1457690" lon="-75.6121250">
        <ele>1720.8</ele>
        <time>2019-08-25T23:30:14Z</time>
      </trkpt>
      <trkpt lat="6.1458390" lon="-75.6121760">
        <ele>1719.0</ele>
        <time>2019-08-25T23:30:15Z</time>
      </trkpt>
      <trkpt lat="6.1459180" lon="-75.6122360">
        <ele>1716.7</ele>
        <time>2019-08-25T23:30:16Z</time>
      </trkpt>
      <trkpt lat="6.1459750" lon="-75.6122930">
        <ele>1714.6</ele>
        <time>2019-08-25T23:30:17Z</time>
      </trkpt>
      <trkpt lat="6.1460390" lon="-75.6123650">
        <ele>1712.6</ele>
        <time>2019-08-25T23:30:18Z</time>
      </trkpt>
      <trkpt lat="6.1461030" lon="-75.6124330">
        <ele>1711.2</ele>
        <time>2019-08-25T23:30:19Z</time>
      </trkpt>
      <trkpt lat="6.1461260" lon="-75.6124900">
        <ele>1710.3</ele>
        <time>2019-08-25T23:30:20Z</time>
      </trkpt>
      <trkpt lat="6.1461780" lon="-75.6125500">
        <ele>1709.2</ele>
        <time>2019-08-25T23:30:21Z</time>
      </trkpt>
      <trkpt lat="6.1462060" lon="-75.6126030">
        <ele>1708.4</ele>
        <time>2019-08-25T23:30:22Z</time>
      </trkpt>
      <trkpt lat="6.1462440" lon="-75.6126520">
        <ele>1707.5</ele>
        <time>2019-08-25T23:30:23Z</time>
      </trkpt>
      <trkpt lat="6.1462830" lon="-75.6127000">
        <ele>1706.8</ele>
        <time>2019-08-25T23:30:24Z</time>
      </trkpt>
      <trkpt lat="6.1462860" lon="-75.6127470">
        <ele>1706.4</ele>
        <time>2019-08-25T23:30:25Z</time>
      </trkpt>
      <trkpt lat="6.1462860" lon="-75.6128070">
        <ele>1705.8</ele>
        <time>2019-08-25T23:30:26Z</time>
      </trkpt>
      <trkpt lat="6.1462870" lon="-75.6128690">
        <ele>1705.2</ele>
        <time>2019-08-25T23:30:27Z</time>
      </trkpt>
      <trkpt lat="6.1461670" lon="-75.6128790">
        <ele>1704.1</ele>
        <time>2019-08-25T23:30:28Z</time>
      </trkpt>
      <trkpt lat="6.1461100" lon="-75.6129050">
        <ele>1703.5</ele>
        <time>2019-08-25T23:30:29Z</time>
      </trkpt>
      <trkpt lat="6.1460190" lon="-75.6128930">
        <ele>1702.6</ele>
        <time>2019-08-25T23:30:30Z</time>
      </trkpt>
      <trkpt lat="6.1459420" lon="-75.6128660">
        <ele>1701.6</ele>
        <time>2019-08-25T23:30:31Z</time>
      </trkpt>
      <trkpt lat="6.1458510" lon="-75.6128490">
        <ele>1700.5</ele>
        <time>2019-08-25T23:30:32Z</time>
      </trkpt>
      <trkpt lat="6.1457780" lon="-75.6128260">
        <ele>1699.8</ele>
        <time>2019-08-25T23:30:33Z</time>
      </trkpt>
      <trkpt lat="6.1457120" lon="-75.6128190">
        <ele>1699.0</ele>
        <time>2019-08-25T23:30:34Z</time>
      </trkpt>
      <trkpt lat="6.1456620" lon="-75.6128260">
        <ele>1698.2</ele>
        <time>2019-08-25T23:30:35Z</time>
      </trkpt>
      <trkpt lat="6.1456200" lon="-75.6128560">
        <ele>1697.3</ele>
        <time>2019-08-25T23:30:36Z</time>
      </trkpt>
      <trkpt lat="6.1455830" lon="-75.6128930">
        <ele>1696.5</ele>
        <time>2019-08-25T23:30:37Z</time>
      </trkpt>
      <trkpt lat="6.1455550" lon="-75.6129250">
        <ele>1695.9</ele>
        <time>2019-08-25T23:30:38Z</time>
      </trkpt>
      <trkpt lat="6.1455360" lon="-75.6129640">
        <ele>1695.2</ele>
        <time>2019-08-25T23:30:39Z</time>
      </trkpt>
      <trkpt lat="6.1456110" lon="-75.6130140">
        <ele>1693.8</ele>
        <time>2019-08-25T23:30:40Z</time>
      </trkpt>
      <trkpt lat="6.1456660" lon="-75.6130720">
        <ele>1692.6</ele>
        <time>2019-08-25T23:30:41Z</time>
      </trkpt>
      <trkpt lat="6.1457260" lon="-75.6131200">
        <ele>1691.4</ele>
        <time>2019-08-25T23:30:42Z</time>
      </trkpt>
      <trkpt lat="6.1457900" lon="-75.6131600">
        <ele>1690.0</ele>
        <time>2019-08-25T23:30:43Z</time>
      </trkpt>
      <trkpt lat="6.1458580" lon="-75.6132120">
        <ele>1688.2</ele>
        <time>2019-08-25T23:30:44Z</time>
      </trkpt>
      <trkpt lat="6.1459140" lon="-75.6132320">
        <ele>1686.9</ele>
        <time>2019-08-25T23:30:45Z</time>
      </trkpt>
      <trkpt lat="6.1459710" lon="-75.6132800">
        <ele>1685.1</ele>
        <time>2019-08-25T23:30:46Z</time>
      </trkpt>
      <trkpt lat="6.1460320" lon="-75.6133230">
        <ele>1683.2</ele>
        <time>2019-08-25T23:30:47Z</time>
      </trkpt>
      <trkpt lat="6.1460750" lon="-75.6133670">
        <ele>1681.8</ele>
        <time>2019-08-25T23:30:48Z</time>
      </trkpt>
      <trkpt lat="6.1461200" lon="-75.6134060">
        <ele>1680.6</ele>
        <time>2019-08-25T23:30:49Z</time>
      </trkpt>
      <trkpt lat="6.1461730" lon="-75.6134460">
        <ele>1679.3</ele>
        <time>2019-08-25T23:30:50Z</time>
      </trkpt>
      <trkpt lat="6.1462380" lon="-75.6134950">
        <ele>1677.6</ele>
        <time>2019-08-25T23:30:51Z</time>
      </trkpt>
      <trkpt lat="6.1462830" lon="-75.6135450">
        <ele>1676.2</ele>
        <time>2019-08-25T23:30:52Z</time>
      </trkpt>
      <trkpt lat="6.1462360" lon="-75.6136000">
        <ele>1674.5</ele>
        <time>2019-08-25T23:30:53Z</time>
      </trkpt>
      <trkpt lat="6.1460500" lon="-75.6137230">
        <ele>1669.9</ele>
        <time>2019-08-25T23:30:55Z</time>
      </trkpt>
      <trkpt lat="6.1460170" lon="-75.6137390">
        <ele>1669.3</ele>
        <time>2019-08-25T23:30:56Z</time>
      </trkpt>
      <trkpt lat="6.1459800" lon="-75.6137860">
        <ele>1668.5</ele>
        <time>2019-08-25T23:30:57Z</time>
      </trkpt>
      <trkpt lat="6.1459710" lon="-75.6138570">
        <ele>1667.7</ele>
        <time>2019-08-25T23:30:58Z</time>
      </trkpt>
      <trkpt lat="6.1459460" lon="-75.6139040">
        <ele>1667.3</ele>
        <time>2019-08-25T23:30:59Z</time>
      </trkpt>
      <trkpt lat="6.1458920" lon="-75.6139530">
        <ele>1666.6</ele>
        <time>2019-08-25T23:31:00Z</time>
      </trkpt>
      <trkpt lat="6.1458340" lon="-75.6139970">
        <ele>1665.8</ele>
        <time>2019-08-25T23:31:01Z</time>
      </trkpt>
      <trkpt lat="6.1458070" lon="-75.6140480">
        <ele>1665.3</ele>
        <time>2019-08-25T23:31:02Z</time>
      </trkpt>
      <trkpt lat="6.1457930" lon="-75.6140940">
        <ele>1665.1</ele>
        <time>2019-08-25T23:31:03Z</time>
      </trkpt>
      <trkpt lat="6.1458110" lon="-75.6141530">
        <ele>1664.8</ele>
        <time>2019-08-25T23:31:04Z</time>
      </trkpt>
      <trkpt lat="6.1458260" lon="-75.6141940">
        <ele>1664.6</ele>
        <time>2019-08-25T23:31:05Z</time>
      </trkpt>
      <trkpt lat="6.1458730" lon="-75.6142300">
        <ele>1664.5</ele>
        <time>2019-08-25T23:31:06Z</time>
      </trkpt>
      <trkpt lat="6.1459320" lon="-75.6142560">
        <ele>1664.3</ele>
        <time>2019-08-25T23:31:07Z</time>
      </trkpt>
      <trkpt lat="6.1460050" lon="-75.6142730">
        <ele>1664.0</ele>
        <time>2019-08-25T23:31:08Z</time>
      </trkpt>
      <trkpt lat="6.1460670" lon="-75.6143080">
        <ele>1663.8</ele>
        <time>2019-08-25T23:31:09Z</time>
      </trkpt>
      <trkpt lat="6.1460880" lon="-75.6143550">
        <ele>1663.6</ele>
        <time>2019-08-25T23:31:10Z</time>
      </trkpt>
      <trkpt lat="6.1461290" lon="-75.6144000">
        <ele>1663.4</ele>
        <time>2019-08-25T23:31:11Z</time>
      </trkpt>
      <trkpt lat="6.1461600" lon="-75.6144700">
        <ele>1663.1</ele>
        <time>2019-08-25T23:31:12Z</time>
      </trkpt>
      <trkpt lat="6.1461850" lon="-75.6145410">
        <ele>1662.9</ele>
        <time>2019-08-25T23:31:13Z</time>
      </trkpt>
      <trkpt lat="6.1462110" lon="-75.6146270">
        <ele>1662.3</ele>
        <time>2019-08-25T23:31:14Z</time>
      </trkpt>
      <trkpt lat="6.1462330" lon="-75.6147090">
        <ele>1661.7</ele>
        <time>2019-08-25T23:31:15Z</time>
      </trkpt>
      <trkpt lat="6.1462540" lon="-75.6147860">
        <ele>1661.1</ele>
        <time>2019-08-25T23:31:16Z</time>
      </trkpt>
      <trkpt lat="6.1462580" lon="-75.6148470">
        <ele>1660.4</ele>
        <time>2019-08-25T23:31:17Z</time>
      </trkpt>
      <trkpt lat="6.1462470" lon="-75.6149060">
        <ele>1659.6</ele>
        <time>2019-08-25T23:31:18Z</time>
      </trkpt>
      <trkpt lat="6.1462280" lon="-75.6149830">
        <ele>1658.6</ele>
        <time>2019-08-25T23:31:19Z</time>
      </trkpt>
      <trkpt lat="6.1462050" lon="-75.6150670">
        <ele>1657.9</ele>
        <time>2019-08-25T23:31:20Z</time>
      </trkpt>
      <trkpt lat="6.1461840" lon="-75.6151540">
        <ele>1657.2</ele>
        <time>2019-08-25T23:31:21Z</time>
      </trkpt>
      <trkpt lat="6.1461660" lon="-75.6152400">
        <ele>1656.5</ele>
        <time>2019-08-25T23:31:22Z</time>
      </trkpt>
      <trkpt lat="6.1461300" lon="-75.6153280">
        <ele>1655.7</ele>
        <time>2019-08-25T23:31:23Z</time>
      </trkpt>
      <trkpt lat="6.1461540" lon="-75.6154320">
        <ele>1654.7</ele>
        <time>2019-08-25T23:31:24Z</time>
      </trkpt>
      <trkpt lat="6.1461170" lon="-75.6155070">
        <ele>1654.0</ele>
        <time>2019-08-25T23:31:25Z</time>
      </trkpt>
      <trkpt lat="6.1460970" lon="-75.6156140">
        <ele>1651.4</ele>
        <time>2019-08-25T23:31:26Z</time>
      </trkpt>
      <trkpt lat="6.1461060" lon="-75.6156930">
        <ele>1650.2</ele>
        <time>2019-08-25T23:31:27Z</time>
      </trkpt>
      <trkpt lat="6.1461250" lon="-75.6157920">
        <ele>1648.6</ele>
        <time>2019-08-25T23:31:28Z</time>
      </trkpt>
      <trkpt lat="6.1461430" lon="-75.6158810">
        <ele>1647.5</ele>
        <time>2019-08-25T23:31:29Z</time>
      </trkpt>
      <trkpt lat="6.1461700" lon="-75.6159660">
        <ele>1644.4</ele>
        <time>2019-08-25T23:31:30Z</time>
      </trkpt>
      <trkpt lat="6.1461980" lon="-75.6160320">
        <ele>1640.3</ele>
        <time>2019-08-25T23:31:31Z</time>
      </trkpt>
      <trkpt lat="6.1462220" lon="-75.6161200">
        <ele>1636.6</ele>
        <time>2019-08-25T23:31:32Z</time>
      </trkpt>
      <trkpt lat="6.1463050" lon="-75.6167740">
        <ele>1619.1</ele>
        <time>2019-08-25T23:31:35Z</time>
      </trkpt>
      <trkpt lat="6.1465470" lon="-75.6167290">
        <ele>1619.0</ele>
        <time>2019-08-25T23:31:36Z</time>
      </trkpt>
      <trkpt lat="6.1466250" lon="-75.6167720">
        <ele>1619.9</ele>
        <time>2019-08-25T23:31:37Z</time>
      </trkpt>
      <trkpt lat="6.1467370" lon="-75.6167810">
        <ele>1620.1</ele>
        <time>2019-08-25T23:31:38Z</time>
      </trkpt>
      <trkpt lat="6.1468270" lon="-75.6167780">
        <ele>1620.1</ele>
        <time>2019-08-25T23:31:39Z</time>
      </trkpt>
      <trkpt lat="6.1469310" lon="-75.6167770">
        <ele>1620.6</ele>
        <time>2019-08-25T23:31:40Z</time>
      </trkpt>
      <trkpt lat="6.1470250" lon="-75.6166270">
        <ele>1621.3</ele>
        <time>2019-08-25T23:31:41Z</time>
      </trkpt>
      <trkpt lat="6.1470900" lon="-75.6166120">
        <ele>1621.2</ele>
        <time>2019-08-25T23:31:42Z</time>
      </trkpt>
      <trkpt lat="6.1472120" lon="-75.6165890">
        <ele>1621.4</ele>
        <time>2019-08-25T23:31:43Z</time>
      </trkpt>
      <trkpt lat="6.1473160" lon="-75.6165640">
        <ele>1622.0</ele>
        <time>2019-08-25T23:31:44Z</time>
      </trkpt>
      <trkpt lat="6.1474000" lon="-75.6165320">
        <ele>1623.0</ele>
        <time>2019-08-25T23:31:45Z</time>
      </trkpt>
      <trkpt lat="6.1474810" lon="-75.6164850">
        <ele>1623.9</ele>
        <time>2019-08-25T23:31:46Z</time>
      </trkpt>
      <trkpt lat="6.1475610" lon="-75.6164780">
        <ele>1624.0</ele>
        <time>2019-08-25T23:31:47Z</time>
      </trkpt>
      <trkpt lat="6.1476360" lon="-75.6164430">
        <ele>1625.0</ele>
        <time>2019-08-25T23:31:48Z</time>
      </trkpt>
      <trkpt lat="6.1477040" lon="-75.6163800">
        <ele>1625.9</ele>
        <time>2019-08-25T23:31:49Z</time>
      </trkpt>
      <trkpt lat="6.1477570" lon="-75.6163510">
        <ele>1627.1</ele>
        <time>2019-08-25T23:31:50Z</time>
      </trkpt>
      <trkpt lat="6.1478020" lon="-75.6162780">
        <ele>1630.9</ele>
        <time>2019-08-25T23:31:51Z</time>
      </trkpt>
      <trkpt lat="6.1478460" lon="-75.6163330">
        <ele>1630.0</ele>
        <time>2019-08-25T23:31:52Z</time>
      </trkpt>
      <trkpt lat="6.1478970" lon="-75.6163780">
        <ele>1629.2</ele>
        <time>2019-08-25T23:31:53Z</time>
      </trkpt>
      <trkpt lat="6.1479530" lon="-75.6164130">
        <ele>1628.6</ele>
        <time>2019-08-25T23:31:54Z</time>
      </trkpt>
      <trkpt lat="6.1480110" lon="-75.6164630">
        <ele>1628.0</ele>
        <time>2019-08-25T23:31:55Z</time>
      </trkpt>
      <trkpt lat="6.1480650" lon="-75.6165310">
        <ele>1627.4</ele>
        <time>2019-08-25T23:31:56Z</time>
      </trkpt>
      <trkpt lat="6.1481400" lon="-75.6165720">
        <ele>1626.7</ele>
        <time>2019-08-25T23:31:57Z</time>
      </trkpt>
      <trkpt lat="6.1482210" lon="-75.6165770">
        <ele>1625.8</ele>
        <time>2019-08-25T23:31:58Z</time>
      </trkpt>
      <trkpt lat="6.1482870" lon="-75.6166330">
        <ele>1624.9</ele>
        <time>2019-08-25T23:31:59Z</time>
      </trkpt>
      <trkpt lat="6.1483110" lon="-75.6167070">
        <ele>1624.2</ele>
        <time>2019-08-25T23:32:00Z</time>
      </trkpt>
      <trkpt lat="6.1482900" lon="-75.6168080">
        <ele>1623.2</ele>
        <time>2019-08-25T23:32:01Z</time>
      </trkpt>
      <trkpt lat="6.1483340" lon="-75.6168890">
        <ele>1622.1</ele>
        <time>2019-08-25T23:32:02Z</time>
      </trkpt>
      <trkpt lat="6.1483740" lon="-75.6169750">
        <ele>1621.3</ele>
        <time>2019-08-25T23:32:03Z</time>
      </trkpt>
      <trkpt lat="6.1483900" lon="-75.6170640">
        <ele>1620.4</ele>
        <time>2019-08-25T23:32:04Z</time>
      </trkpt>
      <trkpt lat="6.1484360" lon="-75.6171250">
        <ele>1619.5</ele>
        <time>2019-08-25T23:32:05Z</time>
      </trkpt>
      <trkpt lat="6.1484760" lon="-75.6172160">
        <ele>1618.2</ele>
        <time>2019-08-25T23:32:06Z</time>
      </trkpt>
      <trkpt lat="6.1485230" lon="-75.6173050">
        <ele>1616.7</ele>
        <time>2019-08-25T23:32:07Z</time>
      </trkpt>
      <trkpt lat="6.1485750" lon="-75.6173750">
        <ele>1615.5</ele>
        <time>2019-08-25T23:32:08Z</time>
      </trkpt>
      <trkpt lat="6.1486200" lon="-75.6174570">
        <ele>1614.5</ele>
        <time>2019-08-25T23:32:09Z</time>
      </trkpt>
      <trkpt lat="6.1486660" lon="-75.6175270">
        <ele>1613.5</ele>
        <time>2019-08-25T23:32:10Z</time>
      </trkpt>
      <trkpt lat="6.1487160" lon="-75.6176060">
        <ele>1612.2</ele>
        <time>2019-08-25T23:32:11Z</time>
      </trkpt>
      <trkpt lat="6.1487610" lon="-75.6176690">
        <ele>1611.2</ele>
        <time>2019-08-25T23:32:12Z</time>
      </trkpt>
      <trkpt lat="6.1488210" lon="-75.6177420">
        <ele>1609.6</ele>
        <time>2019-08-25T23:32:13Z</time>
      </trkpt>
      <trkpt lat="6.1488720" lon="-75.6178210">
        <ele>1607.9</ele>
        <time>2019-08-25T23:32:14Z</time>
      </trkpt>
      <trkpt lat="6.1489300" lon="-75.6179020">
        <ele>1606.2</ele>
        <time>2019-08-25T23:32:15Z</time>
      </trkpt>
      <trkpt lat="6.1489670" lon="-75.6179960">
        <ele>1604.9</ele>
        <time>2019-08-25T23:32:16Z</time>
      </trkpt>
      <trkpt lat="6.1490110" lon="-75.6180760">
        <ele>1603.9</ele>
        <time>2019-08-25T23:32:17Z</time>
      </trkpt>
      <trkpt lat="6.1490730" lon="-75.6181110">
        <ele>1603.3</ele>
        <time>2019-08-25T23:32:18Z</time>
      </trkpt>
      <trkpt lat="6.1491400" lon="-75.6181430">
        <ele>1602.9</ele>
        <time>2019-08-25T23:32:19Z</time>
      </trkpt>
      <trkpt lat="6.1492020" lon="-75.6181630">
        <ele>1602.7</ele>
        <time>2019-08-25T23:32:20Z</time>
      </trkpt>
      <trkpt lat="6.1492350" lon="-75.6181890">
        <ele>1602.6</ele>
        <time>2019-08-25T23:32:21Z</time>
      </trkpt>
      <trkpt lat="6.1492770" lon="-75.6182240">
        <ele>1602.6</ele>
        <time>2019-08-25T23:32:23Z</time>
      </trkpt>
      <trkpt lat="6.1493110" lon="-75.6182280">
        <ele>1602.6</ele>
        <time>2019-08-25T23:32:25Z</time>
      </trkpt>
      <trkpt lat="6.1493510" lon="-75.6182230">
        <ele>1602.4</ele>
        <time>2019-08-25T23:32:27Z</time>
      </trkpt>
      <trkpt lat="6.1493860" lon="-75.6182170">
        <ele>1602.3</ele>
        <time>2019-08-25T23:32:29Z</time>
      </trkpt>
      <trkpt lat="6.1494090" lon="-75.6181930">
        <ele>1602.2</ele>
        <time>2019-08-25T23:32:31Z</time>
      </trkpt>
      <trkpt lat="6.1494240" lon="-75.6181590">
        <ele>1602.2</ele>
        <time>2019-08-25T23:32:32Z</time>
      </trkpt>
      <trkpt lat="6.1494370" lon="-75.6181200">
        <ele>1602.1</ele>
        <time>2019-08-25T23:32:33Z</time>
      </trkpt>
      <trkpt lat="6.1494510" lon="-75.6180820">
        <ele>1602.0</ele>
        <time>2019-08-25T23:32:34Z</time>
      </trkpt>
      <trkpt lat="6.1494650" lon="-75.6180460">
        <ele>1602.0</ele>
        <time>2019-08-25T23:32:35Z</time>
      </trkpt>
      <trkpt lat="6.1494780" lon="-75.6180170">
        <ele>1601.9</ele>
        <time>2019-08-25T23:32:36Z</time>
      </trkpt>
      <trkpt lat="6.1494950" lon="-75.6179830">
        <ele>1601.9</ele>
        <time>2019-08-25T23:32:37Z</time>
      </trkpt>
      <trkpt lat="6.1495100" lon="-75.6179440">
        <ele>1601.8</ele>
        <time>2019-08-25T23:32:38Z</time>
      </trkpt>
      <trkpt lat="6.1495250" lon="-75.6179050">
        <ele>1601.8</ele>
        <time>2019-08-25T23:32:39Z</time>
      </trkpt>
      <trkpt lat="6.1495400" lon="-75.6178660">
        <ele>1601.7</ele>
        <time>2019-08-25T23:32:40Z</time>
      </trkpt>
      <trkpt lat="6.1495570" lon="-75.6178250">
        <ele>1601.6</ele>
        <time>2019-08-25T23:32:41Z</time>
      </trkpt>
      <trkpt lat="6.1495780" lon="-75.6177860">
        <ele>1601.6</ele>
        <time>2019-08-25T23:32:42Z</time>
      </trkpt>
      <trkpt lat="6.1495990" lon="-75.6177440">
        <ele>1601.5</ele>
        <time>2019-08-25T23:32:43Z</time>
      </trkpt>
      <trkpt lat="6.1496210" lon="-75.6177020">
        <ele>1601.5</ele>
        <time>2019-08-25T23:32:44Z</time>
      </trkpt>
      <trkpt lat="6.1496410" lon="-75.6176570">
        <ele>1601.4</ele>
        <time>2019-08-25T23:32:45Z</time>
      </trkpt>
      <trkpt lat="6.1496740" lon="-75.6176160">
        <ele>1601.3</ele>
        <time>2019-08-25T23:32:46Z</time>
      </trkpt>
      <trkpt lat="6.1497260" lon="-75.6175840">
        <ele>1601.4</ele>
        <time>2019-08-25T23:32:47Z</time>
      </trkpt>
      <trkpt lat="6.1497900" lon="-75.6175600">
        <ele>1601.5</ele>
        <time>2019-08-25T23:32:48Z</time>
      </trkpt>
      <trkpt lat="6.1498490" lon="-75.6175350">
        <ele>1601.6</ele>
        <time>2019-08-25T23:32:49Z</time>
      </trkpt>
      <trkpt lat="6.1499060" lon="-75.6175050">
        <ele>1601.7</ele>
        <time>2019-08-25T23:32:50Z</time>
      </trkpt>
      <trkpt lat="6.1499570" lon="-75.6174680">
        <ele>1601.1</ele>
        <time>2019-08-25T23:32:51Z</time>
      </trkpt>
      <trkpt lat="6.1499900" lon="-75.6174360">
        <ele>1600.7</ele>
        <time>2019-08-25T23:32:52Z</time>
      </trkpt>
      <trkpt lat="6.1500080" lon="-75.6174140">
        <ele>1600.4</ele>
        <time>2019-08-25T23:32:53Z</time>
      </trkpt>
      <trkpt lat="6.1500200" lon="-75.6173890">
        <ele>1600.2</ele>
        <time>2019-08-25T23:32:54Z</time>
      </trkpt>
      <trkpt lat="6.1500330" lon="-75.6173560">
        <ele>1599.9</ele>
        <time>2019-08-25T23:32:55Z</time>
      </trkpt>
      <trkpt lat="6.1500480" lon="-75.6173180">
        <ele>1599.6</ele>
        <time>2019-08-25T23:32:56Z</time>
      </trkpt>
      <trkpt lat="6.1500720" lon="-75.6172750">
        <ele>1599.4</ele>
        <time>2019-08-25T23:32:57Z</time>
      </trkpt>
      <trkpt lat="6.1501000" lon="-75.6172280">
        <ele>1599.1</ele>
        <time>2019-08-25T23:32:58Z</time>
      </trkpt>
      <trkpt lat="6.1501340" lon="-75.6171800">
        <ele>1598.9</ele>
        <time>2019-08-25T23:32:59Z</time>
      </trkpt>
      <trkpt lat="6.1501690" lon="-75.6171270">
        <ele>1598.6</ele>
        <time>2019-08-25T23:33:00Z</time>
      </trkpt>
      <trkpt lat="6.1502090" lon="-75.6170730">
        <ele>1598.2</ele>
        <time>2019-08-25T23:33:01Z</time>
      </trkpt>
      <trkpt lat="6.1502500" lon="-75.6170210">
        <ele>1597.8</ele>
        <time>2019-08-25T23:33:02Z</time>
      </trkpt>
      <trkpt lat="6.1502950" lon="-75.6169670">
        <ele>1597.3</ele>
        <time>2019-08-25T23:33:03Z</time>
      </trkpt>
      <trkpt lat="6.1503400" lon="-75.6169170">
        <ele>1597.1</ele>
        <time>2019-08-25T23:33:04Z</time>
      </trkpt>
      <trkpt lat="6.1503810" lon="-75.6168720">
        <ele>1597.1</ele>
        <time>2019-08-25T23:33:05Z</time>
      </trkpt>
      <trkpt lat="6.1504160" lon="-75.6168300">
        <ele>1597.2</ele>
        <time>2019-08-25T23:33:06Z</time>
      </trkpt>
      <trkpt lat="6.1504430" lon="-75.6167950">
        <ele>1597.3</ele>
        <time>2019-08-25T23:33:07Z</time>
      </trkpt>
      <trkpt lat="6.1504550" lon="-75.6167560">
        <ele>1597.6</ele>
        <time>2019-08-25T23:33:08Z</time>
      </trkpt>
      <trkpt lat="6.1504730" lon="-75.6167130">
        <ele>1597.8</ele>
        <time>2019-08-25T23:33:09Z</time>
      </trkpt>
      <trkpt lat="6.1505100" lon="-75.6166750">
        <ele>1597.8</ele>
        <time>2019-08-25T23:33:10Z</time>
      </trkpt>
      <trkpt lat="6.1505460" lon="-75.6166370">
        <ele>1597.5</ele>
        <time>2019-08-25T23:33:11Z</time>
      </trkpt>
      <trkpt lat="6.1505730" lon="-75.6165820">
        <ele>1597.1</ele>
        <time>2019-08-25T23:33:13Z</time>
      </trkpt>
      <trkpt lat="6.1506100" lon="-75.6165680">
        <ele>1597.1</ele>
        <time>2019-08-25T23:33:14Z</time>
      </trkpt>
      <trkpt lat="6.1506380" lon="-75.6165570">
        <ele>1597.1</ele>
        <time>2019-08-25T23:33:15Z</time>
      </trkpt>
      <trkpt lat="6.1506850" lon="-75.6165630">
        <ele>1596.6</ele>
        <time>2019-08-25T23:33:16Z</time>
      </trkpt>
      <trkpt lat="6.1507210" lon="-75.6165290">
        <ele>1596.2</ele>
        <time>2019-08-25T23:33:17Z</time>
      </trkpt>
      <trkpt lat="6.1507530" lon="-75.6164970">
        <ele>1595.7</ele>
        <time>2019-08-25T23:33:18Z</time>
      </trkpt>
      <trkpt lat="6.1507490" lon="-75.6164600">
        <ele>1595.2</ele>
        <time>2019-08-25T23:33:19Z</time>
      </trkpt>
      <trkpt lat="6.1507790" lon="-75.6164200">
        <ele>1594.7</ele>
        <time>2019-08-25T23:33:20Z</time>
      </trkpt>
      <trkpt lat="6.1508000" lon="-75.6163850">
        <ele>1594.3</ele>
        <time>2019-08-25T23:33:21Z</time>
      </trkpt>
      <trkpt lat="6.1508240" lon="-75.6163540">
        <ele>1593.9</ele>
        <time>2019-08-25T23:33:22Z</time>
      </trkpt>
      <trkpt lat="6.1508420" lon="-75.6163210">
        <ele>1593.5</ele>
        <time>2019-08-25T23:33:23Z</time>
      </trkpt>
      <trkpt lat="6.1508620" lon="-75.6162970">
        <ele>1593.2</ele>
        <time>2019-08-25T23:33:24Z</time>
      </trkpt>
      <trkpt lat="6.1508770" lon="-75.6162730">
        <ele>1592.9</ele>
        <time>2019-08-25T23:33:25Z</time>
      </trkpt>
      <trkpt lat="6.1509160" lon="-75.6162500">
        <ele>1592.5</ele>
        <time>2019-08-25T23:33:26Z</time>
      </trkpt>
      <trkpt lat="6.1509320" lon="-75.6162280">
        <ele>1592.4</ele>
        <time>2019-08-25T23:33:27Z</time>
      </trkpt>
      <trkpt lat="6.1509240" lon="-75.6161800">
        <ele>1592.0</ele>
        <time>2019-08-25T23:33:28Z</time>
      </trkpt>
      <trkpt lat="6.1509100" lon="-75.6161270">
        <ele>1591.8</ele>
        <time>2019-08-25T23:33:30Z</time>
      </trkpt>
      <trkpt lat="6.1508820" lon="-75.6160910">
        <ele>1592.0</ele>
        <time>2019-08-25T23:33:31Z</time>
      </trkpt>
      <trkpt lat="6.1508560" lon="-75.6160610">
        <ele>1592.1</ele>
        <time>2019-08-25T23:33:32Z</time>
      </trkpt>
      <trkpt lat="6.1508140" lon="-75.6160370">
        <ele>1592.3</ele>
        <time>2019-08-25T23:33:33Z</time>
      </trkpt>
      <trkpt lat="6.1507760" lon="-75.6160120">
        <ele>1592.5</ele>
        <time>2019-08-25T23:33:34Z</time>
      </trkpt>
      <trkpt lat="6.1507430" lon="-75.6159840">
        <ele>1592.7</ele>
        <time>2019-08-25T23:33:35Z</time>
      </trkpt>
      <trkpt lat="6.1507100" lon="-75.6159510">
        <ele>1592.9</ele>
        <time>2019-08-25T23:33:36Z</time>
      </trkpt>
      <trkpt lat="6.1506820" lon="-75.6159190">
        <ele>1593.1</ele>
        <time>2019-08-25T23:33:37Z</time>
      </trkpt>
      <trkpt lat="6.1506550" lon="-75.6158880">
        <ele>1593.2</ele>
        <time>2019-08-25T23:33:38Z</time>
      </trkpt>
      <trkpt lat="6.1506220" lon="-75.6158590">
        <ele>1593.3</ele>
        <time>2019-08-25T23:33:39Z</time>
      </trkpt>
      <trkpt lat="6.1505840" lon="-75.6158300">
        <ele>1593.4</ele>
        <time>2019-08-25T23:33:40Z</time>
      </trkpt>
      <trkpt lat="6.1505460" lon="-75.6158050">
        <ele>1593.5</ele>
        <time>2019-08-25T23:33:41Z</time>
      </trkpt>
      <trkpt lat="6.1505040" lon="-75.6157720">
        <ele>1593.7</ele>
        <time>2019-08-25T23:33:42Z</time>
      </trkpt>
      <trkpt lat="6.1504580" lon="-75.6157560">
        <ele>1593.7</ele>
        <time>2019-08-25T23:33:43Z</time>
      </trkpt>
      <trkpt lat="6.1504240" lon="-75.6157160">
        <ele>1593.8</ele>
        <time>2019-08-25T23:33:44Z</time>
      </trkpt>
      <trkpt lat="6.1503990" lon="-75.6156830">
        <ele>1593.9</ele>
        <time>2019-08-25T23:33:45Z</time>
      </trkpt>
      <trkpt lat="6.1503810" lon="-75.6156490">
        <ele>1594.0</ele>
        <time>2019-08-25T23:33:46Z</time>
      </trkpt>
      <trkpt lat="6.1503580" lon="-75.6156070">
        <ele>1594.1</ele>
        <time>2019-08-25T23:33:48Z</time>
      </trkpt>
      <trkpt lat="6.1503530" lon="-75.6155520">
        <ele>1594.3</ele>
        <time>2019-08-25T23:33:50Z</time>
      </trkpt>
      <trkpt lat="6.1503170" lon="-75.6154970">
        <ele>1594.5</ele>
        <time>2019-08-25T23:33:53Z</time>
      </trkpt>
      <trkpt lat="6.1502900" lon="-75.6154360">
        <ele>1594.6</ele>
        <time>2019-08-25T23:33:55Z</time>
      </trkpt>
      <trkpt lat="6.1502720" lon="-75.6153920">
        <ele>1594.7</ele>
        <time>2019-08-25T23:33:56Z</time>
      </trkpt>
      <trkpt lat="6.1502510" lon="-75.6153520">
        <ele>1594.9</ele>
        <time>2019-08-25T23:33:57Z</time>
      </trkpt>
      <trkpt lat="6.1502310" lon="-75.6153160">
        <ele>1594.0</ele>
        <time>2019-08-25T23:33:58Z</time>
      </trkpt>
      <trkpt lat="6.1502100" lon="-75.6152790">
        <ele>1593.6</ele>
        <time>2019-08-25T23:33:59Z</time>
      </trkpt>
      <trkpt lat="6.1501920" lon="-75.6152430">
        <ele>1593.5</ele>
        <time>2019-08-25T23:34:00Z</time>
      </trkpt>
      <trkpt lat="6.1501750" lon="-75.6151990">
        <ele>1593.3</ele>
        <time>2019-08-25T23:34:01Z</time>
      </trkpt>
      <trkpt lat="6.1501600" lon="-75.6151470">
        <ele>1593.4</ele>
        <time>2019-08-25T23:34:02Z</time>
      </trkpt>
      <trkpt lat="6.1501830" lon="-75.6151010">
        <ele>1593.6</ele>
        <time>2019-08-25T23:34:03Z</time>
      </trkpt>
      <trkpt lat="6.1502180" lon="-75.6150550">
        <ele>1594.3</ele>
        <time>2019-08-25T23:34:04Z</time>
      </trkpt>
      <trkpt lat="6.1502640" lon="-75.6150120">
        <ele>1595.1</ele>
        <time>2019-08-25T23:34:05Z</time>
      </trkpt>
      <trkpt lat="6.1503190" lon="-75.6149770">
        <ele>1595.8</ele>
        <time>2019-08-25T23:34:06Z</time>
      </trkpt>
      <trkpt lat="6.1503730" lon="-75.6149420">
        <ele>1596.2</ele>
        <time>2019-08-25T23:34:07Z</time>
      </trkpt>
      <trkpt lat="6.1504160" lon="-75.6149060">
        <ele>1596.5</ele>
        <time>2019-08-25T23:34:08Z</time>
      </trkpt>
      <trkpt lat="6.1504550" lon="-75.6148690">
        <ele>1596.5</ele>
        <time>2019-08-25T23:34:09Z</time>
      </trkpt>
      <trkpt lat="6.1504940" lon="-75.6148300">
        <ele>1596.5</ele>
        <time>2019-08-25T23:34:10Z</time>
      </trkpt>
      <trkpt lat="6.1505360" lon="-75.6147900">
        <ele>1596.2</ele>
        <time>2019-08-25T23:34:11Z</time>
      </trkpt>
      <trkpt lat="6.1505760" lon="-75.6147540">
        <ele>1595.9</ele>
        <time>2019-08-25T23:34:12Z</time>
      </trkpt>
      <trkpt lat="6.1506140" lon="-75.6147200">
        <ele>1595.6</ele>
        <time>2019-08-25T23:34:13Z</time>
      </trkpt>
      <trkpt lat="6.1506510" lon="-75.6146850">
        <ele>1595.3</ele>
        <time>2019-08-25T23:34:14Z</time>
      </trkpt>
      <trkpt lat="6.1506910" lon="-75.6146530">
        <ele>1595.1</ele>
        <time>2019-08-25T23:34:15Z</time>
      </trkpt>
      <trkpt lat="6.1507270" lon="-75.6146260">
        <ele>1594.8</ele>
        <time>2019-08-25T23:34:16Z</time>
      </trkpt>
      <trkpt lat="6.1507610" lon="-75.6145990">
        <ele>1594.5</ele>
        <time>2019-08-25T23:34:17Z</time>
      </trkpt>
      <trkpt lat="6.1507970" lon="-75.6145710">
        <ele>1594.2</ele>
        <time>2019-08-25T23:34:18Z</time>
      </trkpt>
      <trkpt lat="6.1508230" lon="-75.6145450">
        <ele>1593.9</ele>
        <time>2019-08-25T23:34:19Z</time>
      </trkpt>
      <trkpt lat="6.1508440" lon="-75.6145180">
        <ele>1593.6</ele>
        <time>2019-08-25T23:34:20Z</time>
      </trkpt>
      <trkpt lat="6.1508660" lon="-75.6144940">
        <ele>1593.4</ele>
        <time>2019-08-25T23:34:21Z</time>
      </trkpt>
      <trkpt lat="6.1508980" lon="-75.6144810">
        <ele>1593.3</ele>
        <time>2019-08-25T23:34:24Z</time>
      </trkpt>
      <trkpt lat="6.1509210" lon="-75.6144580">
        <ele>1593.2</ele>
        <time>2019-08-25T23:34:28Z</time>
      </trkpt>
      <trkpt lat="6.1509330" lon="-75.6144250">
        <ele>1593.1</ele>
        <time>2019-08-25T23:34:30Z</time>
      </trkpt>
      <trkpt lat="6.1509520" lon="-75.6143850">
        <ele>1593.0</ele>
        <time>2019-08-25T23:34:32Z</time>
      </trkpt>
      <trkpt lat="6.1509800" lon="-75.6143640">
        <ele>1592.9</ele>
        <time>2019-08-25T23:34:34Z</time>
      </trkpt>
      <trkpt lat="6.1510040" lon="-75.6143470">
        <ele>1592.8</ele>
        <time>2019-08-25T23:34:36Z</time>
      </trkpt>
      <trkpt lat="6.1510540" lon="-75.6143290">
        <ele>1592.7</ele>
        <time>2019-08-25T23:34:39Z</time>
      </trkpt>
      <trkpt lat="6.1510820" lon="-75.6143280">
        <ele>1592.6</ele>
        <time>2019-08-25T23:34:40Z</time>
      </trkpt>
      <trkpt lat="6.1511310" lon="-75.6143290">
        <ele>1592.5</ele>
        <time>2019-08-25T23:34:42Z</time>
      </trkpt>
      <trkpt lat="6.1511630" lon="-75.6143120">
        <ele>1592.4</ele>
        <time>2019-08-25T23:34:45Z</time>
      </trkpt>
      <trkpt lat="6.1511870" lon="-75.6142950">
        <ele>1592.3</ele>
        <time>2019-08-25T23:34:47Z</time>
      </trkpt>
      <trkpt lat="6.1512220" lon="-75.6142900">
        <ele>1592.2</ele>
        <time>2019-08-25T23:34:49Z</time>
      </trkpt>
      <trkpt lat="6.1512770" lon="-75.6143200">
        <ele>1592.5</ele>
        <time>2019-08-25T23:34:58Z</time>
      </trkpt>
      <trkpt lat="6.1513020" lon="-75.6143060">
        <ele>1592.5</ele>
        <time>2019-08-25T23:35:26Z</time>
      </trkpt>
      <trkpt lat="6.1512770" lon="-75.6142910">
        <ele>1592.5</ele>
        <time>2019-08-25T23:35:30Z</time>
      </trkpt>
      <trkpt lat="6.1512160" lon="-75.6142830">
        <ele>1592.4</ele>
        <time>2019-08-25T23:35:37Z</time>
      </trkpt>
      <trkpt lat="6.1511990" lon="-75.6142570">
        <ele>1592.4</ele>
        <time>2019-08-25T23:35:51Z</time>
      </trkpt>
      <trkpt lat="6.1512500" lon="-75.6142640">
        <ele>1592.3</ele>
        <time>2019-08-25T23:36:04Z</time>
      </trkpt>
      <trkpt lat="6.1513070" lon="-75.6142560">
        <ele>1593.0</ele>
        <time>2019-08-25T23:36:06Z</time>
      </trkpt>
      <trkpt lat="6.1513550" lon="-75.6142240">
        <ele>1593.0</ele>
        <time>2019-08-25T23:36:08Z</time>
      </trkpt>
      <trkpt lat="6.1513230" lon="-75.6141970">
        <ele>1593.0</ele>
        <time>2019-08-25T23:36:10Z</time>
      </trkpt>
      <trkpt lat="6.1513140" lon="-75.6142370">
        <ele>1593.0</ele>
        <time>2019-08-25T23:36:12Z</time>
      </trkpt>
      <trkpt lat="6.1512930" lon="-75.6142170">
        <ele>1593.0</ele>
        <time>2019-08-25T23:36:26Z</time>
      </trkpt>
      <trkpt lat="6.1513120" lon="-75.6142380">
        <ele>1593.0</ele>
        <time>2019-08-25T23:36:35Z</time>
      </trkpt>
      <trkpt lat="6.1513360" lon="-75.6142530">
        <ele>1593.0</ele>
        <time>2019-08-25T23:36:38Z</time>
      </trkpt>
      <trkpt lat="6.1513670" lon="-75.6142370">
        <ele>1592.4</ele>
        <time>2019-08-25T23:36:40Z</time>
      </trkpt>
      <trkpt lat="6.1513910" lon="-75.6142230">
        <ele>1592.2</ele>
        <time>2019-08-25T23:36:42Z</time>
      </trkpt>
      <trkpt lat="6.1514190" lon="-75.6142150">
        <ele>1591.9</ele>
        <time>2019-08-25T23:36:43Z</time>
      </trkpt>
      <trkpt lat="6.1514440" lon="-75.6141980">
        <ele>1591.7</ele>
        <time>2019-08-25T23:36:44Z</time>
      </trkpt>
      <trkpt lat="6.1514780" lon="-75.6141850">
        <ele>1591.4</ele>
        <time>2019-08-25T23:36:45Z</time>
      </trkpt>
      <trkpt lat="6.1515010" lon="-75.6141620">
        <ele>1591.1</ele>
        <time>2019-08-25T23:36:46Z</time>
      </trkpt>
      <trkpt lat="6.1515240" lon="-75.6141360">
        <ele>1590.8</ele>
        <time>2019-08-25T23:36:47Z</time>
      </trkpt>
      <trkpt lat="6.1515440" lon="-75.6141060">
        <ele>1590.5</ele>
        <time>2019-08-25T23:36:48Z</time>
      </trkpt>
      <trkpt lat="6.1515640" lon="-75.6140730">
        <ele>1590.1</ele>
        <time>2019-08-25T23:36:49Z</time>
      </trkpt>
      <trkpt lat="6.1515870" lon="-75.6140410">
        <ele>1589.8</ele>
        <time>2019-08-25T23:36:50Z</time>
      </trkpt>
      <trkpt lat="6.1516090" lon="-75.6140060">
        <ele>1589.5</ele>
        <time>2019-08-25T23:36:51Z</time>
      </trkpt>
      <trkpt lat="6.1516320" lon="-75.6139730">
        <ele>1589.1</ele>
        <time>2019-08-25T23:36:52Z</time>
      </trkpt>
      <trkpt lat="6.1516510" lon="-75.6139320">
        <ele>1589.0</ele>
        <time>2019-08-25T23:36:53Z</time>
      </trkpt>
      <trkpt lat="6.1516790" lon="-75.6139040">
        <ele>1588.9</ele>
        <time>2019-08-25T23:36:54Z</time>
      </trkpt>
      <trkpt lat="6.1517060" lon="-75.6138670">
        <ele>1588.7</ele>
        <time>2019-08-25T23:36:55Z</time>
      </trkpt>
      <trkpt lat="6.1517460" lon="-75.6138230">
        <ele>1588.5</ele>
        <time>2019-08-25T23:36:56Z</time>
      </trkpt>
      <trkpt lat="6.1517930" lon="-75.6137960">
        <ele>1588.4</ele>
        <time>2019-08-25T23:36:57Z</time>
      </trkpt>
      <trkpt lat="6.1518280" lon="-75.6137580">
        <ele>1588.2</ele>
        <time>2019-08-25T23:36:58Z</time>
      </trkpt>
      <trkpt lat="6.1518570" lon="-75.6137050">
        <ele>1588.0</ele>
        <time>2019-08-25T23:36:59Z</time>
      </trkpt>
      <trkpt lat="6.1519140" lon="-75.6136790">
        <ele>1587.8</ele>
        <time>2019-08-25T23:37:00Z</time>
      </trkpt>
      <trkpt lat="6.1519260" lon="-75.6136450">
        <ele>1587.7</ele>
        <time>2019-08-25T23:37:01Z</time>
      </trkpt>
      <trkpt lat="6.1519590" lon="-75.6135930">
        <ele>1587.5</ele>
        <time>2019-08-25T23:37:02Z</time>
      </trkpt>
      <trkpt lat="6.1519850" lon="-75.6135460">
        <ele>1587.4</ele>
        <time>2019-08-25T23:37:03Z</time>
      </trkpt>
      <trkpt lat="6.1520100" lon="-75.6134890">
        <ele>1587.2</ele>
        <time>2019-08-25T23:37:04Z</time>
      </trkpt>
      <trkpt lat="6.1520380" lon="-75.6134500">
        <ele>1587.1</ele>
        <time>2019-08-25T23:37:05Z</time>
      </trkpt>
      <trkpt lat="6.1520810" lon="-75.6134030">
        <ele>1586.5</ele>
        <time>2019-08-25T23:37:06Z</time>
      </trkpt>
      <trkpt lat="6.1521110" lon="-75.6133650">
        <ele>1586.2</ele>
        <time>2019-08-25T23:37:07Z</time>
      </trkpt>
      <trkpt lat="6.1521640" lon="-75.6133230">
        <ele>1586.2</ele>
        <time>2019-08-25T23:37:08Z</time>
      </trkpt>
      <trkpt lat="6.1522160" lon="-75.6132840">
        <ele>1586.2</ele>
        <time>2019-08-25T23:37:09Z</time>
      </trkpt>
      <trkpt lat="6.1522370" lon="-75.6132150">
        <ele>1586.2</ele>
        <time>2019-08-25T23:37:10Z</time>
      </trkpt>
      <trkpt lat="6.1522580" lon="-75.6131570">
        <ele>1586.2</ele>
        <time>2019-08-25T23:37:11Z</time>
      </trkpt>
      <trkpt lat="6.1522850" lon="-75.6131010">
        <ele>1586.2</ele>
        <time>2019-08-25T23:37:12Z</time>
      </trkpt>
      <trkpt lat="6.1522660" lon="-75.6130500">
        <ele>1586.2</ele>
        <time>2019-08-25T23:37:13Z</time>
      </trkpt>
      <trkpt lat="6.1522720" lon="-75.6129870">
        <ele>1586.2</ele>
        <time>2019-08-25T23:37:14Z</time>
      </trkpt>
      <trkpt lat="6.1522690" lon="-75.6129420">
        <ele>1586.2</ele>
        <time>2019-08-25T23:37:15Z</time>
      </trkpt>
      <trkpt lat="6.1522520" lon="-75.6128900">
        <ele>1586.3</ele>
        <time>2019-08-25T23:37:16Z</time>
      </trkpt>
      <trkpt lat="6.1522360" lon="-75.6128460">
        <ele>1586.3</ele>
        <time>2019-08-25T23:37:17Z</time>
      </trkpt>
      <trkpt lat="6.1522110" lon="-75.6127850">
        <ele>1586.1</ele>
        <time>2019-08-25T23:37:18Z</time>
      </trkpt>
      <trkpt lat="6.1521880" lon="-75.6127290">
        <ele>1585.6</ele>
        <time>2019-08-25T23:37:19Z</time>
      </trkpt>
      <trkpt lat="6.1521680" lon="-75.6126750">
        <ele>1584.9</ele>
        <time>2019-08-25T23:37:20Z</time>
      </trkpt>
      <trkpt lat="6.1521550" lon="-75.6126160">
        <ele>1584.3</ele>
        <time>2019-08-25T23:37:21Z</time>
      </trkpt>
      <trkpt lat="6.1521380" lon="-75.6125720">
        <ele>1583.8</ele>
        <time>2019-08-25T23:37:22Z</time>
      </trkpt>
      <trkpt lat="6.1521280" lon="-75.6125100">
        <ele>1583.2</ele>
        <time>2019-08-25T23:37:23Z</time>
      </trkpt>
      <trkpt lat="6.1521130" lon="-75.6124550">
        <ele>1582.7</ele>
        <time>2019-08-25T23:37:24Z</time>
      </trkpt>
      <trkpt lat="6.1520970" lon="-75.6123860">
        <ele>1581.6</ele>
        <time>2019-08-25T23:37:25Z</time>
      </trkpt>
      <trkpt lat="6.1520860" lon="-75.6123180">
        <ele>1581.9</ele>
        <time>2019-08-25T23:37:26Z</time>
      </trkpt>
      <trkpt lat="6.1520790" lon="-75.6122810">
        <ele>1582.1</ele>
        <time>2019-08-25T23:37:29Z</time>
      </trkpt>
      <trkpt lat="6.1520630" lon="-75.6122290">
        <ele>1582.4</ele>
        <time>2019-08-25T23:37:31Z</time>
      </trkpt>
      <trkpt lat="6.1520540" lon="-75.6121860">
        <ele>1582.6</ele>
        <time>2019-08-25T23:37:32Z</time>
      </trkpt>
      <trkpt lat="6.1520490" lon="-75.6121420">
        <ele>1582.9</ele>
        <time>2019-08-25T23:37:33Z</time>
      </trkpt>
      <trkpt lat="6.1520440" lon="-75.6120990">
        <ele>1583.2</ele>
        <time>2019-08-25T23:37:34Z</time>
      </trkpt>
      <trkpt lat="6.1520360" lon="-75.6120530">
        <ele>1583.7</ele>
        <time>2019-08-25T23:37:35Z</time>
      </trkpt>
      <trkpt lat="6.1520320" lon="-75.6120000">
        <ele>1584.2</ele>
        <time>2019-08-25T23:37:36Z</time>
      </trkpt>
      <trkpt lat="6.1520310" lon="-75.6119470">
        <ele>1584.7</ele>
        <time>2019-08-25T23:37:37Z</time>
      </trkpt>
      <trkpt lat="6.1520330" lon="-75.6118910">
        <ele>1585.1</ele>
        <time>2019-08-25T23:37:38Z</time>
      </trkpt>
      <trkpt lat="6.1520370" lon="-75.6118370">
        <ele>1585.5</ele>
        <time>2019-08-25T23:37:39Z</time>
      </trkpt>
      <trkpt lat="6.1520290" lon="-75.6117840">
        <ele>1585.9</ele>
        <time>2019-08-25T23:37:40Z</time>
      </trkpt>
      <trkpt lat="6.1520160" lon="-75.6117200">
        <ele>1586.3</ele>
        <time>2019-08-25T23:37:41Z</time>
      </trkpt>
      <trkpt lat="6.1520000" lon="-75.6116590">
        <ele>1586.4</ele>
        <time>2019-08-25T23:37:42Z</time>
      </trkpt>
      <trkpt lat="6.1519980" lon="-75.6116160">
        <ele>1586.4</ele>
        <time>2019-08-25T23:37:43Z</time>
      </trkpt>
      <trkpt lat="6.1520150" lon="-75.6115820">
        <ele>1586.5</ele>
        <time>2019-08-25T23:37:44Z</time>
      </trkpt>
      <trkpt lat="6.1520450" lon="-75.6115550">
        <ele>1586.5</ele>
        <time>2019-08-25T23:37:45Z</time>
      </trkpt>
      <trkpt lat="6.1520860" lon="-75.6115200">
        <ele>1586.6</ele>
        <time>2019-08-25T23:37:46Z</time>
      </trkpt>
      <trkpt lat="6.1521260" lon="-75.6114760">
        <ele>1586.7</ele>
        <time>2019-08-25T23:37:47Z</time>
      </trkpt>
      <trkpt lat="6.1521610" lon="-75.6114320">
        <ele>1586.8</ele>
        <time>2019-08-25T23:37:48Z</time>
      </trkpt>
      <trkpt lat="6.1521940" lon="-75.6113860">
        <ele>1586.9</ele>
        <time>2019-08-25T23:37:49Z</time>
      </trkpt>
      <trkpt lat="6.1522240" lon="-75.6113370">
        <ele>1587.0</ele>
        <time>2019-08-25T23:37:50Z</time>
      </trkpt>
      <trkpt lat="6.1522530" lon="-75.6112890">
        <ele>1587.1</ele>
        <time>2019-08-25T23:37:51Z</time>
      </trkpt>
      <trkpt lat="6.1522840" lon="-75.6112390">
        <ele>1586.4</ele>
        <time>2019-08-25T23:37:52Z</time>
      </trkpt>
      <trkpt lat="6.1523180" lon="-75.6111930">
        <ele>1585.8</ele>
        <time>2019-08-25T23:37:53Z</time>
      </trkpt>
      <trkpt lat="6.1523520" lon="-75.6111490">
        <ele>1585.1</ele>
        <time>2019-08-25T23:37:54Z</time>
      </trkpt>
      <trkpt lat="6.1523790" lon="-75.6111030">
        <ele>1584.5</ele>
        <time>2019-08-25T23:37:55Z</time>
      </trkpt>
      <trkpt lat="6.1524050" lon="-75.6110580">
        <ele>1583.9</ele>
        <time>2019-08-25T23:37:56Z</time>
      </trkpt>
      <trkpt lat="6.1524330" lon="-75.6110120">
        <ele>1583.2</ele>
        <time>2019-08-25T23:37:57Z</time>
      </trkpt>
      <trkpt lat="6.1524620" lon="-75.6109700">
        <ele>1582.6</ele>
        <time>2019-08-25T23:37:58Z</time>
      </trkpt>
      <trkpt lat="6.1524940" lon="-75.6109270">
        <ele>1583.0</ele>
        <time>2019-08-25T23:37:59Z</time>
      </trkpt>
      <trkpt lat="6.1525280" lon="-75.6108830">
        <ele>1583.3</ele>
        <time>2019-08-25T23:38:00Z</time>
      </trkpt>
      <trkpt lat="6.1525610" lon="-75.6108400">
        <ele>1583.6</ele>
        <time>2019-08-25T23:38:01Z</time>
      </trkpt>
      <trkpt lat="6.1525950" lon="-75.6107970">
        <ele>1583.9</ele>
        <time>2019-08-25T23:38:02Z</time>
      </trkpt>
      <trkpt lat="6.1526270" lon="-75.6107540">
        <ele>1584.2</ele>
        <time>2019-08-25T23:38:03Z</time>
      </trkpt>
      <trkpt lat="6.1526590" lon="-75.6107110">
        <ele>1584.7</ele>
        <time>2019-08-25T23:38:04Z</time>
      </trkpt>
      <trkpt lat="6.1526900" lon="-75.6106650">
        <ele>1585.0</ele>
        <time>2019-08-25T23:38:05Z</time>
      </trkpt>
      <trkpt lat="6.1527210" lon="-75.6106190">
        <ele>1585.3</ele>
        <time>2019-08-25T23:38:06Z</time>
      </trkpt>
      <trkpt lat="6.1527560" lon="-75.6105730">
        <ele>1585.6</ele>
        <time>2019-08-25T23:38:07Z</time>
      </trkpt>
      <trkpt lat="6.1527920" lon="-75.6105260">
        <ele>1585.9</ele>
        <time>2019-08-25T23:38:08Z</time>
      </trkpt>
      <trkpt lat="6.1528300" lon="-75.6104850">
        <ele>1586.2</ele>
        <time>2019-08-25T23:38:09Z</time>
      </trkpt>
      <trkpt lat="6.1528720" lon="-75.6104460">
        <ele>1586.5</ele>
        <time>2019-08-25T23:38:10Z</time>
      </trkpt>
      <trkpt lat="6.1529130" lon="-75.6104070">
        <ele>1586.8</ele>
        <time>2019-08-25T23:38:11Z</time>
      </trkpt>
      <trkpt lat="6.1529560" lon="-75.6103690">
        <ele>1587.1</ele>
        <time>2019-08-25T23:38:12Z</time>
      </trkpt>
      <trkpt lat="6.1529990" lon="-75.6103350">
        <ele>1587.3</ele>
        <time>2019-08-25T23:38:13Z</time>
      </trkpt>
      <trkpt lat="6.1530560" lon="-75.6103130">
        <ele>1587.5</ele>
        <time>2019-08-25T23:38:14Z</time>
      </trkpt>
      <trkpt lat="6.1531070" lon="-75.6102780">
        <ele>1587.7</ele>
        <time>2019-08-25T23:38:15Z</time>
      </trkpt>
      <trkpt lat="6.1531620" lon="-75.6102400">
        <ele>1587.9</ele>
        <time>2019-08-25T23:38:16Z</time>
      </trkpt>
      <trkpt lat="6.1532160" lon="-75.6102090">
        <ele>1587.7</ele>
        <time>2019-08-25T23:38:17Z</time>
      </trkpt>
      <trkpt lat="6.1532530" lon="-75.6101910">
        <ele>1587.6</ele>
        <time>2019-08-25T23:38:18Z</time>
      </trkpt>
      <trkpt lat="6.1533020" lon="-75.6101540">
        <ele>1587.4</ele>
        <time>2019-08-25T23:38:19Z</time>
      </trkpt>
      <trkpt lat="6.1533490" lon="-75.6101190">
        <ele>1586.9</ele>
        <time>2019-08-25T23:38:20Z</time>
      </trkpt>
      <trkpt lat="6.1533880" lon="-75.6100860">
        <ele>1586.5</ele>
        <time>2019-08-25T23:38:21Z</time>
      </trkpt>
      <trkpt lat="6.1534380" lon="-75.6100540">
        <ele>1586.0</ele>
        <time>2019-08-25T23:38:22Z</time>
      </trkpt>
      <trkpt lat="6.1534880" lon="-75.6100250">
        <ele>1585.6</ele>
        <time>2019-08-25T23:38:23Z</time>
      </trkpt>
      <trkpt lat="6.1535370" lon="-75.6099970">
        <ele>1585.1</ele>
        <time>2019-08-25T23:38:24Z</time>
      </trkpt>
      <trkpt lat="6.1535790" lon="-75.6099470">
        <ele>1584.6</ele>
        <time>2019-08-25T23:38:25Z</time>
      </trkpt>
      <trkpt lat="6.1536250" lon="-75.6099160">
        <ele>1584.1</ele>
        <time>2019-08-25T23:38:26Z</time>
      </trkpt>
      <trkpt lat="6.1536740" lon="-75.6098700">
        <ele>1583.9</ele>
        <time>2019-08-25T23:38:27Z</time>
      </trkpt>
      <trkpt lat="6.1537130" lon="-75.6098430">
        <ele>1583.9</ele>
        <time>2019-08-25T23:38:28Z</time>
      </trkpt>
      <trkpt lat="6.1537550" lon="-75.6098030">
        <ele>1583.9</ele>
        <time>2019-08-25T23:38:29Z</time>
      </trkpt>
      <trkpt lat="6.1537960" lon="-75.6097630">
        <ele>1583.9</ele>
        <time>2019-08-25T23:38:30Z</time>
      </trkpt>
      <trkpt lat="6.1538320" lon="-75.6097110">
        <ele>1583.9</ele>
        <time>2019-08-25T23:38:31Z</time>
      </trkpt>
      <trkpt lat="6.1538700" lon="-75.6096700">
        <ele>1583.9</ele>
        <time>2019-08-25T23:38:32Z</time>
      </trkpt>
      <trkpt lat="6.1539080" lon="-75.6096280">
        <ele>1584.0</ele>
        <time>2019-08-25T23:38:33Z</time>
      </trkpt>
      <trkpt lat="6.1539480" lon="-75.6095880">
        <ele>1584.3</ele>
        <time>2019-08-25T23:38:34Z</time>
      </trkpt>
      <trkpt lat="6.1539830" lon="-75.6095490">
        <ele>1584.5</ele>
        <time>2019-08-25T23:38:35Z</time>
      </trkpt>
      <trkpt lat="6.1540230" lon="-75.6095100">
        <ele>1584.8</ele>
        <time>2019-08-25T23:38:36Z</time>
      </trkpt>
      <trkpt lat="6.1540560" lon="-75.6094710">
        <ele>1584.9</ele>
        <time>2019-08-25T23:38:37Z</time>
      </trkpt>
      <trkpt lat="6.1540920" lon="-75.6094370">
        <ele>1585.0</ele>
        <time>2019-08-25T23:38:38Z</time>
      </trkpt>
      <trkpt lat="6.1541280" lon="-75.6093960">
        <ele>1585.2</ele>
        <time>2019-08-25T23:38:39Z</time>
      </trkpt>
      <trkpt lat="6.1541570" lon="-75.6093380">
        <ele>1585.6</ele>
        <time>2019-08-25T23:38:40Z</time>
      </trkpt>
      <trkpt lat="6.1541880" lon="-75.6092960">
        <ele>1586.0</ele>
        <time>2019-08-25T23:38:41Z</time>
      </trkpt>
      <trkpt lat="6.1542210" lon="-75.6092530">
        <ele>1586.4</ele>
        <time>2019-08-25T23:38:42Z</time>
      </trkpt>
      <trkpt lat="6.1542620" lon="-75.6092230">
        <ele>1586.7</ele>
        <time>2019-08-25T23:38:43Z</time>
      </trkpt>
      <trkpt lat="6.1542970" lon="-75.6091980">
        <ele>1587.0</ele>
        <time>2019-08-25T23:38:44Z</time>
      </trkpt>
      <trkpt lat="6.1543170" lon="-75.6091670">
        <ele>1587.0</ele>
        <time>2019-08-25T23:38:45Z</time>
      </trkpt>
      <trkpt lat="6.1543530" lon="-75.6091310">
        <ele>1587.1</ele>
        <time>2019-08-25T23:38:46Z</time>
      </trkpt>
      <trkpt lat="6.1543850" lon="-75.6090920">
        <ele>1587.1</ele>
        <time>2019-08-25T23:38:47Z</time>
      </trkpt>
      <trkpt lat="6.1544120" lon="-75.6090530">
        <ele>1587.1</ele>
        <time>2019-08-25T23:38:48Z</time>
      </trkpt>
      <trkpt lat="6.1544420" lon="-75.6090110">
        <ele>1587.2</ele>
        <time>2019-08-25T23:38:49Z</time>
      </trkpt>
      <trkpt lat="6.1544700" lon="-75.6089730">
        <ele>1587.3</ele>
        <time>2019-08-25T23:38:50Z</time>
      </trkpt>
      <trkpt lat="6.1545090" lon="-75.6089410">
        <ele>1587.4</ele>
        <time>2019-08-25T23:38:51Z</time>
      </trkpt>
      <trkpt lat="6.1545300" lon="-75.6089030">
        <ele>1587.5</ele>
        <time>2019-08-25T23:38:52Z</time>
      </trkpt>
      <trkpt lat="6.1545540" lon="-75.6088690">
        <ele>1587.7</ele>
        <time>2019-08-25T23:38:53Z</time>
      </trkpt>
      <trkpt lat="6.1545600" lon="-75.6088240">
        <ele>1587.8</ele>
        <time>2019-08-25T23:38:54Z</time>
      </trkpt>
      <trkpt lat="6.1545920" lon="-75.6087860">
        <ele>1587.9</ele>
        <time>2019-08-25T23:38:55Z</time>
      </trkpt>
      <trkpt lat="6.1546210" lon="-75.6087550">
        <ele>1588.0</ele>
        <time>2019-08-25T23:38:56Z</time>
      </trkpt>
      <trkpt lat="6.1546500" lon="-75.6087230">
        <ele>1588.0</ele>
        <time>2019-08-25T23:38:57Z</time>
      </trkpt>
      <trkpt lat="6.1546830" lon="-75.6086880">
        <ele>1588.0</ele>
        <time>2019-08-25T23:38:58Z</time>
      </trkpt>
      <trkpt lat="6.1547170" lon="-75.6086570">
        <ele>1588.1</ele>
        <time>2019-08-25T23:38:59Z</time>
      </trkpt>
      <trkpt lat="6.1547460" lon="-75.6086170">
        <ele>1588.1</ele>
        <time>2019-08-25T23:39:00Z</time>
      </trkpt>
      <trkpt lat="6.1547830" lon="-75.6085870">
        <ele>1587.8</ele>
        <time>2019-08-25T23:39:01Z</time>
      </trkpt>
      <trkpt lat="6.1548040" lon="-75.6085640">
        <ele>1587.7</ele>
        <time>2019-08-25T23:39:02Z</time>
      </trkpt>
      <trkpt lat="6.1548320" lon="-75.6085360">
        <ele>1587.5</ele>
        <time>2019-08-25T23:39:03Z</time>
      </trkpt>
      <trkpt lat="6.1548630" lon="-75.6085050">
        <ele>1587.3</ele>
        <time>2019-08-25T23:39:04Z</time>
      </trkpt>
      <trkpt lat="6.1548840" lon="-75.6084830">
        <ele>1587.2</ele>
        <time>2019-08-25T23:39:05Z</time>
      </trkpt>
      <trkpt lat="6.1549080" lon="-75.6084510">
        <ele>1587.0</ele>
        <time>2019-08-25T23:39:06Z</time>
      </trkpt>
      <trkpt lat="6.1549320" lon="-75.6084210">
        <ele>1586.9</ele>
        <time>2019-08-25T23:39:07Z</time>
      </trkpt>
      <trkpt lat="6.1549550" lon="-75.6083940">
        <ele>1586.7</ele>
        <time>2019-08-25T23:39:08Z</time>
      </trkpt>
      <trkpt lat="6.1549770" lon="-75.6083650">
        <ele>1586.6</ele>
        <time>2019-08-25T23:39:09Z</time>
      </trkpt>
      <trkpt lat="6.1549980" lon="-75.6083400">
        <ele>1586.5</ele>
        <time>2019-08-25T23:39:10Z</time>
      </trkpt>
      <trkpt lat="6.1550190" lon="-75.6083120">
        <ele>1586.4</ele>
        <time>2019-08-25T23:39:11Z</time>
      </trkpt>
      <trkpt lat="6.1550420" lon="-75.6082790">
        <ele>1586.3</ele>
        <time>2019-08-25T23:39:12Z</time>
      </trkpt>
      <trkpt lat="6.1550670" lon="-75.6082470">
        <ele>1586.2</ele>
        <time>2019-08-25T23:39:13Z</time>
      </trkpt>
      <trkpt lat="6.1550900" lon="-75.6082170">
        <ele>1586.1</ele>
        <time>2019-08-25T23:39:14Z</time>
      </trkpt>
      <trkpt lat="6.1551140" lon="-75.6081880">
        <ele>1586.0</ele>
        <time>2019-08-25T23:39:15Z</time>
      </trkpt>
      <trkpt lat="6.1551390" lon="-75.6081550">
        <ele>1585.9</ele>
        <time>2019-08-25T23:39:16Z</time>
      </trkpt>
      <trkpt lat="6.1551640" lon="-75.6081220">
        <ele>1585.7</ele>
        <time>2019-08-25T23:39:17Z</time>
      </trkpt>
      <trkpt lat="6.1551900" lon="-75.6080910">
        <ele>1585.5</ele>
        <time>2019-08-25T23:39:18Z</time>
      </trkpt>
      <trkpt lat="6.1552160" lon="-75.6080610">
        <ele>1585.2</ele>
        <time>2019-08-25T23:39:19Z</time>
      </trkpt>
      <trkpt lat="6.1552390" lon="-75.6080310">
        <ele>1584.9</ele>
        <time>2019-08-25T23:39:20Z</time>
      </trkpt>
      <trkpt lat="6.1552630" lon="-75.6079990">
        <ele>1584.6</ele>
        <time>2019-08-25T23:39:21Z</time>
      </trkpt>
      <trkpt lat="6.1552830" lon="-75.6079670">
        <ele>1584.3</ele>
        <time>2019-08-25T23:39:22Z</time>
      </trkpt>
      <trkpt lat="6.1553000" lon="-75.6079370">
        <ele>1583.9</ele>
        <time>2019-08-25T23:39:23Z</time>
      </trkpt>
      <trkpt lat="6.1553130" lon="-75.6079080">
        <ele>1583.9</ele>
        <time>2019-08-25T23:39:24Z</time>
      </trkpt>
      <trkpt lat="6.1553230" lon="-75.6078770">
        <ele>1583.9</ele>
        <time>2019-08-25T23:39:25Z</time>
      </trkpt>
      <trkpt lat="6.1553310" lon="-75.6078340">
        <ele>1584.0</ele>
        <time>2019-08-25T23:39:27Z</time>
      </trkpt>
      <trkpt lat="6.1553010" lon="-75.6078190">
        <ele>1584.1</ele>
        <time>2019-08-25T23:39:31Z</time>
      </trkpt>
      <trkpt lat="6.1552740" lon="-75.6078120">
        <ele>1584.1</ele>
        <time>2019-08-25T23:39:35Z</time>
      </trkpt>
      <trkpt lat="6.1552460" lon="-75.6077920">
        <ele>1584.3</ele>
        <time>2019-08-25T23:39:37Z</time>
      </trkpt>
      <trkpt lat="6.1552120" lon="-75.6077780">
        <ele>1584.6</ele>
        <time>2019-08-25T23:39:39Z</time>
      </trkpt>
      <trkpt lat="6.1551850" lon="-75.6077690">
        <ele>1584.9</ele>
        <time>2019-08-25T23:39:40Z</time>
      </trkpt>
      <trkpt lat="6.1551560" lon="-75.6077550">
        <ele>1585.1</ele>
        <time>2019-08-25T23:39:41Z</time>
      </trkpt>
      <trkpt lat="6.1551260" lon="-75.6077360">
        <ele>1585.4</ele>
        <time>2019-08-25T23:39:42Z</time>
      </trkpt>
      <trkpt lat="6.1551010" lon="-75.6077130">
        <ele>1585.6</ele>
        <time>2019-08-25T23:39:43Z</time>
      </trkpt>
      <trkpt lat="6.1550820" lon="-75.6076850">
        <ele>1586.0</ele>
        <time>2019-08-25T23:39:44Z</time>
      </trkpt>
      <trkpt lat="6.1550650" lon="-75.6076520">
        <ele>1586.6</ele>
        <time>2019-08-25T23:39:45Z</time>
      </trkpt>
      <trkpt lat="6.1550470" lon="-75.6076180">
        <ele>1587.1</ele>
        <time>2019-08-25T23:39:46Z</time>
      </trkpt>
      <trkpt lat="6.1550220" lon="-75.6075860">
        <ele>1587.4</ele>
        <time>2019-08-25T23:39:47Z</time>
      </trkpt>
      <trkpt lat="6.1549930" lon="-75.6075630">
        <ele>1587.6</ele>
        <time>2019-08-25T23:39:48Z</time>
      </trkpt>
      <trkpt lat="6.1549650" lon="-75.6075470">
        <ele>1587.9</ele>
        <time>2019-08-25T23:39:49Z</time>
      </trkpt>
      <trkpt lat="6.1549340" lon="-75.6075300">
        <ele>1588.1</ele>
        <time>2019-08-25T23:39:50Z</time>
      </trkpt>
      <trkpt lat="6.1549020" lon="-75.6075080">
        <ele>1588.4</ele>
        <time>2019-08-25T23:39:51Z</time>
      </trkpt>
      <trkpt lat="6.1548720" lon="-75.6074840">
        <ele>1589.0</ele>
        <time>2019-08-25T23:39:52Z</time>
      </trkpt>
      <trkpt lat="6.1548470" lon="-75.6074630">
        <ele>1589.6</ele>
        <time>2019-08-25T23:39:53Z</time>
      </trkpt>
      <trkpt lat="6.1548200" lon="-75.6074450">
        <ele>1590.2</ele>
        <time>2019-08-25T23:39:54Z</time>
      </trkpt>
      <trkpt lat="6.1547890" lon="-75.6074350">
        <ele>1590.7</ele>
        <time>2019-08-25T23:39:55Z</time>
      </trkpt>
      <trkpt lat="6.1547610" lon="-75.6074390">
        <ele>1591.0</ele>
        <time>2019-08-25T23:39:56Z</time>
      </trkpt>
      <trkpt lat="6.1547200" lon="-75.6074760">
        <ele>1591.5</ele>
        <time>2019-08-25T23:39:58Z</time>
      </trkpt>
      <trkpt lat="6.1547050" lon="-75.6075030">
        <ele>1592.0</ele>
        <time>2019-08-25T23:39:59Z</time>
      </trkpt>
      <trkpt lat="6.1546900" lon="-75.6075290">
        <ele>1592.5</ele>
        <time>2019-08-25T23:40:00Z</time>
      </trkpt>
      <trkpt lat="6.1546750" lon="-75.6075530">
        <ele>1593.0</ele>
        <time>2019-08-25T23:40:01Z</time>
      </trkpt>
      <trkpt lat="6.1546570" lon="-75.6075790">
        <ele>1593.9</ele>
        <time>2019-08-25T23:40:02Z</time>
      </trkpt>
      <trkpt lat="6.1546370" lon="-75.6076030">
        <ele>1594.8</ele>
        <time>2019-08-25T23:40:03Z</time>
      </trkpt>
      <trkpt lat="6.1546210" lon="-75.6076250">
        <ele>1595.6</ele>
        <time>2019-08-25T23:40:04Z</time>
      </trkpt>
      <trkpt lat="6.1546020" lon="-75.6076660">
        <ele>1596.0</ele>
        <time>2019-08-25T23:40:06Z</time>
      </trkpt>
      <trkpt lat="6.1546090" lon="-75.6077070">
        <ele>1596.3</ele>
        <time>2019-08-25T23:40:08Z</time>
      </trkpt>
      <trkpt lat="6.1546190" lon="-75.6077410">
        <ele>1596.4</ele>
        <time>2019-08-25T23:40:10Z</time>
      </trkpt>
      <trkpt lat="6.1546230" lon="-75.6077680">
        <ele>1596.5</ele>
        <time>2019-08-25T23:40:18Z</time>
      </trkpt>
      <trkpt lat="6.1546200" lon="-75.6077400">
        <ele>1596.6</ele>
        <time>2019-08-25T23:40:26Z</time>
      </trkpt>
      <trkpt lat="6.1546330" lon="-75.6077730">
        <ele>1596.6</ele>
        <time>2019-08-25T23:40:33Z</time>
      </trkpt>
      <trkpt lat="6.1546320" lon="-75.6078030">
        <ele>1596.5</ele>
        <time>2019-08-25T23:40:36Z</time>
      </trkpt>
      <trkpt lat="6.1546060" lon="-75.6078130">
        <ele>1596.4</ele>
        <time>2019-08-25T23:40:39Z</time>
      </trkpt>
    </trkseg>
  </trk>
</gpx>
